<?xml version="1.0" encoding="UTF-8" standalone="no" ?>
<gpx xmlns="http://www.topografix.com/GPX/1/1" xmlns:xsi="http://www.w3.org/2001/XMLSchema-instance" xsi:schemaLocation="http://www.topografix.com/GPX/1/1 http://www.topografix.com/GPX/1/1/gpx.xsd" version="1.1" creator="VisuGPX - https://www.visugpx.com">
  <metadata>
    <name>CO_ESN_Complet Rouge</name>
    <desc><![CDATA[Course d\'Orientation de niveau Rouge au départ de l\'ESN 
18-25-27-28-31-32-33-34]]></desc>
  </metadata>
  <trk>
    <name><![CDATA[Track_2013_03_06_13_52_11]]></name>
    <trkseg>
      <trkpt lat="44.36602" lon="2.85043">
        <ele>642</ele>
        <time>2013-03-06T12:52:11.000Z</time>
      </trkpt>
      <trkpt lat="44.36603" lon="2.85041">
        <ele>642</ele>
        <time>2013-03-06T12:52:17.980Z</time>
      </trkpt>
      <trkpt lat="44.36602" lon="2.85041">
        <ele>642</ele>
        <time>2013-03-06T12:52:24.970Z</time>
      </trkpt>
      <trkpt lat="44.36602" lon="2.85039">
        <ele>642</ele>
        <time>2013-03-06T12:52:26.980Z</time>
      </trkpt>
      <trkpt lat="44.36602" lon="2.85037">
        <ele>642</ele>
        <time>2013-03-06T12:52:27.970Z</time>
      </trkpt>
      <trkpt lat="44.36602" lon="2.85036">
        <ele>642</ele>
        <time>2013-03-06T12:52:29.070Z</time>
      </trkpt>
      <trkpt lat="44.366" lon="2.85032">
        <ele>642</ele>
        <time>2013-03-06T12:52:30.980Z</time>
      </trkpt>
      <trkpt lat="44.36599" lon="2.85029">
        <ele>642</ele>
        <time>2013-03-06T12:52:32.020Z</time>
      </trkpt>
      <trkpt lat="44.36597" lon="2.85027">
        <ele>642</ele>
        <time>2013-03-06T12:52:34.070Z</time>
      </trkpt>
      <trkpt lat="44.36596" lon="2.85023">
        <ele>642</ele>
        <time>2013-03-06T12:52:35.970Z</time>
      </trkpt>
      <trkpt lat="44.36595" lon="2.85021">
        <ele>642</ele>
        <time>2013-03-06T12:52:36.980Z</time>
      </trkpt>
      <trkpt lat="44.36594" lon="2.85019">
        <ele>642</ele>
        <time>2013-03-06T12:52:37.970Z</time>
      </trkpt>
      <trkpt lat="44.36594" lon="2.85016">
        <ele>642</ele>
        <time>2013-03-06T12:52:39.110Z</time>
      </trkpt>
      <trkpt lat="44.36594" lon="2.85011">
        <ele>642</ele>
        <time>2013-03-06T12:52:40.980Z</time>
      </trkpt>
      <trkpt lat="44.36594" lon="2.85009">
        <ele>642</ele>
        <time>2013-03-06T12:52:41.970Z</time>
      </trkpt>
      <trkpt lat="44.36595" lon="2.85006">
        <ele>642</ele>
        <time>2013-03-06T12:52:42.970Z</time>
      </trkpt>
      <trkpt lat="44.36595" lon="2.85004">
        <ele>642</ele>
        <time>2013-03-06T12:52:44.090Z</time>
      </trkpt>
      <trkpt lat="44.36597" lon="2.84999">
        <ele>642</ele>
        <time>2013-03-06T12:52:45.970Z</time>
      </trkpt>
      <trkpt lat="44.36598" lon="2.84996">
        <ele>642</ele>
        <time>2013-03-06T12:52:46.970Z</time>
      </trkpt>
      <trkpt lat="44.366" lon="2.84993">
        <ele>641</ele>
        <time>2013-03-06T12:52:48.020Z</time>
      </trkpt>
      <trkpt lat="44.36603" lon="2.84987">
        <ele>641</ele>
        <time>2013-03-06T12:52:50.030Z</time>
      </trkpt>
      <trkpt lat="44.36604" lon="2.8498">
        <ele>641</ele>
        <time>2013-03-06T12:52:52.050Z</time>
      </trkpt>
      <trkpt lat="44.36603" lon="2.84974">
        <ele>641</ele>
        <time>2013-03-06T12:52:54.080Z</time>
      </trkpt>
      <trkpt lat="44.366" lon="2.84969">
        <ele>641</ele>
        <time>2013-03-06T12:52:56.070Z</time>
      </trkpt>
      <trkpt lat="44.36599" lon="2.84966">
        <ele>641</ele>
        <time>2013-03-06T12:52:56.970Z</time>
      </trkpt>
      <trkpt lat="44.36597" lon="2.84962">
        <ele>641</ele>
        <time>2013-03-06T12:52:58.070Z</time>
      </trkpt>
      <trkpt lat="44.36595" lon="2.84959">
        <ele>641</ele>
        <time>2013-03-06T12:52:59.000Z</time>
      </trkpt>
      <trkpt lat="44.36593" lon="2.84955">
        <ele>641</ele>
        <time>2013-03-06T12:52:59.970Z</time>
      </trkpt>
      <trkpt lat="44.36592" lon="2.84952">
        <ele>641</ele>
        <time>2013-03-06T12:53:01.060Z</time>
      </trkpt>
      <trkpt lat="44.3659" lon="2.84948">
        <ele>641</ele>
        <time>2013-03-06T12:53:01.970Z</time>
      </trkpt>
      <trkpt lat="44.36588" lon="2.84943">
        <ele>640</ele>
        <time>2013-03-06T12:53:03.060Z</time>
      </trkpt>
      <trkpt lat="44.36587" lon="2.84939">
        <ele>640</ele>
        <time>2013-03-06T12:53:03.970Z</time>
      </trkpt>
      <trkpt lat="44.36586" lon="2.84935">
        <ele>640</ele>
        <time>2013-03-06T12:53:05.060Z</time>
      </trkpt>
      <trkpt lat="44.36584" lon="2.84929">
        <ele>640</ele>
        <time>2013-03-06T12:53:07.060Z</time>
      </trkpt>
      <trkpt lat="44.36584" lon="2.84925">
        <ele>640</ele>
        <time>2013-03-06T12:53:07.970Z</time>
      </trkpt>
      <trkpt lat="44.36584" lon="2.84921">
        <ele>639</ele>
        <time>2013-03-06T12:53:09.070Z</time>
      </trkpt>
      <trkpt lat="44.36582" lon="2.84915">
        <ele>639</ele>
        <time>2013-03-06T12:53:11.060Z</time>
      </trkpt>
      <trkpt lat="44.36581" lon="2.84912">
        <ele>639</ele>
        <time>2013-03-06T12:53:11.970Z</time>
      </trkpt>
      <trkpt lat="44.36579" lon="2.84908">
        <ele>640</ele>
        <time>2013-03-06T12:53:13.060Z</time>
      </trkpt>
      <trkpt lat="44.36577" lon="2.84905">
        <ele>640</ele>
        <time>2013-03-06T12:53:13.970Z</time>
      </trkpt>
      <trkpt lat="44.36574" lon="2.84903">
        <ele>640</ele>
        <time>2013-03-06T12:53:15.060Z</time>
      </trkpt>
      <trkpt lat="44.36571" lon="2.849">
        <ele>640</ele>
        <time>2013-03-06T12:53:15.980Z</time>
      </trkpt>
      <trkpt lat="44.36568" lon="2.84898">
        <ele>640</ele>
        <time>2013-03-06T12:53:17.040Z</time>
      </trkpt>
      <trkpt lat="44.36563" lon="2.84894">
        <ele>641</ele>
        <time>2013-03-06T12:53:19.080Z</time>
      </trkpt>
      <trkpt lat="44.36558" lon="2.8489">
        <ele>641</ele>
        <time>2013-03-06T12:53:20.970Z</time>
      </trkpt>
      <trkpt lat="44.36555" lon="2.84888">
        <ele>641</ele>
        <time>2013-03-06T12:53:22.060Z</time>
      </trkpt>
      <trkpt lat="44.36552" lon="2.84885">
        <ele>641</ele>
        <time>2013-03-06T12:53:22.970Z</time>
      </trkpt>
      <trkpt lat="44.36549" lon="2.84883">
        <ele>641</ele>
        <time>2013-03-06T12:53:24.070Z</time>
      </trkpt>
      <trkpt lat="44.36543" lon="2.8488">
        <ele>641</ele>
        <time>2013-03-06T12:53:26.060Z</time>
      </trkpt>
      <trkpt lat="44.36537" lon="2.84877">
        <ele>641</ele>
        <time>2013-03-06T12:53:28.060Z</time>
      </trkpt>
      <trkpt lat="44.36534" lon="2.84875">
        <ele>641</ele>
        <time>2013-03-06T12:53:28.970Z</time>
      </trkpt>
      <trkpt lat="44.36531" lon="2.84873">
        <ele>642</ele>
        <time>2013-03-06T12:53:30.060Z</time>
      </trkpt>
      <trkpt lat="44.36528" lon="2.84871">
        <ele>642</ele>
        <time>2013-03-06T12:53:30.970Z</time>
      </trkpt>
      <trkpt lat="44.36525" lon="2.84869">
        <ele>642</ele>
        <time>2013-03-06T12:53:31.970Z</time>
      </trkpt>
      <trkpt lat="44.36522" lon="2.84868">
        <ele>642</ele>
        <time>2013-03-06T12:53:33.010Z</time>
      </trkpt>
      <trkpt lat="44.36519" lon="2.84867">
        <ele>642</ele>
        <time>2013-03-06T12:53:33.970Z</time>
      </trkpt>
      <trkpt lat="44.36517" lon="2.84865">
        <ele>642</ele>
        <time>2013-03-06T12:53:35.060Z</time>
      </trkpt>
      <trkpt lat="44.36513" lon="2.84861">
        <ele>642</ele>
        <time>2013-03-06T12:53:37.060Z</time>
      </trkpt>
      <trkpt lat="44.3651" lon="2.84859">
        <ele>642</ele>
        <time>2013-03-06T12:53:37.970Z</time>
      </trkpt>
      <trkpt lat="44.36508" lon="2.84857">
        <ele>642</ele>
        <time>2013-03-06T12:53:39.090Z</time>
      </trkpt>
      <trkpt lat="44.36502" lon="2.84853">
        <ele>643</ele>
        <time>2013-03-06T12:53:40.970Z</time>
      </trkpt>
      <trkpt lat="44.36499" lon="2.84852">
        <ele>644</ele>
        <time>2013-03-06T12:53:42.100Z</time>
      </trkpt>
      <trkpt lat="44.36493" lon="2.84851">
        <ele>644</ele>
        <time>2013-03-06T12:53:43.970Z</time>
      </trkpt>
      <trkpt lat="44.3649" lon="2.8485">
        <ele>644</ele>
        <time>2013-03-06T12:53:45.050Z</time>
      </trkpt>
      <trkpt lat="44.36483" lon="2.84848">
        <ele>644</ele>
        <time>2013-03-06T12:53:47.050Z</time>
      </trkpt>
      <trkpt lat="44.36481" lon="2.84847">
        <ele>644</ele>
        <time>2013-03-06T12:53:47.970Z</time>
      </trkpt>
      <trkpt lat="44.36478" lon="2.84846">
        <ele>644</ele>
        <time>2013-03-06T12:53:49.070Z</time>
      </trkpt>
      <trkpt lat="44.36472" lon="2.84843">
        <ele>644</ele>
        <time>2013-03-06T12:53:51.050Z</time>
      </trkpt>
      <trkpt lat="44.36466" lon="2.8484">
        <ele>644</ele>
        <time>2013-03-06T12:53:52.970Z</time>
      </trkpt>
      <trkpt lat="44.36463" lon="2.84839">
        <ele>644</ele>
        <time>2013-03-06T12:53:53.970Z</time>
      </trkpt>
      <trkpt lat="44.3646" lon="2.84837">
        <ele>644</ele>
        <time>2013-03-06T12:53:54.970Z</time>
      </trkpt>
      <trkpt lat="44.36457" lon="2.84836">
        <ele>644</ele>
        <time>2013-03-06T12:53:55.970Z</time>
      </trkpt>
      <trkpt lat="44.36453" lon="2.84834">
        <ele>644</ele>
        <time>2013-03-06T12:53:56.970Z</time>
      </trkpt>
      <trkpt lat="44.3645" lon="2.84833">
        <ele>644</ele>
        <time>2013-03-06T12:53:57.970Z</time>
      </trkpt>
      <trkpt lat="44.36447" lon="2.84831">
        <ele>644</ele>
        <time>2013-03-06T12:53:59.000Z</time>
      </trkpt>
      <trkpt lat="44.36444" lon="2.84829">
        <ele>644</ele>
        <time>2013-03-06T12:54:00.050Z</time>
      </trkpt>
      <trkpt lat="44.36437" lon="2.84825">
        <ele>644</ele>
        <time>2013-03-06T12:54:01.970Z</time>
      </trkpt>
      <trkpt lat="44.36434" lon="2.84823">
        <ele>644</ele>
        <time>2013-03-06T12:54:02.970Z</time>
      </trkpt>
      <trkpt lat="44.36431" lon="2.84822">
        <ele>644</ele>
        <time>2013-03-06T12:54:03.970Z</time>
      </trkpt>
      <trkpt lat="44.36428" lon="2.8482">
        <ele>644</ele>
        <time>2013-03-06T12:54:05.050Z</time>
      </trkpt>
      <trkpt lat="44.36425" lon="2.84819">
        <ele>644</ele>
        <time>2013-03-06T12:54:06.050Z</time>
      </trkpt>
      <trkpt lat="44.36419" lon="2.84817">
        <ele>644</ele>
        <time>2013-03-06T12:54:08.050Z</time>
      </trkpt>
      <trkpt lat="44.36416" lon="2.84816">
        <ele>646</ele>
        <time>2013-03-06T12:54:09.170Z</time>
      </trkpt>
      <trkpt lat="44.3641" lon="2.84813">
        <ele>646</ele>
        <time>2013-03-06T12:54:10.970Z</time>
      </trkpt>
      <trkpt lat="44.36408" lon="2.84812">
        <ele>646</ele>
        <time>2013-03-06T12:54:11.970Z</time>
      </trkpt>
      <trkpt lat="44.36405" lon="2.84811">
        <ele>646</ele>
        <time>2013-03-06T12:54:12.970Z</time>
      </trkpt>
      <trkpt lat="44.36402" lon="2.84809">
        <ele>647</ele>
        <time>2013-03-06T12:54:13.970Z</time>
      </trkpt>
      <trkpt lat="44.36399" lon="2.84808">
        <ele>647</ele>
        <time>2013-03-06T12:54:14.970Z</time>
      </trkpt>
      <trkpt lat="44.36396" lon="2.84808">
        <ele>647</ele>
        <time>2013-03-06T12:54:15.980Z</time>
      </trkpt>
      <trkpt lat="44.36394" lon="2.84807">
        <ele>647</ele>
        <time>2013-03-06T12:54:17.050Z</time>
      </trkpt>
      <trkpt lat="44.36391" lon="2.84807">
        <ele>647</ele>
        <time>2013-03-06T12:54:18.050Z</time>
      </trkpt>
      <trkpt lat="44.36388" lon="2.84806">
        <ele>647</ele>
        <time>2013-03-06T12:54:19.070Z</time>
      </trkpt>
      <trkpt lat="44.36383" lon="2.84805">
        <ele>647</ele>
        <time>2013-03-06T12:54:21.050Z</time>
      </trkpt>
      <trkpt lat="44.36378" lon="2.84804">
        <ele>648</ele>
        <time>2013-03-06T12:54:23.030Z</time>
      </trkpt>
      <trkpt lat="44.36375" lon="2.84803">
        <ele>648</ele>
        <time>2013-03-06T12:54:24.050Z</time>
      </trkpt>
      <trkpt lat="44.3637" lon="2.84803">
        <ele>648</ele>
        <time>2013-03-06T12:54:25.970Z</time>
      </trkpt>
      <trkpt lat="44.36367" lon="2.84803">
        <ele>648</ele>
        <time>2013-03-06T12:54:27.040Z</time>
      </trkpt>
      <trkpt lat="44.36364" lon="2.84804">
        <ele>648</ele>
        <time>2013-03-06T12:54:28.050Z</time>
      </trkpt>
      <trkpt lat="44.36362" lon="2.84804">
        <ele>648</ele>
        <time>2013-03-06T12:54:30.040Z</time>
      </trkpt>
      <trkpt lat="44.36361" lon="2.84804">
        <ele>648</ele>
        <time>2013-03-06T12:54:31.040Z</time>
      </trkpt>
      <trkpt lat="44.36359" lon="2.84803">
        <ele>648</ele>
        <time>2013-03-06T12:54:33.000Z</time>
      </trkpt>
      <trkpt lat="44.3636" lon="2.84801">
        <ele>648</ele>
        <time>2013-03-06T12:54:35.040Z</time>
      </trkpt>
      <trkpt lat="44.36361" lon="2.848">
        <ele>648</ele>
        <time>2013-03-06T12:54:38.040Z</time>
      </trkpt>
      <trkpt lat="44.36359" lon="2.84801">
        <ele>648</ele>
        <time>2013-03-06T12:54:40.040Z</time>
      </trkpt>
      <trkpt lat="44.36356" lon="2.848">
        <ele>648</ele>
        <time>2013-03-06T12:54:41.040Z</time>
      </trkpt>
      <trkpt lat="44.36353" lon="2.848">
        <ele>648</ele>
        <time>2013-03-06T12:54:42.040Z</time>
      </trkpt>
      <trkpt lat="44.3635" lon="2.848">
        <ele>648</ele>
        <time>2013-03-06T12:54:43.040Z</time>
      </trkpt>
      <trkpt lat="44.36347" lon="2.848">
        <ele>649</ele>
        <time>2013-03-06T12:54:44.170Z</time>
      </trkpt>
      <trkpt lat="44.3634" lon="2.84799">
        <ele>649</ele>
        <time>2013-03-06T12:54:45.970Z</time>
      </trkpt>
      <trkpt lat="44.36337" lon="2.84799">
        <ele>649</ele>
        <time>2013-03-06T12:54:46.970Z</time>
      </trkpt>
      <trkpt lat="44.36334" lon="2.84799">
        <ele>649</ele>
        <time>2013-03-06T12:54:47.970Z</time>
      </trkpt>
      <trkpt lat="44.36331" lon="2.84799">
        <ele>652</ele>
        <time>2013-03-06T12:54:48.970Z</time>
      </trkpt>
      <trkpt lat="44.36329" lon="2.84798">
        <ele>652</ele>
        <time>2013-03-06T12:54:49.980Z</time>
      </trkpt>
      <trkpt lat="44.36325" lon="2.84798">
        <ele>652</ele>
        <time>2013-03-06T12:54:51.020Z</time>
      </trkpt>
      <trkpt lat="44.36321" lon="2.84799">
        <ele>652</ele>
        <time>2013-03-06T12:54:52.040Z</time>
      </trkpt>
      <trkpt lat="44.36317" lon="2.84799">
        <ele>652</ele>
        <time>2013-03-06T12:54:53.050Z</time>
      </trkpt>
      <trkpt lat="44.3631" lon="2.848">
        <ele>652</ele>
        <time>2013-03-06T12:54:55.040Z</time>
      </trkpt>
      <trkpt lat="44.36307" lon="2.84799">
        <ele>652</ele>
        <time>2013-03-06T12:54:56.040Z</time>
      </trkpt>
      <trkpt lat="44.363" lon="2.84801">
        <ele>652</ele>
        <time>2013-03-06T12:54:58.040Z</time>
      </trkpt>
      <trkpt lat="44.36296" lon="2.84801">
        <ele>653</ele>
        <time>2013-03-06T12:54:59.140Z</time>
      </trkpt>
      <trkpt lat="44.36291" lon="2.84801">
        <ele>653</ele>
        <time>2013-03-06T12:55:01.040Z</time>
      </trkpt>
      <trkpt lat="44.36289" lon="2.84801">
        <ele>653</ele>
        <time>2013-03-06T12:55:02.020Z</time>
      </trkpt>
      <trkpt lat="44.36285" lon="2.84801">
        <ele>653</ele>
        <time>2013-03-06T12:55:03.040Z</time>
      </trkpt>
      <trkpt lat="44.36282" lon="2.84802">
        <ele>653</ele>
        <time>2013-03-06T12:55:04.080Z</time>
      </trkpt>
      <trkpt lat="44.36277" lon="2.84803">
        <ele>653</ele>
        <time>2013-03-06T12:55:05.970Z</time>
      </trkpt>
      <trkpt lat="44.36274" lon="2.84804">
        <ele>653</ele>
        <time>2013-03-06T12:55:06.970Z</time>
      </trkpt>
      <trkpt lat="44.36272" lon="2.84804">
        <ele>653</ele>
        <time>2013-03-06T12:55:07.970Z</time>
      </trkpt>
      <trkpt lat="44.36271" lon="2.84805">
        <ele>653</ele>
        <time>2013-03-06T12:55:08.970Z</time>
      </trkpt>
      <trkpt lat="44.36269" lon="2.84805">
        <ele>653</ele>
        <time>2013-03-06T12:55:09.970Z</time>
      </trkpt>
      <trkpt lat="44.36267" lon="2.84807">
        <ele>653</ele>
        <time>2013-03-06T12:55:10.970Z</time>
      </trkpt>
      <trkpt lat="44.36266" lon="2.84807">
        <ele>653</ele>
        <time>2013-03-06T12:55:11.970Z</time>
      </trkpt>
      <trkpt lat="44.36264" lon="2.84807">
        <ele>654</ele>
        <time>2013-03-06T12:55:12.970Z</time>
      </trkpt>
      <trkpt lat="44.36262" lon="2.84807">
        <ele>654</ele>
        <time>2013-03-06T12:55:13.970Z</time>
      </trkpt>
      <trkpt lat="44.36261" lon="2.84807">
        <ele>654</ele>
        <time>2013-03-06T12:55:14.970Z</time>
      </trkpt>
      <trkpt lat="44.36259" lon="2.84807">
        <ele>654</ele>
        <time>2013-03-06T12:55:15.980Z</time>
      </trkpt>
      <trkpt lat="44.36256" lon="2.84808">
        <ele>654</ele>
        <time>2013-03-06T12:55:16.970Z</time>
      </trkpt>
      <trkpt lat="44.36255" lon="2.84808">
        <ele>654</ele>
        <time>2013-03-06T12:55:17.970Z</time>
      </trkpt>
      <trkpt lat="44.36253" lon="2.84808">
        <ele>654</ele>
        <time>2013-03-06T12:55:18.970Z</time>
      </trkpt>
      <trkpt lat="44.36252" lon="2.84809">
        <ele>654</ele>
        <time>2013-03-06T12:55:19.970Z</time>
      </trkpt>
      <trkpt lat="44.3625" lon="2.84809">
        <ele>654</ele>
        <time>2013-03-06T12:55:20.970Z</time>
      </trkpt>
      <trkpt lat="44.3625" lon="2.8481">
        <ele>656</ele>
        <time>2013-03-06T12:55:21.970Z</time>
      </trkpt>
      <trkpt lat="44.36249" lon="2.84812">
        <ele>656</ele>
        <time>2013-03-06T12:55:22.970Z</time>
      </trkpt>
      <trkpt lat="44.3625" lon="2.84814">
        <ele>656</ele>
        <time>2013-03-06T12:55:23.970Z</time>
      </trkpt>
      <trkpt lat="44.36249" lon="2.84816">
        <ele>656</ele>
        <time>2013-03-06T12:55:24.970Z</time>
      </trkpt>
      <trkpt lat="44.3625" lon="2.84818">
        <ele>656</ele>
        <time>2013-03-06T12:55:26.970Z</time>
      </trkpt>
      <trkpt lat="44.36251" lon="2.8482">
        <ele>654</ele>
        <time>2013-03-06T12:55:27.970Z</time>
      </trkpt>
      <trkpt lat="44.36252" lon="2.84822">
        <ele>654</ele>
        <time>2013-03-06T12:55:28.970Z</time>
      </trkpt>
      <trkpt lat="44.36253" lon="2.84824">
        <ele>654</ele>
        <time>2013-03-06T12:55:29.970Z</time>
      </trkpt>
      <trkpt lat="44.36254" lon="2.84826">
        <ele>654</ele>
        <time>2013-03-06T12:55:30.970Z</time>
      </trkpt>
      <trkpt lat="44.36256" lon="2.84829">
        <ele>654</ele>
        <time>2013-03-06T12:55:31.970Z</time>
      </trkpt>
      <trkpt lat="44.36257" lon="2.84832">
        <ele>654</ele>
        <time>2013-03-06T12:55:32.980Z</time>
      </trkpt>
      <trkpt lat="44.36258" lon="2.84836">
        <ele>654</ele>
        <time>2013-03-06T12:55:33.970Z</time>
      </trkpt>
      <trkpt lat="44.36259" lon="2.8484">
        <ele>654</ele>
        <time>2013-03-06T12:55:34.970Z</time>
      </trkpt>
      <trkpt lat="44.36261" lon="2.84844">
        <ele>654</ele>
        <time>2013-03-06T12:55:35.970Z</time>
      </trkpt>
      <trkpt lat="44.36261" lon="2.84848">
        <ele>653</ele>
        <time>2013-03-06T12:55:36.970Z</time>
      </trkpt>
      <trkpt lat="44.36262" lon="2.84851">
        <ele>653</ele>
        <time>2013-03-06T12:55:37.970Z</time>
      </trkpt>
      <trkpt lat="44.36262" lon="2.84855">
        <ele>653</ele>
        <time>2013-03-06T12:55:38.970Z</time>
      </trkpt>
      <trkpt lat="44.36262" lon="2.8486">
        <ele>653</ele>
        <time>2013-03-06T12:55:40.030Z</time>
      </trkpt>
      <trkpt lat="44.36265" lon="2.84866">
        <ele>653</ele>
        <time>2013-03-06T12:55:42.030Z</time>
      </trkpt>
      <trkpt lat="44.36268" lon="2.84868">
        <ele>653</ele>
        <time>2013-03-06T12:55:43.030Z</time>
      </trkpt>
      <trkpt lat="44.3627" lon="2.8487">
        <ele>653</ele>
        <time>2013-03-06T12:55:44.150Z</time>
      </trkpt>
      <trkpt lat="44.36274" lon="2.84876">
        <ele>652</ele>
        <time>2013-03-06T12:55:45.970Z</time>
      </trkpt>
      <trkpt lat="44.36277" lon="2.84878">
        <ele>652</ele>
        <time>2013-03-06T12:55:46.970Z</time>
      </trkpt>
      <trkpt lat="44.36279" lon="2.84881">
        <ele>652</ele>
        <time>2013-03-06T12:55:47.970Z</time>
      </trkpt>
      <trkpt lat="44.36281" lon="2.84884">
        <ele>652</ele>
        <time>2013-03-06T12:55:48.970Z</time>
      </trkpt>
      <trkpt lat="44.36283" lon="2.84888">
        <ele>652</ele>
        <time>2013-03-06T12:55:49.980Z</time>
      </trkpt>
      <trkpt lat="44.36284" lon="2.84891">
        <ele>652</ele>
        <time>2013-03-06T12:55:51.020Z</time>
      </trkpt>
      <trkpt lat="44.36286" lon="2.84895">
        <ele>652</ele>
        <time>2013-03-06T12:55:52.020Z</time>
      </trkpt>
      <trkpt lat="44.36287" lon="2.84898">
        <ele>652</ele>
        <time>2013-03-06T12:55:53.030Z</time>
      </trkpt>
      <trkpt lat="44.3629" lon="2.84902">
        <ele>652</ele>
        <time>2013-03-06T12:55:54.050Z</time>
      </trkpt>
      <trkpt lat="44.36293" lon="2.84909">
        <ele>652</ele>
        <time>2013-03-06T12:55:55.970Z</time>
      </trkpt>
      <trkpt lat="44.36295" lon="2.84913">
        <ele>652</ele>
        <time>2013-03-06T12:55:56.970Z</time>
      </trkpt>
      <trkpt lat="44.36296" lon="2.84917">
        <ele>652</ele>
        <time>2013-03-06T12:55:57.970Z</time>
      </trkpt>
      <trkpt lat="44.36298" lon="2.8492">
        <ele>651</ele>
        <time>2013-03-06T12:55:59.040Z</time>
      </trkpt>
      <trkpt lat="44.363" lon="2.84927">
        <ele>651</ele>
        <time>2013-03-06T12:56:00.970Z</time>
      </trkpt>
      <trkpt lat="44.36299" lon="2.84929">
        <ele>651</ele>
        <time>2013-03-06T12:56:01.970Z</time>
      </trkpt>
      <trkpt lat="44.36297" lon="2.84932">
        <ele>651</ele>
        <time>2013-03-06T12:56:02.970Z</time>
      </trkpt>
      <trkpt lat="44.36295" lon="2.84934">
        <ele>652</ele>
        <time>2013-03-06T12:56:03.970Z</time>
      </trkpt>
      <trkpt lat="44.36293" lon="2.84937">
        <ele>652</ele>
        <time>2013-03-06T12:56:04.970Z</time>
      </trkpt>
      <trkpt lat="44.36292" lon="2.84939">
        <ele>652</ele>
        <time>2013-03-06T12:56:05.980Z</time>
      </trkpt>
      <trkpt lat="44.3629" lon="2.84942">
        <ele>652</ele>
        <time>2013-03-06T12:56:06.970Z</time>
      </trkpt>
      <trkpt lat="44.36289" lon="2.84946">
        <ele>652</ele>
        <time>2013-03-06T12:56:07.970Z</time>
      </trkpt>
      <trkpt lat="44.36288" lon="2.84949">
        <ele>652</ele>
        <time>2013-03-06T12:56:08.970Z</time>
      </trkpt>
      <trkpt lat="44.36287" lon="2.84954">
        <ele>652</ele>
        <time>2013-03-06T12:56:09.970Z</time>
      </trkpt>
      <trkpt lat="44.36287" lon="2.84958">
        <ele>652</ele>
        <time>2013-03-06T12:56:10.970Z</time>
      </trkpt>
      <trkpt lat="44.36286" lon="2.84961">
        <ele>652</ele>
        <time>2013-03-06T12:56:11.970Z</time>
      </trkpt>
      <trkpt lat="44.36285" lon="2.84966">
        <ele>652</ele>
        <time>2013-03-06T12:56:12.970Z</time>
      </trkpt>
      <trkpt lat="44.36284" lon="2.84973">
        <ele>652</ele>
        <time>2013-03-06T12:56:15.020Z</time>
      </trkpt>
      <trkpt lat="44.36282" lon="2.84976">
        <ele>652</ele>
        <time>2013-03-06T12:56:16.070Z</time>
      </trkpt>
      <trkpt lat="44.3628" lon="2.84981">
        <ele>652</ele>
        <time>2013-03-06T12:56:17.970Z</time>
      </trkpt>
      <trkpt lat="44.36279" lon="2.84982">
        <ele>652</ele>
        <time>2013-03-06T12:56:18.970Z</time>
      </trkpt>
      <trkpt lat="44.36277" lon="2.84982">
        <ele>652</ele>
        <time>2013-03-06T12:56:19.970Z</time>
      </trkpt>
      <trkpt lat="44.36275" lon="2.84982">
        <ele>652</ele>
        <time>2013-03-06T12:56:20.970Z</time>
      </trkpt>
      <trkpt lat="44.36272" lon="2.84981">
        <ele>652</ele>
        <time>2013-03-06T12:56:21.970Z</time>
      </trkpt>
      <trkpt lat="44.36271" lon="2.8498">
        <ele>652</ele>
        <time>2013-03-06T12:56:22.970Z</time>
      </trkpt>
      <trkpt lat="44.36268" lon="2.8498">
        <ele>653</ele>
        <time>2013-03-06T12:56:23.970Z</time>
      </trkpt>
      <trkpt lat="44.36266" lon="2.84979">
        <ele>653</ele>
        <time>2013-03-06T12:56:25.020Z</time>
      </trkpt>
      <trkpt lat="44.36264" lon="2.84978">
        <ele>653</ele>
        <time>2013-03-06T12:56:26.020Z</time>
      </trkpt>
      <trkpt lat="44.3626" lon="2.84973">
        <ele>653</ele>
        <time>2013-03-06T12:56:28.010Z</time>
      </trkpt>
      <trkpt lat="44.36257" lon="2.84971">
        <ele>653</ele>
        <time>2013-03-06T12:56:29.170Z</time>
      </trkpt>
      <trkpt lat="44.36252" lon="2.84967">
        <ele>653</ele>
        <time>2013-03-06T12:56:31.010Z</time>
      </trkpt>
      <trkpt lat="44.36249" lon="2.84966">
        <ele>655</ele>
        <time>2013-03-06T12:56:32.020Z</time>
      </trkpt>
      <trkpt lat="44.36245" lon="2.84965">
        <ele>655</ele>
        <time>2013-03-06T12:56:33.070Z</time>
      </trkpt>
      <trkpt lat="44.36238" lon="2.84963">
        <ele>655</ele>
        <time>2013-03-06T12:56:35.020Z</time>
      </trkpt>
      <trkpt lat="44.36234" lon="2.84962">
        <ele>655</ele>
        <time>2013-03-06T12:56:37.010Z</time>
      </trkpt>
      <trkpt lat="44.36232" lon="2.84961">
        <ele>655</ele>
        <time>2013-03-06T12:56:38.020Z</time>
      </trkpt>
      <trkpt lat="44.36229" lon="2.84961">
        <ele>655</ele>
        <time>2013-03-06T12:56:40.970Z</time>
      </trkpt>
      <trkpt lat="44.36228" lon="2.84962">
        <ele>655</ele>
        <time>2013-03-06T12:56:41.970Z</time>
      </trkpt>
      <trkpt lat="44.36227" lon="2.84962">
        <ele>655</ele>
        <time>2013-03-06T12:56:43.970Z</time>
      </trkpt>
      <trkpt lat="44.36226" lon="2.84963">
        <ele>655</ele>
        <time>2013-03-06T12:56:48.010Z</time>
      </trkpt>
      <trkpt lat="44.36225" lon="2.84963">
        <ele>655</ele>
        <time>2013-03-06T12:57:00.010Z</time>
      </trkpt>
      <trkpt lat="44.36225" lon="2.84962">
        <ele>655</ele>
        <time>2013-03-06T12:57:01.010Z</time>
      </trkpt>
      <trkpt lat="44.36224" lon="2.84961">
        <ele>655</ele>
        <time>2013-03-06T12:57:02.010Z</time>
      </trkpt>
      <trkpt lat="44.36223" lon="2.84959">
        <ele>655</ele>
        <time>2013-03-06T12:57:03.010Z</time>
      </trkpt>
      <trkpt lat="44.36223" lon="2.84957">
        <ele>655</ele>
        <time>2013-03-06T12:57:04.050Z</time>
      </trkpt>
      <trkpt lat="44.36219" lon="2.84951">
        <ele>655</ele>
        <time>2013-03-06T12:57:06.010Z</time>
      </trkpt>
      <trkpt lat="44.36217" lon="2.84948">
        <ele>655</ele>
        <time>2013-03-06T12:57:07.030Z</time>
      </trkpt>
      <trkpt lat="44.36212" lon="2.84943">
        <ele>655</ele>
        <time>2013-03-06T12:57:09.090Z</time>
      </trkpt>
      <trkpt lat="44.36209" lon="2.84936">
        <ele>655</ele>
        <time>2013-03-06T12:57:11.000Z</time>
      </trkpt>
      <trkpt lat="44.36207" lon="2.84932">
        <ele>656</ele>
        <time>2013-03-06T12:57:12.020Z</time>
      </trkpt>
      <trkpt lat="44.36204" lon="2.84922">
        <ele>656</ele>
        <time>2013-03-06T12:57:14.080Z</time>
      </trkpt>
      <trkpt lat="44.36203" lon="2.84913">
        <ele>656</ele>
        <time>2013-03-06T12:57:16.060Z</time>
      </trkpt>
      <trkpt lat="44.36203" lon="2.84903">
        <ele>656</ele>
        <time>2013-03-06T12:57:17.970Z</time>
      </trkpt>
      <trkpt lat="44.36203" lon="2.84899">
        <ele>656</ele>
        <time>2013-03-06T12:57:18.970Z</time>
      </trkpt>
      <trkpt lat="44.36202" lon="2.84895">
        <ele>656</ele>
        <time>2013-03-06T12:57:19.970Z</time>
      </trkpt>
      <trkpt lat="44.36202" lon="2.84892">
        <ele>656</ele>
        <time>2013-03-06T12:57:20.970Z</time>
      </trkpt>
      <trkpt lat="44.36202" lon="2.84888">
        <ele>656</ele>
        <time>2013-03-06T12:57:21.970Z</time>
      </trkpt>
      <trkpt lat="44.36202" lon="2.84884">
        <ele>656</ele>
        <time>2013-03-06T12:57:22.970Z</time>
      </trkpt>
      <trkpt lat="44.36201" lon="2.84881">
        <ele>656</ele>
        <time>2013-03-06T12:57:23.970Z</time>
      </trkpt>
      <trkpt lat="44.362" lon="2.84878">
        <ele>656</ele>
        <time>2013-03-06T12:57:25.000Z</time>
      </trkpt>
      <trkpt lat="44.36197" lon="2.84876">
        <ele>656</ele>
        <time>2013-03-06T12:57:26.000Z</time>
      </trkpt>
      <trkpt lat="44.36194" lon="2.84876">
        <ele>657</ele>
        <time>2013-03-06T12:57:27.000Z</time>
      </trkpt>
      <trkpt lat="44.36191" lon="2.84876">
        <ele>657</ele>
        <time>2013-03-06T12:57:28.020Z</time>
      </trkpt>
      <trkpt lat="44.36188" lon="2.84876">
        <ele>657</ele>
        <time>2013-03-06T12:57:29.050Z</time>
      </trkpt>
      <trkpt lat="44.36182" lon="2.84874">
        <ele>657</ele>
        <time>2013-03-06T12:57:30.970Z</time>
      </trkpt>
      <trkpt lat="44.36178" lon="2.84873">
        <ele>657</ele>
        <time>2013-03-06T12:57:31.970Z</time>
      </trkpt>
      <trkpt lat="44.36175" lon="2.84872">
        <ele>657</ele>
        <time>2013-03-06T12:57:32.980Z</time>
      </trkpt>
      <trkpt lat="44.36168" lon="2.84871">
        <ele>657</ele>
        <time>2013-03-06T12:57:34.970Z</time>
      </trkpt>
      <trkpt lat="44.36164" lon="2.84871">
        <ele>659</ele>
        <time>2013-03-06T12:57:35.970Z</time>
      </trkpt>
      <trkpt lat="44.3616" lon="2.84871">
        <ele>659</ele>
        <time>2013-03-06T12:57:36.970Z</time>
      </trkpt>
      <trkpt lat="44.36157" lon="2.8487">
        <ele>659</ele>
        <time>2013-03-06T12:57:37.970Z</time>
      </trkpt>
      <trkpt lat="44.36154" lon="2.8487">
        <ele>659</ele>
        <time>2013-03-06T12:57:39.040Z</time>
      </trkpt>
      <trkpt lat="44.36147" lon="2.84868">
        <ele>659</ele>
        <time>2013-03-06T12:57:40.970Z</time>
      </trkpt>
      <trkpt lat="44.36144" lon="2.84868">
        <ele>659</ele>
        <time>2013-03-06T12:57:41.970Z</time>
      </trkpt>
      <trkpt lat="44.36141" lon="2.84868">
        <ele>660</ele>
        <time>2013-03-06T12:57:42.970Z</time>
      </trkpt>
      <trkpt lat="44.36138" lon="2.84868">
        <ele>660</ele>
        <time>2013-03-06T12:57:43.970Z</time>
      </trkpt>
      <trkpt lat="44.36136" lon="2.84867">
        <ele>660</ele>
        <time>2013-03-06T12:57:45.000Z</time>
      </trkpt>
      <trkpt lat="44.36133" lon="2.84866">
        <ele>660</ele>
        <time>2013-03-06T12:57:46.000Z</time>
      </trkpt>
      <trkpt lat="44.3613" lon="2.84865">
        <ele>660</ele>
        <time>2013-03-06T12:57:47.000Z</time>
      </trkpt>
      <trkpt lat="44.36127" lon="2.84864">
        <ele>660</ele>
        <time>2013-03-06T12:57:48.020Z</time>
      </trkpt>
      <trkpt lat="44.36121" lon="2.84863">
        <ele>660</ele>
        <time>2013-03-06T12:57:49.980Z</time>
      </trkpt>
      <trkpt lat="44.36118" lon="2.84863">
        <ele>660</ele>
        <time>2013-03-06T12:57:50.990Z</time>
      </trkpt>
      <trkpt lat="44.36116" lon="2.84863">
        <ele>660</ele>
        <time>2013-03-06T12:57:52.020Z</time>
      </trkpt>
      <trkpt lat="44.3611" lon="2.84863">
        <ele>660</ele>
        <time>2013-03-06T12:57:54.040Z</time>
      </trkpt>
      <trkpt lat="44.36104" lon="2.84863">
        <ele>660</ele>
        <time>2013-03-06T12:57:55.970Z</time>
      </trkpt>
      <trkpt lat="44.36102" lon="2.84862">
        <ele>661</ele>
        <time>2013-03-06T12:57:56.970Z</time>
      </trkpt>
      <trkpt lat="44.36099" lon="2.84861">
        <ele>661</ele>
        <time>2013-03-06T12:57:57.970Z</time>
      </trkpt>
      <trkpt lat="44.36096" lon="2.8486">
        <ele>661</ele>
        <time>2013-03-06T12:57:59.000Z</time>
      </trkpt>
      <trkpt lat="44.36094" lon="2.84859">
        <ele>661</ele>
        <time>2013-03-06T12:58:00.020Z</time>
      </trkpt>
      <trkpt lat="44.36089" lon="2.84858">
        <ele>661</ele>
        <time>2013-03-06T12:58:01.970Z</time>
      </trkpt>
      <trkpt lat="44.36087" lon="2.84857">
        <ele>661</ele>
        <time>2013-03-06T12:58:02.970Z</time>
      </trkpt>
      <trkpt lat="44.36085" lon="2.84857">
        <ele>661</ele>
        <time>2013-03-06T12:58:03.970Z</time>
      </trkpt>
      <trkpt lat="44.36084" lon="2.84856">
        <ele>661</ele>
        <time>2013-03-06T12:58:04.990Z</time>
      </trkpt>
      <trkpt lat="44.36082" lon="2.84854">
        <ele>664</ele>
        <time>2013-03-06T12:58:05.990Z</time>
      </trkpt>
      <trkpt lat="44.36079" lon="2.84853">
        <ele>664</ele>
        <time>2013-03-06T12:58:06.990Z</time>
      </trkpt>
      <trkpt lat="44.36078" lon="2.84853">
        <ele>665</ele>
        <time>2013-03-06T12:58:08.020Z</time>
      </trkpt>
      <trkpt lat="44.36077" lon="2.84852">
        <ele>665</ele>
        <time>2013-03-06T12:58:09.060Z</time>
      </trkpt>
      <trkpt lat="44.36074" lon="2.8485">
        <ele>665</ele>
        <time>2013-03-06T12:58:10.970Z</time>
      </trkpt>
      <trkpt lat="44.36073" lon="2.84849">
        <ele>665</ele>
        <time>2013-03-06T12:58:11.970Z</time>
      </trkpt>
      <trkpt lat="44.36072" lon="2.84849">
        <ele>665</ele>
        <time>2013-03-06T12:58:12.970Z</time>
      </trkpt>
      <trkpt lat="44.36071" lon="2.84848">
        <ele>665</ele>
        <time>2013-03-06T12:58:13.970Z</time>
      </trkpt>
      <trkpt lat="44.3607" lon="2.84847">
        <ele>665</ele>
        <time>2013-03-06T12:58:14.990Z</time>
      </trkpt>
      <trkpt lat="44.36069" lon="2.84847">
        <ele>665</ele>
        <time>2013-03-06T12:58:16.050Z</time>
      </trkpt>
      <trkpt lat="44.36066" lon="2.84845">
        <ele>665</ele>
        <time>2013-03-06T12:58:17.970Z</time>
      </trkpt>
      <trkpt lat="44.36064" lon="2.84844">
        <ele>665</ele>
        <time>2013-03-06T12:58:18.970Z</time>
      </trkpt>
      <trkpt lat="44.36063" lon="2.84842">
        <ele>665</ele>
        <time>2013-03-06T12:58:20.000Z</time>
      </trkpt>
      <trkpt lat="44.36062" lon="2.8484">
        <ele>665</ele>
        <time>2013-03-06T12:58:20.990Z</time>
      </trkpt>
      <trkpt lat="44.3606" lon="2.84839">
        <ele>665</ele>
        <time>2013-03-06T12:58:21.990Z</time>
      </trkpt>
      <trkpt lat="44.36059" lon="2.84838">
        <ele>665</ele>
        <time>2013-03-06T12:58:22.990Z</time>
      </trkpt>
      <trkpt lat="44.36057" lon="2.84836">
        <ele>665</ele>
        <time>2013-03-06T12:58:24.090Z</time>
      </trkpt>
      <trkpt lat="44.36055" lon="2.84833">
        <ele>666</ele>
        <time>2013-03-06T12:58:25.990Z</time>
      </trkpt>
      <trkpt lat="44.36054" lon="2.84832">
        <ele>666</ele>
        <time>2013-03-06T12:58:26.970Z</time>
      </trkpt>
      <trkpt lat="44.36052" lon="2.84831">
        <ele>666</ele>
        <time>2013-03-06T12:58:27.990Z</time>
      </trkpt>
      <trkpt lat="44.36051" lon="2.8483">
        <ele>666</ele>
        <time>2013-03-06T12:58:29.100Z</time>
      </trkpt>
      <trkpt lat="44.36048" lon="2.84829">
        <ele>666</ele>
        <time>2013-03-06T12:58:30.970Z</time>
      </trkpt>
      <trkpt lat="44.36047" lon="2.84828">
        <ele>666</ele>
        <time>2013-03-06T12:58:31.970Z</time>
      </trkpt>
      <trkpt lat="44.36046" lon="2.84827">
        <ele>666</ele>
        <time>2013-03-06T12:58:32.980Z</time>
      </trkpt>
      <trkpt lat="44.36044" lon="2.84826">
        <ele>667</ele>
        <time>2013-03-06T12:58:34.090Z</time>
      </trkpt>
      <trkpt lat="44.36041" lon="2.84824">
        <ele>667</ele>
        <time>2013-03-06T12:58:35.980Z</time>
      </trkpt>
      <trkpt lat="44.3604" lon="2.84823">
        <ele>667</ele>
        <time>2013-03-06T12:58:36.980Z</time>
      </trkpt>
      <trkpt lat="44.36038" lon="2.84822">
        <ele>667</ele>
        <time>2013-03-06T12:58:38.020Z</time>
      </trkpt>
      <trkpt lat="44.36037" lon="2.8482">
        <ele>667</ele>
        <time>2013-03-06T12:58:39.060Z</time>
      </trkpt>
      <trkpt lat="44.36035" lon="2.84817">
        <ele>667</ele>
        <time>2013-03-06T12:58:40.980Z</time>
      </trkpt>
      <trkpt lat="44.36033" lon="2.84816">
        <ele>667</ele>
        <time>2013-03-06T12:58:42.020Z</time>
      </trkpt>
      <trkpt lat="44.36028" lon="2.84812">
        <ele>667</ele>
        <time>2013-03-06T12:58:44.040Z</time>
      </trkpt>
      <trkpt lat="44.36023" lon="2.84807">
        <ele>668</ele>
        <time>2013-03-06T12:58:45.970Z</time>
      </trkpt>
      <trkpt lat="44.3602" lon="2.84805">
        <ele>668</ele>
        <time>2013-03-06T12:58:46.970Z</time>
      </trkpt>
      <trkpt lat="44.36018" lon="2.84803">
        <ele>668</ele>
        <time>2013-03-06T12:58:47.970Z</time>
      </trkpt>
      <trkpt lat="44.36016" lon="2.84802">
        <ele>668</ele>
        <time>2013-03-06T12:58:48.970Z</time>
      </trkpt>
      <trkpt lat="44.36014" lon="2.84801">
        <ele>668</ele>
        <time>2013-03-06T12:58:50.040Z</time>
      </trkpt>
      <trkpt lat="44.3601" lon="2.84799">
        <ele>668</ele>
        <time>2013-03-06T12:58:52.020Z</time>
      </trkpt>
      <trkpt lat="44.36007" lon="2.84797">
        <ele>668</ele>
        <time>2013-03-06T12:58:53.970Z</time>
      </trkpt>
      <trkpt lat="44.36006" lon="2.84795">
        <ele>668</ele>
        <time>2013-03-06T12:58:55.030Z</time>
      </trkpt>
      <trkpt lat="44.36003" lon="2.84793">
        <ele>668</ele>
        <time>2013-03-06T12:58:56.970Z</time>
      </trkpt>
      <trkpt lat="44.36001" lon="2.84792">
        <ele>668</ele>
        <time>2013-03-06T12:58:57.970Z</time>
      </trkpt>
      <trkpt lat="44.36" lon="2.8479">
        <ele>673</ele>
        <time>2013-03-06T12:58:59.000Z</time>
      </trkpt>
      <trkpt lat="44.35998" lon="2.84789">
        <ele>673</ele>
        <time>2013-03-06T12:58:59.970Z</time>
      </trkpt>
      <trkpt lat="44.35996" lon="2.84788">
        <ele>673</ele>
        <time>2013-03-06T12:59:00.970Z</time>
      </trkpt>
      <trkpt lat="44.35995" lon="2.84786">
        <ele>673</ele>
        <time>2013-03-06T12:59:01.970Z</time>
      </trkpt>
      <trkpt lat="44.35994" lon="2.84784">
        <ele>673</ele>
        <time>2013-03-06T12:59:03.020Z</time>
      </trkpt>
      <trkpt lat="44.35992" lon="2.84782">
        <ele>673</ele>
        <time>2013-03-06T12:59:04.970Z</time>
      </trkpt>
      <trkpt lat="44.3599" lon="2.84781">
        <ele>673</ele>
        <time>2013-03-06T12:59:05.970Z</time>
      </trkpt>
      <trkpt lat="44.35989" lon="2.8478">
        <ele>673</ele>
        <time>2013-03-06T12:59:06.970Z</time>
      </trkpt>
      <trkpt lat="44.35987" lon="2.84779">
        <ele>673</ele>
        <time>2013-03-06T12:59:07.980Z</time>
      </trkpt>
      <trkpt lat="44.35986" lon="2.84779">
        <ele>673</ele>
        <time>2013-03-06T12:59:09.040Z</time>
      </trkpt>
      <trkpt lat="44.35981" lon="2.84776">
        <ele>673</ele>
        <time>2013-03-06T12:59:10.970Z</time>
      </trkpt>
      <trkpt lat="44.35979" lon="2.84774">
        <ele>673</ele>
        <time>2013-03-06T12:59:11.970Z</time>
      </trkpt>
      <trkpt lat="44.35976" lon="2.84773">
        <ele>673</ele>
        <time>2013-03-06T12:59:12.970Z</time>
      </trkpt>
      <trkpt lat="44.35973" lon="2.84771">
        <ele>673</ele>
        <time>2013-03-06T12:59:13.970Z</time>
      </trkpt>
      <trkpt lat="44.35969" lon="2.8477">
        <ele>674</ele>
        <time>2013-03-06T12:59:14.970Z</time>
      </trkpt>
      <trkpt lat="44.35966" lon="2.8477">
        <ele>674</ele>
        <time>2013-03-06T12:59:16.060Z</time>
      </trkpt>
      <trkpt lat="44.35961" lon="2.84768">
        <ele>674</ele>
        <time>2013-03-06T12:59:17.980Z</time>
      </trkpt>
      <trkpt lat="44.35958" lon="2.84768">
        <ele>674</ele>
        <time>2013-03-06T12:59:19.060Z</time>
      </trkpt>
      <trkpt lat="44.35952" lon="2.84767">
        <ele>675</ele>
        <time>2013-03-06T12:59:20.970Z</time>
      </trkpt>
      <trkpt lat="44.3595" lon="2.84766">
        <ele>675</ele>
        <time>2013-03-06T12:59:21.980Z</time>
      </trkpt>
      <trkpt lat="44.35948" lon="2.84766">
        <ele>675</ele>
        <time>2013-03-06T12:59:23.020Z</time>
      </trkpt>
      <trkpt lat="44.35944" lon="2.84767">
        <ele>675</ele>
        <time>2013-03-06T12:59:24.970Z</time>
      </trkpt>
      <trkpt lat="44.35942" lon="2.84767">
        <ele>675</ele>
        <time>2013-03-06T12:59:25.980Z</time>
      </trkpt>
      <trkpt lat="44.3594" lon="2.84769">
        <ele>676</ele>
        <time>2013-03-06T12:59:26.970Z</time>
      </trkpt>
      <trkpt lat="44.35939" lon="2.8477">
        <ele>676</ele>
        <time>2013-03-06T12:59:28.020Z</time>
      </trkpt>
      <trkpt lat="44.35937" lon="2.84773">
        <ele>676</ele>
        <time>2013-03-06T12:59:29.970Z</time>
      </trkpt>
      <trkpt lat="44.35935" lon="2.84775">
        <ele>676</ele>
        <time>2013-03-06T12:59:30.970Z</time>
      </trkpt>
      <trkpt lat="44.35934" lon="2.84776">
        <ele>676</ele>
        <time>2013-03-06T12:59:31.970Z</time>
      </trkpt>
      <trkpt lat="44.35933" lon="2.84778">
        <ele>676</ele>
        <time>2013-03-06T12:59:33.060Z</time>
      </trkpt>
      <trkpt lat="44.3593" lon="2.84779">
        <ele>676</ele>
        <time>2013-03-06T12:59:34.970Z</time>
      </trkpt>
      <trkpt lat="44.35929" lon="2.8478">
        <ele>676</ele>
        <time>2013-03-06T12:59:35.970Z</time>
      </trkpt>
      <trkpt lat="44.35928" lon="2.84781">
        <ele>676</ele>
        <time>2013-03-06T12:59:36.980Z</time>
      </trkpt>
      <trkpt lat="44.35927" lon="2.84782">
        <ele>676</ele>
        <time>2013-03-06T12:59:38.070Z</time>
      </trkpt>
      <trkpt lat="44.35924" lon="2.84784">
        <ele>676</ele>
        <time>2013-03-06T12:59:40.070Z</time>
      </trkpt>
      <trkpt lat="44.35922" lon="2.84787">
        <ele>676</ele>
        <time>2013-03-06T12:59:42.070Z</time>
      </trkpt>
      <trkpt lat="44.3592" lon="2.8479">
        <ele>676</ele>
        <time>2013-03-06T12:59:44.070Z</time>
      </trkpt>
      <trkpt lat="44.35918" lon="2.84792">
        <ele>677</ele>
        <time>2013-03-06T12:59:46.070Z</time>
      </trkpt>
      <trkpt lat="44.35916" lon="2.84793">
        <ele>683</ele>
        <time>2013-03-06T12:59:46.970Z</time>
      </trkpt>
      <trkpt lat="44.35914" lon="2.84795">
        <ele>684</ele>
        <time>2013-03-06T12:59:48.070Z</time>
      </trkpt>
      <trkpt lat="44.35913" lon="2.84796">
        <ele>684</ele>
        <time>2013-03-06T12:59:48.970Z</time>
      </trkpt>
      <trkpt lat="44.35912" lon="2.84797">
        <ele>684</ele>
        <time>2013-03-06T12:59:50.030Z</time>
      </trkpt>
      <trkpt lat="44.3591" lon="2.84798">
        <ele>684</ele>
        <time>2013-03-06T12:59:52.060Z</time>
      </trkpt>
      <trkpt lat="44.35909" lon="2.84798">
        <ele>684</ele>
        <time>2013-03-06T12:59:52.970Z</time>
      </trkpt>
      <trkpt lat="44.35908" lon="2.84799">
        <ele>684</ele>
        <time>2013-03-06T12:59:54.060Z</time>
      </trkpt>
      <trkpt lat="44.35906" lon="2.848">
        <ele>684</ele>
        <time>2013-03-06T12:59:55.970Z</time>
      </trkpt>
      <trkpt lat="44.35904" lon="2.84801">
        <ele>684</ele>
        <time>2013-03-06T12:59:57.060Z</time>
      </trkpt>
      <trkpt lat="44.35902" lon="2.84802">
        <ele>684</ele>
        <time>2013-03-06T12:59:57.970Z</time>
      </trkpt>
      <trkpt lat="44.35902" lon="2.84803">
        <ele>684</ele>
        <time>2013-03-06T12:59:59.310Z</time>
      </trkpt>
      <trkpt lat="44.359" lon="2.84804">
        <ele>684</ele>
        <time>2013-03-06T13:00:00.970Z</time>
      </trkpt>
      <trkpt lat="44.35899" lon="2.84806">
        <ele>684</ele>
        <time>2013-03-06T13:00:02.060Z</time>
      </trkpt>
      <trkpt lat="44.35897" lon="2.84808">
        <ele>684</ele>
        <time>2013-03-06T13:00:04.060Z</time>
      </trkpt>
      <trkpt lat="44.35894" lon="2.84811">
        <ele>684</ele>
        <time>2013-03-06T13:00:06.060Z</time>
      </trkpt>
      <trkpt lat="44.35894" lon="2.84813">
        <ele>685</ele>
        <time>2013-03-06T13:00:06.970Z</time>
      </trkpt>
      <trkpt lat="44.35892" lon="2.84815">
        <ele>685</ele>
        <time>2013-03-06T13:00:08.060Z</time>
      </trkpt>
      <trkpt lat="44.35891" lon="2.84816">
        <ele>685</ele>
        <time>2013-03-06T13:00:08.970Z</time>
      </trkpt>
      <trkpt lat="44.3589" lon="2.84817">
        <ele>685</ele>
        <time>2013-03-06T13:00:10.060Z</time>
      </trkpt>
      <trkpt lat="44.3589" lon="2.84818">
        <ele>685</ele>
        <time>2013-03-06T13:00:12.060Z</time>
      </trkpt>
      <trkpt lat="44.35888" lon="2.8482">
        <ele>685</ele>
        <time>2013-03-06T13:00:14.060Z</time>
      </trkpt>
      <trkpt lat="44.35884" lon="2.84822">
        <ele>685</ele>
        <time>2013-03-06T13:00:16.040Z</time>
      </trkpt>
      <trkpt lat="44.35882" lon="2.84822">
        <ele>686</ele>
        <time>2013-03-06T13:00:17.090Z</time>
      </trkpt>
      <trkpt lat="44.35881" lon="2.84824">
        <ele>686</ele>
        <time>2013-03-06T13:00:18.970Z</time>
      </trkpt>
      <trkpt lat="44.35879" lon="2.84824">
        <ele>686</ele>
        <time>2013-03-06T13:00:20.060Z</time>
      </trkpt>
      <trkpt lat="44.35878" lon="2.84825">
        <ele>686</ele>
        <time>2013-03-06T13:00:22.060Z</time>
      </trkpt>
      <trkpt lat="44.35876" lon="2.84826">
        <ele>686</ele>
        <time>2013-03-06T13:00:22.970Z</time>
      </trkpt>
      <trkpt lat="44.35875" lon="2.84826">
        <ele>686</ele>
        <time>2013-03-06T13:00:24.060Z</time>
      </trkpt>
      <trkpt lat="44.35873" lon="2.84825">
        <ele>687</ele>
        <time>2013-03-06T13:00:26.040Z</time>
      </trkpt>
      <trkpt lat="44.35871" lon="2.84826">
        <ele>687</ele>
        <time>2013-03-06T13:00:26.970Z</time>
      </trkpt>
      <trkpt lat="44.35869" lon="2.84826">
        <ele>687</ele>
        <time>2013-03-06T13:00:28.060Z</time>
      </trkpt>
      <trkpt lat="44.35868" lon="2.84826">
        <ele>687</ele>
        <time>2013-03-06T13:00:28.970Z</time>
      </trkpt>
      <trkpt lat="44.35867" lon="2.84826">
        <ele>687</ele>
        <time>2013-03-06T13:00:30.060Z</time>
      </trkpt>
      <trkpt lat="44.35865" lon="2.84826">
        <ele>688</ele>
        <time>2013-03-06T13:00:30.970Z</time>
      </trkpt>
      <trkpt lat="44.35863" lon="2.84826">
        <ele>688</ele>
        <time>2013-03-06T13:00:32.050Z</time>
      </trkpt>
      <trkpt lat="44.35862" lon="2.84825">
        <ele>688</ele>
        <time>2013-03-06T13:00:32.980Z</time>
      </trkpt>
      <trkpt lat="44.35861" lon="2.84825">
        <ele>688</ele>
        <time>2013-03-06T13:00:34.120Z</time>
      </trkpt>
      <trkpt lat="44.35858" lon="2.84824">
        <ele>688</ele>
        <time>2013-03-06T13:00:35.970Z</time>
      </trkpt>
      <trkpt lat="44.35856" lon="2.84824">
        <ele>689</ele>
        <time>2013-03-06T13:00:37.050Z</time>
      </trkpt>
      <trkpt lat="44.35854" lon="2.84824">
        <ele>689</ele>
        <time>2013-03-06T13:00:37.970Z</time>
      </trkpt>
      <trkpt lat="44.35853" lon="2.84823">
        <ele>689</ele>
        <time>2013-03-06T13:00:39.130Z</time>
      </trkpt>
      <trkpt lat="44.35852" lon="2.84823">
        <ele>689</ele>
        <time>2013-03-06T13:00:40.970Z</time>
      </trkpt>
      <trkpt lat="44.35851" lon="2.84824">
        <ele>689</ele>
        <time>2013-03-06T13:00:42.050Z</time>
      </trkpt>
      <trkpt lat="44.35849" lon="2.84824">
        <ele>690</ele>
        <time>2013-03-06T13:00:44.050Z</time>
      </trkpt>
      <trkpt lat="44.35845" lon="2.84822">
        <ele>690</ele>
        <time>2013-03-06T13:00:46.050Z</time>
      </trkpt>
      <trkpt lat="44.35843" lon="2.84821">
        <ele>690</ele>
        <time>2013-03-06T13:00:47.050Z</time>
      </trkpt>
      <trkpt lat="44.35839" lon="2.84821">
        <ele>691</ele>
        <time>2013-03-06T13:00:48.970Z</time>
      </trkpt>
      <trkpt lat="44.35838" lon="2.8482">
        <ele>691</ele>
        <time>2013-03-06T13:00:49.980Z</time>
      </trkpt>
      <trkpt lat="44.35836" lon="2.8482">
        <ele>691</ele>
        <time>2013-03-06T13:00:50.970Z</time>
      </trkpt>
      <trkpt lat="44.35834" lon="2.8482">
        <ele>691</ele>
        <time>2013-03-06T13:00:51.970Z</time>
      </trkpt>
      <trkpt lat="44.35832" lon="2.84819">
        <ele>696</ele>
        <time>2013-03-06T13:00:52.970Z</time>
      </trkpt>
      <trkpt lat="44.35831" lon="2.84819">
        <ele>697</ele>
        <time>2013-03-06T13:00:53.970Z</time>
      </trkpt>
      <trkpt lat="44.35829" lon="2.84818">
        <ele>697</ele>
        <time>2013-03-06T13:00:54.970Z</time>
      </trkpt>
      <trkpt lat="44.35828" lon="2.84817">
        <ele>697</ele>
        <time>2013-03-06T13:00:55.970Z</time>
      </trkpt>
      <trkpt lat="44.35826" lon="2.84817">
        <ele>697</ele>
        <time>2013-03-06T13:00:57.970Z</time>
      </trkpt>
      <trkpt lat="44.35825" lon="2.84817">
        <ele>697</ele>
        <time>2013-03-06T13:00:59.000Z</time>
      </trkpt>
      <trkpt lat="44.35824" lon="2.84816">
        <ele>697</ele>
        <time>2013-03-06T13:01:00.050Z</time>
      </trkpt>
      <trkpt lat="44.35821" lon="2.84815">
        <ele>698</ele>
        <time>2013-03-06T13:01:02.050Z</time>
      </trkpt>
      <trkpt lat="44.35819" lon="2.84814">
        <ele>698</ele>
        <time>2013-03-06T13:01:03.050Z</time>
      </trkpt>
      <trkpt lat="44.35817" lon="2.84812">
        <ele>698</ele>
        <time>2013-03-06T13:01:04.060Z</time>
      </trkpt>
      <trkpt lat="44.35814" lon="2.84809">
        <ele>698</ele>
        <time>2013-03-06T13:01:06.050Z</time>
      </trkpt>
      <trkpt lat="44.35812" lon="2.84807">
        <ele>699</ele>
        <time>2013-03-06T13:01:07.050Z</time>
      </trkpt>
      <trkpt lat="44.35811" lon="2.84806">
        <ele>699</ele>
        <time>2013-03-06T13:01:08.050Z</time>
      </trkpt>
      <trkpt lat="44.35809" lon="2.84805">
        <ele>699</ele>
        <time>2013-03-06T13:01:09.080Z</time>
      </trkpt>
      <trkpt lat="44.35806" lon="2.84803">
        <ele>699</ele>
        <time>2013-03-06T13:01:10.970Z</time>
      </trkpt>
      <trkpt lat="44.35805" lon="2.84801">
        <ele>699</ele>
        <time>2013-03-06T13:01:11.970Z</time>
      </trkpt>
      <trkpt lat="44.35804" lon="2.848">
        <ele>699</ele>
        <time>2013-03-06T13:01:12.970Z</time>
      </trkpt>
      <trkpt lat="44.35802" lon="2.84799">
        <ele>699</ele>
        <time>2013-03-06T13:01:14.130Z</time>
      </trkpt>
      <trkpt lat="44.358" lon="2.84797">
        <ele>700</ele>
        <time>2013-03-06T13:01:15.980Z</time>
      </trkpt>
      <trkpt lat="44.35798" lon="2.84796">
        <ele>700</ele>
        <time>2013-03-06T13:01:16.970Z</time>
      </trkpt>
      <trkpt lat="44.35796" lon="2.84794">
        <ele>700</ele>
        <time>2013-03-06T13:01:17.970Z</time>
      </trkpt>
      <trkpt lat="44.35793" lon="2.84791">
        <ele>700</ele>
        <time>2013-03-06T13:01:18.970Z</time>
      </trkpt>
      <trkpt lat="44.3579" lon="2.84789">
        <ele>700</ele>
        <time>2013-03-06T13:01:20.040Z</time>
      </trkpt>
      <trkpt lat="44.35788" lon="2.84786">
        <ele>700</ele>
        <time>2013-03-06T13:01:21.040Z</time>
      </trkpt>
      <trkpt lat="44.35784" lon="2.84781">
        <ele>701</ele>
        <time>2013-03-06T13:01:23.040Z</time>
      </trkpt>
      <trkpt lat="44.35781" lon="2.84779">
        <ele>701</ele>
        <time>2013-03-06T13:01:24.080Z</time>
      </trkpt>
      <trkpt lat="44.35775" lon="2.84775">
        <ele>701</ele>
        <time>2013-03-06T13:01:25.970Z</time>
      </trkpt>
      <trkpt lat="44.35773" lon="2.84773">
        <ele>702</ele>
        <time>2013-03-06T13:01:26.970Z</time>
      </trkpt>
      <trkpt lat="44.3577" lon="2.8477">
        <ele>702</ele>
        <time>2013-03-06T13:01:27.970Z</time>
      </trkpt>
      <trkpt lat="44.35768" lon="2.84768">
        <ele>702</ele>
        <time>2013-03-06T13:01:28.970Z</time>
      </trkpt>
      <trkpt lat="44.35766" lon="2.84765">
        <ele>702</ele>
        <time>2013-03-06T13:01:29.970Z</time>
      </trkpt>
      <trkpt lat="44.35764" lon="2.84762">
        <ele>703</ele>
        <time>2013-03-06T13:01:30.970Z</time>
      </trkpt>
      <trkpt lat="44.35763" lon="2.8476">
        <ele>703</ele>
        <time>2013-03-06T13:01:31.970Z</time>
      </trkpt>
      <trkpt lat="44.35761" lon="2.84757">
        <ele>703</ele>
        <time>2013-03-06T13:01:32.980Z</time>
      </trkpt>
      <trkpt lat="44.3576" lon="2.84753">
        <ele>703</ele>
        <time>2013-03-06T13:01:33.970Z</time>
      </trkpt>
      <trkpt lat="44.35758" lon="2.8475">
        <ele>702</ele>
        <time>2013-03-06T13:01:34.970Z</time>
      </trkpt>
      <trkpt lat="44.35756" lon="2.84746">
        <ele>702</ele>
        <time>2013-03-06T13:01:35.970Z</time>
      </trkpt>
      <trkpt lat="44.35754" lon="2.84743">
        <ele>702</ele>
        <time>2013-03-06T13:01:36.970Z</time>
      </trkpt>
      <trkpt lat="44.35753" lon="2.8474">
        <ele>702</ele>
        <time>2013-03-06T13:01:37.970Z</time>
      </trkpt>
      <trkpt lat="44.35751" lon="2.84736">
        <ele>701</ele>
        <time>2013-03-06T13:01:38.970Z</time>
      </trkpt>
      <trkpt lat="44.3575" lon="2.84731">
        <ele>700</ele>
        <time>2013-03-06T13:01:39.970Z</time>
      </trkpt>
      <trkpt lat="44.35749" lon="2.84726">
        <ele>708</ele>
        <time>2013-03-06T13:01:40.970Z</time>
      </trkpt>
      <trkpt lat="44.35748" lon="2.84722">
        <ele>708</ele>
        <time>2013-03-06T13:01:41.970Z</time>
      </trkpt>
      <trkpt lat="44.35746" lon="2.84719">
        <ele>708</ele>
        <time>2013-03-06T13:01:42.970Z</time>
      </trkpt>
      <trkpt lat="44.35745" lon="2.84716">
        <ele>708</ele>
        <time>2013-03-06T13:01:43.970Z</time>
      </trkpt>
      <trkpt lat="44.35744" lon="2.84713">
        <ele>708</ele>
        <time>2013-03-06T13:01:45.040Z</time>
      </trkpt>
      <trkpt lat="44.35741" lon="2.84707">
        <ele>708</ele>
        <time>2013-03-06T13:01:47.040Z</time>
      </trkpt>
      <trkpt lat="44.3574" lon="2.84703">
        <ele>708</ele>
        <time>2013-03-06T13:01:48.040Z</time>
      </trkpt>
      <trkpt lat="44.35738" lon="2.84699">
        <ele>707</ele>
        <time>2013-03-06T13:01:49.070Z</time>
      </trkpt>
      <trkpt lat="44.35735" lon="2.84692">
        <ele>707</ele>
        <time>2013-03-06T13:01:50.970Z</time>
      </trkpt>
      <trkpt lat="44.35734" lon="2.84689">
        <ele>707</ele>
        <time>2013-03-06T13:01:51.970Z</time>
      </trkpt>
      <trkpt lat="44.35732" lon="2.84686">
        <ele>707</ele>
        <time>2013-03-06T13:01:52.970Z</time>
      </trkpt>
      <trkpt lat="44.3573" lon="2.84682">
        <ele>707</ele>
        <time>2013-03-06T13:01:53.970Z</time>
      </trkpt>
      <trkpt lat="44.35729" lon="2.84679">
        <ele>707</ele>
        <time>2013-03-06T13:01:54.970Z</time>
      </trkpt>
      <trkpt lat="44.35727" lon="2.84676">
        <ele>707</ele>
        <time>2013-03-06T13:01:55.970Z</time>
      </trkpt>
      <trkpt lat="44.35725" lon="2.84672">
        <ele>707</ele>
        <time>2013-03-06T13:01:57.020Z</time>
      </trkpt>
      <trkpt lat="44.35723" lon="2.84668">
        <ele>707</ele>
        <time>2013-03-06T13:01:58.030Z</time>
      </trkpt>
      <trkpt lat="44.35721" lon="2.84664">
        <ele>704</ele>
        <time>2013-03-06T13:01:59.140Z</time>
      </trkpt>
      <trkpt lat="44.35717" lon="2.84657">
        <ele>705</ele>
        <time>2013-03-06T13:02:01.030Z</time>
      </trkpt>
      <trkpt lat="44.35715" lon="2.84654">
        <ele>705</ele>
        <time>2013-03-06T13:02:02.030Z</time>
      </trkpt>
      <trkpt lat="44.35711" lon="2.84648">
        <ele>706</ele>
        <time>2013-03-06T13:02:04.050Z</time>
      </trkpt>
      <trkpt lat="44.35708" lon="2.84643">
        <ele>706</ele>
        <time>2013-03-06T13:02:06.030Z</time>
      </trkpt>
      <trkpt lat="44.35706" lon="2.8464">
        <ele>706</ele>
        <time>2013-03-06T13:02:07.030Z</time>
      </trkpt>
      <trkpt lat="44.35704" lon="2.84638">
        <ele>706</ele>
        <time>2013-03-06T13:02:08.030Z</time>
      </trkpt>
      <trkpt lat="44.35702" lon="2.84636">
        <ele>706</ele>
        <time>2013-03-06T13:02:09.080Z</time>
      </trkpt>
      <trkpt lat="44.35699" lon="2.8463">
        <ele>706</ele>
        <time>2013-03-06T13:02:10.970Z</time>
      </trkpt>
      <trkpt lat="44.35698" lon="2.84627">
        <ele>706</ele>
        <time>2013-03-06T13:02:11.970Z</time>
      </trkpt>
      <trkpt lat="44.35697" lon="2.84626">
        <ele>706</ele>
        <time>2013-03-06T13:02:12.970Z</time>
      </trkpt>
      <trkpt lat="44.35696" lon="2.84623">
        <ele>706</ele>
        <time>2013-03-06T13:02:13.970Z</time>
      </trkpt>
      <trkpt lat="44.35696" lon="2.84621">
        <ele>706</ele>
        <time>2013-03-06T13:02:14.970Z</time>
      </trkpt>
      <trkpt lat="44.35695" lon="2.84619">
        <ele>706</ele>
        <time>2013-03-06T13:02:15.980Z</time>
      </trkpt>
      <trkpt lat="44.35694" lon="2.84617">
        <ele>706</ele>
        <time>2013-03-06T13:02:16.970Z</time>
      </trkpt>
      <trkpt lat="44.35692" lon="2.84615">
        <ele>706</ele>
        <time>2013-03-06T13:02:17.970Z</time>
      </trkpt>
      <trkpt lat="44.35691" lon="2.84614">
        <ele>706</ele>
        <time>2013-03-06T13:02:18.970Z</time>
      </trkpt>
      <trkpt lat="44.3569" lon="2.84612">
        <ele>706</ele>
        <time>2013-03-06T13:02:19.970Z</time>
      </trkpt>
      <trkpt lat="44.35689" lon="2.84611">
        <ele>706</ele>
        <time>2013-03-06T13:02:20.970Z</time>
      </trkpt>
      <trkpt lat="44.35688" lon="2.8461">
        <ele>706</ele>
        <time>2013-03-06T13:02:21.970Z</time>
      </trkpt>
      <trkpt lat="44.35687" lon="2.84609">
        <ele>706</ele>
        <time>2013-03-06T13:02:22.970Z</time>
      </trkpt>
      <trkpt lat="44.35687" lon="2.84607">
        <ele>706</ele>
        <time>2013-03-06T13:02:23.970Z</time>
      </trkpt>
      <trkpt lat="44.35686" lon="2.84606">
        <ele>706</ele>
        <time>2013-03-06T13:02:24.970Z</time>
      </trkpt>
      <trkpt lat="44.35685" lon="2.84605">
        <ele>706</ele>
        <time>2013-03-06T13:02:25.970Z</time>
      </trkpt>
      <trkpt lat="44.35683" lon="2.84604">
        <ele>706</ele>
        <time>2013-03-06T13:02:26.970Z</time>
      </trkpt>
      <trkpt lat="44.35682" lon="2.84603">
        <ele>706</ele>
        <time>2013-03-06T13:02:27.970Z</time>
      </trkpt>
      <trkpt lat="44.35681" lon="2.84601">
        <ele>706</ele>
        <time>2013-03-06T13:02:28.970Z</time>
      </trkpt>
      <trkpt lat="44.35679" lon="2.846">
        <ele>706</ele>
        <time>2013-03-06T13:02:29.970Z</time>
      </trkpt>
      <trkpt lat="44.35678" lon="2.84598">
        <ele>706</ele>
        <time>2013-03-06T13:02:30.970Z</time>
      </trkpt>
      <trkpt lat="44.35677" lon="2.84597">
        <ele>706</ele>
        <time>2013-03-06T13:02:31.970Z</time>
      </trkpt>
      <trkpt lat="44.35675" lon="2.84596">
        <ele>706</ele>
        <time>2013-03-06T13:02:32.980Z</time>
      </trkpt>
      <trkpt lat="44.35673" lon="2.84595">
        <ele>706</ele>
        <time>2013-03-06T13:02:33.970Z</time>
      </trkpt>
      <trkpt lat="44.35672" lon="2.84594">
        <ele>707</ele>
        <time>2013-03-06T13:02:34.970Z</time>
      </trkpt>
      <trkpt lat="44.35671" lon="2.84593">
        <ele>707</ele>
        <time>2013-03-06T13:02:35.970Z</time>
      </trkpt>
      <trkpt lat="44.35669" lon="2.84592">
        <ele>707</ele>
        <time>2013-03-06T13:02:36.970Z</time>
      </trkpt>
      <trkpt lat="44.35668" lon="2.84591">
        <ele>707</ele>
        <time>2013-03-06T13:02:37.970Z</time>
      </trkpt>
      <trkpt lat="44.35666" lon="2.84591">
        <ele>712</ele>
        <time>2013-03-06T13:02:38.970Z</time>
      </trkpt>
      <trkpt lat="44.35665" lon="2.8459">
        <ele>712</ele>
        <time>2013-03-06T13:02:39.970Z</time>
      </trkpt>
      <trkpt lat="44.35663" lon="2.84591">
        <ele>712</ele>
        <time>2013-03-06T13:02:40.970Z</time>
      </trkpt>
      <trkpt lat="44.35662" lon="2.84591">
        <ele>712</ele>
        <time>2013-03-06T13:02:41.970Z</time>
      </trkpt>
      <trkpt lat="44.3566" lon="2.84591">
        <ele>713</ele>
        <time>2013-03-06T13:02:42.970Z</time>
      </trkpt>
      <trkpt lat="44.35659" lon="2.84592">
        <ele>714</ele>
        <time>2013-03-06T13:02:43.970Z</time>
      </trkpt>
      <trkpt lat="44.35657" lon="2.84592">
        <ele>714</ele>
        <time>2013-03-06T13:02:45.020Z</time>
      </trkpt>
      <trkpt lat="44.35653" lon="2.84591">
        <ele>716</ele>
        <time>2013-03-06T13:02:47.020Z</time>
      </trkpt>
      <trkpt lat="44.3565" lon="2.84592">
        <ele>717</ele>
        <time>2013-03-06T13:02:48.000Z</time>
      </trkpt>
      <trkpt lat="44.35649" lon="2.84592">
        <ele>717</ele>
        <time>2013-03-06T13:02:49.160Z</time>
      </trkpt>
      <trkpt lat="44.35645" lon="2.84593">
        <ele>719</ele>
        <time>2013-03-06T13:02:51.020Z</time>
      </trkpt>
      <trkpt lat="44.35643" lon="2.84593">
        <ele>719</ele>
        <time>2013-03-06T13:02:52.020Z</time>
      </trkpt>
      <trkpt lat="44.35642" lon="2.84592">
        <ele>719</ele>
        <time>2013-03-06T13:02:53.020Z</time>
      </trkpt>
      <trkpt lat="44.35641" lon="2.84592">
        <ele>719</ele>
        <time>2013-03-06T13:02:54.140Z</time>
      </trkpt>
      <trkpt lat="44.3564" lon="2.84591">
        <ele>720</ele>
        <time>2013-03-06T13:02:55.970Z</time>
      </trkpt>
      <trkpt lat="44.35639" lon="2.8459">
        <ele>720</ele>
        <time>2013-03-06T13:02:57.970Z</time>
      </trkpt>
      <trkpt lat="44.35638" lon="2.84589">
        <ele>720</ele>
        <time>2013-03-06T13:02:59.000Z</time>
      </trkpt>
      <trkpt lat="44.35637" lon="2.84589">
        <ele>720</ele>
        <time>2013-03-06T13:03:00.020Z</time>
      </trkpt>
      <trkpt lat="44.35636" lon="2.8459">
        <ele>721</ele>
        <time>2013-03-06T13:03:01.030Z</time>
      </trkpt>
      <trkpt lat="44.35633" lon="2.84589">
        <ele>721</ele>
        <time>2013-03-06T13:03:03.020Z</time>
      </trkpt>
      <trkpt lat="44.35631" lon="2.84588">
        <ele>722</ele>
        <time>2013-03-06T13:03:04.050Z</time>
      </trkpt>
      <trkpt lat="44.35628" lon="2.84586">
        <ele>722</ele>
        <time>2013-03-06T13:03:05.970Z</time>
      </trkpt>
      <trkpt lat="44.35627" lon="2.84585">
        <ele>723</ele>
        <time>2013-03-06T13:03:06.970Z</time>
      </trkpt>
      <trkpt lat="44.35625" lon="2.84584">
        <ele>723</ele>
        <time>2013-03-06T13:03:07.970Z</time>
      </trkpt>
      <trkpt lat="44.35623" lon="2.84583">
        <ele>717</ele>
        <time>2013-03-06T13:03:08.970Z</time>
      </trkpt>
      <trkpt lat="44.35622" lon="2.84582">
        <ele>718</ele>
        <time>2013-03-06T13:03:09.970Z</time>
      </trkpt>
      <trkpt lat="44.3562" lon="2.84581">
        <ele>718</ele>
        <time>2013-03-06T13:03:10.970Z</time>
      </trkpt>
      <trkpt lat="44.35618" lon="2.8458">
        <ele>719</ele>
        <time>2013-03-06T13:03:11.970Z</time>
      </trkpt>
      <trkpt lat="44.35616" lon="2.84579">
        <ele>719</ele>
        <time>2013-03-06T13:03:12.970Z</time>
      </trkpt>
      <trkpt lat="44.35615" lon="2.84579">
        <ele>719</ele>
        <time>2013-03-06T13:03:13.970Z</time>
      </trkpt>
      <trkpt lat="44.35614" lon="2.84578">
        <ele>719</ele>
        <time>2013-03-06T13:03:14.970Z</time>
      </trkpt>
      <trkpt lat="44.35613" lon="2.84577">
        <ele>720</ele>
        <time>2013-03-06T13:03:15.980Z</time>
      </trkpt>
      <trkpt lat="44.35611" lon="2.84576">
        <ele>720</ele>
        <time>2013-03-06T13:03:17.010Z</time>
      </trkpt>
      <trkpt lat="44.3561" lon="2.84575">
        <ele>720</ele>
        <time>2013-03-06T13:03:18.010Z</time>
      </trkpt>
      <trkpt lat="44.35609" lon="2.84575">
        <ele>721</ele>
        <time>2013-03-06T13:03:19.050Z</time>
      </trkpt>
      <trkpt lat="44.35606" lon="2.84574">
        <ele>721</ele>
        <time>2013-03-06T13:03:21.010Z</time>
      </trkpt>
      <trkpt lat="44.35605" lon="2.84574">
        <ele>721</ele>
        <time>2013-03-06T13:03:22.010Z</time>
      </trkpt>
      <trkpt lat="44.35603" lon="2.84574">
        <ele>722</ele>
        <time>2013-03-06T13:03:23.010Z</time>
      </trkpt>
      <trkpt lat="44.35601" lon="2.84573">
        <ele>722</ele>
        <time>2013-03-06T13:03:24.120Z</time>
      </trkpt>
      <trkpt lat="44.35597" lon="2.84573">
        <ele>723</ele>
        <time>2013-03-06T13:03:25.970Z</time>
      </trkpt>
      <trkpt lat="44.35596" lon="2.84573">
        <ele>723</ele>
        <time>2013-03-06T13:03:26.970Z</time>
      </trkpt>
      <trkpt lat="44.35594" lon="2.84572">
        <ele>724</ele>
        <time>2013-03-06T13:03:27.970Z</time>
      </trkpt>
      <trkpt lat="44.35592" lon="2.84572">
        <ele>724</ele>
        <time>2013-03-06T13:03:28.970Z</time>
      </trkpt>
      <trkpt lat="44.35591" lon="2.84571">
        <ele>724</ele>
        <time>2013-03-06T13:03:30.020Z</time>
      </trkpt>
      <trkpt lat="44.35588" lon="2.8457">
        <ele>724</ele>
        <time>2013-03-06T13:03:32.010Z</time>
      </trkpt>
      <trkpt lat="44.35586" lon="2.84569">
        <ele>724</ele>
        <time>2013-03-06T13:03:33.070Z</time>
      </trkpt>
      <trkpt lat="44.35583" lon="2.84569">
        <ele>734</ele>
        <time>2013-03-06T13:03:34.970Z</time>
      </trkpt>
      <trkpt lat="44.35582" lon="2.84568">
        <ele>734</ele>
        <time>2013-03-06T13:03:35.970Z</time>
      </trkpt>
      <trkpt lat="44.3558" lon="2.84568">
        <ele>734</ele>
        <time>2013-03-06T13:03:36.970Z</time>
      </trkpt>
      <trkpt lat="44.35578" lon="2.84567">
        <ele>735</ele>
        <time>2013-03-06T13:03:37.970Z</time>
      </trkpt>
      <trkpt lat="44.35577" lon="2.84567">
        <ele>735</ele>
        <time>2013-03-06T13:03:38.970Z</time>
      </trkpt>
      <trkpt lat="44.35574" lon="2.84566">
        <ele>735</ele>
        <time>2013-03-06T13:03:40.970Z</time>
      </trkpt>
      <trkpt lat="44.35573" lon="2.84566">
        <ele>735</ele>
        <time>2013-03-06T13:03:41.970Z</time>
      </trkpt>
      <trkpt lat="44.35572" lon="2.84564">
        <ele>735</ele>
        <time>2013-03-06T13:03:42.970Z</time>
      </trkpt>
      <trkpt lat="44.35572" lon="2.84562">
        <ele>736</ele>
        <time>2013-03-06T13:03:43.970Z</time>
      </trkpt>
      <trkpt lat="44.35571" lon="2.8456">
        <ele>736</ele>
        <time>2013-03-06T13:03:44.970Z</time>
      </trkpt>
      <trkpt lat="44.3557" lon="2.84559">
        <ele>736</ele>
        <time>2013-03-06T13:03:46.970Z</time>
      </trkpt>
      <trkpt lat="44.35569" lon="2.84558">
        <ele>736</ele>
        <time>2013-03-06T13:03:47.970Z</time>
      </trkpt>
      <trkpt lat="44.35568" lon="2.84556">
        <ele>736</ele>
        <time>2013-03-06T13:03:48.970Z</time>
      </trkpt>
      <trkpt lat="44.35567" lon="2.84555">
        <ele>737</ele>
        <time>2013-03-06T13:03:49.980Z</time>
      </trkpt>
      <trkpt lat="44.35566" lon="2.84554">
        <ele>737</ele>
        <time>2013-03-06T13:03:51.020Z</time>
      </trkpt>
      <trkpt lat="44.35565" lon="2.84551">
        <ele>737</ele>
        <time>2013-03-06T13:03:52.990Z</time>
      </trkpt>
      <trkpt lat="44.35564" lon="2.84549">
        <ele>737</ele>
        <time>2013-03-06T13:03:54.050Z</time>
      </trkpt>
      <trkpt lat="44.35564" lon="2.84546">
        <ele>737</ele>
        <time>2013-03-06T13:03:55.970Z</time>
      </trkpt>
      <trkpt lat="44.35564" lon="2.84544">
        <ele>737</ele>
        <time>2013-03-06T13:03:57.970Z</time>
      </trkpt>
      <trkpt lat="44.35565" lon="2.84543">
        <ele>737</ele>
        <time>2013-03-06T13:04:00.000Z</time>
      </trkpt>
      <trkpt lat="44.35566" lon="2.84542">
        <ele>737</ele>
        <time>2013-03-06T13:04:01.000Z</time>
      </trkpt>
      <trkpt lat="44.35567" lon="2.84541">
        <ele>737</ele>
        <time>2013-03-06T13:04:02.000Z</time>
      </trkpt>
      <trkpt lat="44.35568" lon="2.8454">
        <ele>737</ele>
        <time>2013-03-06T13:04:03.030Z</time>
      </trkpt>
      <trkpt lat="44.35569" lon="2.84538">
        <ele>737</ele>
        <time>2013-03-06T13:04:04.050Z</time>
      </trkpt>
      <trkpt lat="44.35571" lon="2.84535">
        <ele>736</ele>
        <time>2013-03-06T13:04:06.000Z</time>
      </trkpt>
      <trkpt lat="44.35571" lon="2.84534">
        <ele>736</ele>
        <time>2013-03-06T13:04:07.000Z</time>
      </trkpt>
      <trkpt lat="44.35572" lon="2.84533">
        <ele>736</ele>
        <time>2013-03-06T13:04:08.000Z</time>
      </trkpt>
      <trkpt lat="44.35573" lon="2.84532">
        <ele>736</ele>
        <time>2013-03-06T13:04:09.060Z</time>
      </trkpt>
      <trkpt lat="44.35573" lon="2.8453">
        <ele>736</ele>
        <time>2013-03-06T13:04:10.980Z</time>
      </trkpt>
      <trkpt lat="44.35573" lon="2.84529">
        <ele>736</ele>
        <time>2013-03-06T13:04:11.970Z</time>
      </trkpt>
      <trkpt lat="44.35574" lon="2.84527">
        <ele>735</ele>
        <time>2013-03-06T13:04:13.970Z</time>
      </trkpt>
      <trkpt lat="44.35574" lon="2.84526">
        <ele>735</ele>
        <time>2013-03-06T13:04:14.970Z</time>
      </trkpt>
      <trkpt lat="44.35575" lon="2.84524">
        <ele>735</ele>
        <time>2013-03-06T13:04:15.980Z</time>
      </trkpt>
      <trkpt lat="44.35577" lon="2.84522">
        <ele>734</ele>
        <time>2013-03-06T13:04:17.000Z</time>
      </trkpt>
      <trkpt lat="44.35579" lon="2.84521">
        <ele>734</ele>
        <time>2013-03-06T13:04:18.000Z</time>
      </trkpt>
      <trkpt lat="44.35581" lon="2.8452">
        <ele>734</ele>
        <time>2013-03-06T13:04:19.050Z</time>
      </trkpt>
      <trkpt lat="44.35584" lon="2.84516">
        <ele>722</ele>
        <time>2013-03-06T13:04:20.970Z</time>
      </trkpt>
      <trkpt lat="44.35587" lon="2.84513">
        <ele>723</ele>
        <time>2013-03-06T13:04:21.970Z</time>
      </trkpt>
      <trkpt lat="44.35588" lon="2.84511">
        <ele>723</ele>
        <time>2013-03-06T13:04:23.000Z</time>
      </trkpt>
      <trkpt lat="44.35589" lon="2.84509">
        <ele>723</ele>
        <time>2013-03-06T13:04:24.060Z</time>
      </trkpt>
      <trkpt lat="44.35591" lon="2.84505">
        <ele>724</ele>
        <time>2013-03-06T13:04:25.970Z</time>
      </trkpt>
      <trkpt lat="44.35592" lon="2.84503">
        <ele>724</ele>
        <time>2013-03-06T13:04:26.970Z</time>
      </trkpt>
      <trkpt lat="44.35593" lon="2.84501">
        <ele>723</ele>
        <time>2013-03-06T13:04:27.970Z</time>
      </trkpt>
      <trkpt lat="44.35593" lon="2.84498">
        <ele>723</ele>
        <time>2013-03-06T13:04:29.050Z</time>
      </trkpt>
      <trkpt lat="44.35593" lon="2.84494">
        <ele>723</ele>
        <time>2013-03-06T13:04:30.970Z</time>
      </trkpt>
      <trkpt lat="44.35593" lon="2.84492">
        <ele>723</ele>
        <time>2013-03-06T13:04:31.970Z</time>
      </trkpt>
      <trkpt lat="44.35594" lon="2.8449">
        <ele>722</ele>
        <time>2013-03-06T13:04:32.980Z</time>
      </trkpt>
      <trkpt lat="44.35594" lon="2.84489">
        <ele>722</ele>
        <time>2013-03-06T13:04:34.060Z</time>
      </trkpt>
      <trkpt lat="44.35594" lon="2.84485">
        <ele>721</ele>
        <time>2013-03-06T13:04:35.980Z</time>
      </trkpt>
      <trkpt lat="44.35594" lon="2.84482">
        <ele>721</ele>
        <time>2013-03-06T13:04:37.970Z</time>
      </trkpt>
      <trkpt lat="44.35594" lon="2.8448">
        <ele>721</ele>
        <time>2013-03-06T13:04:39.990Z</time>
      </trkpt>
      <trkpt lat="44.35594" lon="2.84477">
        <ele>721</ele>
        <time>2013-03-06T13:04:41.990Z</time>
      </trkpt>
      <trkpt lat="44.35595" lon="2.84475">
        <ele>720</ele>
        <time>2013-03-06T13:04:43.010Z</time>
      </trkpt>
      <trkpt lat="44.35595" lon="2.84472">
        <ele>720</ele>
        <time>2013-03-06T13:04:44.060Z</time>
      </trkpt>
      <trkpt lat="44.35594" lon="2.84467">
        <ele>720</ele>
        <time>2013-03-06T13:04:45.970Z</time>
      </trkpt>
      <trkpt lat="44.35594" lon="2.84466">
        <ele>720</ele>
        <time>2013-03-06T13:04:46.970Z</time>
      </trkpt>
      <trkpt lat="44.35594" lon="2.84464">
        <ele>720</ele>
        <time>2013-03-06T13:04:47.970Z</time>
      </trkpt>
      <trkpt lat="44.35595" lon="2.84462">
        <ele>720</ele>
        <time>2013-03-06T13:04:48.970Z</time>
      </trkpt>
      <trkpt lat="44.35595" lon="2.84461">
        <ele>720</ele>
        <time>2013-03-06T13:04:50.050Z</time>
      </trkpt>
      <trkpt lat="44.35595" lon="2.8446">
        <ele>720</ele>
        <time>2013-03-06T13:04:51.970Z</time>
      </trkpt>
      <trkpt lat="44.35595" lon="2.84457">
        <ele>720</ele>
        <time>2013-03-06T13:04:53.970Z</time>
      </trkpt>
      <trkpt lat="44.35594" lon="2.84454">
        <ele>721</ele>
        <time>2013-03-06T13:04:55.990Z</time>
      </trkpt>
      <trkpt lat="44.35593" lon="2.84454">
        <ele>721</ele>
        <time>2013-03-06T13:04:56.990Z</time>
      </trkpt>
      <trkpt lat="44.35592" lon="2.84454">
        <ele>721</ele>
        <time>2013-03-06T13:04:59.000Z</time>
      </trkpt>
      <trkpt lat="44.35592" lon="2.84454">
        <ele>721</ele>
        <time>2013-03-06T13:04:59.970Z</time>
      </trkpt>
      <trkpt lat="44.35592" lon="2.84456">
        <ele>721</ele>
        <time>2013-03-06T13:05:01.970Z</time>
      </trkpt>
      <trkpt lat="44.35592" lon="2.84458">
        <ele>721</ele>
        <time>2013-03-06T13:05:03.970Z</time>
      </trkpt>
      <trkpt lat="44.35591" lon="2.8446">
        <ele>721</ele>
        <time>2013-03-06T13:05:06.970Z</time>
      </trkpt>
      <trkpt lat="44.3559" lon="2.84462">
        <ele>721</ele>
        <time>2013-03-06T13:05:11.990Z</time>
      </trkpt>
      <trkpt lat="44.35589" lon="2.84463">
        <ele>721</ele>
        <time>2013-03-06T13:05:14.060Z</time>
      </trkpt>
      <trkpt lat="44.3559" lon="2.84464">
        <ele>721</ele>
        <time>2013-03-06T13:05:15.980Z</time>
      </trkpt>
      <trkpt lat="44.35589" lon="2.84466">
        <ele>721</ele>
        <time>2013-03-06T13:05:19.050Z</time>
      </trkpt>
      <trkpt lat="44.35588" lon="2.84468">
        <ele>721</ele>
        <time>2013-03-06T13:05:20.980Z</time>
      </trkpt>
      <trkpt lat="44.35587" lon="2.84468">
        <ele>721</ele>
        <time>2013-03-06T13:05:22.110Z</time>
      </trkpt>
      <trkpt lat="44.35585" lon="2.84469">
        <ele>721</ele>
        <time>2013-03-06T13:05:23.970Z</time>
      </trkpt>
      <trkpt lat="44.35584" lon="2.84469">
        <ele>721</ele>
        <time>2013-03-06T13:05:24.980Z</time>
      </trkpt>
      <trkpt lat="44.35583" lon="2.8447">
        <ele>721</ele>
        <time>2013-03-06T13:05:25.980Z</time>
      </trkpt>
      <trkpt lat="44.35582" lon="2.84471">
        <ele>738</ele>
        <time>2013-03-06T13:05:26.980Z</time>
      </trkpt>
      <trkpt lat="44.35581" lon="2.84472">
        <ele>738</ele>
        <time>2013-03-06T13:05:27.980Z</time>
      </trkpt>
      <trkpt lat="44.35579" lon="2.84473">
        <ele>738</ele>
        <time>2013-03-06T13:05:29.980Z</time>
      </trkpt>
      <trkpt lat="44.35578" lon="2.84475">
        <ele>738</ele>
        <time>2013-03-06T13:05:30.980Z</time>
      </trkpt>
      <trkpt lat="44.35576" lon="2.84475">
        <ele>738</ele>
        <time>2013-03-06T13:05:32.020Z</time>
      </trkpt>
      <trkpt lat="44.35576" lon="2.84477">
        <ele>738</ele>
        <time>2013-03-06T13:05:34.130Z</time>
      </trkpt>
      <trkpt lat="44.35573" lon="2.84478">
        <ele>738</ele>
        <time>2013-03-06T13:05:35.980Z</time>
      </trkpt>
      <trkpt lat="44.35572" lon="2.84478">
        <ele>738</ele>
        <time>2013-03-06T13:05:37.980Z</time>
      </trkpt>
      <trkpt lat="44.3557" lon="2.84478">
        <ele>738</ele>
        <time>2013-03-06T13:05:39.070Z</time>
      </trkpt>
      <trkpt lat="44.35568" lon="2.8448">
        <ele>738</ele>
        <time>2013-03-06T13:05:40.980Z</time>
      </trkpt>
      <trkpt lat="44.35567" lon="2.84481">
        <ele>738</ele>
        <time>2013-03-06T13:05:42.020Z</time>
      </trkpt>
      <trkpt lat="44.35566" lon="2.84482">
        <ele>738</ele>
        <time>2013-03-06T13:05:44.980Z</time>
      </trkpt>
      <trkpt lat="44.35564" lon="2.84482">
        <ele>739</ele>
        <time>2013-03-06T13:05:47.970Z</time>
      </trkpt>
      <trkpt lat="44.35563" lon="2.84483">
        <ele>739</ele>
        <time>2013-03-06T13:05:50.030Z</time>
      </trkpt>
      <trkpt lat="44.35562" lon="2.84483">
        <ele>739</ele>
        <time>2013-03-06T13:05:51.980Z</time>
      </trkpt>
      <trkpt lat="44.35561" lon="2.84483">
        <ele>739</ele>
        <time>2013-03-06T13:05:52.980Z</time>
      </trkpt>
      <trkpt lat="44.35557" lon="2.84484">
        <ele>740</ele>
        <time>2013-03-06T13:05:54.050Z</time>
      </trkpt>
      <trkpt lat="44.35554" lon="2.84486">
        <ele>741</ele>
        <time>2013-03-06T13:05:55.970Z</time>
      </trkpt>
      <trkpt lat="44.35553" lon="2.84487">
        <ele>741</ele>
        <time>2013-03-06T13:05:57.970Z</time>
      </trkpt>
      <trkpt lat="44.35551" lon="2.84487">
        <ele>741</ele>
        <time>2013-03-06T13:06:00.970Z</time>
      </trkpt>
      <trkpt lat="44.3555" lon="2.84488">
        <ele>742</ele>
        <time>2013-03-06T13:06:01.980Z</time>
      </trkpt>
      <trkpt lat="44.35548" lon="2.84488">
        <ele>742</ele>
        <time>2013-03-06T13:06:02.970Z</time>
      </trkpt>
      <trkpt lat="44.35546" lon="2.84489">
        <ele>742</ele>
        <time>2013-03-06T13:06:04.970Z</time>
      </trkpt>
      <trkpt lat="44.35544" lon="2.84491">
        <ele>743</ele>
        <time>2013-03-06T13:06:06.970Z</time>
      </trkpt>
      <trkpt lat="44.35542" lon="2.84492">
        <ele>743</ele>
        <time>2013-03-06T13:06:09.050Z</time>
      </trkpt>
      <trkpt lat="44.3554" lon="2.84491">
        <ele>744</ele>
        <time>2013-03-06T13:06:11.050Z</time>
      </trkpt>
      <trkpt lat="44.35538" lon="2.8449">
        <ele>744</ele>
        <time>2013-03-06T13:06:12.970Z</time>
      </trkpt>
      <trkpt lat="44.35537" lon="2.8449">
        <ele>744</ele>
        <time>2013-03-06T13:06:14.970Z</time>
      </trkpt>
      <trkpt lat="44.35536" lon="2.8449">
        <ele>745</ele>
        <time>2013-03-06T13:06:17.970Z</time>
      </trkpt>
      <trkpt lat="44.35537" lon="2.84489">
        <ele>744</ele>
        <time>2013-03-06T13:06:19.970Z</time>
      </trkpt>
      <trkpt lat="44.35536" lon="2.84489">
        <ele>745</ele>
        <time>2013-03-06T13:06:22.970Z</time>
      </trkpt>
      <trkpt lat="44.35534" lon="2.84489">
        <ele>745</ele>
        <time>2013-03-06T13:06:24.970Z</time>
      </trkpt>
      <trkpt lat="44.35532" lon="2.8449">
        <ele>745</ele>
        <time>2013-03-06T13:06:28.070Z</time>
      </trkpt>
      <trkpt lat="44.35528" lon="2.84489">
        <ele>746</ele>
        <time>2013-03-06T13:06:30.070Z</time>
      </trkpt>
      <trkpt lat="44.35526" lon="2.84488">
        <ele>747</ele>
        <time>2013-03-06T13:06:32.070Z</time>
      </trkpt>
      <trkpt lat="44.35524" lon="2.84487">
        <ele>747</ele>
        <time>2013-03-06T13:06:34.970Z</time>
      </trkpt>
      <trkpt lat="44.35523" lon="2.84487">
        <ele>747</ele>
        <time>2013-03-06T13:06:38.060Z</time>
      </trkpt>
      <trkpt lat="44.35522" lon="2.84486">
        <ele>747</ele>
        <time>2013-03-06T13:06:40.060Z</time>
      </trkpt>
      <trkpt lat="44.35521" lon="2.84487">
        <ele>748</ele>
        <time>2013-03-06T13:06:42.060Z</time>
      </trkpt>
      <trkpt lat="44.3552" lon="2.84487">
        <ele>748</ele>
        <time>2013-03-06T13:06:42.970Z</time>
      </trkpt>
      <trkpt lat="44.35518" lon="2.84488">
        <ele>748</ele>
        <time>2013-03-06T13:06:44.060Z</time>
      </trkpt>
      <trkpt lat="44.35516" lon="2.84489">
        <ele>748</ele>
        <time>2013-03-06T13:06:46.060Z</time>
      </trkpt>
      <trkpt lat="44.35515" lon="2.84489">
        <ele>748</ele>
        <time>2013-03-06T13:06:48.060Z</time>
      </trkpt>
      <trkpt lat="44.35514" lon="2.84488">
        <ele>749</ele>
        <time>2013-03-06T13:06:50.020Z</time>
      </trkpt>
      <trkpt lat="44.35512" lon="2.84488">
        <ele>749</ele>
        <time>2013-03-06T13:06:52.060Z</time>
      </trkpt>
      <trkpt lat="44.35511" lon="2.84489">
        <ele>749</ele>
        <time>2013-03-06T13:06:54.070Z</time>
      </trkpt>
      <trkpt lat="44.35509" lon="2.84489">
        <ele>749</ele>
        <time>2013-03-06T13:06:56.060Z</time>
      </trkpt>
      <trkpt lat="44.35507" lon="2.84489">
        <ele>750</ele>
        <time>2013-03-06T13:06:58.060Z</time>
      </trkpt>
      <trkpt lat="44.35506" lon="2.84488">
        <ele>750</ele>
        <time>2013-03-06T13:06:59.050Z</time>
      </trkpt>
      <trkpt lat="44.35503" lon="2.84488">
        <ele>750</ele>
        <time>2013-03-06T13:07:01.060Z</time>
      </trkpt>
      <trkpt lat="44.35503" lon="2.84487">
        <ele>750</ele>
        <time>2013-03-06T13:07:04.970Z</time>
      </trkpt>
      <trkpt lat="44.35501" lon="2.84487">
        <ele>750</ele>
        <time>2013-03-06T13:07:06.970Z</time>
      </trkpt>
      <trkpt lat="44.35501" lon="2.84488">
        <ele>750</ele>
        <time>2013-03-06T13:07:08.060Z</time>
      </trkpt>
      <trkpt lat="44.355" lon="2.84487">
        <ele>759</ele>
        <time>2013-03-06T13:07:10.060Z</time>
      </trkpt>
      <trkpt lat="44.35499" lon="2.84485">
        <ele>760</ele>
        <time>2013-03-06T13:07:12.970Z</time>
      </trkpt>
      <trkpt lat="44.355" lon="2.84485">
        <ele>760</ele>
        <time>2013-03-06T13:07:14.970Z</time>
      </trkpt>
      <trkpt lat="44.355" lon="2.84487">
        <ele>750</ele>
        <time>2013-03-06T13:07:17.970Z</time>
      </trkpt>
      <trkpt lat="44.35499" lon="2.84488">
        <ele>759</ele>
        <time>2013-03-06T13:07:19.970Z</time>
      </trkpt>
      <trkpt lat="44.35497" lon="2.8449">
        <ele>758</ele>
        <time>2013-03-06T13:07:21.050Z</time>
      </trkpt>
      <trkpt lat="44.35497" lon="2.8449">
        <ele>758</ele>
        <time>2013-03-06T13:07:21.970Z</time>
      </trkpt>
      <trkpt lat="44.35496" lon="2.84492">
        <ele>758</ele>
        <time>2013-03-06T13:07:23.050Z</time>
      </trkpt>
      <trkpt lat="44.35495" lon="2.84493">
        <ele>757</ele>
        <time>2013-03-06T13:07:25.970Z</time>
      </trkpt>
      <trkpt lat="44.35495" lon="2.84495">
        <ele>757</ele>
        <time>2013-03-06T13:07:27.970Z</time>
      </trkpt>
      <trkpt lat="44.35494" lon="2.84496">
        <ele>757</ele>
        <time>2013-03-06T13:07:31.050Z</time>
      </trkpt>
      <trkpt lat="44.35494" lon="2.84497">
        <ele>756</ele>
        <time>2013-03-06T13:07:32.060Z</time>
      </trkpt>
      <trkpt lat="44.35493" lon="2.84499">
        <ele>756</ele>
        <time>2013-03-06T13:07:34.050Z</time>
      </trkpt>
      <trkpt lat="44.35492" lon="2.84502">
        <ele>754</ele>
        <time>2013-03-06T13:07:36.050Z</time>
      </trkpt>
      <trkpt lat="44.35492" lon="2.84504">
        <ele>754</ele>
        <time>2013-03-06T13:07:38.050Z</time>
      </trkpt>
      <trkpt lat="44.3549" lon="2.84505">
        <ele>755</ele>
        <time>2013-03-06T13:07:40.050Z</time>
      </trkpt>
      <trkpt lat="44.35489" lon="2.84506">
        <ele>755</ele>
        <time>2013-03-06T13:07:41.050Z</time>
      </trkpt>
      <trkpt lat="44.35488" lon="2.84507">
        <ele>755</ele>
        <time>2013-03-06T13:07:42.050Z</time>
      </trkpt>
      <trkpt lat="44.35486" lon="2.84509">
        <ele>755</ele>
        <time>2013-03-06T13:07:44.070Z</time>
      </trkpt>
      <trkpt lat="44.35484" lon="2.84511">
        <ele>756</ele>
        <time>2013-03-06T13:07:46.050Z</time>
      </trkpt>
      <trkpt lat="44.35481" lon="2.84513">
        <ele>756</ele>
        <time>2013-03-06T13:07:47.970Z</time>
      </trkpt>
      <trkpt lat="44.35479" lon="2.84514">
        <ele>757</ele>
        <time>2013-03-06T13:07:48.970Z</time>
      </trkpt>
      <trkpt lat="44.35477" lon="2.84514">
        <ele>757</ele>
        <time>2013-03-06T13:07:50.970Z</time>
      </trkpt>
      <trkpt lat="44.35476" lon="2.84515">
        <ele>757</ele>
        <time>2013-03-06T13:07:51.970Z</time>
      </trkpt>
      <trkpt lat="44.35475" lon="2.84515">
        <ele>757</ele>
        <time>2013-03-06T13:07:52.970Z</time>
      </trkpt>
      <trkpt lat="44.35473" lon="2.84515">
        <ele>757</ele>
        <time>2013-03-06T13:07:53.970Z</time>
      </trkpt>
      <trkpt lat="44.35469" lon="2.84517">
        <ele>758</ele>
        <time>2013-03-06T13:07:54.970Z</time>
      </trkpt>
      <trkpt lat="44.35468" lon="2.84517">
        <ele>758</ele>
        <time>2013-03-06T13:07:56.050Z</time>
      </trkpt>
      <trkpt lat="44.35467" lon="2.84518">
        <ele>758</ele>
        <time>2013-03-06T13:07:58.040Z</time>
      </trkpt>
      <trkpt lat="44.35466" lon="2.84518">
        <ele>758</ele>
        <time>2013-03-06T13:07:59.100Z</time>
      </trkpt>
      <trkpt lat="44.35463" lon="2.84519">
        <ele>759</ele>
        <time>2013-03-06T13:08:01.040Z</time>
      </trkpt>
      <trkpt lat="44.35462" lon="2.8452">
        <ele>759</ele>
        <time>2013-03-06T13:08:04.130Z</time>
      </trkpt>
      <trkpt lat="44.35459" lon="2.8452">
        <ele>759</ele>
        <time>2013-03-06T13:08:05.970Z</time>
      </trkpt>
      <trkpt lat="44.35458" lon="2.84521">
        <ele>759</ele>
        <time>2013-03-06T13:08:06.970Z</time>
      </trkpt>
      <trkpt lat="44.35456" lon="2.84522">
        <ele>759</ele>
        <time>2013-03-06T13:08:07.970Z</time>
      </trkpt>
      <trkpt lat="44.35455" lon="2.84523">
        <ele>760</ele>
        <time>2013-03-06T13:08:08.970Z</time>
      </trkpt>
      <trkpt lat="44.35454" lon="2.84524">
        <ele>760</ele>
        <time>2013-03-06T13:08:09.970Z</time>
      </trkpt>
      <trkpt lat="44.35453" lon="2.84524">
        <ele>760</ele>
        <time>2013-03-06T13:08:11.040Z</time>
      </trkpt>
      <trkpt lat="44.35452" lon="2.84525">
        <ele>760</ele>
        <time>2013-03-06T13:08:12.040Z</time>
      </trkpt>
      <trkpt lat="44.3545" lon="2.84525">
        <ele>760</ele>
        <time>2013-03-06T13:08:13.040Z</time>
      </trkpt>
      <trkpt lat="44.35448" lon="2.84526">
        <ele>760</ele>
        <time>2013-03-06T13:08:14.050Z</time>
      </trkpt>
      <trkpt lat="44.35443" lon="2.84528">
        <ele>761</ele>
        <time>2013-03-06T13:08:16.000Z</time>
      </trkpt>
      <trkpt lat="44.35442" lon="2.8453">
        <ele>761</ele>
        <time>2013-03-06T13:08:17.040Z</time>
      </trkpt>
      <trkpt lat="44.3544" lon="2.84531">
        <ele>761</ele>
        <time>2013-03-06T13:08:18.040Z</time>
      </trkpt>
      <trkpt lat="44.35438" lon="2.84532">
        <ele>761</ele>
        <time>2013-03-06T13:08:19.070Z</time>
      </trkpt>
      <trkpt lat="44.35434" lon="2.84532">
        <ele>761</ele>
        <time>2013-03-06T13:08:21.040Z</time>
      </trkpt>
      <trkpt lat="44.35432" lon="2.84534">
        <ele>761</ele>
        <time>2013-03-06T13:08:22.030Z</time>
      </trkpt>
      <trkpt lat="44.3543" lon="2.84534">
        <ele>761</ele>
        <time>2013-03-06T13:08:23.040Z</time>
      </trkpt>
      <trkpt lat="44.35429" lon="2.84534">
        <ele>761</ele>
        <time>2013-03-06T13:08:24.050Z</time>
      </trkpt>
      <trkpt lat="44.35425" lon="2.84536">
        <ele>761</ele>
        <time>2013-03-06T13:08:26.040Z</time>
      </trkpt>
      <trkpt lat="44.35422" lon="2.84538">
        <ele>761</ele>
        <time>2013-03-06T13:08:28.040Z</time>
      </trkpt>
      <trkpt lat="44.3542" lon="2.84539">
        <ele>761</ele>
        <time>2013-03-06T13:08:29.050Z</time>
      </trkpt>
      <trkpt lat="44.35418" lon="2.84543">
        <ele>761</ele>
        <time>2013-03-06T13:08:31.040Z</time>
      </trkpt>
      <trkpt lat="44.35416" lon="2.84544">
        <ele>773</ele>
        <time>2013-03-06T13:08:32.040Z</time>
      </trkpt>
      <trkpt lat="44.35415" lon="2.84545">
        <ele>773</ele>
        <time>2013-03-06T13:08:32.990Z</time>
      </trkpt>
      <trkpt lat="44.35415" lon="2.84546">
        <ele>773</ele>
        <time>2013-03-06T13:08:35.020Z</time>
      </trkpt>
      <trkpt lat="44.35415" lon="2.84547">
        <ele>773</ele>
        <time>2013-03-06T13:08:36.040Z</time>
      </trkpt>
      <trkpt lat="44.35415" lon="2.8455">
        <ele>773</ele>
        <time>2013-03-06T13:08:37.040Z</time>
      </trkpt>
      <trkpt lat="44.35415" lon="2.84551">
        <ele>772</ele>
        <time>2013-03-06T13:08:39.050Z</time>
      </trkpt>
      <trkpt lat="44.35415" lon="2.84553">
        <ele>772</ele>
        <time>2013-03-06T13:08:41.030Z</time>
      </trkpt>
      <trkpt lat="44.35413" lon="2.84554">
        <ele>772</ele>
        <time>2013-03-06T13:08:43.030Z</time>
      </trkpt>
      <trkpt lat="44.35411" lon="2.84555">
        <ele>772</ele>
        <time>2013-03-06T13:08:44.070Z</time>
      </trkpt>
      <trkpt lat="44.35409" lon="2.84555">
        <ele>772</ele>
        <time>2013-03-06T13:08:46.030Z</time>
      </trkpt>
      <trkpt lat="44.35407" lon="2.84555">
        <ele>773</ele>
        <time>2013-03-06T13:08:47.030Z</time>
      </trkpt>
      <trkpt lat="44.35405" lon="2.84554">
        <ele>773</ele>
        <time>2013-03-06T13:08:48.010Z</time>
      </trkpt>
      <trkpt lat="44.35403" lon="2.84553">
        <ele>773</ele>
        <time>2013-03-06T13:08:49.050Z</time>
      </trkpt>
      <trkpt lat="44.35401" lon="2.84553">
        <ele>774</ele>
        <time>2013-03-06T13:08:51.030Z</time>
      </trkpt>
      <trkpt lat="44.35398" lon="2.84554">
        <ele>774</ele>
        <time>2013-03-06T13:08:52.970Z</time>
      </trkpt>
      <trkpt lat="44.35397" lon="2.84554">
        <ele>774</ele>
        <time>2013-03-06T13:08:53.970Z</time>
      </trkpt>
      <trkpt lat="44.35396" lon="2.84554">
        <ele>774</ele>
        <time>2013-03-06T13:08:54.970Z</time>
      </trkpt>
      <trkpt lat="44.35395" lon="2.84554">
        <ele>774</ele>
        <time>2013-03-06T13:08:55.970Z</time>
      </trkpt>
      <trkpt lat="44.35392" lon="2.84555">
        <ele>775</ele>
        <time>2013-03-06T13:08:57.970Z</time>
      </trkpt>
      <trkpt lat="44.35391" lon="2.84556">
        <ele>775</ele>
        <time>2013-03-06T13:08:59.000Z</time>
      </trkpt>
      <trkpt lat="44.35393" lon="2.84554">
        <ele>775</ele>
        <time>2013-03-06T13:09:00.970Z</time>
      </trkpt>
      <trkpt lat="44.35391" lon="2.84555">
        <ele>775</ele>
        <time>2013-03-06T13:09:02.970Z</time>
      </trkpt>
      <trkpt lat="44.3539" lon="2.84556">
        <ele>775</ele>
        <time>2013-03-06T13:09:03.970Z</time>
      </trkpt>
      <trkpt lat="44.35389" lon="2.84557">
        <ele>775</ele>
        <time>2013-03-06T13:09:09.060Z</time>
      </trkpt>
      <trkpt lat="44.35387" lon="2.84557">
        <ele>776</ele>
        <time>2013-03-06T13:09:11.030Z</time>
      </trkpt>
      <trkpt lat="44.35387" lon="2.84556">
        <ele>776</ele>
        <time>2013-03-06T13:09:19.050Z</time>
      </trkpt>
      <trkpt lat="44.35386" lon="2.84556">
        <ele>776</ele>
        <time>2013-03-06T13:09:24.060Z</time>
      </trkpt>
      <trkpt lat="44.35384" lon="2.84558">
        <ele>776</ele>
        <time>2013-03-06T13:09:26.020Z</time>
      </trkpt>
      <trkpt lat="44.35383" lon="2.84559">
        <ele>776</ele>
        <time>2013-03-06T13:09:29.050Z</time>
      </trkpt>
      <trkpt lat="44.35381" lon="2.84561">
        <ele>776</ele>
        <time>2013-03-06T13:09:30.970Z</time>
      </trkpt>
      <trkpt lat="44.35381" lon="2.84562">
        <ele>776</ele>
        <time>2013-03-06T13:09:31.970Z</time>
      </trkpt>
      <trkpt lat="44.35381" lon="2.84564">
        <ele>776</ele>
        <time>2013-03-06T13:09:34.060Z</time>
      </trkpt>
      <trkpt lat="44.35381" lon="2.84566">
        <ele>776</ele>
        <time>2013-03-06T13:09:36.020Z</time>
      </trkpt>
      <trkpt lat="44.35381" lon="2.84567">
        <ele>776</ele>
        <time>2013-03-06T13:09:37.020Z</time>
      </trkpt>
      <trkpt lat="44.35381" lon="2.84569">
        <ele>776</ele>
        <time>2013-03-06T13:09:38.020Z</time>
      </trkpt>
      <trkpt lat="44.35382" lon="2.8457">
        <ele>776</ele>
        <time>2013-03-06T13:09:39.970Z</time>
      </trkpt>
      <trkpt lat="44.35383" lon="2.84573">
        <ele>775</ele>
        <time>2013-03-06T13:09:41.970Z</time>
      </trkpt>
      <trkpt lat="44.35383" lon="2.84575">
        <ele>775</ele>
        <time>2013-03-06T13:09:42.970Z</time>
      </trkpt>
      <trkpt lat="44.35384" lon="2.84578">
        <ele>775</ele>
        <time>2013-03-06T13:09:43.970Z</time>
      </trkpt>
      <trkpt lat="44.35385" lon="2.84581">
        <ele>774</ele>
        <time>2013-03-06T13:09:45.020Z</time>
      </trkpt>
      <trkpt lat="44.35385" lon="2.84583">
        <ele>774</ele>
        <time>2013-03-06T13:09:46.020Z</time>
      </trkpt>
      <trkpt lat="44.35385" lon="2.84586">
        <ele>774</ele>
        <time>2013-03-06T13:09:47.020Z</time>
      </trkpt>
      <trkpt lat="44.35385" lon="2.84589">
        <ele>774</ele>
        <time>2013-03-06T13:09:48.020Z</time>
      </trkpt>
      <trkpt lat="44.35386" lon="2.84591">
        <ele>774</ele>
        <time>2013-03-06T13:09:49.060Z</time>
      </trkpt>
      <trkpt lat="44.35386" lon="2.84595">
        <ele>774</ele>
        <time>2013-03-06T13:09:51.020Z</time>
      </trkpt>
      <trkpt lat="44.35386" lon="2.84597">
        <ele>774</ele>
        <time>2013-03-06T13:09:52.020Z</time>
      </trkpt>
      <trkpt lat="44.35387" lon="2.846">
        <ele>774</ele>
        <time>2013-03-06T13:09:53.020Z</time>
      </trkpt>
      <trkpt lat="44.35387" lon="2.84601">
        <ele>774</ele>
        <time>2013-03-06T13:09:54.050Z</time>
      </trkpt>
      <trkpt lat="44.35388" lon="2.84605">
        <ele>774</ele>
        <time>2013-03-06T13:09:55.970Z</time>
      </trkpt>
      <trkpt lat="44.35388" lon="2.84606">
        <ele>774</ele>
        <time>2013-03-06T13:09:56.970Z</time>
      </trkpt>
      <trkpt lat="44.35388" lon="2.84608">
        <ele>774</ele>
        <time>2013-03-06T13:09:57.970Z</time>
      </trkpt>
      <trkpt lat="44.35387" lon="2.8461">
        <ele>775</ele>
        <time>2013-03-06T13:09:59.000Z</time>
      </trkpt>
      <trkpt lat="44.35387" lon="2.84612">
        <ele>775</ele>
        <time>2013-03-06T13:10:00.010Z</time>
      </trkpt>
      <trkpt lat="44.35387" lon="2.84613">
        <ele>775</ele>
        <time>2013-03-06T13:10:01.020Z</time>
      </trkpt>
      <trkpt lat="44.35387" lon="2.84616">
        <ele>775</ele>
        <time>2013-03-06T13:10:02.010Z</time>
      </trkpt>
      <trkpt lat="44.35388" lon="2.84618">
        <ele>775</ele>
        <time>2013-03-06T13:10:03.010Z</time>
      </trkpt>
      <trkpt lat="44.35389" lon="2.8462">
        <ele>775</ele>
        <time>2013-03-06T13:10:04.050Z</time>
      </trkpt>
      <trkpt lat="44.35389" lon="2.84623">
        <ele>775</ele>
        <time>2013-03-06T13:10:05.970Z</time>
      </trkpt>
      <trkpt lat="44.35389" lon="2.84625">
        <ele>775</ele>
        <time>2013-03-06T13:10:06.970Z</time>
      </trkpt>
      <trkpt lat="44.3539" lon="2.84626">
        <ele>775</ele>
        <time>2013-03-06T13:10:10.970Z</time>
      </trkpt>
      <trkpt lat="44.35389" lon="2.84628">
        <ele>776</ele>
        <time>2013-03-06T13:10:12.970Z</time>
      </trkpt>
      <trkpt lat="44.35388" lon="2.8463">
        <ele>776</ele>
        <time>2013-03-06T13:10:15.010Z</time>
      </trkpt>
      <trkpt lat="44.35387" lon="2.84631">
        <ele>776</ele>
        <time>2013-03-06T13:10:16.070Z</time>
      </trkpt>
      <trkpt lat="44.35386" lon="2.84633">
        <ele>776</ele>
        <time>2013-03-06T13:10:17.970Z</time>
      </trkpt>
      <trkpt lat="44.35385" lon="2.84635">
        <ele>776</ele>
        <time>2013-03-06T13:10:20.010Z</time>
      </trkpt>
      <trkpt lat="44.35382" lon="2.84636">
        <ele>777</ele>
        <time>2013-03-06T13:10:21.010Z</time>
      </trkpt>
      <trkpt lat="44.35378" lon="2.84639">
        <ele>777</ele>
        <time>2013-03-06T13:10:22.010Z</time>
      </trkpt>
      <trkpt lat="44.35377" lon="2.84638">
        <ele>777</ele>
        <time>2013-03-06T13:10:31.010Z</time>
      </trkpt>
      <trkpt lat="44.35376" lon="2.84638">
        <ele>778</ele>
        <time>2013-03-06T13:10:31.990Z</time>
      </trkpt>
      <trkpt lat="44.35375" lon="2.84641">
        <ele>778</ele>
        <time>2013-03-06T13:10:34.970Z</time>
      </trkpt>
      <trkpt lat="44.35376" lon="2.84641">
        <ele>778</ele>
        <time>2013-03-06T13:10:35.970Z</time>
      </trkpt>
      <trkpt lat="44.35378" lon="2.84642">
        <ele>777</ele>
        <time>2013-03-06T13:10:37.970Z</time>
      </trkpt>
      <trkpt lat="44.35377" lon="2.84643">
        <ele>778</ele>
        <time>2013-03-06T13:10:40.010Z</time>
      </trkpt>
      <trkpt lat="44.35377" lon="2.84644">
        <ele>778</ele>
        <time>2013-03-06T13:10:43.000Z</time>
      </trkpt>
      <trkpt lat="44.35375" lon="2.84647">
        <ele>778</ele>
        <time>2013-03-06T13:10:46.000Z</time>
      </trkpt>
      <trkpt lat="44.35374" lon="2.84649">
        <ele>778</ele>
        <time>2013-03-06T13:10:48.000Z</time>
      </trkpt>
      <trkpt lat="44.35374" lon="2.84651">
        <ele>778</ele>
        <time>2013-03-06T13:10:49.050Z</time>
      </trkpt>
      <trkpt lat="44.35372" lon="2.84652">
        <ele>778</ele>
        <time>2013-03-06T13:10:49.980Z</time>
      </trkpt>
      <trkpt lat="44.35372" lon="2.84654">
        <ele>779</ele>
        <time>2013-03-06T13:10:51.100Z</time>
      </trkpt>
      <trkpt lat="44.3537" lon="2.84658">
        <ele>779</ele>
        <time>2013-03-06T13:10:52.980Z</time>
      </trkpt>
      <trkpt lat="44.35368" lon="2.8466">
        <ele>779</ele>
        <time>2013-03-06T13:10:53.970Z</time>
      </trkpt>
      <trkpt lat="44.35367" lon="2.84661">
        <ele>779</ele>
        <time>2013-03-06T13:10:54.970Z</time>
      </trkpt>
      <trkpt lat="44.35366" lon="2.84662">
        <ele>780</ele>
        <time>2013-03-06T13:10:56.970Z</time>
      </trkpt>
      <trkpt lat="44.35365" lon="2.84664">
        <ele>780</ele>
        <time>2013-03-06T13:11:00.000Z</time>
      </trkpt>
      <trkpt lat="44.35364" lon="2.84666">
        <ele>780</ele>
        <time>2013-03-06T13:11:02.000Z</time>
      </trkpt>
      <trkpt lat="44.35364" lon="2.84669">
        <ele>785</ele>
        <time>2013-03-06T13:11:04.050Z</time>
      </trkpt>
      <trkpt lat="44.35362" lon="2.8467">
        <ele>785</ele>
        <time>2013-03-06T13:11:06.970Z</time>
      </trkpt>
      <trkpt lat="44.35361" lon="2.84671">
        <ele>785</ele>
        <time>2013-03-06T13:11:07.970Z</time>
      </trkpt>
      <trkpt lat="44.3536" lon="2.84671">
        <ele>786</ele>
        <time>2013-03-06T13:11:08.970Z</time>
      </trkpt>
      <trkpt lat="44.35357" lon="2.84671">
        <ele>786</ele>
        <time>2013-03-06T13:11:10.980Z</time>
      </trkpt>
      <trkpt lat="44.35356" lon="2.84671">
        <ele>786</ele>
        <time>2013-03-06T13:11:12.000Z</time>
      </trkpt>
      <trkpt lat="44.35354" lon="2.8467">
        <ele>786</ele>
        <time>2013-03-06T13:11:13.000Z</time>
      </trkpt>
      <trkpt lat="44.3535" lon="2.8467">
        <ele>786</ele>
        <time>2013-03-06T13:11:14.090Z</time>
      </trkpt>
      <trkpt lat="44.35346" lon="2.84669">
        <ele>787</ele>
        <time>2013-03-06T13:11:16.050Z</time>
      </trkpt>
      <trkpt lat="44.35344" lon="2.84669">
        <ele>787</ele>
        <time>2013-03-06T13:11:17.970Z</time>
      </trkpt>
      <trkpt lat="44.35342" lon="2.8467">
        <ele>787</ele>
        <time>2013-03-06T13:11:20.970Z</time>
      </trkpt>
      <trkpt lat="44.35342" lon="2.84672">
        <ele>787</ele>
        <time>2013-03-06T13:11:22.970Z</time>
      </trkpt>
      <trkpt lat="44.35342" lon="2.84673">
        <ele>787</ele>
        <time>2013-03-06T13:11:23.970Z</time>
      </trkpt>
      <trkpt lat="44.35339" lon="2.84676">
        <ele>787</ele>
        <time>2013-03-06T13:11:25.970Z</time>
      </trkpt>
      <trkpt lat="44.35339" lon="2.84677">
        <ele>787</ele>
        <time>2013-03-06T13:11:26.970Z</time>
      </trkpt>
      <trkpt lat="44.35339" lon="2.84678">
        <ele>787</ele>
        <time>2013-03-06T13:11:27.970Z</time>
      </trkpt>
      <trkpt lat="44.35337" lon="2.8468">
        <ele>787</ele>
        <time>2013-03-06T13:11:28.970Z</time>
      </trkpt>
      <trkpt lat="44.35336" lon="2.84681">
        <ele>787</ele>
        <time>2013-03-06T13:11:30.970Z</time>
      </trkpt>
      <trkpt lat="44.35333" lon="2.84682">
        <ele>796</ele>
        <time>2013-03-06T13:11:31.970Z</time>
      </trkpt>
      <trkpt lat="44.35334" lon="2.84683">
        <ele>787</ele>
        <time>2013-03-06T13:11:34.040Z</time>
      </trkpt>
      <trkpt lat="44.35336" lon="2.84686">
        <ele>787</ele>
        <time>2013-03-06T13:11:35.970Z</time>
      </trkpt>
      <trkpt lat="44.35337" lon="2.84685">
        <ele>787</ele>
        <time>2013-03-06T13:11:37.970Z</time>
      </trkpt>
      <trkpt lat="44.35339" lon="2.84686">
        <ele>787</ele>
        <time>2013-03-06T13:11:39.970Z</time>
      </trkpt>
      <trkpt lat="44.3534" lon="2.84686">
        <ele>787</ele>
        <time>2013-03-06T13:11:40.970Z</time>
      </trkpt>
      <trkpt lat="44.35342" lon="2.84685">
        <ele>787</ele>
        <time>2013-03-06T13:11:41.970Z</time>
      </trkpt>
      <trkpt lat="44.35344" lon="2.84685">
        <ele>787</ele>
        <time>2013-03-06T13:11:42.970Z</time>
      </trkpt>
      <trkpt lat="44.35344" lon="2.84683">
        <ele>787</ele>
        <time>2013-03-06T13:11:44.970Z</time>
      </trkpt>
      <trkpt lat="44.35347" lon="2.84682">
        <ele>787</ele>
        <time>2013-03-06T13:11:46.990Z</time>
      </trkpt>
      <trkpt lat="44.35349" lon="2.84682">
        <ele>787</ele>
        <time>2013-03-06T13:11:49.070Z</time>
      </trkpt>
      <trkpt lat="44.35352" lon="2.84683">
        <ele>786</ele>
        <time>2013-03-06T13:11:50.970Z</time>
      </trkpt>
      <trkpt lat="44.35353" lon="2.84683">
        <ele>786</ele>
        <time>2013-03-06T13:11:51.970Z</time>
      </trkpt>
      <trkpt lat="44.35354" lon="2.84683">
        <ele>786</ele>
        <time>2013-03-06T13:11:53.970Z</time>
      </trkpt>
      <trkpt lat="44.35355" lon="2.84685">
        <ele>786</ele>
        <time>2013-03-06T13:11:55.970Z</time>
      </trkpt>
      <trkpt lat="44.35356" lon="2.84684">
        <ele>786</ele>
        <time>2013-03-06T13:11:56.970Z</time>
      </trkpt>
      <trkpt lat="44.35355" lon="2.84684">
        <ele>786</ele>
        <time>2013-03-06T13:11:59.100Z</time>
      </trkpt>
      <trkpt lat="44.35355" lon="2.84685">
        <ele>786</ele>
        <time>2013-03-06T13:12:00.980Z</time>
      </trkpt>
      <trkpt lat="44.35351" lon="2.84685">
        <ele>786</ele>
        <time>2013-03-06T13:12:03.970Z</time>
      </trkpt>
      <trkpt lat="44.3535" lon="2.84684">
        <ele>787</ele>
        <time>2013-03-06T13:12:04.970Z</time>
      </trkpt>
      <trkpt lat="44.35349" lon="2.84683">
        <ele>787</ele>
        <time>2013-03-06T13:12:05.970Z</time>
      </trkpt>
      <trkpt lat="44.35347" lon="2.84682">
        <ele>787</ele>
        <time>2013-03-06T13:12:06.970Z</time>
      </trkpt>
      <trkpt lat="44.35346" lon="2.84682">
        <ele>787</ele>
        <time>2013-03-06T13:12:07.970Z</time>
      </trkpt>
      <trkpt lat="44.35344" lon="2.84682">
        <ele>787</ele>
        <time>2013-03-06T13:12:08.970Z</time>
      </trkpt>
      <trkpt lat="44.35343" lon="2.84682">
        <ele>787</ele>
        <time>2013-03-06T13:12:09.980Z</time>
      </trkpt>
      <trkpt lat="44.35342" lon="2.84683">
        <ele>787</ele>
        <time>2013-03-06T13:12:10.980Z</time>
      </trkpt>
      <trkpt lat="44.35341" lon="2.84683">
        <ele>787</ele>
        <time>2013-03-06T13:12:11.980Z</time>
      </trkpt>
      <trkpt lat="44.35339" lon="2.84682">
        <ele>787</ele>
        <time>2013-03-06T13:12:14.070Z</time>
      </trkpt>
      <trkpt lat="44.35338" lon="2.84683">
        <ele>787</ele>
        <time>2013-03-06T13:12:17.970Z</time>
      </trkpt>
      <trkpt lat="44.35339" lon="2.84684">
        <ele>787</ele>
        <time>2013-03-06T13:12:20.970Z</time>
      </trkpt>
      <trkpt lat="44.3534" lon="2.84684">
        <ele>787</ele>
        <time>2013-03-06T13:12:24.050Z</time>
      </trkpt>
      <trkpt lat="44.35338" lon="2.84686">
        <ele>787</ele>
        <time>2013-03-06T13:12:34.970Z</time>
      </trkpt>
      <trkpt lat="44.35336" lon="2.84687">
        <ele>787</ele>
        <time>2013-03-06T13:12:35.970Z</time>
      </trkpt>
      <trkpt lat="44.35336" lon="2.84688">
        <ele>787</ele>
        <time>2013-03-06T13:12:37.970Z</time>
      </trkpt>
      <trkpt lat="44.35336" lon="2.8469">
        <ele>787</ele>
        <time>2013-03-06T13:12:39.980Z</time>
      </trkpt>
      <trkpt lat="44.35334" lon="2.8469">
        <ele>787</ele>
        <time>2013-03-06T13:12:41.980Z</time>
      </trkpt>
      <trkpt lat="44.35333" lon="2.84692">
        <ele>799</ele>
        <time>2013-03-06T13:12:44.050Z</time>
      </trkpt>
      <trkpt lat="44.3533" lon="2.84693">
        <ele>800</ele>
        <time>2013-03-06T13:12:45.980Z</time>
      </trkpt>
      <trkpt lat="44.35329" lon="2.84694">
        <ele>800</ele>
        <time>2013-03-06T13:12:47.980Z</time>
      </trkpt>
      <trkpt lat="44.35329" lon="2.84695">
        <ele>800</ele>
        <time>2013-03-06T13:12:50.030Z</time>
      </trkpt>
      <trkpt lat="44.3533" lon="2.84696">
        <ele>800</ele>
        <time>2013-03-06T13:12:51.970Z</time>
      </trkpt>
      <trkpt lat="44.35328" lon="2.84697">
        <ele>800</ele>
        <time>2013-03-06T13:12:57.980Z</time>
      </trkpt>
      <trkpt lat="44.35326" lon="2.84698">
        <ele>801</ele>
        <time>2013-03-06T13:12:59.090Z</time>
      </trkpt>
      <trkpt lat="44.35325" lon="2.84699">
        <ele>801</ele>
        <time>2013-03-06T13:13:00.970Z</time>
      </trkpt>
      <trkpt lat="44.35327" lon="2.84699">
        <ele>801</ele>
        <time>2013-03-06T13:13:02.970Z</time>
      </trkpt>
      <trkpt lat="44.35326" lon="2.847">
        <ele>801</ele>
        <time>2013-03-06T13:13:04.130Z</time>
      </trkpt>
      <trkpt lat="44.35325" lon="2.84699">
        <ele>801</ele>
        <time>2013-03-06T13:13:09.050Z</time>
      </trkpt>
      <trkpt lat="44.35323" lon="2.847">
        <ele>801</ele>
        <time>2013-03-06T13:13:11.050Z</time>
      </trkpt>
      <trkpt lat="44.35324" lon="2.847">
        <ele>801</ele>
        <time>2013-03-06T13:13:12.970Z</time>
      </trkpt>
      <trkpt lat="44.35324" lon="2.84702">
        <ele>801</ele>
        <time>2013-03-06T13:13:16.020Z</time>
      </trkpt>
      <trkpt lat="44.35324" lon="2.84707">
        <ele>802</ele>
        <time>2013-03-06T13:13:18.070Z</time>
      </trkpt>
      <trkpt lat="44.35325" lon="2.84713">
        <ele>802</ele>
        <time>2013-03-06T13:13:20.070Z</time>
      </trkpt>
      <trkpt lat="44.35327" lon="2.84717">
        <ele>802</ele>
        <time>2013-03-06T13:13:20.970Z</time>
      </trkpt>
      <trkpt lat="44.35328" lon="2.8472">
        <ele>801</ele>
        <time>2013-03-06T13:13:22.070Z</time>
      </trkpt>
      <trkpt lat="44.35328" lon="2.84723">
        <ele>801</ele>
        <time>2013-03-06T13:13:22.970Z</time>
      </trkpt>
      <trkpt lat="44.35329" lon="2.84726">
        <ele>801</ele>
        <time>2013-03-06T13:13:24.070Z</time>
      </trkpt>
      <trkpt lat="44.35329" lon="2.84729">
        <ele>801</ele>
        <time>2013-03-06T13:13:26.070Z</time>
      </trkpt>
      <trkpt lat="44.35329" lon="2.8473">
        <ele>800</ele>
        <time>2013-03-06T13:13:32.060Z</time>
      </trkpt>
      <trkpt lat="44.35331" lon="2.84729">
        <ele>800</ele>
        <time>2013-03-06T13:13:34.120Z</time>
      </trkpt>
      <trkpt lat="44.3533" lon="2.84727">
        <ele>801</ele>
        <time>2013-03-06T13:13:37.970Z</time>
      </trkpt>
      <trkpt lat="44.35329" lon="2.84726">
        <ele>801</ele>
        <time>2013-03-06T13:13:39.060Z</time>
      </trkpt>
      <trkpt lat="44.35327" lon="2.84727">
        <ele>801</ele>
        <time>2013-03-06T13:13:44.060Z</time>
      </trkpt>
      <trkpt lat="44.35328" lon="2.84728">
        <ele>801</ele>
        <time>2013-03-06T13:13:47.060Z</time>
      </trkpt>
      <trkpt lat="44.35329" lon="2.84729">
        <ele>800</ele>
        <time>2013-03-06T13:13:49.060Z</time>
      </trkpt>
      <trkpt lat="44.35328" lon="2.8473">
        <ele>800</ele>
        <time>2013-03-06T13:13:50.970Z</time>
      </trkpt>
      <trkpt lat="44.35327" lon="2.84732">
        <ele>800</ele>
        <time>2013-03-06T13:13:52.970Z</time>
      </trkpt>
      <trkpt lat="44.35326" lon="2.84733">
        <ele>800</ele>
        <time>2013-03-06T13:13:56.060Z</time>
      </trkpt>
      <trkpt lat="44.35325" lon="2.84735">
        <ele>800</ele>
        <time>2013-03-06T13:13:58.060Z</time>
      </trkpt>
      <trkpt lat="44.35325" lon="2.84736">
        <ele>800</ele>
        <time>2013-03-06T13:14:00.060Z</time>
      </trkpt>
      <trkpt lat="44.35324" lon="2.84737">
        <ele>800</ele>
        <time>2013-03-06T13:14:02.060Z</time>
      </trkpt>
      <trkpt lat="44.35323" lon="2.84737">
        <ele>800</ele>
        <time>2013-03-06T13:14:02.970Z</time>
      </trkpt>
      <trkpt lat="44.35322" lon="2.84737">
        <ele>800</ele>
        <time>2013-03-06T13:14:04.060Z</time>
      </trkpt>
      <trkpt lat="44.35319" lon="2.84738">
        <ele>801</ele>
        <time>2013-03-06T13:14:06.040Z</time>
      </trkpt>
      <trkpt lat="44.35318" lon="2.8474">
        <ele>801</ele>
        <time>2013-03-06T13:14:08.050Z</time>
      </trkpt>
      <trkpt lat="44.35316" lon="2.84741">
        <ele>801</ele>
        <time>2013-03-06T13:14:08.970Z</time>
      </trkpt>
      <trkpt lat="44.35314" lon="2.84742">
        <ele>802</ele>
        <time>2013-03-06T13:14:10.050Z</time>
      </trkpt>
      <trkpt lat="44.35313" lon="2.84743">
        <ele>802</ele>
        <time>2013-03-06T13:14:14.050Z</time>
      </trkpt>
      <trkpt lat="44.35312" lon="2.84743">
        <ele>802</ele>
        <time>2013-03-06T13:14:17.050Z</time>
      </trkpt>
      <trkpt lat="44.35311" lon="2.84743">
        <ele>802</ele>
        <time>2013-03-06T13:14:17.970Z</time>
      </trkpt>
      <trkpt lat="44.35309" lon="2.84744">
        <ele>803</ele>
        <time>2013-03-06T13:14:19.060Z</time>
      </trkpt>
      <trkpt lat="44.35308" lon="2.84744">
        <ele>803</ele>
        <time>2013-03-06T13:14:25.050Z</time>
      </trkpt>
      <trkpt lat="44.35306" lon="2.84745">
        <ele>804</ele>
        <time>2013-03-06T13:14:26.050Z</time>
      </trkpt>
      <trkpt lat="44.35305" lon="2.84744">
        <ele>804</ele>
        <time>2013-03-06T13:14:27.050Z</time>
      </trkpt>
      <trkpt lat="44.35304" lon="2.84744">
        <ele>804</ele>
        <time>2013-03-06T13:14:30.050Z</time>
      </trkpt>
      <trkpt lat="44.35303" lon="2.84743">
        <ele>805</ele>
        <time>2013-03-06T13:14:32.050Z</time>
      </trkpt>
      <trkpt lat="44.35302" lon="2.84743">
        <ele>805</ele>
        <time>2013-03-06T13:14:33.130Z</time>
      </trkpt>
      <trkpt lat="44.35301" lon="2.84741">
        <ele>805</ele>
        <time>2013-03-06T13:14:35.970Z</time>
      </trkpt>
      <trkpt lat="44.353" lon="2.84743">
        <ele>805</ele>
        <time>2013-03-06T13:14:39.970Z</time>
      </trkpt>
      <trkpt lat="44.353" lon="2.84744">
        <ele>805</ele>
        <time>2013-03-06T13:14:41.970Z</time>
      </trkpt>
      <trkpt lat="44.35301" lon="2.84744">
        <ele>805</ele>
        <time>2013-03-06T13:14:44.970Z</time>
      </trkpt>
      <trkpt lat="44.35302" lon="2.84742">
        <ele>805</ele>
        <time>2013-03-06T13:14:50.000Z</time>
      </trkpt>
      <trkpt lat="44.35303" lon="2.84741">
        <ele>804</ele>
        <time>2013-03-06T13:14:51.040Z</time>
      </trkpt>
      <trkpt lat="44.35304" lon="2.8474">
        <ele>804</ele>
        <time>2013-03-06T13:14:52.040Z</time>
      </trkpt>
      <trkpt lat="44.35305" lon="2.84738">
        <ele>804</ele>
        <time>2013-03-06T13:14:53.040Z</time>
      </trkpt>
      <trkpt lat="44.35305" lon="2.84737">
        <ele>804</ele>
        <time>2013-03-06T13:14:54.050Z</time>
      </trkpt>
      <trkpt lat="44.35306" lon="2.84735">
        <ele>804</ele>
        <time>2013-03-06T13:14:56.040Z</time>
      </trkpt>
      <trkpt lat="44.35307" lon="2.84734">
        <ele>804</ele>
        <time>2013-03-06T13:14:57.040Z</time>
      </trkpt>
      <trkpt lat="44.35308" lon="2.84732">
        <ele>804</ele>
        <time>2013-03-06T13:14:59.120Z</time>
      </trkpt>
      <trkpt lat="44.35307" lon="2.84731">
        <ele>804</ele>
        <time>2013-03-06T13:15:00.970Z</time>
      </trkpt>
      <trkpt lat="44.35307" lon="2.84729">
        <ele>804</ele>
        <time>2013-03-06T13:15:02.970Z</time>
      </trkpt>
      <trkpt lat="44.35307" lon="2.84727">
        <ele>804</ele>
        <time>2013-03-06T13:15:04.970Z</time>
      </trkpt>
      <trkpt lat="44.35307" lon="2.84726">
        <ele>804</ele>
        <time>2013-03-06T13:15:05.970Z</time>
      </trkpt>
      <trkpt lat="44.35306" lon="2.84724">
        <ele>804</ele>
        <time>2013-03-06T13:15:06.970Z</time>
      </trkpt>
      <trkpt lat="44.35306" lon="2.84722">
        <ele>804</ele>
        <time>2013-03-06T13:15:07.970Z</time>
      </trkpt>
      <trkpt lat="44.35307" lon="2.84722">
        <ele>804</ele>
        <time>2013-03-06T13:15:10.040Z</time>
      </trkpt>
      <trkpt lat="44.35309" lon="2.84724">
        <ele>804</ele>
        <time>2013-03-06T13:15:12.050Z</time>
      </trkpt>
      <trkpt lat="44.35311" lon="2.84723">
        <ele>804</ele>
        <time>2013-03-06T13:15:13.020Z</time>
      </trkpt>
      <trkpt lat="44.35312" lon="2.84722">
        <ele>803</ele>
        <time>2013-03-06T13:15:14.050Z</time>
      </trkpt>
      <trkpt lat="44.35316" lon="2.84718">
        <ele>803</ele>
        <time>2013-03-06T13:15:15.980Z</time>
      </trkpt>
      <trkpt lat="44.35317" lon="2.84715">
        <ele>803</ele>
        <time>2013-03-06T13:15:16.970Z</time>
      </trkpt>
      <trkpt lat="44.35319" lon="2.84712">
        <ele>803</ele>
        <time>2013-03-06T13:15:17.970Z</time>
      </trkpt>
      <trkpt lat="44.3532" lon="2.84709">
        <ele>802</ele>
        <time>2013-03-06T13:15:18.970Z</time>
      </trkpt>
      <trkpt lat="44.3532" lon="2.84708">
        <ele>802</ele>
        <time>2013-03-06T13:15:19.970Z</time>
      </trkpt>
      <trkpt lat="44.3532" lon="2.84705">
        <ele>802</ele>
        <time>2013-03-06T13:15:20.970Z</time>
      </trkpt>
      <trkpt lat="44.3532" lon="2.84703">
        <ele>802</ele>
        <time>2013-03-06T13:15:21.970Z</time>
      </trkpt>
      <trkpt lat="44.3532" lon="2.847">
        <ele>802</ele>
        <time>2013-03-06T13:15:23.970Z</time>
      </trkpt>
      <trkpt lat="44.35321" lon="2.84699">
        <ele>802</ele>
        <time>2013-03-06T13:15:24.970Z</time>
      </trkpt>
      <trkpt lat="44.35322" lon="2.84698">
        <ele>801</ele>
        <time>2013-03-06T13:15:27.970Z</time>
      </trkpt>
      <trkpt lat="44.35321" lon="2.84696">
        <ele>801</ele>
        <time>2013-03-06T13:15:28.970Z</time>
      </trkpt>
      <trkpt lat="44.35321" lon="2.84693">
        <ele>801</ele>
        <time>2013-03-06T13:15:30.970Z</time>
      </trkpt>
      <trkpt lat="44.35321" lon="2.84692">
        <ele>801</ele>
        <time>2013-03-06T13:15:31.970Z</time>
      </trkpt>
      <trkpt lat="44.35322" lon="2.84691">
        <ele>800</ele>
        <time>2013-03-06T13:15:33.970Z</time>
      </trkpt>
      <trkpt lat="44.35322" lon="2.8469">
        <ele>800</ele>
        <time>2013-03-06T13:15:36.970Z</time>
      </trkpt>
      <trkpt lat="44.35321" lon="2.84688">
        <ele>800</ele>
        <time>2013-03-06T13:15:38.970Z</time>
      </trkpt>
      <trkpt lat="44.35321" lon="2.84687">
        <ele>800</ele>
        <time>2013-03-06T13:15:40.030Z</time>
      </trkpt>
      <trkpt lat="44.35321" lon="2.84686">
        <ele>799</ele>
        <time>2013-03-06T13:15:41.030Z</time>
      </trkpt>
      <trkpt lat="44.3532" lon="2.84686">
        <ele>800</ele>
        <time>2013-03-06T13:15:43.030Z</time>
      </trkpt>
      <trkpt lat="44.35318" lon="2.84687">
        <ele>800</ele>
        <time>2013-03-06T13:15:44.050Z</time>
      </trkpt>
      <trkpt lat="44.35316" lon="2.84683">
        <ele>800</ele>
        <time>2013-03-06T13:15:45.970Z</time>
      </trkpt>
      <trkpt lat="44.35315" lon="2.84682">
        <ele>800</ele>
        <time>2013-03-06T13:15:47.970Z</time>
      </trkpt>
      <trkpt lat="44.35315" lon="2.84681">
        <ele>800</ele>
        <time>2013-03-06T13:15:48.970Z</time>
      </trkpt>
      <trkpt lat="44.35315" lon="2.84678">
        <ele>800</ele>
        <time>2013-03-06T13:15:51.110Z</time>
      </trkpt>
      <trkpt lat="44.35317" lon="2.84678">
        <ele>799</ele>
        <time>2013-03-06T13:15:52.970Z</time>
      </trkpt>
      <trkpt lat="44.35317" lon="2.84676">
        <ele>799</ele>
        <time>2013-03-06T13:15:55.970Z</time>
      </trkpt>
      <trkpt lat="44.35317" lon="2.84674">
        <ele>798</ele>
        <time>2013-03-06T13:15:57.970Z</time>
      </trkpt>
      <trkpt lat="44.35318" lon="2.84673">
        <ele>798</ele>
        <time>2013-03-06T13:15:59.000Z</time>
      </trkpt>
      <trkpt lat="44.35318" lon="2.84672">
        <ele>798</ele>
        <time>2013-03-06T13:16:00.030Z</time>
      </trkpt>
      <trkpt lat="44.35319" lon="2.84671">
        <ele>797</ele>
        <time>2013-03-06T13:16:01.030Z</time>
      </trkpt>
      <trkpt lat="44.3532" lon="2.84669">
        <ele>796</ele>
        <time>2013-03-06T13:16:02.030Z</time>
      </trkpt>
      <trkpt lat="44.35322" lon="2.84667">
        <ele>796</ele>
        <time>2013-03-06T13:16:03.030Z</time>
      </trkpt>
      <trkpt lat="44.35322" lon="2.84666">
        <ele>796</ele>
        <time>2013-03-06T13:16:04.970Z</time>
      </trkpt>
      <trkpt lat="44.35322" lon="2.84664">
        <ele>796</ele>
        <time>2013-03-06T13:16:06.970Z</time>
      </trkpt>
      <trkpt lat="44.35321" lon="2.84663">
        <ele>796</ele>
        <time>2013-03-06T13:16:07.970Z</time>
      </trkpt>
      <trkpt lat="44.35321" lon="2.84661">
        <ele>797</ele>
        <time>2013-03-06T13:16:08.970Z</time>
      </trkpt>
      <trkpt lat="44.35321" lon="2.84659">
        <ele>797</ele>
        <time>2013-03-06T13:16:11.020Z</time>
      </trkpt>
      <trkpt lat="44.3532" lon="2.84658">
        <ele>798</ele>
        <time>2013-03-06T13:16:12.020Z</time>
      </trkpt>
      <trkpt lat="44.35319" lon="2.84657">
        <ele>799</ele>
        <time>2013-03-06T13:16:13.020Z</time>
      </trkpt>
      <trkpt lat="44.35318" lon="2.84657">
        <ele>799</ele>
        <time>2013-03-06T13:16:14.060Z</time>
      </trkpt>
      <trkpt lat="44.35317" lon="2.84655">
        <ele>800</ele>
        <time>2013-03-06T13:16:16.040Z</time>
      </trkpt>
      <trkpt lat="44.35317" lon="2.84651">
        <ele>800</ele>
        <time>2013-03-06T13:16:17.970Z</time>
      </trkpt>
      <trkpt lat="44.35318" lon="2.8465">
        <ele>800</ele>
        <time>2013-03-06T13:16:19.970Z</time>
      </trkpt>
      <trkpt lat="44.35319" lon="2.84648">
        <ele>800</ele>
        <time>2013-03-06T13:16:21.970Z</time>
      </trkpt>
      <trkpt lat="44.35319" lon="2.84647">
        <ele>801</ele>
        <time>2013-03-06T13:16:22.970Z</time>
      </trkpt>
      <trkpt lat="44.35319" lon="2.84645">
        <ele>801</ele>
        <time>2013-03-06T13:16:26.970Z</time>
      </trkpt>
      <trkpt lat="44.3532" lon="2.84645">
        <ele>801</ele>
        <time>2013-03-06T13:16:37.970Z</time>
      </trkpt>
      <trkpt lat="44.3532" lon="2.84643">
        <ele>801</ele>
        <time>2013-03-06T13:16:49.980Z</time>
      </trkpt>
      <trkpt lat="44.3532" lon="2.84642">
        <ele>801</ele>
        <time>2013-03-06T13:16:52.010Z</time>
      </trkpt>
      <trkpt lat="44.35319" lon="2.84638">
        <ele>802</ele>
        <time>2013-03-06T13:16:54.130Z</time>
      </trkpt>
      <trkpt lat="44.35318" lon="2.84635">
        <ele>803</ele>
        <time>2013-03-06T13:16:55.970Z</time>
      </trkpt>
      <trkpt lat="44.35316" lon="2.84634">
        <ele>803</ele>
        <time>2013-03-06T13:16:57.970Z</time>
      </trkpt>
      <trkpt lat="44.35316" lon="2.84632">
        <ele>803</ele>
        <time>2013-03-06T13:16:59.000Z</time>
      </trkpt>
      <trkpt lat="44.35315" lon="2.84629">
        <ele>803</ele>
        <time>2013-03-06T13:17:00.010Z</time>
      </trkpt>
      <trkpt lat="44.35314" lon="2.84628">
        <ele>804</ele>
        <time>2013-03-06T13:17:01.010Z</time>
      </trkpt>
      <trkpt lat="44.35313" lon="2.84626">
        <ele>804</ele>
        <time>2013-03-06T13:17:02.010Z</time>
      </trkpt>
      <trkpt lat="44.35312" lon="2.84625">
        <ele>804</ele>
        <time>2013-03-06T13:17:03.010Z</time>
      </trkpt>
      <trkpt lat="44.35311" lon="2.84624">
        <ele>804</ele>
        <time>2013-03-06T13:17:04.050Z</time>
      </trkpt>
      <trkpt lat="44.35311" lon="2.84621">
        <ele>804</ele>
        <time>2013-03-06T13:17:05.970Z</time>
      </trkpt>
      <trkpt lat="44.3531" lon="2.84619">
        <ele>804</ele>
        <time>2013-03-06T13:17:06.970Z</time>
      </trkpt>
      <trkpt lat="44.35309" lon="2.84617">
        <ele>805</ele>
        <time>2013-03-06T13:17:07.970Z</time>
      </trkpt>
      <trkpt lat="44.35309" lon="2.84615">
        <ele>805</ele>
        <time>2013-03-06T13:17:08.970Z</time>
      </trkpt>
      <trkpt lat="44.35309" lon="2.84613">
        <ele>805</ele>
        <time>2013-03-06T13:17:09.970Z</time>
      </trkpt>
      <trkpt lat="44.35307" lon="2.84611">
        <ele>805</ele>
        <time>2013-03-06T13:17:10.970Z</time>
      </trkpt>
      <trkpt lat="44.35306" lon="2.8461">
        <ele>805</ele>
        <time>2013-03-06T13:17:11.970Z</time>
      </trkpt>
      <trkpt lat="44.35305" lon="2.84609">
        <ele>805</ele>
        <time>2013-03-06T13:17:12.970Z</time>
      </trkpt>
      <trkpt lat="44.35304" lon="2.84607">
        <ele>805</ele>
        <time>2013-03-06T13:17:14.970Z</time>
      </trkpt>
      <trkpt lat="44.35305" lon="2.84606">
        <ele>805</ele>
        <time>2013-03-06T13:17:15.980Z</time>
      </trkpt>
      <trkpt lat="44.35305" lon="2.84604">
        <ele>805</ele>
        <time>2013-03-06T13:17:17.010Z</time>
      </trkpt>
      <trkpt lat="44.35304" lon="2.84603">
        <ele>805</ele>
        <time>2013-03-06T13:17:18.010Z</time>
      </trkpt>
      <trkpt lat="44.35302" lon="2.84601">
        <ele>806</ele>
        <time>2013-03-06T13:17:19.050Z</time>
      </trkpt>
      <trkpt lat="44.35302" lon="2.84596">
        <ele>806</ele>
        <time>2013-03-06T13:17:20.970Z</time>
      </trkpt>
      <trkpt lat="44.35302" lon="2.84595">
        <ele>805</ele>
        <time>2013-03-06T13:17:21.970Z</time>
      </trkpt>
      <trkpt lat="44.35304" lon="2.84592">
        <ele>805</ele>
        <time>2013-03-06T13:17:23.970Z</time>
      </trkpt>
      <trkpt lat="44.35305" lon="2.84591">
        <ele>804</ele>
        <time>2013-03-06T13:17:29.070Z</time>
      </trkpt>
      <trkpt lat="44.35305" lon="2.84589">
        <ele>804</ele>
        <time>2013-03-06T13:17:30.970Z</time>
      </trkpt>
      <trkpt lat="44.35307" lon="2.8459">
        <ele>804</ele>
        <time>2013-03-06T13:17:32.980Z</time>
      </trkpt>
      <trkpt lat="44.35308" lon="2.84589">
        <ele>803</ele>
        <time>2013-03-06T13:17:35.000Z</time>
      </trkpt>
      <trkpt lat="44.35309" lon="2.84588">
        <ele>803</ele>
        <time>2013-03-06T13:17:44.040Z</time>
      </trkpt>
      <trkpt lat="44.35309" lon="2.84587">
        <ele>802</ele>
        <time>2013-03-06T13:17:47.970Z</time>
      </trkpt>
      <trkpt lat="44.35308" lon="2.84586">
        <ele>803</ele>
        <time>2013-03-06T13:17:54.070Z</time>
      </trkpt>
      <trkpt lat="44.35307" lon="2.84587">
        <ele>803</ele>
        <time>2013-03-06T13:17:57.000Z</time>
      </trkpt>
      <trkpt lat="44.35306" lon="2.84587">
        <ele>804</ele>
        <time>2013-03-06T13:17:58.000Z</time>
      </trkpt>
      <trkpt lat="44.35306" lon="2.84586">
        <ele>804</ele>
        <time>2013-03-06T13:18:00.970Z</time>
      </trkpt>
      <trkpt lat="44.35306" lon="2.84583">
        <ele>805</ele>
        <time>2013-03-06T13:18:02.970Z</time>
      </trkpt>
      <trkpt lat="44.35306" lon="2.84581">
        <ele>805</ele>
        <time>2013-03-06T13:18:03.970Z</time>
      </trkpt>
      <trkpt lat="44.35306" lon="2.84578">
        <ele>805</ele>
        <time>2013-03-06T13:18:05.970Z</time>
      </trkpt>
      <trkpt lat="44.35306" lon="2.84577">
        <ele>805</ele>
        <time>2013-03-06T13:18:06.970Z</time>
      </trkpt>
      <trkpt lat="44.35307" lon="2.84576">
        <ele>805</ele>
        <time>2013-03-06T13:18:08.000Z</time>
      </trkpt>
      <trkpt lat="44.35306" lon="2.84574">
        <ele>805</ele>
        <time>2013-03-06T13:18:10.000Z</time>
      </trkpt>
      <trkpt lat="44.35306" lon="2.84572">
        <ele>805</ele>
        <time>2013-03-06T13:18:11.990Z</time>
      </trkpt>
      <trkpt lat="44.35306" lon="2.84571">
        <ele>806</ele>
        <time>2013-03-06T13:18:13.100Z</time>
      </trkpt>
      <trkpt lat="44.35305" lon="2.84569">
        <ele>806</ele>
        <time>2013-03-06T13:18:14.970Z</time>
      </trkpt>
      <trkpt lat="44.35307" lon="2.84569">
        <ele>805</ele>
        <time>2013-03-06T13:18:27.990Z</time>
      </trkpt>
      <trkpt lat="44.35307" lon="2.84568">
        <ele>805</ele>
        <time>2013-03-06T13:18:29.060Z</time>
      </trkpt>
      <trkpt lat="44.35307" lon="2.84566">
        <ele>805</ele>
        <time>2013-03-06T13:18:30.970Z</time>
      </trkpt>
      <trkpt lat="44.35308" lon="2.84565">
        <ele>805</ele>
        <time>2013-03-06T13:18:32.980Z</time>
      </trkpt>
      <trkpt lat="44.35308" lon="2.84564">
        <ele>805</ele>
        <time>2013-03-06T13:18:34.990Z</time>
      </trkpt>
      <trkpt lat="44.35307" lon="2.84563">
        <ele>806</ele>
        <time>2013-03-06T13:18:36.970Z</time>
      </trkpt>
      <trkpt lat="44.35305" lon="2.84563">
        <ele>806</ele>
        <time>2013-03-06T13:18:45.970Z</time>
      </trkpt>
      <trkpt lat="44.35306" lon="2.84561">
        <ele>806</ele>
        <time>2013-03-06T13:18:47.970Z</time>
      </trkpt>
      <trkpt lat="44.35305" lon="2.8456">
        <ele>807</ele>
        <time>2013-03-06T13:18:49.980Z</time>
      </trkpt>
      <trkpt lat="44.35306" lon="2.8456">
        <ele>806</ele>
        <time>2013-03-06T13:18:51.980Z</time>
      </trkpt>
      <trkpt lat="44.35306" lon="2.84559">
        <ele>806</ele>
        <time>2013-03-06T13:18:54.060Z</time>
      </trkpt>
      <trkpt lat="44.35306" lon="2.84557">
        <ele>806</ele>
        <time>2013-03-06T13:18:55.970Z</time>
      </trkpt>
      <trkpt lat="44.35306" lon="2.84555">
        <ele>807</ele>
        <time>2013-03-06T13:18:57.980Z</time>
      </trkpt>
      <trkpt lat="44.35307" lon="2.84554">
        <ele>807</ele>
        <time>2013-03-06T13:18:59.120Z</time>
      </trkpt>
      <trkpt lat="44.35307" lon="2.84553">
        <ele>807</ele>
        <time>2013-03-06T13:19:01.020Z</time>
      </trkpt>
      <trkpt lat="44.35307" lon="2.84552">
        <ele>807</ele>
        <time>2013-03-06T13:19:02.970Z</time>
      </trkpt>
      <trkpt lat="44.35306" lon="2.84551">
        <ele>807</ele>
        <time>2013-03-06T13:19:09.060Z</time>
      </trkpt>
      <trkpt lat="44.35307" lon="2.84548">
        <ele>807</ele>
        <time>2013-03-06T13:19:11.970Z</time>
      </trkpt>
      <trkpt lat="44.35306" lon="2.84546">
        <ele>807</ele>
        <time>2013-03-06T13:19:12.970Z</time>
      </trkpt>
      <trkpt lat="44.35307" lon="2.84545">
        <ele>807</ele>
        <time>2013-03-06T13:19:14.050Z</time>
      </trkpt>
      <trkpt lat="44.35308" lon="2.84544">
        <ele>807</ele>
        <time>2013-03-06T13:19:15.980Z</time>
      </trkpt>
      <trkpt lat="44.35308" lon="2.84543">
        <ele>807</ele>
        <time>2013-03-06T13:19:16.980Z</time>
      </trkpt>
      <trkpt lat="44.35306" lon="2.84543">
        <ele>807</ele>
        <time>2013-03-06T13:19:19.980Z</time>
      </trkpt>
      <trkpt lat="44.35306" lon="2.84544">
        <ele>807</ele>
        <time>2013-03-06T13:19:20.980Z</time>
      </trkpt>
      <trkpt lat="44.35306" lon="2.84542">
        <ele>807</ele>
        <time>2013-03-06T13:19:24.040Z</time>
      </trkpt>
      <trkpt lat="44.35307" lon="2.84537">
        <ele>807</ele>
        <time>2013-03-06T13:19:25.980Z</time>
      </trkpt>
      <trkpt lat="44.35308" lon="2.84536">
        <ele>807</ele>
        <time>2013-03-06T13:19:26.980Z</time>
      </trkpt>
      <trkpt lat="44.35308" lon="2.84534">
        <ele>807</ele>
        <time>2013-03-06T13:19:27.990Z</time>
      </trkpt>
      <trkpt lat="44.35308" lon="2.84532">
        <ele>807</ele>
        <time>2013-03-06T13:19:29.040Z</time>
      </trkpt>
      <trkpt lat="44.35307" lon="2.84528">
        <ele>807</ele>
        <time>2013-03-06T13:19:30.970Z</time>
      </trkpt>
      <trkpt lat="44.35307" lon="2.84525">
        <ele>807</ele>
        <time>2013-03-06T13:19:34.970Z</time>
      </trkpt>
      <trkpt lat="44.35305" lon="2.84525">
        <ele>807</ele>
        <time>2013-03-06T13:19:36.970Z</time>
      </trkpt>
      <trkpt lat="44.35304" lon="2.84525">
        <ele>808</ele>
        <time>2013-03-06T13:19:39.040Z</time>
      </trkpt>
      <trkpt lat="44.35305" lon="2.84527">
        <ele>807</ele>
        <time>2013-03-06T13:19:40.970Z</time>
      </trkpt>
      <trkpt lat="44.35305" lon="2.8453">
        <ele>808</ele>
        <time>2013-03-06T13:19:42.970Z</time>
      </trkpt>
      <trkpt lat="44.35306" lon="2.84529">
        <ele>807</ele>
        <time>2013-03-06T13:19:51.970Z</time>
      </trkpt>
      <trkpt lat="44.35307" lon="2.84529">
        <ele>807</ele>
        <time>2013-03-06T13:19:53.970Z</time>
      </trkpt>
      <trkpt lat="44.35308" lon="2.84529">
        <ele>807</ele>
        <time>2013-03-06T13:19:57.970Z</time>
      </trkpt>
      <trkpt lat="44.35309" lon="2.8453">
        <ele>807</ele>
        <time>2013-03-06T13:20:00.970Z</time>
      </trkpt>
      <trkpt lat="44.3531" lon="2.84528">
        <ele>806</ele>
        <time>2013-03-06T13:20:04.070Z</time>
      </trkpt>
      <trkpt lat="44.35311" lon="2.84528">
        <ele>806</ele>
        <time>2013-03-06T13:20:06.070Z</time>
      </trkpt>
      <trkpt lat="44.35308" lon="2.84529">
        <ele>807</ele>
        <time>2013-03-06T13:20:12.060Z</time>
      </trkpt>
      <trkpt lat="44.35307" lon="2.84529">
        <ele>807</ele>
        <time>2013-03-06T13:20:12.970Z</time>
      </trkpt>
      <trkpt lat="44.35308" lon="2.8453">
        <ele>807</ele>
        <time>2013-03-06T13:20:14.130Z</time>
      </trkpt>
      <trkpt lat="44.35311" lon="2.84531">
        <ele>806</ele>
        <time>2013-03-06T13:20:15.980Z</time>
      </trkpt>
      <trkpt lat="44.3531" lon="2.84532">
        <ele>806</ele>
        <time>2013-03-06T13:20:17.060Z</time>
      </trkpt>
      <trkpt lat="44.35309" lon="2.84534">
        <ele>807</ele>
        <time>2013-03-06T13:20:19.130Z</time>
      </trkpt>
      <trkpt lat="44.3531" lon="2.84535">
        <ele>807</ele>
        <time>2013-03-06T13:20:20.970Z</time>
      </trkpt>
      <trkpt lat="44.35311" lon="2.84535">
        <ele>806</ele>
        <time>2013-03-06T13:20:22.970Z</time>
      </trkpt>
      <trkpt lat="44.35313" lon="2.84532">
        <ele>806</ele>
        <time>2013-03-06T13:20:28.970Z</time>
      </trkpt>
      <trkpt lat="44.35314" lon="2.84531">
        <ele>806</ele>
        <time>2013-03-06T13:20:30.060Z</time>
      </trkpt>
      <trkpt lat="44.35314" lon="2.84529">
        <ele>806</ele>
        <time>2013-03-06T13:20:34.970Z</time>
      </trkpt>
      <trkpt lat="44.35313" lon="2.84528">
        <ele>806</ele>
        <time>2013-03-06T13:20:38.060Z</time>
      </trkpt>
      <trkpt lat="44.35312" lon="2.84529">
        <ele>806</ele>
        <time>2013-03-06T13:20:40.970Z</time>
      </trkpt>
      <trkpt lat="44.35313" lon="2.84531">
        <ele>806</ele>
        <time>2013-03-06T13:20:44.130Z</time>
      </trkpt>
      <trkpt lat="44.35313" lon="2.84535">
        <ele>806</ele>
        <time>2013-03-06T13:20:45.970Z</time>
      </trkpt>
      <trkpt lat="44.35313" lon="2.84536">
        <ele>806</ele>
        <time>2013-03-06T13:20:47.060Z</time>
      </trkpt>
      <trkpt lat="44.35312" lon="2.84538">
        <ele>806</ele>
        <time>2013-03-06T13:20:47.970Z</time>
      </trkpt>
      <trkpt lat="44.35311" lon="2.84539">
        <ele>806</ele>
        <time>2013-03-06T13:20:49.070Z</time>
      </trkpt>
      <trkpt lat="44.3531" lon="2.84542">
        <ele>807</ele>
        <time>2013-03-06T13:20:50.970Z</time>
      </trkpt>
      <trkpt lat="44.35308" lon="2.84543">
        <ele>807</ele>
        <time>2013-03-06T13:20:52.050Z</time>
      </trkpt>
      <trkpt lat="44.35308" lon="2.84544">
        <ele>807</ele>
        <time>2013-03-06T13:20:52.970Z</time>
      </trkpt>
      <trkpt lat="44.35307" lon="2.84546">
        <ele>807</ele>
        <time>2013-03-06T13:20:54.050Z</time>
      </trkpt>
      <trkpt lat="44.35308" lon="2.84549">
        <ele>807</ele>
        <time>2013-03-06T13:20:56.050Z</time>
      </trkpt>
      <trkpt lat="44.35309" lon="2.84552">
        <ele>806</ele>
        <time>2013-03-06T13:20:58.050Z</time>
      </trkpt>
      <trkpt lat="44.35307" lon="2.84554">
        <ele>807</ele>
        <time>2013-03-06T13:21:00.050Z</time>
      </trkpt>
      <trkpt lat="44.35308" lon="2.84555">
        <ele>806</ele>
        <time>2013-03-06T13:21:00.970Z</time>
      </trkpt>
      <trkpt lat="44.3531" lon="2.84556">
        <ele>806</ele>
        <time>2013-03-06T13:21:02.980Z</time>
      </trkpt>
      <trkpt lat="44.35309" lon="2.84557">
        <ele>806</ele>
        <time>2013-03-06T13:21:06.050Z</time>
      </trkpt>
      <trkpt lat="44.35309" lon="2.84559">
        <ele>806</ele>
        <time>2013-03-06T13:21:08.060Z</time>
      </trkpt>
      <trkpt lat="44.35309" lon="2.84561">
        <ele>805</ele>
        <time>2013-03-06T13:21:09.970Z</time>
      </trkpt>
      <trkpt lat="44.35309" lon="2.84563">
        <ele>805</ele>
        <time>2013-03-06T13:21:11.970Z</time>
      </trkpt>
      <trkpt lat="44.35309" lon="2.84564">
        <ele>805</ele>
        <time>2013-03-06T13:21:13.970Z</time>
      </trkpt>
      <trkpt lat="44.35308" lon="2.84565">
        <ele>805</ele>
        <time>2013-03-06T13:21:15.980Z</time>
      </trkpt>
      <trkpt lat="44.35307" lon="2.84566">
        <ele>806</ele>
        <time>2013-03-06T13:21:18.970Z</time>
      </trkpt>
      <trkpt lat="44.35306" lon="2.84567">
        <ele>806</ele>
        <time>2013-03-06T13:21:20.970Z</time>
      </trkpt>
      <trkpt lat="44.35305" lon="2.84568">
        <ele>806</ele>
        <time>2013-03-06T13:21:21.970Z</time>
      </trkpt>
      <trkpt lat="44.35304" lon="2.8457">
        <ele>806</ele>
        <time>2013-03-06T13:21:22.970Z</time>
      </trkpt>
      <trkpt lat="44.35304" lon="2.84571">
        <ele>806</ele>
        <time>2013-03-06T13:21:24.970Z</time>
      </trkpt>
      <trkpt lat="44.35303" lon="2.84572">
        <ele>807</ele>
        <time>2013-03-06T13:21:25.970Z</time>
      </trkpt>
      <trkpt lat="44.35304" lon="2.84572">
        <ele>806</ele>
        <time>2013-03-06T13:21:26.970Z</time>
      </trkpt>
      <trkpt lat="44.35306" lon="2.84573">
        <ele>805</ele>
        <time>2013-03-06T13:21:28.970Z</time>
      </trkpt>
      <trkpt lat="44.35306" lon="2.84573">
        <ele>805</ele>
        <time>2013-03-06T13:21:34.970Z</time>
      </trkpt>
      <trkpt lat="44.35306" lon="2.84576">
        <ele>805</ele>
        <time>2013-03-06T13:21:42.970Z</time>
      </trkpt>
      <trkpt lat="44.35305" lon="2.84577">
        <ele>805</ele>
        <time>2013-03-06T13:21:43.970Z</time>
      </trkpt>
      <trkpt lat="44.35305" lon="2.84578">
        <ele>806</ele>
        <time>2013-03-06T13:21:46.970Z</time>
      </trkpt>
      <trkpt lat="44.35306" lon="2.84577">
        <ele>805</ele>
        <time>2013-03-06T13:21:48.970Z</time>
      </trkpt>
      <trkpt lat="44.35305" lon="2.84577">
        <ele>806</ele>
        <time>2013-03-06T13:21:51.970Z</time>
      </trkpt>
      <trkpt lat="44.35304" lon="2.84578">
        <ele>806</ele>
        <time>2013-03-06T13:21:53.040Z</time>
      </trkpt>
      <trkpt lat="44.35303" lon="2.84579">
        <ele>806</ele>
        <time>2013-03-06T13:21:58.040Z</time>
      </trkpt>
      <trkpt lat="44.35301" lon="2.84579">
        <ele>807</ele>
        <time>2013-03-06T13:22:00.970Z</time>
      </trkpt>
      <trkpt lat="44.35299" lon="2.84581">
        <ele>807</ele>
        <time>2013-03-06T13:22:02.970Z</time>
      </trkpt>
      <trkpt lat="44.35297" lon="2.84582">
        <ele>808</ele>
        <time>2013-03-06T13:22:05.040Z</time>
      </trkpt>
      <trkpt lat="44.35297" lon="2.84584">
        <ele>807</ele>
        <time>2013-03-06T13:22:17.030Z</time>
      </trkpt>
      <trkpt lat="44.35296" lon="2.84586">
        <ele>808</ele>
        <time>2013-03-06T13:22:18.030Z</time>
      </trkpt>
      <trkpt lat="44.35295" lon="2.84587">
        <ele>808</ele>
        <time>2013-03-06T13:22:19.040Z</time>
      </trkpt>
      <trkpt lat="44.35294" lon="2.84588">
        <ele>808</ele>
        <time>2013-03-06T13:22:28.030Z</time>
      </trkpt>
      <trkpt lat="44.35293" lon="2.84587">
        <ele>809</ele>
        <time>2013-03-06T13:22:29.130Z</time>
      </trkpt>
      <trkpt lat="44.35291" lon="2.84585">
        <ele>809</ele>
        <time>2013-03-06T13:22:30.970Z</time>
      </trkpt>
      <trkpt lat="44.35292" lon="2.84584">
        <ele>809</ele>
        <time>2013-03-06T13:22:37.030Z</time>
      </trkpt>
      <trkpt lat="44.35291" lon="2.84583">
        <ele>811</ele>
        <time>2013-03-06T13:22:41.030Z</time>
      </trkpt>
      <trkpt lat="44.3529" lon="2.84583">
        <ele>811</ele>
        <time>2013-03-06T13:22:43.030Z</time>
      </trkpt>
      <trkpt lat="44.35291" lon="2.84582">
        <ele>811</ele>
        <time>2013-03-06T13:22:59.970Z</time>
      </trkpt>
      <trkpt lat="44.35293" lon="2.84582">
        <ele>810</ele>
        <time>2013-03-06T13:23:00.970Z</time>
      </trkpt>
      <trkpt lat="44.35293" lon="2.84581">
        <ele>810</ele>
        <time>2013-03-06T13:23:01.970Z</time>
      </trkpt>
      <trkpt lat="44.35292" lon="2.84581">
        <ele>810</ele>
        <time>2013-03-06T13:23:03.970Z</time>
      </trkpt>
      <trkpt lat="44.35292" lon="2.8458">
        <ele>810</ele>
        <time>2013-03-06T13:23:11.970Z</time>
      </trkpt>
      <trkpt lat="44.35291" lon="2.84581">
        <ele>811</ele>
        <time>2013-03-06T13:23:14.970Z</time>
      </trkpt>
      <trkpt lat="44.35289" lon="2.84582">
        <ele>811</ele>
        <time>2013-03-06T13:23:16.970Z</time>
      </trkpt>
      <trkpt lat="44.35287" lon="2.84581">
        <ele>812</ele>
        <time>2013-03-06T13:23:28.020Z</time>
      </trkpt>
      <trkpt lat="44.35286" lon="2.8458">
        <ele>813</ele>
        <time>2013-03-06T13:23:30.020Z</time>
      </trkpt>
      <trkpt lat="44.35285" lon="2.84579">
        <ele>813</ele>
        <time>2013-03-06T13:23:31.020Z</time>
      </trkpt>
      <trkpt lat="44.35284" lon="2.84578">
        <ele>813</ele>
        <time>2013-03-06T13:23:32.020Z</time>
      </trkpt>
      <trkpt lat="44.35282" lon="2.84576">
        <ele>814</ele>
        <time>2013-03-06T13:23:34.970Z</time>
      </trkpt>
      <trkpt lat="44.3528" lon="2.84576">
        <ele>815</ele>
        <time>2013-03-06T13:23:35.970Z</time>
      </trkpt>
      <trkpt lat="44.35279" lon="2.84574">
        <ele>815</ele>
        <time>2013-03-06T13:23:36.970Z</time>
      </trkpt>
      <trkpt lat="44.35278" lon="2.84574">
        <ele>815</ele>
        <time>2013-03-06T13:23:37.970Z</time>
      </trkpt>
      <trkpt lat="44.35277" lon="2.84573">
        <ele>816</ele>
        <time>2013-03-06T13:23:39.970Z</time>
      </trkpt>
      <trkpt lat="44.35276" lon="2.84574">
        <ele>816</ele>
        <time>2013-03-06T13:23:42.970Z</time>
      </trkpt>
      <trkpt lat="44.35274" lon="2.84574">
        <ele>817</ele>
        <time>2013-03-06T13:23:44.970Z</time>
      </trkpt>
      <trkpt lat="44.35273" lon="2.84573">
        <ele>817</ele>
        <time>2013-03-06T13:23:45.970Z</time>
      </trkpt>
      <trkpt lat="44.35271" lon="2.84572">
        <ele>818</ele>
        <time>2013-03-06T13:23:47.970Z</time>
      </trkpt>
      <trkpt lat="44.3527" lon="2.84574">
        <ele>818</ele>
        <time>2013-03-06T13:23:52.010Z</time>
      </trkpt>
      <trkpt lat="44.3527" lon="2.84575">
        <ele>818</ele>
        <time>2013-03-06T13:23:55.010Z</time>
      </trkpt>
      <trkpt lat="44.35273" lon="2.84576">
        <ele>817</ele>
        <time>2013-03-06T13:23:57.010Z</time>
      </trkpt>
      <trkpt lat="44.35274" lon="2.84576">
        <ele>817</ele>
        <time>2013-03-06T13:23:58.010Z</time>
      </trkpt>
      <trkpt lat="44.35276" lon="2.84577">
        <ele>816</ele>
        <time>2013-03-06T13:24:00.970Z</time>
      </trkpt>
      <trkpt lat="44.35276" lon="2.8458">
        <ele>816</ele>
        <time>2013-03-06T13:24:02.970Z</time>
      </trkpt>
      <trkpt lat="44.35274" lon="2.84581">
        <ele>817</ele>
        <time>2013-03-06T13:24:03.970Z</time>
      </trkpt>
      <trkpt lat="44.35274" lon="2.84582">
        <ele>817</ele>
        <time>2013-03-06T13:24:06.010Z</time>
      </trkpt>
      <trkpt lat="44.35274" lon="2.84584">
        <ele>816</ele>
        <time>2013-03-06T13:24:07.010Z</time>
      </trkpt>
      <trkpt lat="44.35273" lon="2.84585">
        <ele>817</ele>
        <time>2013-03-06T13:24:08.010Z</time>
      </trkpt>
      <trkpt lat="44.35273" lon="2.84587">
        <ele>817</ele>
        <time>2013-03-06T13:24:09.060Z</time>
      </trkpt>
      <trkpt lat="44.35273" lon="2.84591">
        <ele>816</ele>
        <time>2013-03-06T13:24:10.970Z</time>
      </trkpt>
      <trkpt lat="44.35273" lon="2.84594">
        <ele>816</ele>
        <time>2013-03-06T13:24:11.970Z</time>
      </trkpt>
      <trkpt lat="44.35272" lon="2.84596">
        <ele>816</ele>
        <time>2013-03-06T13:24:12.970Z</time>
      </trkpt>
      <trkpt lat="44.35271" lon="2.84597">
        <ele>816</ele>
        <time>2013-03-06T13:24:13.970Z</time>
      </trkpt>
      <trkpt lat="44.3527" lon="2.84597">
        <ele>817</ele>
        <time>2013-03-06T13:24:14.970Z</time>
      </trkpt>
      <trkpt lat="44.35269" lon="2.84598">
        <ele>817</ele>
        <time>2013-03-06T13:24:15.980Z</time>
      </trkpt>
      <trkpt lat="44.35269" lon="2.846">
        <ele>816</ele>
        <time>2013-03-06T13:24:17.030Z</time>
      </trkpt>
      <trkpt lat="44.35268" lon="2.84601">
        <ele>817</ele>
        <time>2013-03-06T13:24:19.060Z</time>
      </trkpt>
      <trkpt lat="44.35267" lon="2.84604">
        <ele>816</ele>
        <time>2013-03-06T13:24:20.980Z</time>
      </trkpt>
      <trkpt lat="44.35267" lon="2.84606">
        <ele>816</ele>
        <time>2013-03-06T13:24:21.970Z</time>
      </trkpt>
      <trkpt lat="44.35266" lon="2.84608">
        <ele>816</ele>
        <time>2013-03-06T13:24:22.970Z</time>
      </trkpt>
      <trkpt lat="44.35266" lon="2.8461">
        <ele>816</ele>
        <time>2013-03-06T13:24:24.970Z</time>
      </trkpt>
      <trkpt lat="44.35266" lon="2.84612">
        <ele>815</ele>
        <time>2013-03-06T13:24:26.970Z</time>
      </trkpt>
      <trkpt lat="44.35266" lon="2.84614">
        <ele>815</ele>
        <time>2013-03-06T13:24:27.970Z</time>
      </trkpt>
      <trkpt lat="44.35266" lon="2.84615">
        <ele>815</ele>
        <time>2013-03-06T13:24:28.970Z</time>
      </trkpt>
      <trkpt lat="44.35267" lon="2.84616">
        <ele>815</ele>
        <time>2013-03-06T13:24:29.970Z</time>
      </trkpt>
      <trkpt lat="44.35266" lon="2.84617">
        <ele>815</ele>
        <time>2013-03-06T13:24:31.970Z</time>
      </trkpt>
      <trkpt lat="44.35266" lon="2.84619">
        <ele>815</ele>
        <time>2013-03-06T13:24:34.150Z</time>
      </trkpt>
      <trkpt lat="44.35267" lon="2.84622">
        <ele>814</ele>
        <time>2013-03-06T13:24:36.000Z</time>
      </trkpt>
      <trkpt lat="44.35267" lon="2.84624">
        <ele>814</ele>
        <time>2013-03-06T13:24:37.020Z</time>
      </trkpt>
      <trkpt lat="44.35265" lon="2.84627">
        <ele>815</ele>
        <time>2013-03-06T13:24:39.060Z</time>
      </trkpt>
      <trkpt lat="44.35264" lon="2.8463">
        <ele>815</ele>
        <time>2013-03-06T13:24:41.000Z</time>
      </trkpt>
      <trkpt lat="44.35264" lon="2.84631">
        <ele>815</ele>
        <time>2013-03-06T13:24:42.000Z</time>
      </trkpt>
      <trkpt lat="44.35264" lon="2.84633">
        <ele>815</ele>
        <time>2013-03-06T13:24:43.000Z</time>
      </trkpt>
      <trkpt lat="44.35264" lon="2.84635">
        <ele>815</ele>
        <time>2013-03-06T13:24:44.070Z</time>
      </trkpt>
      <trkpt lat="44.35262" lon="2.84637">
        <ele>815</ele>
        <time>2013-03-06T13:24:45.970Z</time>
      </trkpt>
      <trkpt lat="44.35262" lon="2.84639">
        <ele>816</ele>
        <time>2013-03-06T13:24:46.970Z</time>
      </trkpt>
      <trkpt lat="44.35261" lon="2.84641">
        <ele>816</ele>
        <time>2013-03-06T13:24:47.970Z</time>
      </trkpt>
      <trkpt lat="44.3526" lon="2.84642">
        <ele>816</ele>
        <time>2013-03-06T13:24:48.970Z</time>
      </trkpt>
      <trkpt lat="44.3526" lon="2.84644">
        <ele>816</ele>
        <time>2013-03-06T13:24:50.050Z</time>
      </trkpt>
      <trkpt lat="44.35259" lon="2.84647">
        <ele>817</ele>
        <time>2013-03-06T13:24:51.970Z</time>
      </trkpt>
      <trkpt lat="44.35259" lon="2.84648">
        <ele>817</ele>
        <time>2013-03-06T13:24:52.970Z</time>
      </trkpt>
      <trkpt lat="44.35257" lon="2.84649">
        <ele>818</ele>
        <time>2013-03-06T13:24:53.970Z</time>
      </trkpt>
      <trkpt lat="44.35256" lon="2.84649">
        <ele>818</ele>
        <time>2013-03-06T13:24:55.000Z</time>
      </trkpt>
      <trkpt lat="44.35254" lon="2.8465">
        <ele>819</ele>
        <time>2013-03-06T13:24:57.000Z</time>
      </trkpt>
      <trkpt lat="44.35253" lon="2.84652">
        <ele>820</ele>
        <time>2013-03-06T13:24:59.120Z</time>
      </trkpt>
      <trkpt lat="44.35251" lon="2.84655">
        <ele>821</ele>
        <time>2013-03-06T13:25:00.990Z</time>
      </trkpt>
      <trkpt lat="44.3525" lon="2.84656">
        <ele>834</ele>
        <time>2013-03-06T13:25:01.990Z</time>
      </trkpt>
      <trkpt lat="44.35249" lon="2.84657">
        <ele>833</ele>
        <time>2013-03-06T13:25:02.990Z</time>
      </trkpt>
      <trkpt lat="44.35248" lon="2.84658">
        <ele>833</ele>
        <time>2013-03-06T13:25:04.050Z</time>
      </trkpt>
      <trkpt lat="44.35247" lon="2.8466">
        <ele>832</ele>
        <time>2013-03-06T13:25:06.020Z</time>
      </trkpt>
      <trkpt lat="44.35245" lon="2.84663">
        <ele>831</ele>
        <time>2013-03-06T13:25:07.990Z</time>
      </trkpt>
      <trkpt lat="44.35245" lon="2.84664">
        <ele>831</ele>
        <time>2013-03-06T13:25:09.060Z</time>
      </trkpt>
      <trkpt lat="44.35242" lon="2.84668">
        <ele>831</ele>
        <time>2013-03-06T13:25:10.970Z</time>
      </trkpt>
      <trkpt lat="44.35241" lon="2.8467">
        <ele>832</ele>
        <time>2013-03-06T13:25:11.970Z</time>
      </trkpt>
      <trkpt lat="44.35239" lon="2.84672">
        <ele>833</ele>
        <time>2013-03-06T13:25:12.970Z</time>
      </trkpt>
      <trkpt lat="44.35237" lon="2.84673">
        <ele>834</ele>
        <time>2013-03-06T13:25:13.970Z</time>
      </trkpt>
      <trkpt lat="44.35235" lon="2.84674">
        <ele>834</ele>
        <time>2013-03-06T13:25:14.970Z</time>
      </trkpt>
      <trkpt lat="44.35233" lon="2.84675">
        <ele>835</ele>
        <time>2013-03-06T13:25:15.980Z</time>
      </trkpt>
      <trkpt lat="44.35231" lon="2.84676">
        <ele>836</ele>
        <time>2013-03-06T13:25:17.020Z</time>
      </trkpt>
      <trkpt lat="44.35226" lon="2.84678">
        <ele>837</ele>
        <time>2013-03-06T13:25:19.060Z</time>
      </trkpt>
      <trkpt lat="44.35222" lon="2.84678">
        <ele>839</ele>
        <time>2013-03-06T13:25:20.970Z</time>
      </trkpt>
      <trkpt lat="44.35221" lon="2.84679">
        <ele>839</ele>
        <time>2013-03-06T13:25:21.970Z</time>
      </trkpt>
      <trkpt lat="44.3522" lon="2.8468">
        <ele>839</ele>
        <time>2013-03-06T13:25:23.970Z</time>
      </trkpt>
      <trkpt lat="44.35219" lon="2.8468">
        <ele>840</ele>
        <time>2013-03-06T13:25:24.990Z</time>
      </trkpt>
      <trkpt lat="44.35218" lon="2.84681">
        <ele>840</ele>
        <time>2013-03-06T13:25:25.990Z</time>
      </trkpt>
      <trkpt lat="44.35216" lon="2.84683">
        <ele>840</ele>
        <time>2013-03-06T13:25:26.990Z</time>
      </trkpt>
      <trkpt lat="44.35215" lon="2.84685">
        <ele>841</ele>
        <time>2013-03-06T13:25:29.060Z</time>
      </trkpt>
      <trkpt lat="44.35213" lon="2.84689">
        <ele>841</ele>
        <time>2013-03-06T13:25:30.970Z</time>
      </trkpt>
      <trkpt lat="44.35212" lon="2.84689">
        <ele>841</ele>
        <time>2013-03-06T13:25:31.970Z</time>
      </trkpt>
      <trkpt lat="44.35209" lon="2.84691">
        <ele>842</ele>
        <time>2013-03-06T13:25:34.060Z</time>
      </trkpt>
      <trkpt lat="44.35209" lon="2.84694">
        <ele>842</ele>
        <time>2013-03-06T13:25:35.970Z</time>
      </trkpt>
      <trkpt lat="44.35209" lon="2.84696">
        <ele>842</ele>
        <time>2013-03-06T13:25:36.970Z</time>
      </trkpt>
      <trkpt lat="44.35208" lon="2.84698">
        <ele>842</ele>
        <time>2013-03-06T13:25:37.970Z</time>
      </trkpt>
      <trkpt lat="44.35208" lon="2.847">
        <ele>842</ele>
        <time>2013-03-06T13:25:38.970Z</time>
      </trkpt>
      <trkpt lat="44.35208" lon="2.84702">
        <ele>842</ele>
        <time>2013-03-06T13:25:40.070Z</time>
      </trkpt>
      <trkpt lat="44.3521" lon="2.84705">
        <ele>842</ele>
        <time>2013-03-06T13:25:41.970Z</time>
      </trkpt>
      <trkpt lat="44.35211" lon="2.84708">
        <ele>841</ele>
        <time>2013-03-06T13:25:43.970Z</time>
      </trkpt>
      <trkpt lat="44.3521" lon="2.84709">
        <ele>841</ele>
        <time>2013-03-06T13:25:44.970Z</time>
      </trkpt>
      <trkpt lat="44.3521" lon="2.84711">
        <ele>841</ele>
        <time>2013-03-06T13:25:45.980Z</time>
      </trkpt>
      <trkpt lat="44.3521" lon="2.84713">
        <ele>841</ele>
        <time>2013-03-06T13:25:46.980Z</time>
      </trkpt>
      <trkpt lat="44.35209" lon="2.84715">
        <ele>841</ele>
        <time>2013-03-06T13:25:49.060Z</time>
      </trkpt>
      <trkpt lat="44.3521" lon="2.84717">
        <ele>841</ele>
        <time>2013-03-06T13:25:50.980Z</time>
      </trkpt>
      <trkpt lat="44.35209" lon="2.84719">
        <ele>841</ele>
        <time>2013-03-06T13:25:51.980Z</time>
      </trkpt>
      <trkpt lat="44.3521" lon="2.8472">
        <ele>841</ele>
        <time>2013-03-06T13:25:53.060Z</time>
      </trkpt>
      <trkpt lat="44.3521" lon="2.84722">
        <ele>841</ele>
        <time>2013-03-06T13:25:54.980Z</time>
      </trkpt>
      <trkpt lat="44.35211" lon="2.84723">
        <ele>841</ele>
        <time>2013-03-06T13:25:57.980Z</time>
      </trkpt>
      <trkpt lat="44.3521" lon="2.84725">
        <ele>841</ele>
        <time>2013-03-06T13:25:59.120Z</time>
      </trkpt>
      <trkpt lat="44.35211" lon="2.84727">
        <ele>841</ele>
        <time>2013-03-06T13:26:00.980Z</time>
      </trkpt>
      <trkpt lat="44.35212" lon="2.84728">
        <ele>840</ele>
        <time>2013-03-06T13:26:01.980Z</time>
      </trkpt>
      <trkpt lat="44.35213" lon="2.84732">
        <ele>840</ele>
        <time>2013-03-06T13:26:02.980Z</time>
      </trkpt>
      <trkpt lat="44.35213" lon="2.84736">
        <ele>840</ele>
        <time>2013-03-06T13:26:04.070Z</time>
      </trkpt>
      <trkpt lat="44.35214" lon="2.84742">
        <ele>839</ele>
        <time>2013-03-06T13:26:05.970Z</time>
      </trkpt>
      <trkpt lat="44.35214" lon="2.84744">
        <ele>839</ele>
        <time>2013-03-06T13:26:06.970Z</time>
      </trkpt>
      <trkpt lat="44.35214" lon="2.84746">
        <ele>839</ele>
        <time>2013-03-06T13:26:07.970Z</time>
      </trkpt>
      <trkpt lat="44.35214" lon="2.84748">
        <ele>839</ele>
        <time>2013-03-06T13:26:09.060Z</time>
      </trkpt>
      <trkpt lat="44.35214" lon="2.84752">
        <ele>839</ele>
        <time>2013-03-06T13:26:10.970Z</time>
      </trkpt>
      <trkpt lat="44.35214" lon="2.84754">
        <ele>838</ele>
        <time>2013-03-06T13:26:11.970Z</time>
      </trkpt>
      <trkpt lat="44.35214" lon="2.84757">
        <ele>839</ele>
        <time>2013-03-06T13:26:12.970Z</time>
      </trkpt>
      <trkpt lat="44.35213" lon="2.8476">
        <ele>839</ele>
        <time>2013-03-06T13:26:13.970Z</time>
      </trkpt>
      <trkpt lat="44.35213" lon="2.84761">
        <ele>839</ele>
        <time>2013-03-06T13:26:14.970Z</time>
      </trkpt>
      <trkpt lat="44.35214" lon="2.84764">
        <ele>839</ele>
        <time>2013-03-06T13:26:15.980Z</time>
      </trkpt>
      <trkpt lat="44.35214" lon="2.84765">
        <ele>839</ele>
        <time>2013-03-06T13:26:16.980Z</time>
      </trkpt>
      <trkpt lat="44.35213" lon="2.84767">
        <ele>839</ele>
        <time>2013-03-06T13:26:17.980Z</time>
      </trkpt>
      <trkpt lat="44.35212" lon="2.84769">
        <ele>840</ele>
        <time>2013-03-06T13:26:19.060Z</time>
      </trkpt>
      <trkpt lat="44.35212" lon="2.84774">
        <ele>840</ele>
        <time>2013-03-06T13:26:20.970Z</time>
      </trkpt>
      <trkpt lat="44.35212" lon="2.84776">
        <ele>840</ele>
        <time>2013-03-06T13:26:21.970Z</time>
      </trkpt>
      <trkpt lat="44.35213" lon="2.84778">
        <ele>840</ele>
        <time>2013-03-06T13:26:22.970Z</time>
      </trkpt>
      <trkpt lat="44.35213" lon="2.84781">
        <ele>840</ele>
        <time>2013-03-06T13:26:23.970Z</time>
      </trkpt>
      <trkpt lat="44.35212" lon="2.84784">
        <ele>840</ele>
        <time>2013-03-06T13:26:24.970Z</time>
      </trkpt>
      <trkpt lat="44.35211" lon="2.84787">
        <ele>840</ele>
        <time>2013-03-06T13:26:26.090Z</time>
      </trkpt>
      <trkpt lat="44.3521" lon="2.84795">
        <ele>841</ele>
        <time>2013-03-06T13:26:27.970Z</time>
      </trkpt>
      <trkpt lat="44.35209" lon="2.84798">
        <ele>841</ele>
        <time>2013-03-06T13:26:28.970Z</time>
      </trkpt>
      <trkpt lat="44.35209" lon="2.84801">
        <ele>841</ele>
        <time>2013-03-06T13:26:29.970Z</time>
      </trkpt>
      <trkpt lat="44.3521" lon="2.84804">
        <ele>841</ele>
        <time>2013-03-06T13:26:30.980Z</time>
      </trkpt>
      <trkpt lat="44.35211" lon="2.84808">
        <ele>841</ele>
        <time>2013-03-06T13:26:31.970Z</time>
      </trkpt>
      <trkpt lat="44.3521" lon="2.84813">
        <ele>841</ele>
        <time>2013-03-06T13:26:33.060Z</time>
      </trkpt>
      <trkpt lat="44.35211" lon="2.84818">
        <ele>841</ele>
        <time>2013-03-06T13:26:34.080Z</time>
      </trkpt>
      <trkpt lat="44.35211" lon="2.84824">
        <ele>841</ele>
        <time>2013-03-06T13:26:35.970Z</time>
      </trkpt>
      <trkpt lat="44.3521" lon="2.84827">
        <ele>841</ele>
        <time>2013-03-06T13:26:36.970Z</time>
      </trkpt>
      <trkpt lat="44.35209" lon="2.8483">
        <ele>841</ele>
        <time>2013-03-06T13:26:37.970Z</time>
      </trkpt>
      <trkpt lat="44.35209" lon="2.84832">
        <ele>841</ele>
        <time>2013-03-06T13:26:39.060Z</time>
      </trkpt>
      <trkpt lat="44.3521" lon="2.84838">
        <ele>844</ele>
        <time>2013-03-06T13:26:40.980Z</time>
      </trkpt>
      <trkpt lat="44.35212" lon="2.84841">
        <ele>844</ele>
        <time>2013-03-06T13:26:42.090Z</time>
      </trkpt>
      <trkpt lat="44.35215" lon="2.84846">
        <ele>843</ele>
        <time>2013-03-06T13:26:43.970Z</time>
      </trkpt>
      <trkpt lat="44.35215" lon="2.84848">
        <ele>843</ele>
        <time>2013-03-06T13:26:45.070Z</time>
      </trkpt>
      <trkpt lat="44.35217" lon="2.84852">
        <ele>843</ele>
        <time>2013-03-06T13:26:46.970Z</time>
      </trkpt>
      <trkpt lat="44.35218" lon="2.84856">
        <ele>843</ele>
        <time>2013-03-06T13:26:47.970Z</time>
      </trkpt>
      <trkpt lat="44.35219" lon="2.8486">
        <ele>843</ele>
        <time>2013-03-06T13:26:49.070Z</time>
      </trkpt>
      <trkpt lat="44.35218" lon="2.84869">
        <ele>844</ele>
        <time>2013-03-06T13:26:51.070Z</time>
      </trkpt>
      <trkpt lat="44.35218" lon="2.84873">
        <ele>844</ele>
        <time>2013-03-06T13:26:53.050Z</time>
      </trkpt>
      <trkpt lat="44.35217" lon="2.84875">
        <ele>845</ele>
        <time>2013-03-06T13:26:53.970Z</time>
      </trkpt>
      <trkpt lat="44.35216" lon="2.84876">
        <ele>845</ele>
        <time>2013-03-06T13:26:55.070Z</time>
      </trkpt>
      <trkpt lat="44.35214" lon="2.84878">
        <ele>845</ele>
        <time>2013-03-06T13:26:55.970Z</time>
      </trkpt>
      <trkpt lat="44.35214" lon="2.8488">
        <ele>845</ele>
        <time>2013-03-06T13:26:57.070Z</time>
      </trkpt>
      <trkpt lat="44.35214" lon="2.84882">
        <ele>845</ele>
        <time>2013-03-06T13:26:57.970Z</time>
      </trkpt>
      <trkpt lat="44.35215" lon="2.84884">
        <ele>845</ele>
        <time>2013-03-06T13:26:59.120Z</time>
      </trkpt>
      <trkpt lat="44.35217" lon="2.84887">
        <ele>845</ele>
        <time>2013-03-06T13:27:01.060Z</time>
      </trkpt>
      <trkpt lat="44.35216" lon="2.84888">
        <ele>845</ele>
        <time>2013-03-06T13:27:03.060Z</time>
      </trkpt>
      <trkpt lat="44.35216" lon="2.8489">
        <ele>845</ele>
        <time>2013-03-06T13:27:03.970Z</time>
      </trkpt>
      <trkpt lat="44.35217" lon="2.84892">
        <ele>845</ele>
        <time>2013-03-06T13:27:04.970Z</time>
      </trkpt>
      <trkpt lat="44.35218" lon="2.84894">
        <ele>845</ele>
        <time>2013-03-06T13:27:06.060Z</time>
      </trkpt>
      <trkpt lat="44.35218" lon="2.84897">
        <ele>845</ele>
        <time>2013-03-06T13:27:06.970Z</time>
      </trkpt>
      <trkpt lat="44.35219" lon="2.84899">
        <ele>845</ele>
        <time>2013-03-06T13:27:08.060Z</time>
      </trkpt>
      <trkpt lat="44.35217" lon="2.84898">
        <ele>845</ele>
        <time>2013-03-06T13:27:10.970Z</time>
      </trkpt>
      <trkpt lat="44.35218" lon="2.84896">
        <ele>845</ele>
        <time>2013-03-06T13:27:12.060Z</time>
      </trkpt>
      <trkpt lat="44.35217" lon="2.84895">
        <ele>845</ele>
        <time>2013-03-06T13:27:14.060Z</time>
      </trkpt>
      <trkpt lat="44.35215" lon="2.84894">
        <ele>846</ele>
        <time>2013-03-06T13:27:16.020Z</time>
      </trkpt>
      <trkpt lat="44.35214" lon="2.84893">
        <ele>846</ele>
        <time>2013-03-06T13:27:18.060Z</time>
      </trkpt>
      <trkpt lat="44.35216" lon="2.84892">
        <ele>845</ele>
        <time>2013-03-06T13:27:20.970Z</time>
      </trkpt>
      <trkpt lat="44.35216" lon="2.84891">
        <ele>845</ele>
        <time>2013-03-06T13:27:22.970Z</time>
      </trkpt>
      <trkpt lat="44.35217" lon="2.8489">
        <ele>845</ele>
        <time>2013-03-06T13:27:26.060Z</time>
      </trkpt>
      <trkpt lat="44.35218" lon="2.8489">
        <ele>845</ele>
        <time>2013-03-06T13:27:26.970Z</time>
      </trkpt>
      <trkpt lat="44.3522" lon="2.84889">
        <ele>844</ele>
        <time>2013-03-06T13:27:28.970Z</time>
      </trkpt>
      <trkpt lat="44.35221" lon="2.84888">
        <ele>844</ele>
        <time>2013-03-06T13:27:30.970Z</time>
      </trkpt>
      <trkpt lat="44.35221" lon="2.84889">
        <ele>844</ele>
        <time>2013-03-06T13:27:36.970Z</time>
      </trkpt>
      <trkpt lat="44.35219" lon="2.8489">
        <ele>845</ele>
        <time>2013-03-06T13:27:38.060Z</time>
      </trkpt>
      <trkpt lat="44.3522" lon="2.8489">
        <ele>844</ele>
        <time>2013-03-06T13:27:40.970Z</time>
      </trkpt>
      <trkpt lat="44.35221" lon="2.8489">
        <ele>844</ele>
        <time>2013-03-06T13:27:44.060Z</time>
      </trkpt>
      <trkpt lat="44.35222" lon="2.84888">
        <ele>844</ele>
        <time>2013-03-06T13:27:46.970Z</time>
      </trkpt>
      <trkpt lat="44.35222" lon="2.84886">
        <ele>844</ele>
        <time>2013-03-06T13:27:48.050Z</time>
      </trkpt>
      <trkpt lat="44.35222" lon="2.84885">
        <ele>844</ele>
        <time>2013-03-06T13:27:48.970Z</time>
      </trkpt>
      <trkpt lat="44.35222" lon="2.84883">
        <ele>844</ele>
        <time>2013-03-06T13:27:50.010Z</time>
      </trkpt>
      <trkpt lat="44.35223" lon="2.84882">
        <ele>844</ele>
        <time>2013-03-06T13:27:50.970Z</time>
      </trkpt>
      <trkpt lat="44.35225" lon="2.84882">
        <ele>843</ele>
        <time>2013-03-06T13:27:52.970Z</time>
      </trkpt>
      <trkpt lat="44.35226" lon="2.8488">
        <ele>843</ele>
        <time>2013-03-06T13:27:54.140Z</time>
      </trkpt>
      <trkpt lat="44.35227" lon="2.84878">
        <ele>843</ele>
        <time>2013-03-06T13:27:55.970Z</time>
      </trkpt>
      <trkpt lat="44.35228" lon="2.84876">
        <ele>842</ele>
        <time>2013-03-06T13:28:01.050Z</time>
      </trkpt>
      <trkpt lat="44.35229" lon="2.84877">
        <ele>842</ele>
        <time>2013-03-06T13:28:02.050Z</time>
      </trkpt>
      <trkpt lat="44.35231" lon="2.84879">
        <ele>842</ele>
        <time>2013-03-06T13:28:05.050Z</time>
      </trkpt>
      <trkpt lat="44.35232" lon="2.8488">
        <ele>842</ele>
        <time>2013-03-06T13:28:06.970Z</time>
      </trkpt>
      <trkpt lat="44.35233" lon="2.8488">
        <ele>842</ele>
        <time>2013-03-06T13:28:07.970Z</time>
      </trkpt>
      <trkpt lat="44.35235" lon="2.8488">
        <ele>842</ele>
        <time>2013-03-06T13:28:08.970Z</time>
      </trkpt>
      <trkpt lat="44.35237" lon="2.84881">
        <ele>841</ele>
        <time>2013-03-06T13:28:09.970Z</time>
      </trkpt>
      <trkpt lat="44.35238" lon="2.84881">
        <ele>841</ele>
        <time>2013-03-06T13:28:11.050Z</time>
      </trkpt>
      <trkpt lat="44.35239" lon="2.8488">
        <ele>841</ele>
        <time>2013-03-06T13:28:13.050Z</time>
      </trkpt>
      <trkpt lat="44.35241" lon="2.84879">
        <ele>841</ele>
        <time>2013-03-06T13:28:14.050Z</time>
      </trkpt>
      <trkpt lat="44.35243" lon="2.84878">
        <ele>840</ele>
        <time>2013-03-06T13:28:16.000Z</time>
      </trkpt>
      <trkpt lat="44.35244" lon="2.84877">
        <ele>840</ele>
        <time>2013-03-06T13:28:17.050Z</time>
      </trkpt>
      <trkpt lat="44.35244" lon="2.84875">
        <ele>840</ele>
        <time>2013-03-06T13:28:19.070Z</time>
      </trkpt>
      <trkpt lat="44.35242" lon="2.84877">
        <ele>840</ele>
        <time>2013-03-06T13:28:21.050Z</time>
      </trkpt>
      <trkpt lat="44.35243" lon="2.84876">
        <ele>840</ele>
        <time>2013-03-06T13:28:22.040Z</time>
      </trkpt>
      <trkpt lat="44.35244" lon="2.84876">
        <ele>840</ele>
        <time>2013-03-06T13:28:23.030Z</time>
      </trkpt>
      <trkpt lat="44.35245" lon="2.84875">
        <ele>840</ele>
        <time>2013-03-06T13:28:24.080Z</time>
      </trkpt>
      <trkpt lat="44.35246" lon="2.84874">
        <ele>840</ele>
        <time>2013-03-06T13:28:26.040Z</time>
      </trkpt>
      <trkpt lat="44.35244" lon="2.84874">
        <ele>840</ele>
        <time>2013-03-06T13:28:28.040Z</time>
      </trkpt>
      <trkpt lat="44.35243" lon="2.84876">
        <ele>840</ele>
        <time>2013-03-06T13:28:29.050Z</time>
      </trkpt>
      <trkpt lat="44.35243" lon="2.84877">
        <ele>840</ele>
        <time>2013-03-06T13:28:32.040Z</time>
      </trkpt>
      <trkpt lat="44.35242" lon="2.84879">
        <ele>840</ele>
        <time>2013-03-06T13:28:33.000Z</time>
      </trkpt>
      <trkpt lat="44.35244" lon="2.84879">
        <ele>840</ele>
        <time>2013-03-06T13:28:36.040Z</time>
      </trkpt>
      <trkpt lat="44.35245" lon="2.84877">
        <ele>840</ele>
        <time>2013-03-06T13:28:37.040Z</time>
      </trkpt>
      <trkpt lat="44.35246" lon="2.84876">
        <ele>840</ele>
        <time>2013-03-06T13:28:38.040Z</time>
      </trkpt>
      <trkpt lat="44.35249" lon="2.84875">
        <ele>840</ele>
        <time>2013-03-06T13:28:39.130Z</time>
      </trkpt>
      <trkpt lat="44.35251" lon="2.84873">
        <ele>827</ele>
        <time>2013-03-06T13:28:40.970Z</time>
      </trkpt>
      <trkpt lat="44.35252" lon="2.84872">
        <ele>827</ele>
        <time>2013-03-06T13:28:41.970Z</time>
      </trkpt>
      <trkpt lat="44.35254" lon="2.84872">
        <ele>827</ele>
        <time>2013-03-06T13:28:42.970Z</time>
      </trkpt>
      <trkpt lat="44.35256" lon="2.8487">
        <ele>826</ele>
        <time>2013-03-06T13:28:43.970Z</time>
      </trkpt>
      <trkpt lat="44.35258" lon="2.84869">
        <ele>826</ele>
        <time>2013-03-06T13:28:44.970Z</time>
      </trkpt>
      <trkpt lat="44.35259" lon="2.84868">
        <ele>826</ele>
        <time>2013-03-06T13:28:45.970Z</time>
      </trkpt>
      <trkpt lat="44.35261" lon="2.84866">
        <ele>826</ele>
        <time>2013-03-06T13:28:47.970Z</time>
      </trkpt>
      <trkpt lat="44.35262" lon="2.84865">
        <ele>826</ele>
        <time>2013-03-06T13:28:48.970Z</time>
      </trkpt>
      <trkpt lat="44.35263" lon="2.84864">
        <ele>826</ele>
        <time>2013-03-06T13:28:49.980Z</time>
      </trkpt>
      <trkpt lat="44.35264" lon="2.84865">
        <ele>826</ele>
        <time>2013-03-06T13:28:50.970Z</time>
      </trkpt>
      <trkpt lat="44.35265" lon="2.84864">
        <ele>826</ele>
        <time>2013-03-06T13:28:51.970Z</time>
      </trkpt>
      <trkpt lat="44.35267" lon="2.84864">
        <ele>826</ele>
        <time>2013-03-06T13:28:52.970Z</time>
      </trkpt>
      <trkpt lat="44.35269" lon="2.84864">
        <ele>826</ele>
        <time>2013-03-06T13:28:53.970Z</time>
      </trkpt>
      <trkpt lat="44.3527" lon="2.84865">
        <ele>826</ele>
        <time>2013-03-06T13:28:54.970Z</time>
      </trkpt>
      <trkpt lat="44.35271" lon="2.84866">
        <ele>826</ele>
        <time>2013-03-06T13:28:55.970Z</time>
      </trkpt>
      <trkpt lat="44.35272" lon="2.84866">
        <ele>826</ele>
        <time>2013-03-06T13:28:56.970Z</time>
      </trkpt>
      <trkpt lat="44.35274" lon="2.84867">
        <ele>826</ele>
        <time>2013-03-06T13:28:57.970Z</time>
      </trkpt>
      <trkpt lat="44.35276" lon="2.84868">
        <ele>826</ele>
        <time>2013-03-06T13:29:00.030Z</time>
      </trkpt>
      <trkpt lat="44.35277" lon="2.84869">
        <ele>826</ele>
        <time>2013-03-06T13:29:01.040Z</time>
      </trkpt>
      <trkpt lat="44.35278" lon="2.8487">
        <ele>826</ele>
        <time>2013-03-06T13:29:02.040Z</time>
      </trkpt>
      <trkpt lat="44.35281" lon="2.84871">
        <ele>826</ele>
        <time>2013-03-06T13:29:05.030Z</time>
      </trkpt>
      <trkpt lat="44.35281" lon="2.84872">
        <ele>826</ele>
        <time>2013-03-06T13:29:08.030Z</time>
      </trkpt>
      <trkpt lat="44.3528" lon="2.84871">
        <ele>826</ele>
        <time>2013-03-06T13:29:12.030Z</time>
      </trkpt>
      <trkpt lat="44.35281" lon="2.8487">
        <ele>826</ele>
        <time>2013-03-06T13:29:13.010Z</time>
      </trkpt>
      <trkpt lat="44.35282" lon="2.84868">
        <ele>826</ele>
        <time>2013-03-06T13:29:14.050Z</time>
      </trkpt>
      <trkpt lat="44.35284" lon="2.84865">
        <ele>825</ele>
        <time>2013-03-06T13:29:15.990Z</time>
      </trkpt>
      <trkpt lat="44.35286" lon="2.84863">
        <ele>825</ele>
        <time>2013-03-06T13:29:17.030Z</time>
      </trkpt>
      <trkpt lat="44.35287" lon="2.84862">
        <ele>825</ele>
        <time>2013-03-06T13:29:18.030Z</time>
      </trkpt>
      <trkpt lat="44.35288" lon="2.8486">
        <ele>825</ele>
        <time>2013-03-06T13:29:19.050Z</time>
      </trkpt>
      <trkpt lat="44.35292" lon="2.84859">
        <ele>824</ele>
        <time>2013-03-06T13:29:21.030Z</time>
      </trkpt>
      <trkpt lat="44.35294" lon="2.84858">
        <ele>824</ele>
        <time>2013-03-06T13:29:22.030Z</time>
      </trkpt>
      <trkpt lat="44.35297" lon="2.84857">
        <ele>824</ele>
        <time>2013-03-06T13:29:23.030Z</time>
      </trkpt>
      <trkpt lat="44.35299" lon="2.84857">
        <ele>824</ele>
        <time>2013-03-06T13:29:24.060Z</time>
      </trkpt>
      <trkpt lat="44.35304" lon="2.84857">
        <ele>824</ele>
        <time>2013-03-06T13:29:26.030Z</time>
      </trkpt>
      <trkpt lat="44.35307" lon="2.84856">
        <ele>823</ele>
        <time>2013-03-06T13:29:27.030Z</time>
      </trkpt>
      <trkpt lat="44.35309" lon="2.84856">
        <ele>823</ele>
        <time>2013-03-06T13:29:28.030Z</time>
      </trkpt>
      <trkpt lat="44.35312" lon="2.84857">
        <ele>823</ele>
        <time>2013-03-06T13:29:29.050Z</time>
      </trkpt>
      <trkpt lat="44.35317" lon="2.84858">
        <ele>823</ele>
        <time>2013-03-06T13:29:31.030Z</time>
      </trkpt>
      <trkpt lat="44.3532" lon="2.84859">
        <ele>823</ele>
        <time>2013-03-06T13:29:32.030Z</time>
      </trkpt>
      <trkpt lat="44.35323" lon="2.84861">
        <ele>823</ele>
        <time>2013-03-06T13:29:32.980Z</time>
      </trkpt>
      <trkpt lat="44.35326" lon="2.84862">
        <ele>823</ele>
        <time>2013-03-06T13:29:34.070Z</time>
      </trkpt>
      <trkpt lat="44.35332" lon="2.84866">
        <ele>823</ele>
        <time>2013-03-06T13:29:36.030Z</time>
      </trkpt>
      <trkpt lat="44.35334" lon="2.84869">
        <ele>821</ele>
        <time>2013-03-06T13:29:37.010Z</time>
      </trkpt>
      <trkpt lat="44.35336" lon="2.84872">
        <ele>821</ele>
        <time>2013-03-06T13:29:38.030Z</time>
      </trkpt>
      <trkpt lat="44.35337" lon="2.84875">
        <ele>822</ele>
        <time>2013-03-06T13:29:39.050Z</time>
      </trkpt>
      <trkpt lat="44.35341" lon="2.84879">
        <ele>822</ele>
        <time>2013-03-06T13:29:40.970Z</time>
      </trkpt>
      <trkpt lat="44.35343" lon="2.84882">
        <ele>823</ele>
        <time>2013-03-06T13:29:41.970Z</time>
      </trkpt>
      <trkpt lat="44.35343" lon="2.84884">
        <ele>823</ele>
        <time>2013-03-06T13:29:42.970Z</time>
      </trkpt>
      <trkpt lat="44.35344" lon="2.84886">
        <ele>824</ele>
        <time>2013-03-06T13:29:43.970Z</time>
      </trkpt>
      <trkpt lat="44.35345" lon="2.84888">
        <ele>824</ele>
        <time>2013-03-06T13:29:44.970Z</time>
      </trkpt>
      <trkpt lat="44.35346" lon="2.84889">
        <ele>824</ele>
        <time>2013-03-06T13:29:45.970Z</time>
      </trkpt>
      <trkpt lat="44.35346" lon="2.84891">
        <ele>824</ele>
        <time>2013-03-06T13:29:47.970Z</time>
      </trkpt>
      <trkpt lat="44.35347" lon="2.84892">
        <ele>824</ele>
        <time>2013-03-06T13:29:50.060Z</time>
      </trkpt>
      <trkpt lat="44.35348" lon="2.8489">
        <ele>824</ele>
        <time>2013-03-06T13:29:52.020Z</time>
      </trkpt>
      <trkpt lat="44.35349" lon="2.84891">
        <ele>824</ele>
        <time>2013-03-06T13:29:53.020Z</time>
      </trkpt>
      <trkpt lat="44.3535" lon="2.84892">
        <ele>824</ele>
        <time>2013-03-06T13:29:55.020Z</time>
      </trkpt>
      <trkpt lat="44.35351" lon="2.84892">
        <ele>824</ele>
        <time>2013-03-06T13:29:58.020Z</time>
      </trkpt>
      <trkpt lat="44.35352" lon="2.84895">
        <ele>824</ele>
        <time>2013-03-06T13:30:00.970Z</time>
      </trkpt>
      <trkpt lat="44.35353" lon="2.84898">
        <ele>825</ele>
        <time>2013-03-06T13:30:01.970Z</time>
      </trkpt>
      <trkpt lat="44.35354" lon="2.849">
        <ele>825</ele>
        <time>2013-03-06T13:30:02.970Z</time>
      </trkpt>
      <trkpt lat="44.35356" lon="2.84903">
        <ele>825</ele>
        <time>2013-03-06T13:30:03.970Z</time>
      </trkpt>
      <trkpt lat="44.35357" lon="2.84906">
        <ele>825</ele>
        <time>2013-03-06T13:30:04.970Z</time>
      </trkpt>
      <trkpt lat="44.35359" lon="2.84909">
        <ele>825</ele>
        <time>2013-03-06T13:30:05.970Z</time>
      </trkpt>
      <trkpt lat="44.35359" lon="2.84911">
        <ele>825</ele>
        <time>2013-03-06T13:30:06.970Z</time>
      </trkpt>
      <trkpt lat="44.3536" lon="2.84913">
        <ele>825</ele>
        <time>2013-03-06T13:30:07.970Z</time>
      </trkpt>
      <trkpt lat="44.35361" lon="2.84917">
        <ele>825</ele>
        <time>2013-03-06T13:30:08.970Z</time>
      </trkpt>
      <trkpt lat="44.35362" lon="2.8492">
        <ele>834</ele>
        <time>2013-03-06T13:30:09.970Z</time>
      </trkpt>
      <trkpt lat="44.35363" lon="2.84923">
        <ele>834</ele>
        <time>2013-03-06T13:30:10.970Z</time>
      </trkpt>
      <trkpt lat="44.35365" lon="2.84926">
        <ele>834</ele>
        <time>2013-03-06T13:30:11.970Z</time>
      </trkpt>
      <trkpt lat="44.35366" lon="2.84928">
        <ele>834</ele>
        <time>2013-03-06T13:30:12.970Z</time>
      </trkpt>
      <trkpt lat="44.35368" lon="2.84931">
        <ele>834</ele>
        <time>2013-03-06T13:30:13.970Z</time>
      </trkpt>
      <trkpt lat="44.35369" lon="2.84933">
        <ele>834</ele>
        <time>2013-03-06T13:30:15.020Z</time>
      </trkpt>
      <trkpt lat="44.3537" lon="2.84935">
        <ele>834</ele>
        <time>2013-03-06T13:30:16.070Z</time>
      </trkpt>
      <trkpt lat="44.35372" lon="2.84941">
        <ele>835</ele>
        <time>2013-03-06T13:30:17.970Z</time>
      </trkpt>
      <trkpt lat="44.35372" lon="2.84944">
        <ele>835</ele>
        <time>2013-03-06T13:30:18.970Z</time>
      </trkpt>
      <trkpt lat="44.35373" lon="2.84947">
        <ele>835</ele>
        <time>2013-03-06T13:30:19.970Z</time>
      </trkpt>
      <trkpt lat="44.35373" lon="2.84949">
        <ele>835</ele>
        <time>2013-03-06T13:30:20.970Z</time>
      </trkpt>
      <trkpt lat="44.35375" lon="2.84953">
        <ele>835</ele>
        <time>2013-03-06T13:30:21.970Z</time>
      </trkpt>
      <trkpt lat="44.35375" lon="2.84956">
        <ele>835</ele>
        <time>2013-03-06T13:30:22.970Z</time>
      </trkpt>
      <trkpt lat="44.35376" lon="2.84958">
        <ele>835</ele>
        <time>2013-03-06T13:30:23.970Z</time>
      </trkpt>
      <trkpt lat="44.35375" lon="2.84959">
        <ele>836</ele>
        <time>2013-03-06T13:30:24.970Z</time>
      </trkpt>
      <trkpt lat="44.35375" lon="2.84961">
        <ele>836</ele>
        <time>2013-03-06T13:30:25.970Z</time>
      </trkpt>
      <trkpt lat="44.35376" lon="2.84962">
        <ele>836</ele>
        <time>2013-03-06T13:30:26.970Z</time>
      </trkpt>
      <trkpt lat="44.35377" lon="2.84965">
        <ele>836</ele>
        <time>2013-03-06T13:30:27.970Z</time>
      </trkpt>
      <trkpt lat="44.35377" lon="2.84967">
        <ele>836</ele>
        <time>2013-03-06T13:30:28.970Z</time>
      </trkpt>
      <trkpt lat="44.35377" lon="2.8497">
        <ele>836</ele>
        <time>2013-03-06T13:30:29.970Z</time>
      </trkpt>
      <trkpt lat="44.35378" lon="2.84972">
        <ele>836</ele>
        <time>2013-03-06T13:30:30.970Z</time>
      </trkpt>
      <trkpt lat="44.35378" lon="2.84975">
        <ele>836</ele>
        <time>2013-03-06T13:30:31.970Z</time>
      </trkpt>
      <trkpt lat="44.35377" lon="2.84978">
        <ele>837</ele>
        <time>2013-03-06T13:30:32.980Z</time>
      </trkpt>
      <trkpt lat="44.35377" lon="2.84979">
        <ele>837</ele>
        <time>2013-03-06T13:30:34.050Z</time>
      </trkpt>
      <trkpt lat="44.35376" lon="2.84982">
        <ele>837</ele>
        <time>2013-03-06T13:30:36.010Z</time>
      </trkpt>
      <trkpt lat="44.35375" lon="2.84984">
        <ele>837</ele>
        <time>2013-03-06T13:30:37.010Z</time>
      </trkpt>
      <trkpt lat="44.35374" lon="2.84987">
        <ele>837</ele>
        <time>2013-03-06T13:30:38.010Z</time>
      </trkpt>
      <trkpt lat="44.35373" lon="2.8499">
        <ele>838</ele>
        <time>2013-03-06T13:30:39.060Z</time>
      </trkpt>
      <trkpt lat="44.35373" lon="2.84994">
        <ele>838</ele>
        <time>2013-03-06T13:30:40.970Z</time>
      </trkpt>
      <trkpt lat="44.35373" lon="2.84995">
        <ele>838</ele>
        <time>2013-03-06T13:30:41.970Z</time>
      </trkpt>
      <trkpt lat="44.35373" lon="2.84997">
        <ele>838</ele>
        <time>2013-03-06T13:30:42.970Z</time>
      </trkpt>
      <trkpt lat="44.35372" lon="2.84998">
        <ele>838</ele>
        <time>2013-03-06T13:30:43.970Z</time>
      </trkpt>
      <trkpt lat="44.35372" lon="2.85">
        <ele>838</ele>
        <time>2013-03-06T13:30:45.010Z</time>
      </trkpt>
      <trkpt lat="44.35373" lon="2.85002">
        <ele>844</ele>
        <time>2013-03-06T13:30:46.010Z</time>
      </trkpt>
      <trkpt lat="44.35373" lon="2.85003">
        <ele>843</ele>
        <time>2013-03-06T13:30:47.010Z</time>
      </trkpt>
      <trkpt lat="44.35374" lon="2.85004">
        <ele>843</ele>
        <time>2013-03-06T13:30:47.990Z</time>
      </trkpt>
      <trkpt lat="44.35374" lon="2.85006">
        <ele>843</ele>
        <time>2013-03-06T13:30:49.070Z</time>
      </trkpt>
      <trkpt lat="44.35375" lon="2.85008">
        <ele>843</ele>
        <time>2013-03-06T13:30:51.010Z</time>
      </trkpt>
      <trkpt lat="44.35375" lon="2.8501">
        <ele>843</ele>
        <time>2013-03-06T13:30:52.010Z</time>
      </trkpt>
      <trkpt lat="44.35375" lon="2.85011">
        <ele>843</ele>
        <time>2013-03-06T13:30:53.010Z</time>
      </trkpt>
      <trkpt lat="44.35375" lon="2.85013">
        <ele>843</ele>
        <time>2013-03-06T13:30:54.090Z</time>
      </trkpt>
      <trkpt lat="44.35377" lon="2.85018">
        <ele>843</ele>
        <time>2013-03-06T13:30:55.970Z</time>
      </trkpt>
      <trkpt lat="44.35378" lon="2.8502">
        <ele>843</ele>
        <time>2013-03-06T13:30:56.970Z</time>
      </trkpt>
      <trkpt lat="44.35378" lon="2.85022">
        <ele>843</ele>
        <time>2013-03-06T13:30:57.970Z</time>
      </trkpt>
      <trkpt lat="44.35379" lon="2.85024">
        <ele>843</ele>
        <time>2013-03-06T13:30:59.000Z</time>
      </trkpt>
      <trkpt lat="44.35378" lon="2.85026">
        <ele>843</ele>
        <time>2013-03-06T13:30:59.990Z</time>
      </trkpt>
      <trkpt lat="44.35377" lon="2.8503">
        <ele>844</ele>
        <time>2013-03-06T13:31:01.970Z</time>
      </trkpt>
      <trkpt lat="44.35378" lon="2.85031">
        <ele>844</ele>
        <time>2013-03-06T13:31:02.970Z</time>
      </trkpt>
      <trkpt lat="44.35378" lon="2.85033">
        <ele>844</ele>
        <time>2013-03-06T13:31:03.970Z</time>
      </trkpt>
      <trkpt lat="44.35378" lon="2.85035">
        <ele>844</ele>
        <time>2013-03-06T13:31:05.010Z</time>
      </trkpt>
      <trkpt lat="44.35378" lon="2.85037">
        <ele>844</ele>
        <time>2013-03-06T13:31:07.000Z</time>
      </trkpt>
      <trkpt lat="44.35378" lon="2.85039">
        <ele>844</ele>
        <time>2013-03-06T13:31:08.000Z</time>
      </trkpt>
      <trkpt lat="44.35378" lon="2.85041">
        <ele>844</ele>
        <time>2013-03-06T13:31:10.000Z</time>
      </trkpt>
      <trkpt lat="44.35378" lon="2.85043">
        <ele>844</ele>
        <time>2013-03-06T13:31:10.990Z</time>
      </trkpt>
      <trkpt lat="44.35378" lon="2.85044">
        <ele>844</ele>
        <time>2013-03-06T13:31:12.000Z</time>
      </trkpt>
      <trkpt lat="44.35379" lon="2.85047">
        <ele>844</ele>
        <time>2013-03-06T13:31:14.070Z</time>
      </trkpt>
      <trkpt lat="44.35381" lon="2.85049">
        <ele>844</ele>
        <time>2013-03-06T13:31:15.980Z</time>
      </trkpt>
      <trkpt lat="44.3538" lon="2.85051">
        <ele>844</ele>
        <time>2013-03-06T13:31:17.000Z</time>
      </trkpt>
      <trkpt lat="44.35379" lon="2.85053">
        <ele>844</ele>
        <time>2013-03-06T13:31:18.000Z</time>
      </trkpt>
      <trkpt lat="44.35378" lon="2.85055">
        <ele>844</ele>
        <time>2013-03-06T13:31:19.060Z</time>
      </trkpt>
      <trkpt lat="44.35378" lon="2.85058">
        <ele>844</ele>
        <time>2013-03-06T13:31:20.970Z</time>
      </trkpt>
      <trkpt lat="44.35381" lon="2.85058">
        <ele>844</ele>
        <time>2013-03-06T13:31:21.970Z</time>
      </trkpt>
      <trkpt lat="44.35382" lon="2.85059">
        <ele>844</ele>
        <time>2013-03-06T13:31:22.970Z</time>
      </trkpt>
      <trkpt lat="44.35383" lon="2.85059">
        <ele>844</ele>
        <time>2013-03-06T13:31:24.060Z</time>
      </trkpt>
      <trkpt lat="44.35383" lon="2.85061">
        <ele>844</ele>
        <time>2013-03-06T13:31:25.970Z</time>
      </trkpt>
      <trkpt lat="44.35383" lon="2.85063">
        <ele>844</ele>
        <time>2013-03-06T13:31:26.970Z</time>
      </trkpt>
      <trkpt lat="44.35383" lon="2.85065">
        <ele>844</ele>
        <time>2013-03-06T13:31:28.970Z</time>
      </trkpt>
      <trkpt lat="44.35382" lon="2.85067">
        <ele>844</ele>
        <time>2013-03-06T13:31:30.000Z</time>
      </trkpt>
      <trkpt lat="44.35382" lon="2.85072">
        <ele>844</ele>
        <time>2013-03-06T13:31:31.000Z</time>
      </trkpt>
      <trkpt lat="44.35381" lon="2.85074">
        <ele>844</ele>
        <time>2013-03-06T13:31:32.000Z</time>
      </trkpt>
      <trkpt lat="44.35382" lon="2.85076">
        <ele>844</ele>
        <time>2013-03-06T13:31:33.070Z</time>
      </trkpt>
      <trkpt lat="44.35381" lon="2.85083">
        <ele>844</ele>
        <time>2013-03-06T13:31:35.000Z</time>
      </trkpt>
      <trkpt lat="44.35381" lon="2.85086">
        <ele>845</ele>
        <time>2013-03-06T13:31:35.980Z</time>
      </trkpt>
      <trkpt lat="44.3538" lon="2.85088">
        <ele>845</ele>
        <time>2013-03-06T13:31:37.000Z</time>
      </trkpt>
      <trkpt lat="44.35379" lon="2.85092">
        <ele>845</ele>
        <time>2013-03-06T13:31:38.000Z</time>
      </trkpt>
      <trkpt lat="44.35379" lon="2.85094">
        <ele>845</ele>
        <time>2013-03-06T13:31:39.080Z</time>
      </trkpt>
      <trkpt lat="44.35377" lon="2.85099">
        <ele>846</ele>
        <time>2013-03-06T13:31:40.970Z</time>
      </trkpt>
      <trkpt lat="44.35376" lon="2.85102">
        <ele>846</ele>
        <time>2013-03-06T13:31:41.970Z</time>
      </trkpt>
      <trkpt lat="44.35375" lon="2.85105">
        <ele>846</ele>
        <time>2013-03-06T13:31:42.970Z</time>
      </trkpt>
      <trkpt lat="44.35373" lon="2.85109">
        <ele>846</ele>
        <time>2013-03-06T13:31:43.970Z</time>
      </trkpt>
      <trkpt lat="44.35371" lon="2.85113">
        <ele>847</ele>
        <time>2013-03-06T13:31:44.970Z</time>
      </trkpt>
      <trkpt lat="44.3537" lon="2.85116">
        <ele>847</ele>
        <time>2013-03-06T13:31:45.970Z</time>
      </trkpt>
      <trkpt lat="44.35368" lon="2.85119">
        <ele>847</ele>
        <time>2013-03-06T13:31:46.970Z</time>
      </trkpt>
      <trkpt lat="44.35367" lon="2.85121">
        <ele>847</ele>
        <time>2013-03-06T13:31:47.970Z</time>
      </trkpt>
      <trkpt lat="44.35366" lon="2.85124">
        <ele>847</ele>
        <time>2013-03-06T13:31:48.970Z</time>
      </trkpt>
      <trkpt lat="44.35365" lon="2.85126">
        <ele>847</ele>
        <time>2013-03-06T13:31:49.980Z</time>
      </trkpt>
      <trkpt lat="44.35363" lon="2.85128">
        <ele>847</ele>
        <time>2013-03-06T13:31:50.990Z</time>
      </trkpt>
      <trkpt lat="44.35361" lon="2.85129">
        <ele>848</ele>
        <time>2013-03-06T13:31:52.000Z</time>
      </trkpt>
      <trkpt lat="44.3536" lon="2.85131">
        <ele>848</ele>
        <time>2013-03-06T13:31:52.990Z</time>
      </trkpt>
      <trkpt lat="44.35359" lon="2.85134">
        <ele>848</ele>
        <time>2013-03-06T13:31:54.090Z</time>
      </trkpt>
      <trkpt lat="44.35355" lon="2.85136">
        <ele>849</ele>
        <time>2013-03-06T13:31:55.970Z</time>
      </trkpt>
      <trkpt lat="44.35354" lon="2.85138">
        <ele>849</ele>
        <time>2013-03-06T13:31:56.970Z</time>
      </trkpt>
      <trkpt lat="44.35353" lon="2.8514">
        <ele>849</ele>
        <time>2013-03-06T13:31:57.970Z</time>
      </trkpt>
      <trkpt lat="44.35352" lon="2.85142">
        <ele>849</ele>
        <time>2013-03-06T13:31:59.000Z</time>
      </trkpt>
      <trkpt lat="44.3535" lon="2.85144">
        <ele>850</ele>
        <time>2013-03-06T13:32:01.020Z</time>
      </trkpt>
      <trkpt lat="44.35349" lon="2.85146">
        <ele>850</ele>
        <time>2013-03-06T13:32:02.990Z</time>
      </trkpt>
      <trkpt lat="44.35349" lon="2.85148">
        <ele>850</ele>
        <time>2013-03-06T13:32:04.160Z</time>
      </trkpt>
      <trkpt lat="44.35347" lon="2.85152">
        <ele>851</ele>
        <time>2013-03-06T13:32:05.990Z</time>
      </trkpt>
      <trkpt lat="44.35347" lon="2.85153">
        <ele>851</ele>
        <time>2013-03-06T13:32:06.990Z</time>
      </trkpt>
      <trkpt lat="44.35346" lon="2.85155">
        <ele>852</ele>
        <time>2013-03-06T13:32:07.990Z</time>
      </trkpt>
      <trkpt lat="44.35345" lon="2.85156">
        <ele>852</ele>
        <time>2013-03-06T13:32:09.080Z</time>
      </trkpt>
      <trkpt lat="44.35343" lon="2.85159">
        <ele>853</ele>
        <time>2013-03-06T13:32:10.990Z</time>
      </trkpt>
      <trkpt lat="44.35341" lon="2.85161">
        <ele>854</ele>
        <time>2013-03-06T13:32:11.990Z</time>
      </trkpt>
      <trkpt lat="44.3534" lon="2.85163">
        <ele>855</ele>
        <time>2013-03-06T13:32:12.990Z</time>
      </trkpt>
      <trkpt lat="44.35339" lon="2.85165">
        <ele>855</ele>
        <time>2013-03-06T13:32:14.050Z</time>
      </trkpt>
      <trkpt lat="44.3534" lon="2.85166">
        <ele>855</ele>
        <time>2013-03-06T13:32:16.040Z</time>
      </trkpt>
      <trkpt lat="44.35338" lon="2.85168">
        <ele>855</ele>
        <time>2013-03-06T13:32:17.970Z</time>
      </trkpt>
      <trkpt lat="44.35337" lon="2.8517">
        <ele>855</ele>
        <time>2013-03-06T13:32:18.970Z</time>
      </trkpt>
      <trkpt lat="44.35337" lon="2.85172">
        <ele>854</ele>
        <time>2013-03-06T13:32:19.970Z</time>
      </trkpt>
      <trkpt lat="44.35336" lon="2.85174">
        <ele>854</ele>
        <time>2013-03-06T13:32:21.990Z</time>
      </trkpt>
      <trkpt lat="44.35335" lon="2.85175">
        <ele>853</ele>
        <time>2013-03-06T13:32:22.980Z</time>
      </trkpt>
      <trkpt lat="44.35334" lon="2.85176">
        <ele>853</ele>
        <time>2013-03-06T13:32:24.060Z</time>
      </trkpt>
      <trkpt lat="44.35333" lon="2.85178">
        <ele>859</ele>
        <time>2013-03-06T13:32:25.970Z</time>
      </trkpt>
      <trkpt lat="44.35332" lon="2.85179">
        <ele>859</ele>
        <time>2013-03-06T13:32:26.990Z</time>
      </trkpt>
      <trkpt lat="44.35332" lon="2.8518">
        <ele>859</ele>
        <time>2013-03-06T13:32:27.980Z</time>
      </trkpt>
      <trkpt lat="44.35333" lon="2.85183">
        <ele>859</ele>
        <time>2013-03-06T13:32:30.970Z</time>
      </trkpt>
      <trkpt lat="44.35332" lon="2.85184">
        <ele>859</ele>
        <time>2013-03-06T13:32:32.980Z</time>
      </trkpt>
      <trkpt lat="44.35332" lon="2.85186">
        <ele>859</ele>
        <time>2013-03-06T13:32:34.980Z</time>
      </trkpt>
      <trkpt lat="44.35331" lon="2.85187">
        <ele>859</ele>
        <time>2013-03-06T13:32:44.050Z</time>
      </trkpt>
      <trkpt lat="44.3533" lon="2.85187">
        <ele>859</ele>
        <time>2013-03-06T13:32:51.970Z</time>
      </trkpt>
      <trkpt lat="44.35329" lon="2.85187">
        <ele>859</ele>
        <time>2013-03-06T13:32:53.060Z</time>
      </trkpt>
      <trkpt lat="44.35328" lon="2.85185">
        <ele>859</ele>
        <time>2013-03-06T13:32:57.980Z</time>
      </trkpt>
      <trkpt lat="44.35327" lon="2.85184">
        <ele>859</ele>
        <time>2013-03-06T13:32:59.110Z</time>
      </trkpt>
      <trkpt lat="44.35324" lon="2.85181">
        <ele>859</ele>
        <time>2013-03-06T13:33:00.980Z</time>
      </trkpt>
      <trkpt lat="44.35322" lon="2.8518">
        <ele>860</ele>
        <time>2013-03-06T13:33:01.980Z</time>
      </trkpt>
      <trkpt lat="44.3532" lon="2.85179">
        <ele>860</ele>
        <time>2013-03-06T13:33:02.980Z</time>
      </trkpt>
      <trkpt lat="44.35319" lon="2.85178">
        <ele>860</ele>
        <time>2013-03-06T13:33:04.160Z</time>
      </trkpt>
      <trkpt lat="44.35315" lon="2.85175">
        <ele>860</ele>
        <time>2013-03-06T13:33:05.970Z</time>
      </trkpt>
      <trkpt lat="44.35313" lon="2.85173">
        <ele>860</ele>
        <time>2013-03-06T13:33:06.970Z</time>
      </trkpt>
      <trkpt lat="44.35312" lon="2.85171">
        <ele>860</ele>
        <time>2013-03-06T13:33:07.970Z</time>
      </trkpt>
      <trkpt lat="44.35311" lon="2.85172">
        <ele>860</ele>
        <time>2013-03-06T13:33:08.970Z</time>
      </trkpt>
      <trkpt lat="44.3531" lon="2.85173">
        <ele>861</ele>
        <time>2013-03-06T13:33:09.970Z</time>
      </trkpt>
      <trkpt lat="44.35308" lon="2.85174">
        <ele>861</ele>
        <time>2013-03-06T13:33:11.970Z</time>
      </trkpt>
      <trkpt lat="44.35307" lon="2.85175">
        <ele>861</ele>
        <time>2013-03-06T13:33:12.980Z</time>
      </trkpt>
      <trkpt lat="44.35304" lon="2.85174">
        <ele>861</ele>
        <time>2013-03-06T13:33:14.980Z</time>
      </trkpt>
      <trkpt lat="44.35302" lon="2.85173">
        <ele>861</ele>
        <time>2013-03-06T13:33:16.060Z</time>
      </trkpt>
      <trkpt lat="44.353" lon="2.85173">
        <ele>862</ele>
        <time>2013-03-06T13:33:18.060Z</time>
      </trkpt>
      <trkpt lat="44.35297" lon="2.85173">
        <ele>862</ele>
        <time>2013-03-06T13:33:20.020Z</time>
      </trkpt>
      <trkpt lat="44.35294" lon="2.85174">
        <ele>862</ele>
        <time>2013-03-06T13:33:21.970Z</time>
      </trkpt>
      <trkpt lat="44.35293" lon="2.85175">
        <ele>862</ele>
        <time>2013-03-06T13:33:22.980Z</time>
      </trkpt>
      <trkpt lat="44.35292" lon="2.85174">
        <ele>863</ele>
        <time>2013-03-06T13:33:24.040Z</time>
      </trkpt>
      <trkpt lat="44.35289" lon="2.85176">
        <ele>863</ele>
        <time>2013-03-06T13:33:25.970Z</time>
      </trkpt>
      <trkpt lat="44.35288" lon="2.85175">
        <ele>863</ele>
        <time>2013-03-06T13:33:26.970Z</time>
      </trkpt>
      <trkpt lat="44.35286" lon="2.85175">
        <ele>863</ele>
        <time>2013-03-06T13:33:29.050Z</time>
      </trkpt>
      <trkpt lat="44.35285" lon="2.85171">
        <ele>864</ele>
        <time>2013-03-06T13:33:30.970Z</time>
      </trkpt>
      <trkpt lat="44.35284" lon="2.85169">
        <ele>864</ele>
        <time>2013-03-06T13:33:31.970Z</time>
      </trkpt>
      <trkpt lat="44.35284" lon="2.85167">
        <ele>864</ele>
        <time>2013-03-06T13:33:33.030Z</time>
      </trkpt>
      <trkpt lat="44.35285" lon="2.85166">
        <ele>866</ele>
        <time>2013-03-06T13:33:34.970Z</time>
      </trkpt>
      <trkpt lat="44.35285" lon="2.85165">
        <ele>866</ele>
        <time>2013-03-06T13:33:35.970Z</time>
      </trkpt>
      <trkpt lat="44.35285" lon="2.85163">
        <ele>866</ele>
        <time>2013-03-06T13:33:41.070Z</time>
      </trkpt>
      <trkpt lat="44.35284" lon="2.85163">
        <ele>866</ele>
        <time>2013-03-06T13:33:47.970Z</time>
      </trkpt>
      <trkpt lat="44.35282" lon="2.85164">
        <ele>866</ele>
        <time>2013-03-06T13:33:49.980Z</time>
      </trkpt>
      <trkpt lat="44.35282" lon="2.85165">
        <ele>866</ele>
        <time>2013-03-06T13:33:55.060Z</time>
      </trkpt>
      <trkpt lat="44.3528" lon="2.85162">
        <ele>866</ele>
        <time>2013-03-06T13:34:00.970Z</time>
      </trkpt>
      <trkpt lat="44.35279" lon="2.85162">
        <ele>867</ele>
        <time>2013-03-06T13:34:02.060Z</time>
      </trkpt>
      <trkpt lat="44.35278" lon="2.85162">
        <ele>867</ele>
        <time>2013-03-06T13:34:02.970Z</time>
      </trkpt>
      <trkpt lat="44.35276" lon="2.85162">
        <ele>867</ele>
        <time>2013-03-06T13:34:04.060Z</time>
      </trkpt>
      <trkpt lat="44.35275" lon="2.85163">
        <ele>867</ele>
        <time>2013-03-06T13:34:05.970Z</time>
      </trkpt>
      <trkpt lat="44.35274" lon="2.85162">
        <ele>867</ele>
        <time>2013-03-06T13:34:09.970Z</time>
      </trkpt>
      <trkpt lat="44.35273" lon="2.85162">
        <ele>868</ele>
        <time>2013-03-06T13:34:11.060Z</time>
      </trkpt>
      <trkpt lat="44.35272" lon="2.85164">
        <ele>868</ele>
        <time>2013-03-06T13:34:15.980Z</time>
      </trkpt>
      <trkpt lat="44.35273" lon="2.85163">
        <ele>868</ele>
        <time>2013-03-06T13:34:19.060Z</time>
      </trkpt>
      <trkpt lat="44.35273" lon="2.85161">
        <ele>867</ele>
        <time>2013-03-06T13:34:33.010Z</time>
      </trkpt>
      <trkpt lat="44.35274" lon="2.85161">
        <ele>867</ele>
        <time>2013-03-06T13:34:33.970Z</time>
      </trkpt>
      <trkpt lat="44.35275" lon="2.85162">
        <ele>867</ele>
        <time>2013-03-06T13:34:35.970Z</time>
      </trkpt>
      <trkpt lat="44.35276" lon="2.85163">
        <ele>867</ele>
        <time>2013-03-06T13:34:37.970Z</time>
      </trkpt>
      <trkpt lat="44.35276" lon="2.85162">
        <ele>867</ele>
        <time>2013-03-06T13:34:50.010Z</time>
      </trkpt>
      <trkpt lat="44.35275" lon="2.85162">
        <ele>867</ele>
        <time>2013-03-06T13:34:52.050Z</time>
      </trkpt>
      <trkpt lat="44.35275" lon="2.85162">
        <ele>867</ele>
        <time>2013-03-06T13:35:00.970Z</time>
      </trkpt>
      <trkpt lat="44.35274" lon="2.85162">
        <ele>867</ele>
        <time>2013-03-06T13:35:11.050Z</time>
      </trkpt>
      <trkpt lat="44.35273" lon="2.8516">
        <ele>867</ele>
        <time>2013-03-06T13:35:13.050Z</time>
      </trkpt>
      <trkpt lat="44.35272" lon="2.8516">
        <ele>868</ele>
        <time>2013-03-06T13:36:00.970Z</time>
      </trkpt>
      <trkpt lat="44.35273" lon="2.85159">
        <ele>867</ele>
        <time>2013-03-06T13:36:03.970Z</time>
      </trkpt>
      <trkpt lat="44.35275" lon="2.85159">
        <ele>867</ele>
        <time>2013-03-06T13:36:05.970Z</time>
      </trkpt>
      <trkpt lat="44.35276" lon="2.85158">
        <ele>867</ele>
        <time>2013-03-06T13:36:06.970Z</time>
      </trkpt>
      <trkpt lat="44.35277" lon="2.85158">
        <ele>867</ele>
        <time>2013-03-06T13:36:07.970Z</time>
      </trkpt>
      <trkpt lat="44.35279" lon="2.85158">
        <ele>867</ele>
        <time>2013-03-06T13:36:08.970Z</time>
      </trkpt>
      <trkpt lat="44.3528" lon="2.85159">
        <ele>866</ele>
        <time>2013-03-06T13:36:09.970Z</time>
      </trkpt>
      <trkpt lat="44.35281" lon="2.85158">
        <ele>866</ele>
        <time>2013-03-06T13:36:10.970Z</time>
      </trkpt>
      <trkpt lat="44.35282" lon="2.85158">
        <ele>866</ele>
        <time>2013-03-06T13:36:11.970Z</time>
      </trkpt>
      <trkpt lat="44.35283" lon="2.85158">
        <ele>866</ele>
        <time>2013-03-06T13:36:13.970Z</time>
      </trkpt>
      <trkpt lat="44.35284" lon="2.85158">
        <ele>866</ele>
        <time>2013-03-06T13:36:15.980Z</time>
      </trkpt>
      <trkpt lat="44.35285" lon="2.85159">
        <ele>866</ele>
        <time>2013-03-06T13:36:16.980Z</time>
      </trkpt>
      <trkpt lat="44.35286" lon="2.8516">
        <ele>866</ele>
        <time>2013-03-06T13:36:19.970Z</time>
      </trkpt>
      <trkpt lat="44.35288" lon="2.85159">
        <ele>865</ele>
        <time>2013-03-06T13:36:21.970Z</time>
      </trkpt>
      <trkpt lat="44.35289" lon="2.8516">
        <ele>865</ele>
        <time>2013-03-06T13:36:22.970Z</time>
      </trkpt>
      <trkpt lat="44.3529" lon="2.8516">
        <ele>865</ele>
        <time>2013-03-06T13:36:23.970Z</time>
      </trkpt>
      <trkpt lat="44.35291" lon="2.85161">
        <ele>865</ele>
        <time>2013-03-06T13:36:24.970Z</time>
      </trkpt>
      <trkpt lat="44.35293" lon="2.85161">
        <ele>865</ele>
        <time>2013-03-06T13:36:25.970Z</time>
      </trkpt>
      <trkpt lat="44.35295" lon="2.85163">
        <ele>864</ele>
        <time>2013-03-06T13:36:26.970Z</time>
      </trkpt>
      <trkpt lat="44.35296" lon="2.85164">
        <ele>864</ele>
        <time>2013-03-06T13:36:27.970Z</time>
      </trkpt>
      <trkpt lat="44.35298" lon="2.85165">
        <ele>864</ele>
        <time>2013-03-06T13:36:29.040Z</time>
      </trkpt>
      <trkpt lat="44.35302" lon="2.85167">
        <ele>861</ele>
        <time>2013-03-06T13:36:31.030Z</time>
      </trkpt>
      <trkpt lat="44.35305" lon="2.85169">
        <ele>861</ele>
        <time>2013-03-06T13:36:32.030Z</time>
      </trkpt>
      <trkpt lat="44.35308" lon="2.85171">
        <ele>861</ele>
        <time>2013-03-06T13:36:33.110Z</time>
      </trkpt>
      <trkpt lat="44.35314" lon="2.85172">
        <ele>860</ele>
        <time>2013-03-06T13:36:34.970Z</time>
      </trkpt>
      <trkpt lat="44.35317" lon="2.85172">
        <ele>860</ele>
        <time>2013-03-06T13:36:35.970Z</time>
      </trkpt>
      <trkpt lat="44.35319" lon="2.85174">
        <ele>860</ele>
        <time>2013-03-06T13:36:36.970Z</time>
      </trkpt>
      <trkpt lat="44.35321" lon="2.85175">
        <ele>860</ele>
        <time>2013-03-06T13:36:37.970Z</time>
      </trkpt>
      <trkpt lat="44.35322" lon="2.85176">
        <ele>859</ele>
        <time>2013-03-06T13:36:38.970Z</time>
      </trkpt>
      <trkpt lat="44.35324" lon="2.85176">
        <ele>859</ele>
        <time>2013-03-06T13:36:40.020Z</time>
      </trkpt>
      <trkpt lat="44.35325" lon="2.85177">
        <ele>859</ele>
        <time>2013-03-06T13:36:41.020Z</time>
      </trkpt>
      <trkpt lat="44.35328" lon="2.85177">
        <ele>859</ele>
        <time>2013-03-06T13:36:43.020Z</time>
      </trkpt>
      <trkpt lat="44.35329" lon="2.85178">
        <ele>859</ele>
        <time>2013-03-06T13:36:44.070Z</time>
      </trkpt>
      <trkpt lat="44.35332" lon="2.8518">
        <ele>859</ele>
        <time>2013-03-06T13:36:45.970Z</time>
      </trkpt>
      <trkpt lat="44.35333" lon="2.8518">
        <ele>859</ele>
        <time>2013-03-06T13:36:46.970Z</time>
      </trkpt>
      <trkpt lat="44.35334" lon="2.85181">
        <ele>851</ele>
        <time>2013-03-06T13:36:47.970Z</time>
      </trkpt>
      <trkpt lat="44.35336" lon="2.85183">
        <ele>850</ele>
        <time>2013-03-06T13:36:48.970Z</time>
      </trkpt>
      <trkpt lat="44.35336" lon="2.85184">
        <ele>850</ele>
        <time>2013-03-06T13:36:49.980Z</time>
      </trkpt>
      <trkpt lat="44.35338" lon="2.85187">
        <ele>849</ele>
        <time>2013-03-06T13:36:50.970Z</time>
      </trkpt>
      <trkpt lat="44.3534" lon="2.85188">
        <ele>849</ele>
        <time>2013-03-06T13:36:51.970Z</time>
      </trkpt>
      <trkpt lat="44.35342" lon="2.85189">
        <ele>848</ele>
        <time>2013-03-06T13:36:52.970Z</time>
      </trkpt>
      <trkpt lat="44.35343" lon="2.85191">
        <ele>848</ele>
        <time>2013-03-06T13:36:53.970Z</time>
      </trkpt>
      <trkpt lat="44.35346" lon="2.85192">
        <ele>847</ele>
        <time>2013-03-06T13:36:54.970Z</time>
      </trkpt>
      <trkpt lat="44.3535" lon="2.85194">
        <ele>846</ele>
        <time>2013-03-06T13:36:55.970Z</time>
      </trkpt>
      <trkpt lat="44.35353" lon="2.85196">
        <ele>846</ele>
        <time>2013-03-06T13:36:56.970Z</time>
      </trkpt>
      <trkpt lat="44.35354" lon="2.85196">
        <ele>845</ele>
        <time>2013-03-06T13:36:58.020Z</time>
      </trkpt>
      <trkpt lat="44.35356" lon="2.85198">
        <ele>845</ele>
        <time>2013-03-06T13:37:00.970Z</time>
      </trkpt>
      <trkpt lat="44.35356" lon="2.85199">
        <ele>845</ele>
        <time>2013-03-06T13:37:06.210Z</time>
      </trkpt>
      <trkpt lat="44.35356" lon="2.85201">
        <ele>845</ele>
        <time>2013-03-06T13:37:08.120Z</time>
      </trkpt>
      <trkpt lat="44.35358" lon="2.85203">
        <ele>844</ele>
        <time>2013-03-06T13:37:10.120Z</time>
      </trkpt>
      <trkpt lat="44.35359" lon="2.85205">
        <ele>844</ele>
        <time>2013-03-06T13:37:12.120Z</time>
      </trkpt>
      <trkpt lat="44.3536" lon="2.85206">
        <ele>844</ele>
        <time>2013-03-06T13:37:14.970Z</time>
      </trkpt>
      <trkpt lat="44.35361" lon="2.85207">
        <ele>844</ele>
        <time>2013-03-06T13:37:18.020Z</time>
      </trkpt>
      <trkpt lat="44.35361" lon="2.85205">
        <ele>844</ele>
        <time>2013-03-06T13:37:23.110Z</time>
      </trkpt>
      <trkpt lat="44.35362" lon="2.85203">
        <ele>844</ele>
        <time>2013-03-06T13:37:25.090Z</time>
      </trkpt>
      <trkpt lat="44.35362" lon="2.85202">
        <ele>844</ele>
        <time>2013-03-06T13:37:27.110Z</time>
      </trkpt>
      <trkpt lat="44.35362" lon="2.85201">
        <ele>844</ele>
        <time>2013-03-06T13:37:28.020Z</time>
      </trkpt>
      <trkpt lat="44.35362" lon="2.85199">
        <ele>844</ele>
        <time>2013-03-06T13:37:29.110Z</time>
      </trkpt>
      <trkpt lat="44.35362" lon="2.85198">
        <ele>844</ele>
        <time>2013-03-06T13:37:30.060Z</time>
      </trkpt>
      <trkpt lat="44.35363" lon="2.85197">
        <ele>844</ele>
        <time>2013-03-06T13:37:32.060Z</time>
      </trkpt>
      <trkpt lat="44.35365" lon="2.85197">
        <ele>844</ele>
        <time>2013-03-06T13:37:41.070Z</time>
      </trkpt>
      <trkpt lat="44.35365" lon="2.85196">
        <ele>844</ele>
        <time>2013-03-06T13:37:45.040Z</time>
      </trkpt>
      <trkpt lat="44.35364" lon="2.85196">
        <ele>844</ele>
        <time>2013-03-06T13:37:50.160Z</time>
      </trkpt>
      <trkpt lat="44.35366" lon="2.85196">
        <ele>844</ele>
        <time>2013-03-06T13:37:53.140Z</time>
      </trkpt>
      <trkpt lat="44.35367" lon="2.85196">
        <ele>843</ele>
        <time>2013-03-06T13:37:55.070Z</time>
      </trkpt>
      <trkpt lat="44.35366" lon="2.85195">
        <ele>843</ele>
        <time>2013-03-06T13:37:57.120Z</time>
      </trkpt>
      <trkpt lat="44.35365" lon="2.85194">
        <ele>844</ele>
        <time>2013-03-06T13:37:59.170Z</time>
      </trkpt>
      <trkpt lat="44.35365" lon="2.85193">
        <ele>844</ele>
        <time>2013-03-06T13:38:01.100Z</time>
      </trkpt>
      <trkpt lat="44.35366" lon="2.85194">
        <ele>844</ele>
        <time>2013-03-06T13:38:07.100Z</time>
      </trkpt>
      <trkpt lat="44.35365" lon="2.85194">
        <ele>844</ele>
        <time>2013-03-06T13:38:10.050Z</time>
      </trkpt>
      <trkpt lat="44.35365" lon="2.85193">
        <ele>844</ele>
        <time>2013-03-06T13:38:14.970Z</time>
      </trkpt>
      <trkpt lat="44.35363" lon="2.85191">
        <ele>844</ele>
        <time>2013-03-06T13:38:16.030Z</time>
      </trkpt>
      <trkpt lat="44.3536" lon="2.85189">
        <ele>845</ele>
        <time>2013-03-06T13:38:18.000Z</time>
      </trkpt>
      <trkpt lat="44.35359" lon="2.85189">
        <ele>845</ele>
        <time>2013-03-06T13:38:19.140Z</time>
      </trkpt>
      <trkpt lat="44.35359" lon="2.85191">
        <ele>845</ele>
        <time>2013-03-06T13:38:21.110Z</time>
      </trkpt>
      <trkpt lat="44.3536" lon="2.85193">
        <ele>845</ele>
        <time>2013-03-06T13:38:23.110Z</time>
      </trkpt>
      <trkpt lat="44.35361" lon="2.85195">
        <ele>845</ele>
        <time>2013-03-06T13:38:25.130Z</time>
      </trkpt>
      <trkpt lat="44.35361" lon="2.85196">
        <ele>844</ele>
        <time>2013-03-06T13:38:27.110Z</time>
      </trkpt>
      <trkpt lat="44.35362" lon="2.85198">
        <ele>844</ele>
        <time>2013-03-06T13:38:31.100Z</time>
      </trkpt>
      <trkpt lat="44.35362" lon="2.852">
        <ele>844</ele>
        <time>2013-03-06T13:38:36.090Z</time>
      </trkpt>
      <trkpt lat="44.35362" lon="2.85202">
        <ele>844</ele>
        <time>2013-03-06T13:38:38.080Z</time>
      </trkpt>
      <trkpt lat="44.35363" lon="2.85204">
        <ele>844</ele>
        <time>2013-03-06T13:38:40.090Z</time>
      </trkpt>
      <trkpt lat="44.35363" lon="2.85207">
        <ele>843</ele>
        <time>2013-03-06T13:38:41.010Z</time>
      </trkpt>
      <trkpt lat="44.35363" lon="2.8521">
        <ele>843</ele>
        <time>2013-03-06T13:38:42.090Z</time>
      </trkpt>
      <trkpt lat="44.35362" lon="2.85211">
        <ele>843</ele>
        <time>2013-03-06T13:38:43.040Z</time>
      </trkpt>
      <trkpt lat="44.35363" lon="2.85212">
        <ele>843</ele>
        <time>2013-03-06T13:38:45.060Z</time>
      </trkpt>
      <trkpt lat="44.35364" lon="2.85215">
        <ele>843</ele>
        <time>2013-03-06T13:38:47.040Z</time>
      </trkpt>
      <trkpt lat="44.35365" lon="2.85218">
        <ele>843</ele>
        <time>2013-03-06T13:38:48.090Z</time>
      </trkpt>
      <trkpt lat="44.35367" lon="2.85224">
        <ele>842</ele>
        <time>2013-03-06T13:38:49.000Z</time>
      </trkpt>
      <trkpt lat="44.35368" lon="2.8523">
        <ele>842</ele>
        <time>2013-03-06T13:38:50.100Z</time>
      </trkpt>
      <trkpt lat="44.35372" lon="2.85244">
        <ele>841</ele>
        <time>2013-03-06T13:38:51.990Z</time>
      </trkpt>
      <trkpt lat="44.35373" lon="2.8525">
        <ele>836</ele>
        <time>2013-03-06T13:38:53.110Z</time>
      </trkpt>
      <trkpt lat="44.35373" lon="2.85262">
        <ele>836</ele>
        <time>2013-03-06T13:38:55.110Z</time>
      </trkpt>
      <trkpt lat="44.35373" lon="2.85274">
        <ele>835</ele>
        <time>2013-03-06T13:38:57.110Z</time>
      </trkpt>
      <trkpt lat="44.35374" lon="2.85286">
        <ele>835</ele>
        <time>2013-03-06T13:38:59.170Z</time>
      </trkpt>
      <trkpt lat="44.35376" lon="2.85294">
        <ele>834</ele>
        <time>2013-03-06T13:39:01.080Z</time>
      </trkpt>
      <trkpt lat="44.35378" lon="2.85299">
        <ele>834</ele>
        <time>2013-03-06T13:39:02.050Z</time>
      </trkpt>
      <trkpt lat="44.35379" lon="2.85304">
        <ele>833</ele>
        <time>2013-03-06T13:39:03.090Z</time>
      </trkpt>
      <trkpt lat="44.3538" lon="2.8531">
        <ele>833</ele>
        <time>2013-03-06T13:39:04.030Z</time>
      </trkpt>
      <trkpt lat="44.35381" lon="2.85316">
        <ele>832</ele>
        <time>2013-03-06T13:39:05.090Z</time>
      </trkpt>
      <trkpt lat="44.35382" lon="2.85321">
        <ele>832</ele>
        <time>2013-03-06T13:39:06.040Z</time>
      </trkpt>
      <trkpt lat="44.35382" lon="2.85326">
        <ele>831</ele>
        <time>2013-03-06T13:39:07.080Z</time>
      </trkpt>
      <trkpt lat="44.35383" lon="2.85331">
        <ele>831</ele>
        <time>2013-03-06T13:39:08.040Z</time>
      </trkpt>
      <trkpt lat="44.35383" lon="2.85337">
        <ele>822</ele>
        <time>2013-03-06T13:39:09.090Z</time>
      </trkpt>
      <trkpt lat="44.35382" lon="2.85342">
        <ele>821</ele>
        <time>2013-03-06T13:39:10.030Z</time>
      </trkpt>
      <trkpt lat="44.35382" lon="2.85347">
        <ele>821</ele>
        <time>2013-03-06T13:39:11.080Z</time>
      </trkpt>
      <trkpt lat="44.35381" lon="2.85353">
        <ele>821</ele>
        <time>2013-03-06T13:39:12.000Z</time>
      </trkpt>
      <trkpt lat="44.3538" lon="2.85359">
        <ele>820</ele>
        <time>2013-03-06T13:39:13.070Z</time>
      </trkpt>
      <trkpt lat="44.35379" lon="2.85364">
        <ele>820</ele>
        <time>2013-03-06T13:39:14.030Z</time>
      </trkpt>
      <trkpt lat="44.35378" lon="2.8537">
        <ele>819</ele>
        <time>2013-03-06T13:39:15.080Z</time>
      </trkpt>
      <trkpt lat="44.35376" lon="2.85376">
        <ele>818</ele>
        <time>2013-03-06T13:39:16.040Z</time>
      </trkpt>
      <trkpt lat="44.35375" lon="2.8539">
        <ele>817</ele>
        <time>2013-03-06T13:39:18.110Z</time>
      </trkpt>
      <trkpt lat="44.35373" lon="2.85402">
        <ele>815</ele>
        <time>2013-03-06T13:39:20.080Z</time>
      </trkpt>
      <trkpt lat="44.35371" lon="2.85413">
        <ele>815</ele>
        <time>2013-03-06T13:39:22.110Z</time>
      </trkpt>
      <trkpt lat="44.3537" lon="2.85419">
        <ele>798</ele>
        <time>2013-03-06T13:39:24.120Z</time>
      </trkpt>
      <trkpt lat="44.35366" lon="2.85422">
        <ele>799</ele>
        <time>2013-03-06T13:39:26.110Z</time>
      </trkpt>
      <trkpt lat="44.35364" lon="2.85425">
        <ele>799</ele>
        <time>2013-03-06T13:39:28.110Z</time>
      </trkpt>
      <trkpt lat="44.35361" lon="2.85428">
        <ele>799</ele>
        <time>2013-03-06T13:39:30.110Z</time>
      </trkpt>
      <trkpt lat="44.35358" lon="2.85431">
        <ele>799</ele>
        <time>2013-03-06T13:39:32.110Z</time>
      </trkpt>
      <trkpt lat="44.35357" lon="2.85434">
        <ele>799</ele>
        <time>2013-03-06T13:39:33.970Z</time>
      </trkpt>
      <trkpt lat="44.35356" lon="2.85435">
        <ele>799</ele>
        <time>2013-03-06T13:39:34.980Z</time>
      </trkpt>
      <trkpt lat="44.35354" lon="2.85436">
        <ele>799</ele>
        <time>2013-03-06T13:39:36.110Z</time>
      </trkpt>
      <trkpt lat="44.35352" lon="2.85437">
        <ele>799</ele>
        <time>2013-03-06T13:39:38.110Z</time>
      </trkpt>
      <trkpt lat="44.35349" lon="2.85438">
        <ele>799</ele>
        <time>2013-03-06T13:39:40.110Z</time>
      </trkpt>
      <trkpt lat="44.35346" lon="2.85438">
        <ele>799</ele>
        <time>2013-03-06T13:39:42.140Z</time>
      </trkpt>
      <trkpt lat="44.35344" lon="2.85439">
        <ele>799</ele>
        <time>2013-03-06T13:39:44.110Z</time>
      </trkpt>
      <trkpt lat="44.3534" lon="2.85439">
        <ele>800</ele>
        <time>2013-03-06T13:39:46.080Z</time>
      </trkpt>
      <trkpt lat="44.35336" lon="2.85438">
        <ele>801</ele>
        <time>2013-03-06T13:39:48.110Z</time>
      </trkpt>
      <trkpt lat="44.35331" lon="2.85439">
        <ele>804</ele>
        <time>2013-03-06T13:39:50.110Z</time>
      </trkpt>
      <trkpt lat="44.35327" lon="2.85442">
        <ele>803</ele>
        <time>2013-03-06T13:39:52.100Z</time>
      </trkpt>
      <trkpt lat="44.35323" lon="2.85444">
        <ele>802</ele>
        <time>2013-03-06T13:39:54.110Z</time>
      </trkpt>
      <trkpt lat="44.35319" lon="2.85445">
        <ele>802</ele>
        <time>2013-03-06T13:39:56.130Z</time>
      </trkpt>
      <trkpt lat="44.35313" lon="2.85443">
        <ele>802</ele>
        <time>2013-03-06T13:39:58.120Z</time>
      </trkpt>
      <trkpt lat="44.35308" lon="2.85443">
        <ele>802</ele>
        <time>2013-03-06T13:39:59.970Z</time>
      </trkpt>
      <trkpt lat="44.35307" lon="2.85443">
        <ele>801</ele>
        <time>2013-03-06T13:40:00.970Z</time>
      </trkpt>
      <trkpt lat="44.35304" lon="2.85443">
        <ele>801</ele>
        <time>2013-03-06T13:40:02.130Z</time>
      </trkpt>
      <trkpt lat="44.35301" lon="2.85441">
        <ele>801</ele>
        <time>2013-03-06T13:40:04.120Z</time>
      </trkpt>
      <trkpt lat="44.35297" lon="2.8544">
        <ele>802</ele>
        <time>2013-03-06T13:40:06.130Z</time>
      </trkpt>
      <trkpt lat="44.35294" lon="2.85441">
        <ele>801</ele>
        <time>2013-03-06T13:40:08.070Z</time>
      </trkpt>
      <trkpt lat="44.35293" lon="2.8544">
        <ele>802</ele>
        <time>2013-03-06T13:40:09.080Z</time>
      </trkpt>
      <trkpt lat="44.35291" lon="2.8544">
        <ele>802</ele>
        <time>2013-03-06T13:40:11.110Z</time>
      </trkpt>
      <trkpt lat="44.35288" lon="2.85439">
        <ele>802</ele>
        <time>2013-03-06T13:40:13.190Z</time>
      </trkpt>
      <trkpt lat="44.35286" lon="2.85438">
        <ele>802</ele>
        <time>2013-03-06T13:40:15.070Z</time>
      </trkpt>
      <trkpt lat="44.35285" lon="2.85438">
        <ele>802</ele>
        <time>2013-03-06T13:40:18.070Z</time>
      </trkpt>
      <trkpt lat="44.35284" lon="2.85437">
        <ele>802</ele>
        <time>2013-03-06T13:40:19.970Z</time>
      </trkpt>
      <trkpt lat="44.35282" lon="2.85437">
        <ele>802</ele>
        <time>2013-03-06T13:40:21.070Z</time>
      </trkpt>
      <trkpt lat="44.3528" lon="2.85438">
        <ele>802</ele>
        <time>2013-03-06T13:40:23.070Z</time>
      </trkpt>
      <trkpt lat="44.35279" lon="2.85439">
        <ele>802</ele>
        <time>2013-03-06T13:40:25.070Z</time>
      </trkpt>
      <trkpt lat="44.35278" lon="2.8544">
        <ele>802</ele>
        <time>2013-03-06T13:40:27.070Z</time>
      </trkpt>
      <trkpt lat="44.35277" lon="2.85441">
        <ele>802</ele>
        <time>2013-03-06T13:40:27.970Z</time>
      </trkpt>
      <trkpt lat="44.35276" lon="2.85442">
        <ele>802</ele>
        <time>2013-03-06T13:40:29.970Z</time>
      </trkpt>
      <trkpt lat="44.35275" lon="2.85442">
        <ele>802</ele>
        <time>2013-03-06T13:40:31.070Z</time>
      </trkpt>
      <trkpt lat="44.35273" lon="2.85442">
        <ele>802</ele>
        <time>2013-03-06T13:40:32.060Z</time>
      </trkpt>
      <trkpt lat="44.35271" lon="2.85442">
        <ele>802</ele>
        <time>2013-03-06T13:40:32.990Z</time>
      </trkpt>
      <trkpt lat="44.35268" lon="2.85442">
        <ele>802</ele>
        <time>2013-03-06T13:40:35.080Z</time>
      </trkpt>
      <trkpt lat="44.35264" lon="2.85442">
        <ele>802</ele>
        <time>2013-03-06T13:40:36.970Z</time>
      </trkpt>
      <trkpt lat="44.35263" lon="2.85442">
        <ele>802</ele>
        <time>2013-03-06T13:40:38.060Z</time>
      </trkpt>
      <trkpt lat="44.35262" lon="2.85441">
        <ele>803</ele>
        <time>2013-03-06T13:40:38.970Z</time>
      </trkpt>
      <trkpt lat="44.35261" lon="2.85443">
        <ele>802</ele>
        <time>2013-03-06T13:40:40.970Z</time>
      </trkpt>
      <trkpt lat="44.3526" lon="2.85444">
        <ele>802</ele>
        <time>2013-03-06T13:40:44.020Z</time>
      </trkpt>
      <trkpt lat="44.35258" lon="2.85445">
        <ele>802</ele>
        <time>2013-03-06T13:40:45.060Z</time>
      </trkpt>
      <trkpt lat="44.35258" lon="2.85447">
        <ele>801</ele>
        <time>2013-03-06T13:40:47.040Z</time>
      </trkpt>
      <trkpt lat="44.35258" lon="2.85449">
        <ele>801</ele>
        <time>2013-03-06T13:40:48.970Z</time>
      </trkpt>
      <trkpt lat="44.35256" lon="2.85449">
        <ele>801</ele>
        <time>2013-03-06T13:40:51.970Z</time>
      </trkpt>
      <trkpt lat="44.35254" lon="2.8545">
        <ele>801</ele>
        <time>2013-03-06T13:40:53.060Z</time>
      </trkpt>
      <trkpt lat="44.35251" lon="2.8545">
        <ele>801</ele>
        <time>2013-03-06T13:40:53.970Z</time>
      </trkpt>
      <trkpt lat="44.3525" lon="2.85449">
        <ele>807</ele>
        <time>2013-03-06T13:40:55.060Z</time>
      </trkpt>
      <trkpt lat="44.35248" lon="2.85449">
        <ele>807</ele>
        <time>2013-03-06T13:40:56.060Z</time>
      </trkpt>
      <trkpt lat="44.35248" lon="2.85451">
        <ele>807</ele>
        <time>2013-03-06T13:40:57.000Z</time>
      </trkpt>
      <trkpt lat="44.35246" lon="2.85451">
        <ele>807</ele>
        <time>2013-03-06T13:40:59.030Z</time>
      </trkpt>
      <trkpt lat="44.35245" lon="2.85452">
        <ele>807</ele>
        <time>2013-03-06T13:41:01.180Z</time>
      </trkpt>
      <trkpt lat="44.35246" lon="2.85455">
        <ele>806</ele>
        <time>2013-03-06T13:41:03.060Z</time>
      </trkpt>
      <trkpt lat="44.35245" lon="2.85457">
        <ele>806</ele>
        <time>2013-03-06T13:41:03.990Z</time>
      </trkpt>
      <trkpt lat="44.35243" lon="2.85461">
        <ele>806</ele>
        <time>2013-03-06T13:41:05.060Z</time>
      </trkpt>
      <trkpt lat="44.35241" lon="2.85467">
        <ele>805</ele>
        <time>2013-03-06T13:41:06.010Z</time>
      </trkpt>
      <trkpt lat="44.35239" lon="2.85472">
        <ele>804</ele>
        <time>2013-03-06T13:41:07.060Z</time>
      </trkpt>
      <trkpt lat="44.35239" lon="2.85469">
        <ele>804</ele>
        <time>2013-03-06T13:41:10.110Z</time>
      </trkpt>
      <trkpt lat="44.35239" lon="2.85468">
        <ele>805</ele>
        <time>2013-03-06T13:41:11.970Z</time>
      </trkpt>
      <trkpt lat="44.35237" lon="2.85468">
        <ele>805</ele>
        <time>2013-03-06T13:41:13.000Z</time>
      </trkpt>
      <trkpt lat="44.35236" lon="2.85466">
        <ele>805</ele>
        <time>2013-03-06T13:41:14.050Z</time>
      </trkpt>
      <trkpt lat="44.35236" lon="2.85464">
        <ele>806</ele>
        <time>2013-03-06T13:41:15.020Z</time>
      </trkpt>
      <trkpt lat="44.35237" lon="2.85463">
        <ele>806</ele>
        <time>2013-03-06T13:41:16.110Z</time>
      </trkpt>
      <trkpt lat="44.35236" lon="2.85463">
        <ele>806</ele>
        <time>2013-03-06T13:41:30.020Z</time>
      </trkpt>
      <trkpt lat="44.35237" lon="2.85465">
        <ele>805</ele>
        <time>2013-03-06T13:41:32.000Z</time>
      </trkpt>
      <trkpt lat="44.35237" lon="2.85468">
        <ele>805</ele>
        <time>2013-03-06T13:41:32.980Z</time>
      </trkpt>
      <trkpt lat="44.35237" lon="2.8547">
        <ele>804</ele>
        <time>2013-03-06T13:41:33.970Z</time>
      </trkpt>
      <trkpt lat="44.35236" lon="2.85472">
        <ele>804</ele>
        <time>2013-03-06T13:41:35.050Z</time>
      </trkpt>
      <trkpt lat="44.35235" lon="2.85475">
        <ele>804</ele>
        <time>2013-03-06T13:41:35.970Z</time>
      </trkpt>
      <trkpt lat="44.35234" lon="2.85478">
        <ele>803</ele>
        <time>2013-03-06T13:41:37.050Z</time>
      </trkpt>
      <trkpt lat="44.35233" lon="2.8548">
        <ele>803</ele>
        <time>2013-03-06T13:41:37.970Z</time>
      </trkpt>
      <trkpt lat="44.35232" lon="2.85482">
        <ele>803</ele>
        <time>2013-03-06T13:41:38.970Z</time>
      </trkpt>
      <trkpt lat="44.35232" lon="2.85485">
        <ele>802</ele>
        <time>2013-03-06T13:41:40.110Z</time>
      </trkpt>
      <trkpt lat="44.35234" lon="2.85491">
        <ele>800</ele>
        <time>2013-03-06T13:41:42.060Z</time>
      </trkpt>
      <trkpt lat="44.35235" lon="2.85495">
        <ele>799</ele>
        <time>2013-03-06T13:41:43.150Z</time>
      </trkpt>
      <trkpt lat="44.35237" lon="2.85498">
        <ele>798</ele>
        <time>2013-03-06T13:41:44.100Z</time>
      </trkpt>
      <trkpt lat="44.35238" lon="2.85505">
        <ele>795</ele>
        <time>2013-03-06T13:41:46.090Z</time>
      </trkpt>
      <trkpt lat="44.35239" lon="2.85509">
        <ele>796</ele>
        <time>2013-03-06T13:41:47.150Z</time>
      </trkpt>
      <trkpt lat="44.3524" lon="2.85513">
        <ele>797</ele>
        <time>2013-03-06T13:41:48.100Z</time>
      </trkpt>
      <trkpt lat="44.3524" lon="2.85517">
        <ele>797</ele>
        <time>2013-03-06T13:41:49.150Z</time>
      </trkpt>
      <trkpt lat="44.35239" lon="2.85521">
        <ele>798</ele>
        <time>2013-03-06T13:41:50.100Z</time>
      </trkpt>
      <trkpt lat="44.35239" lon="2.85525">
        <ele>799</ele>
        <time>2013-03-06T13:41:50.970Z</time>
      </trkpt>
      <trkpt lat="44.35239" lon="2.85527">
        <ele>799</ele>
        <time>2013-03-06T13:41:52.120Z</time>
      </trkpt>
      <trkpt lat="44.35237" lon="2.85528">
        <ele>800</ele>
        <time>2013-03-06T13:41:54.050Z</time>
      </trkpt>
      <trkpt lat="44.35235" lon="2.85527">
        <ele>800</ele>
        <time>2013-03-06T13:41:56.040Z</time>
      </trkpt>
      <trkpt lat="44.35232" lon="2.85526">
        <ele>800</ele>
        <time>2013-03-06T13:41:57.090Z</time>
      </trkpt>
      <trkpt lat="44.3523" lon="2.85526">
        <ele>801</ele>
        <time>2013-03-06T13:41:59.130Z</time>
      </trkpt>
      <trkpt lat="44.35229" lon="2.85526">
        <ele>801</ele>
        <time>2013-03-06T13:42:01.040Z</time>
      </trkpt>
      <trkpt lat="44.35228" lon="2.85526">
        <ele>801</ele>
        <time>2013-03-06T13:42:07.040Z</time>
      </trkpt>
      <trkpt lat="44.35229" lon="2.85528">
        <ele>801</ele>
        <time>2013-03-06T13:42:07.990Z</time>
      </trkpt>
      <trkpt lat="44.35229" lon="2.85531">
        <ele>801</ele>
        <time>2013-03-06T13:42:09.140Z</time>
      </trkpt>
      <trkpt lat="44.3523" lon="2.85533">
        <ele>801</ele>
        <time>2013-03-06T13:42:10.090Z</time>
      </trkpt>
      <trkpt lat="44.35231" lon="2.85536">
        <ele>801</ele>
        <time>2013-03-06T13:42:11.140Z</time>
      </trkpt>
      <trkpt lat="44.35232" lon="2.85539">
        <ele>801</ele>
        <time>2013-03-06T13:42:12.090Z</time>
      </trkpt>
      <trkpt lat="44.35233" lon="2.85541">
        <ele>801</ele>
        <time>2013-03-06T13:42:13.140Z</time>
      </trkpt>
      <trkpt lat="44.35234" lon="2.85544">
        <ele>801</ele>
        <time>2013-03-06T13:42:14.090Z</time>
      </trkpt>
      <trkpt lat="44.35236" lon="2.85547">
        <ele>801</ele>
        <time>2013-03-06T13:42:15.210Z</time>
      </trkpt>
      <trkpt lat="44.35238" lon="2.8555">
        <ele>800</ele>
        <time>2013-03-06T13:42:17.110Z</time>
      </trkpt>
      <trkpt lat="44.3524" lon="2.85554">
        <ele>800</ele>
        <time>2013-03-06T13:42:19.040Z</time>
      </trkpt>
      <trkpt lat="44.35242" lon="2.85555">
        <ele>800</ele>
        <time>2013-03-06T13:42:20.100Z</time>
      </trkpt>
      <trkpt lat="44.35242" lon="2.85556">
        <ele>800</ele>
        <time>2013-03-06T13:42:21.140Z</time>
      </trkpt>
      <trkpt lat="44.35244" lon="2.85557">
        <ele>799</ele>
        <time>2013-03-06T13:42:23.140Z</time>
      </trkpt>
      <trkpt lat="44.35245" lon="2.85558">
        <ele>799</ele>
        <time>2013-03-06T13:42:24.110Z</time>
      </trkpt>
      <trkpt lat="44.35246" lon="2.85559">
        <ele>799</ele>
        <time>2013-03-06T13:42:25.140Z</time>
      </trkpt>
      <trkpt lat="44.35248" lon="2.8556">
        <ele>799</ele>
        <time>2013-03-06T13:42:26.090Z</time>
      </trkpt>
      <trkpt lat="44.3525" lon="2.85563">
        <ele>798</ele>
        <time>2013-03-06T13:42:28.090Z</time>
      </trkpt>
      <trkpt lat="44.3525" lon="2.85565">
        <ele>786</ele>
        <time>2013-03-06T13:42:29.140Z</time>
      </trkpt>
      <trkpt lat="44.35251" lon="2.85568">
        <ele>787</ele>
        <time>2013-03-06T13:42:30.080Z</time>
      </trkpt>
      <trkpt lat="44.35253" lon="2.85571">
        <ele>787</ele>
        <time>2013-03-06T13:42:31.140Z</time>
      </trkpt>
      <trkpt lat="44.35254" lon="2.85574">
        <ele>788</ele>
        <time>2013-03-06T13:42:32.090Z</time>
      </trkpt>
      <trkpt lat="44.35255" lon="2.85578">
        <ele>789</ele>
        <time>2013-03-06T13:42:32.980Z</time>
      </trkpt>
      <trkpt lat="44.35257" lon="2.85582">
        <ele>789</ele>
        <time>2013-03-06T13:42:34.110Z</time>
      </trkpt>
      <trkpt lat="44.3526" lon="2.85591">
        <ele>786</ele>
        <time>2013-03-06T13:42:36.090Z</time>
      </trkpt>
      <trkpt lat="44.35263" lon="2.85596">
        <ele>784</ele>
        <time>2013-03-06T13:42:37.130Z</time>
      </trkpt>
      <trkpt lat="44.35264" lon="2.85601">
        <ele>783</ele>
        <time>2013-03-06T13:42:38.050Z</time>
      </trkpt>
      <trkpt lat="44.35267" lon="2.85607">
        <ele>781</ele>
        <time>2013-03-06T13:42:39.130Z</time>
      </trkpt>
      <trkpt lat="44.35269" lon="2.85613">
        <ele>780</ele>
        <time>2013-03-06T13:42:40.080Z</time>
      </trkpt>
      <trkpt lat="44.35269" lon="2.85619">
        <ele>780</ele>
        <time>2013-03-06T13:42:41.120Z</time>
      </trkpt>
      <trkpt lat="44.35269" lon="2.85623">
        <ele>780</ele>
        <time>2013-03-06T13:42:42.050Z</time>
      </trkpt>
      <trkpt lat="44.35268" lon="2.85628">
        <ele>781</ele>
        <time>2013-03-06T13:42:43.130Z</time>
      </trkpt>
      <trkpt lat="44.35268" lon="2.85632">
        <ele>781</ele>
        <time>2013-03-06T13:42:44.100Z</time>
      </trkpt>
      <trkpt lat="44.35267" lon="2.85639">
        <ele>782</ele>
        <time>2013-03-06T13:42:46.050Z</time>
      </trkpt>
      <trkpt lat="44.35266" lon="2.85643">
        <ele>783</ele>
        <time>2013-03-06T13:42:47.130Z</time>
      </trkpt>
      <trkpt lat="44.35264" lon="2.85647">
        <ele>784</ele>
        <time>2013-03-06T13:42:48.100Z</time>
      </trkpt>
      <trkpt lat="44.35263" lon="2.85651">
        <ele>785</ele>
        <time>2013-03-06T13:42:49.030Z</time>
      </trkpt>
      <trkpt lat="44.35263" lon="2.85655">
        <ele>786</ele>
        <time>2013-03-06T13:42:50.010Z</time>
      </trkpt>
      <trkpt lat="44.35263" lon="2.8566">
        <ele>788</ele>
        <time>2013-03-06T13:42:51.130Z</time>
      </trkpt>
      <trkpt lat="44.35262" lon="2.85666">
        <ele>789</ele>
        <time>2013-03-06T13:42:52.110Z</time>
      </trkpt>
      <trkpt lat="44.35262" lon="2.85674">
        <ele>788</ele>
        <time>2013-03-06T13:42:54.030Z</time>
      </trkpt>
      <trkpt lat="44.35262" lon="2.85679">
        <ele>787</ele>
        <time>2013-03-06T13:42:54.970Z</time>
      </trkpt>
      <trkpt lat="44.35262" lon="2.85683">
        <ele>786</ele>
        <time>2013-03-06T13:42:56.030Z</time>
      </trkpt>
      <trkpt lat="44.35262" lon="2.85688">
        <ele>785</ele>
        <time>2013-03-06T13:42:57.080Z</time>
      </trkpt>
      <trkpt lat="44.35262" lon="2.85693">
        <ele>784</ele>
        <time>2013-03-06T13:42:58.130Z</time>
      </trkpt>
      <trkpt lat="44.35263" lon="2.85698">
        <ele>783</ele>
        <time>2013-03-06T13:42:59.100Z</time>
      </trkpt>
      <trkpt lat="44.35263" lon="2.85707">
        <ele>782</ele>
        <time>2013-03-06T13:43:01.080Z</time>
      </trkpt>
      <trkpt lat="44.35263" lon="2.85711">
        <ele>782</ele>
        <time>2013-03-06T13:43:02.130Z</time>
      </trkpt>
      <trkpt lat="44.35262" lon="2.85715">
        <ele>782</ele>
        <time>2013-03-06T13:43:03.030Z</time>
      </trkpt>
      <trkpt lat="44.35263" lon="2.85722">
        <ele>783</ele>
        <time>2013-03-06T13:43:05.070Z</time>
      </trkpt>
      <trkpt lat="44.35263" lon="2.85727">
        <ele>783</ele>
        <time>2013-03-06T13:43:06.130Z</time>
      </trkpt>
      <trkpt lat="44.35263" lon="2.85731">
        <ele>784</ele>
        <time>2013-03-06T13:43:07.070Z</time>
      </trkpt>
      <trkpt lat="44.35263" lon="2.85736">
        <ele>785</ele>
        <time>2013-03-06T13:43:08.130Z</time>
      </trkpt>
      <trkpt lat="44.35262" lon="2.8574">
        <ele>786</ele>
        <time>2013-03-06T13:43:09.080Z</time>
      </trkpt>
      <trkpt lat="44.35261" lon="2.85748">
        <ele>788</ele>
        <time>2013-03-06T13:43:11.030Z</time>
      </trkpt>
      <trkpt lat="44.3526" lon="2.85752">
        <ele>786</ele>
        <time>2013-03-06T13:43:12.120Z</time>
      </trkpt>
      <trkpt lat="44.35259" lon="2.85757">
        <ele>785</ele>
        <time>2013-03-06T13:43:13.090Z</time>
      </trkpt>
      <trkpt lat="44.35258" lon="2.85761">
        <ele>784</ele>
        <time>2013-03-06T13:43:14.130Z</time>
      </trkpt>
      <trkpt lat="44.35257" lon="2.85765">
        <ele>783</ele>
        <time>2013-03-06T13:43:15.070Z</time>
      </trkpt>
      <trkpt lat="44.35255" lon="2.85767">
        <ele>782</ele>
        <time>2013-03-06T13:43:15.980Z</time>
      </trkpt>
      <trkpt lat="44.35253" lon="2.85769">
        <ele>782</ele>
        <time>2013-03-06T13:43:17.110Z</time>
      </trkpt>
      <trkpt lat="44.35249" lon="2.85775">
        <ele>793</ele>
        <time>2013-03-06T13:43:19.020Z</time>
      </trkpt>
      <trkpt lat="44.35247" lon="2.85778">
        <ele>793</ele>
        <time>2013-03-06T13:43:19.970Z</time>
      </trkpt>
      <trkpt lat="44.35244" lon="2.8578">
        <ele>793</ele>
        <time>2013-03-06T13:43:21.020Z</time>
      </trkpt>
      <trkpt lat="44.35241" lon="2.85784">
        <ele>792</ele>
        <time>2013-03-06T13:43:22.070Z</time>
      </trkpt>
      <trkpt lat="44.35239" lon="2.85789">
        <ele>792</ele>
        <time>2013-03-06T13:43:23.120Z</time>
      </trkpt>
      <trkpt lat="44.35236" lon="2.85793">
        <ele>792</ele>
        <time>2013-03-06T13:43:24.040Z</time>
      </trkpt>
      <trkpt lat="44.35233" lon="2.85796">
        <ele>792</ele>
        <time>2013-03-06T13:43:25.120Z</time>
      </trkpt>
      <trkpt lat="44.35229" lon="2.85798">
        <ele>792</ele>
        <time>2013-03-06T13:43:26.070Z</time>
      </trkpt>
      <trkpt lat="44.35226" lon="2.85801">
        <ele>792</ele>
        <time>2013-03-06T13:43:27.000Z</time>
      </trkpt>
      <trkpt lat="44.35223" lon="2.85803">
        <ele>791</ele>
        <time>2013-03-06T13:43:27.970Z</time>
      </trkpt>
      <trkpt lat="44.3522" lon="2.85806">
        <ele>791</ele>
        <time>2013-03-06T13:43:29.020Z</time>
      </trkpt>
      <trkpt lat="44.35217" lon="2.85808">
        <ele>792</ele>
        <time>2013-03-06T13:43:29.970Z</time>
      </trkpt>
      <trkpt lat="44.35214" lon="2.8581">
        <ele>792</ele>
        <time>2013-03-06T13:43:30.970Z</time>
      </trkpt>
      <trkpt lat="44.35211" lon="2.85812">
        <ele>792</ele>
        <time>2013-03-06T13:43:31.970Z</time>
      </trkpt>
      <trkpt lat="44.35207" lon="2.85813">
        <ele>792</ele>
        <time>2013-03-06T13:43:33.150Z</time>
      </trkpt>
      <trkpt lat="44.352" lon="2.85816">
        <ele>792</ele>
        <time>2013-03-06T13:43:35.120Z</time>
      </trkpt>
      <trkpt lat="44.35196" lon="2.85817">
        <ele>793</ele>
        <time>2013-03-06T13:43:36.070Z</time>
      </trkpt>
      <trkpt lat="44.35193" lon="2.85819">
        <ele>793</ele>
        <time>2013-03-06T13:43:37.120Z</time>
      </trkpt>
      <trkpt lat="44.3519" lon="2.85818">
        <ele>793</ele>
        <time>2013-03-06T13:43:38.070Z</time>
      </trkpt>
      <trkpt lat="44.35187" lon="2.85819">
        <ele>793</ele>
        <time>2013-03-06T13:43:39.100Z</time>
      </trkpt>
      <trkpt lat="44.35183" lon="2.85819">
        <ele>793</ele>
        <time>2013-03-06T13:43:40.110Z</time>
      </trkpt>
      <trkpt lat="44.35179" lon="2.85818">
        <ele>793</ele>
        <time>2013-03-06T13:43:41.970Z</time>
      </trkpt>
      <trkpt lat="44.35178" lon="2.85818">
        <ele>793</ele>
        <time>2013-03-06T13:43:42.970Z</time>
      </trkpt>
      <trkpt lat="44.35176" lon="2.85817">
        <ele>793</ele>
        <time>2013-03-06T13:43:44.110Z</time>
      </trkpt>
      <trkpt lat="44.35175" lon="2.85813">
        <ele>793</ele>
        <time>2013-03-06T13:43:46.110Z</time>
      </trkpt>
      <trkpt lat="44.35171" lon="2.8581">
        <ele>794</ele>
        <time>2013-03-06T13:43:48.100Z</time>
      </trkpt>
      <trkpt lat="44.35167" lon="2.85806">
        <ele>798</ele>
        <time>2013-03-06T13:43:50.150Z</time>
      </trkpt>
      <trkpt lat="44.35164" lon="2.85801">
        <ele>799</ele>
        <time>2013-03-06T13:43:52.110Z</time>
      </trkpt>
      <trkpt lat="44.35161" lon="2.85799">
        <ele>799</ele>
        <time>2013-03-06T13:43:53.970Z</time>
      </trkpt>
      <trkpt lat="44.3516" lon="2.85798">
        <ele>799</ele>
        <time>2013-03-06T13:43:57.120Z</time>
      </trkpt>
      <trkpt lat="44.35159" lon="2.85796">
        <ele>800</ele>
        <time>2013-03-06T13:43:58.060Z</time>
      </trkpt>
      <trkpt lat="44.35158" lon="2.85795">
        <ele>800</ele>
        <time>2013-03-06T13:43:59.170Z</time>
      </trkpt>
      <trkpt lat="44.35157" lon="2.85793">
        <ele>800</ele>
        <time>2013-03-06T13:44:00.180Z</time>
      </trkpt>
      <trkpt lat="44.35154" lon="2.85788">
        <ele>801</ele>
        <time>2013-03-06T13:44:02.020Z</time>
      </trkpt>
      <trkpt lat="44.35153" lon="2.85786">
        <ele>801</ele>
        <time>2013-03-06T13:44:03.110Z</time>
      </trkpt>
      <trkpt lat="44.35152" lon="2.85785">
        <ele>801</ele>
        <time>2013-03-06T13:44:04.070Z</time>
      </trkpt>
      <trkpt lat="44.3515" lon="2.85784">
        <ele>802</ele>
        <time>2013-03-06T13:44:05.090Z</time>
      </trkpt>
      <trkpt lat="44.3515" lon="2.85783">
        <ele>802</ele>
        <time>2013-03-06T13:44:06.110Z</time>
      </trkpt>
      <trkpt lat="44.3515" lon="2.85782">
        <ele>802</ele>
        <time>2013-03-06T13:44:08.130Z</time>
      </trkpt>
      <trkpt lat="44.35149" lon="2.85777">
        <ele>803</ele>
        <time>2013-03-06T13:44:10.180Z</time>
      </trkpt>
      <trkpt lat="44.35146" lon="2.85773">
        <ele>803</ele>
        <time>2013-03-06T13:44:11.970Z</time>
      </trkpt>
      <trkpt lat="44.35145" lon="2.85771">
        <ele>803</ele>
        <time>2013-03-06T13:44:12.970Z</time>
      </trkpt>
      <trkpt lat="44.35143" lon="2.85769">
        <ele>804</ele>
        <time>2013-03-06T13:44:14.110Z</time>
      </trkpt>
      <trkpt lat="44.3514" lon="2.85767">
        <ele>804</ele>
        <time>2013-03-06T13:44:15.980Z</time>
      </trkpt>
      <trkpt lat="44.35138" lon="2.85766">
        <ele>804</ele>
        <time>2013-03-06T13:44:16.980Z</time>
      </trkpt>
      <trkpt lat="44.35138" lon="2.85764">
        <ele>804</ele>
        <time>2013-03-06T13:44:18.010Z</time>
      </trkpt>
      <trkpt lat="44.35137" lon="2.85762">
        <ele>804</ele>
        <time>2013-03-06T13:44:19.010Z</time>
      </trkpt>
      <trkpt lat="44.35137" lon="2.85758">
        <ele>804</ele>
        <time>2013-03-06T13:44:22.110Z</time>
      </trkpt>
      <trkpt lat="44.35137" lon="2.85754">
        <ele>805</ele>
        <time>2013-03-06T13:44:24.020Z</time>
      </trkpt>
      <trkpt lat="44.35136" lon="2.85753">
        <ele>805</ele>
        <time>2013-03-06T13:44:25.110Z</time>
      </trkpt>
      <trkpt lat="44.35134" lon="2.85752">
        <ele>804</ele>
        <time>2013-03-06T13:44:28.110Z</time>
      </trkpt>
      <trkpt lat="44.35132" lon="2.85748">
        <ele>816</ele>
        <time>2013-03-06T13:44:30.100Z</time>
      </trkpt>
      <trkpt lat="44.35131" lon="2.85745">
        <ele>816</ele>
        <time>2013-03-06T13:44:32.190Z</time>
      </trkpt>
      <trkpt lat="44.3513" lon="2.85743">
        <ele>816</ele>
        <time>2013-03-06T13:44:33.970Z</time>
      </trkpt>
      <trkpt lat="44.35129" lon="2.85741">
        <ele>816</ele>
        <time>2013-03-06T13:44:35.100Z</time>
      </trkpt>
      <trkpt lat="44.35129" lon="2.8574">
        <ele>816</ele>
        <time>2013-03-06T13:44:36.970Z</time>
      </trkpt>
      <trkpt lat="44.35127" lon="2.85739">
        <ele>816</ele>
        <time>2013-03-06T13:44:40.100Z</time>
      </trkpt>
      <trkpt lat="44.35126" lon="2.85738">
        <ele>816</ele>
        <time>2013-03-06T13:44:41.050Z</time>
      </trkpt>
      <trkpt lat="44.35125" lon="2.85738">
        <ele>816</ele>
        <time>2013-03-06T13:44:42.100Z</time>
      </trkpt>
      <trkpt lat="44.35123" lon="2.85738">
        <ele>817</ele>
        <time>2013-03-06T13:44:43.070Z</time>
      </trkpt>
      <trkpt lat="44.35122" lon="2.85737">
        <ele>817</ele>
        <time>2013-03-06T13:44:43.970Z</time>
      </trkpt>
      <trkpt lat="44.35121" lon="2.85736">
        <ele>817</ele>
        <time>2013-03-06T13:44:45.110Z</time>
      </trkpt>
      <trkpt lat="44.35119" lon="2.85735">
        <ele>817</ele>
        <time>2013-03-06T13:44:47.120Z</time>
      </trkpt>
      <trkpt lat="44.35116" lon="2.85735">
        <ele>817</ele>
        <time>2013-03-06T13:44:49.100Z</time>
      </trkpt>
      <trkpt lat="44.35114" lon="2.85736">
        <ele>817</ele>
        <time>2013-03-06T13:44:50.060Z</time>
      </trkpt>
      <trkpt lat="44.35111" lon="2.85736">
        <ele>817</ele>
        <time>2013-03-06T13:44:52.110Z</time>
      </trkpt>
      <trkpt lat="44.35108" lon="2.85737">
        <ele>817</ele>
        <time>2013-03-06T13:44:53.970Z</time>
      </trkpt>
      <trkpt lat="44.35107" lon="2.85737">
        <ele>816</ele>
        <time>2013-03-06T13:44:54.970Z</time>
      </trkpt>
      <trkpt lat="44.35106" lon="2.85738">
        <ele>816</ele>
        <time>2013-03-06T13:44:57.000Z</time>
      </trkpt>
      <trkpt lat="44.35104" lon="2.85738">
        <ele>816</ele>
        <time>2013-03-06T13:44:59.000Z</time>
      </trkpt>
      <trkpt lat="44.35103" lon="2.85738">
        <ele>816</ele>
        <time>2013-03-06T13:45:00.100Z</time>
      </trkpt>
      <trkpt lat="44.35102" lon="2.85738">
        <ele>816</ele>
        <time>2013-03-06T13:45:01.050Z</time>
      </trkpt>
      <trkpt lat="44.351" lon="2.85738">
        <ele>816</ele>
        <time>2013-03-06T13:45:02.100Z</time>
      </trkpt>
      <trkpt lat="44.35099" lon="2.85738">
        <ele>816</ele>
        <time>2013-03-06T13:45:03.050Z</time>
      </trkpt>
      <trkpt lat="44.35098" lon="2.85737">
        <ele>816</ele>
        <time>2013-03-06T13:45:04.100Z</time>
      </trkpt>
      <trkpt lat="44.35096" lon="2.85737">
        <ele>816</ele>
        <time>2013-03-06T13:45:05.050Z</time>
      </trkpt>
      <trkpt lat="44.35095" lon="2.85736">
        <ele>816</ele>
        <time>2013-03-06T13:45:06.100Z</time>
      </trkpt>
      <trkpt lat="44.35094" lon="2.85735">
        <ele>816</ele>
        <time>2013-03-06T13:45:07.110Z</time>
      </trkpt>
      <trkpt lat="44.3509" lon="2.85736">
        <ele>816</ele>
        <time>2013-03-06T13:45:09.130Z</time>
      </trkpt>
      <trkpt lat="44.35087" lon="2.85736">
        <ele>815</ele>
        <time>2013-03-06T13:45:10.970Z</time>
      </trkpt>
      <trkpt lat="44.35085" lon="2.85735">
        <ele>816</ele>
        <time>2013-03-06T13:45:12.000Z</time>
      </trkpt>
      <trkpt lat="44.35084" lon="2.85735">
        <ele>816</ele>
        <time>2013-03-06T13:45:13.110Z</time>
      </trkpt>
      <trkpt lat="44.35081" lon="2.85734">
        <ele>820</ele>
        <time>2013-03-06T13:45:15.110Z</time>
      </trkpt>
      <trkpt lat="44.3508" lon="2.85734">
        <ele>820</ele>
        <time>2013-03-06T13:45:16.050Z</time>
      </trkpt>
      <trkpt lat="44.35076" lon="2.85734">
        <ele>821</ele>
        <time>2013-03-06T13:45:18.110Z</time>
      </trkpt>
      <trkpt lat="44.35071" lon="2.85733">
        <ele>821</ele>
        <time>2013-03-06T13:45:20.110Z</time>
      </trkpt>
      <trkpt lat="44.35065" lon="2.85734">
        <ele>822</ele>
        <time>2013-03-06T13:45:22.080Z</time>
      </trkpt>
      <trkpt lat="44.35063" lon="2.85734">
        <ele>823</ele>
        <time>2013-03-06T13:45:23.040Z</time>
      </trkpt>
      <trkpt lat="44.35061" lon="2.85735">
        <ele>823</ele>
        <time>2013-03-06T13:45:24.090Z</time>
      </trkpt>
      <trkpt lat="44.3506" lon="2.85736">
        <ele>823</ele>
        <time>2013-03-06T13:45:25.040Z</time>
      </trkpt>
      <trkpt lat="44.35058" lon="2.85737">
        <ele>823</ele>
        <time>2013-03-06T13:45:26.090Z</time>
      </trkpt>
      <trkpt lat="44.35057" lon="2.85737">
        <ele>823</ele>
        <time>2013-03-06T13:45:27.110Z</time>
      </trkpt>
      <trkpt lat="44.35055" lon="2.85739">
        <ele>823</ele>
        <time>2013-03-06T13:45:29.110Z</time>
      </trkpt>
      <trkpt lat="44.35052" lon="2.8574">
        <ele>824</ele>
        <time>2013-03-06T13:45:31.190Z</time>
      </trkpt>
      <trkpt lat="44.35048" lon="2.85742">
        <ele>824</ele>
        <time>2013-03-06T13:45:33.150Z</time>
      </trkpt>
      <trkpt lat="44.35047" lon="2.85743">
        <ele>824</ele>
        <time>2013-03-06T13:45:34.110Z</time>
      </trkpt>
      <trkpt lat="44.35043" lon="2.85745">
        <ele>824</ele>
        <time>2013-03-06T13:45:35.970Z</time>
      </trkpt>
      <trkpt lat="44.35041" lon="2.85745">
        <ele>825</ele>
        <time>2013-03-06T13:45:36.990Z</time>
      </trkpt>
      <trkpt lat="44.3504" lon="2.85745">
        <ele>825</ele>
        <time>2013-03-06T13:45:38.110Z</time>
      </trkpt>
      <trkpt lat="44.35037" lon="2.85747">
        <ele>825</ele>
        <time>2013-03-06T13:45:40.110Z</time>
      </trkpt>
      <trkpt lat="44.35034" lon="2.85749">
        <ele>825</ele>
        <time>2013-03-06T13:45:42.090Z</time>
      </trkpt>
      <trkpt lat="44.35033" lon="2.85751">
        <ele>811</ele>
        <time>2013-03-06T13:45:43.040Z</time>
      </trkpt>
      <trkpt lat="44.35031" lon="2.85752">
        <ele>812</ele>
        <time>2013-03-06T13:45:44.090Z</time>
      </trkpt>
      <trkpt lat="44.35029" lon="2.85754">
        <ele>812</ele>
        <time>2013-03-06T13:45:45.040Z</time>
      </trkpt>
      <trkpt lat="44.35026" lon="2.85755">
        <ele>812</ele>
        <time>2013-03-06T13:45:46.090Z</time>
      </trkpt>
      <trkpt lat="44.35024" lon="2.85755">
        <ele>813</ele>
        <time>2013-03-06T13:45:47.040Z</time>
      </trkpt>
      <trkpt lat="44.3502" lon="2.85755">
        <ele>814</ele>
        <time>2013-03-06T13:45:49.110Z</time>
      </trkpt>
      <trkpt lat="44.35016" lon="2.85755">
        <ele>815</ele>
        <time>2013-03-06T13:45:50.970Z</time>
      </trkpt>
      <trkpt lat="44.35015" lon="2.85755">
        <ele>815</ele>
        <time>2013-03-06T13:45:51.990Z</time>
      </trkpt>
      <trkpt lat="44.35013" lon="2.85755">
        <ele>815</ele>
        <time>2013-03-06T13:45:53.990Z</time>
      </trkpt>
      <trkpt lat="44.35011" lon="2.85755">
        <ele>816</ele>
        <time>2013-03-06T13:45:57.110Z</time>
      </trkpt>
      <trkpt lat="44.3501" lon="2.85756">
        <ele>817</ele>
        <time>2013-03-06T13:46:00.040Z</time>
      </trkpt>
      <trkpt lat="44.35009" lon="2.85756">
        <ele>817</ele>
        <time>2013-03-06T13:46:01.080Z</time>
      </trkpt>
      <trkpt lat="44.35008" lon="2.85756">
        <ele>817</ele>
        <time>2013-03-06T13:46:02.030Z</time>
      </trkpt>
      <trkpt lat="44.35007" lon="2.85756">
        <ele>817</ele>
        <time>2013-03-06T13:46:03.080Z</time>
      </trkpt>
      <trkpt lat="44.35005" lon="2.85757">
        <ele>818</ele>
        <time>2013-03-06T13:46:04.970Z</time>
      </trkpt>
      <trkpt lat="44.35003" lon="2.85758">
        <ele>818</ele>
        <time>2013-03-06T13:46:06.110Z</time>
      </trkpt>
      <trkpt lat="44.34999" lon="2.85758">
        <ele>823</ele>
        <time>2013-03-06T13:46:08.110Z</time>
      </trkpt>
      <trkpt lat="44.34994" lon="2.8576">
        <ele>823</ele>
        <time>2013-03-06T13:46:09.970Z</time>
      </trkpt>
      <trkpt lat="44.34991" lon="2.8576">
        <ele>823</ele>
        <time>2013-03-06T13:46:10.980Z</time>
      </trkpt>
      <trkpt lat="44.34989" lon="2.8576">
        <ele>823</ele>
        <time>2013-03-06T13:46:12.110Z</time>
      </trkpt>
      <trkpt lat="44.34987" lon="2.8576">
        <ele>824</ele>
        <time>2013-03-06T13:46:14.190Z</time>
      </trkpt>
      <trkpt lat="44.34987" lon="2.85758">
        <ele>824</ele>
        <time>2013-03-06T13:46:16.140Z</time>
      </trkpt>
      <trkpt lat="44.34989" lon="2.85758">
        <ele>823</ele>
        <time>2013-03-06T13:46:17.110Z</time>
      </trkpt>
      <trkpt lat="44.34987" lon="2.85759">
        <ele>823</ele>
        <time>2013-03-06T13:46:23.110Z</time>
      </trkpt>
      <trkpt lat="44.34985" lon="2.8576">
        <ele>824</ele>
        <time>2013-03-06T13:46:25.190Z</time>
      </trkpt>
      <trkpt lat="44.34982" lon="2.85761">
        <ele>824</ele>
        <time>2013-03-06T13:46:27.060Z</time>
      </trkpt>
      <trkpt lat="44.34981" lon="2.85761">
        <ele>824</ele>
        <time>2013-03-06T13:46:28.050Z</time>
      </trkpt>
      <trkpt lat="44.3498" lon="2.8576">
        <ele>824</ele>
        <time>2013-03-06T13:46:30.030Z</time>
      </trkpt>
      <trkpt lat="44.34979" lon="2.8576">
        <ele>824</ele>
        <time>2013-03-06T13:46:30.970Z</time>
      </trkpt>
      <trkpt lat="44.34978" lon="2.8576">
        <ele>824</ele>
        <time>2013-03-06T13:46:32.110Z</time>
      </trkpt>
      <trkpt lat="44.34976" lon="2.8576">
        <ele>825</ele>
        <time>2013-03-06T13:46:33.970Z</time>
      </trkpt>
      <trkpt lat="44.34976" lon="2.85759">
        <ele>825</ele>
        <time>2013-03-06T13:46:38.080Z</time>
      </trkpt>
      <trkpt lat="44.34979" lon="2.85756">
        <ele>824</ele>
        <time>2013-03-06T13:46:40.060Z</time>
      </trkpt>
      <trkpt lat="44.34981" lon="2.85755">
        <ele>824</ele>
        <time>2013-03-06T13:46:41.970Z</time>
      </trkpt>
      <trkpt lat="44.34981" lon="2.85754">
        <ele>824</ele>
        <time>2013-03-06T13:46:42.970Z</time>
      </trkpt>
      <trkpt lat="44.34979" lon="2.85754">
        <ele>824</ele>
        <time>2013-03-06T13:46:46.110Z</time>
      </trkpt>
      <trkpt lat="44.34977" lon="2.85753">
        <ele>825</ele>
        <time>2013-03-06T13:46:48.110Z</time>
      </trkpt>
      <trkpt lat="44.34975" lon="2.85755">
        <ele>825</ele>
        <time>2013-03-06T13:46:50.170Z</time>
      </trkpt>
      <trkpt lat="44.34973" lon="2.85757">
        <ele>825</ele>
        <time>2013-03-06T13:46:52.070Z</time>
      </trkpt>
      <trkpt lat="44.34971" lon="2.85757">
        <ele>825</ele>
        <time>2013-03-06T13:46:55.020Z</time>
      </trkpt>
      <trkpt lat="44.3497" lon="2.85757">
        <ele>826</ele>
        <time>2013-03-06T13:46:56.970Z</time>
      </trkpt>
      <trkpt lat="44.3497" lon="2.85757">
        <ele>825</ele>
        <time>2013-03-06T13:47:00.970Z</time>
      </trkpt>
      <trkpt lat="44.34969" lon="2.8576">
        <ele>826</ele>
        <time>2013-03-06T13:47:07.970Z</time>
      </trkpt>
      <trkpt lat="44.34968" lon="2.85762">
        <ele>826</ele>
        <time>2013-03-06T13:47:09.970Z</time>
      </trkpt>
      <trkpt lat="44.34967" lon="2.85763">
        <ele>826</ele>
        <time>2013-03-06T13:47:11.070Z</time>
      </trkpt>
      <trkpt lat="44.34966" lon="2.85763">
        <ele>826</ele>
        <time>2013-03-06T13:47:15.040Z</time>
      </trkpt>
      <trkpt lat="44.34964" lon="2.85765">
        <ele>826</ele>
        <time>2013-03-06T13:47:20.970Z</time>
      </trkpt>
      <trkpt lat="44.34965" lon="2.85763">
        <ele>826</ele>
        <time>2013-03-06T13:47:24.060Z</time>
      </trkpt>
      <trkpt lat="44.34964" lon="2.85761">
        <ele>826</ele>
        <time>2013-03-06T13:47:29.060Z</time>
      </trkpt>
      <trkpt lat="44.34963" lon="2.8576">
        <ele>826</ele>
        <time>2013-03-06T13:47:30.030Z</time>
      </trkpt>
      <trkpt lat="44.34963" lon="2.85759">
        <ele>827</ele>
        <time>2013-03-06T13:47:32.980Z</time>
      </trkpt>
      <trkpt lat="44.34962" lon="2.85757">
        <ele>827</ele>
        <time>2013-03-06T13:47:33.970Z</time>
      </trkpt>
      <trkpt lat="44.34962" lon="2.85756">
        <ele>827</ele>
        <time>2013-03-06T13:47:35.060Z</time>
      </trkpt>
      <trkpt lat="44.34961" lon="2.85755">
        <ele>827</ele>
        <time>2013-03-06T13:47:37.970Z</time>
      </trkpt>
      <trkpt lat="44.3496" lon="2.85755">
        <ele>827</ele>
        <time>2013-03-06T13:47:39.970Z</time>
      </trkpt>
      <trkpt lat="44.34958" lon="2.85754">
        <ele>827</ele>
        <time>2013-03-06T13:47:41.060Z</time>
      </trkpt>
      <trkpt lat="44.34957" lon="2.85752">
        <ele>828</ele>
        <time>2013-03-06T13:47:41.970Z</time>
      </trkpt>
      <trkpt lat="44.34957" lon="2.85751">
        <ele>828</ele>
        <time>2013-03-06T13:47:43.060Z</time>
      </trkpt>
      <trkpt lat="44.34957" lon="2.85749">
        <ele>837</ele>
        <time>2013-03-06T13:47:43.970Z</time>
      </trkpt>
      <trkpt lat="44.34956" lon="2.85749">
        <ele>837</ele>
        <time>2013-03-06T13:47:45.060Z</time>
      </trkpt>
      <trkpt lat="44.34955" lon="2.85748">
        <ele>837</ele>
        <time>2013-03-06T13:47:46.060Z</time>
      </trkpt>
      <trkpt lat="44.34953" lon="2.85749">
        <ele>838</ele>
        <time>2013-03-06T13:47:47.020Z</time>
      </trkpt>
      <trkpt lat="44.34951" lon="2.85749">
        <ele>838</ele>
        <time>2013-03-06T13:47:48.060Z</time>
      </trkpt>
      <trkpt lat="44.34949" lon="2.8575">
        <ele>829</ele>
        <time>2013-03-06T13:47:49.010Z</time>
      </trkpt>
      <trkpt lat="44.34947" lon="2.85752">
        <ele>829</ele>
        <time>2013-03-06T13:47:50.070Z</time>
      </trkpt>
      <trkpt lat="44.34944" lon="2.85753">
        <ele>830</ele>
        <time>2013-03-06T13:47:51.130Z</time>
      </trkpt>
      <trkpt lat="44.34939" lon="2.85757">
        <ele>831</ele>
        <time>2013-03-06T13:47:52.970Z</time>
      </trkpt>
      <trkpt lat="44.34936" lon="2.85758">
        <ele>832</ele>
        <time>2013-03-06T13:47:54.060Z</time>
      </trkpt>
      <trkpt lat="44.34933" lon="2.85761">
        <ele>832</ele>
        <time>2013-03-06T13:47:54.970Z</time>
      </trkpt>
      <trkpt lat="44.34932" lon="2.85764">
        <ele>832</ele>
        <time>2013-03-06T13:47:56.060Z</time>
      </trkpt>
      <trkpt lat="44.3493" lon="2.85765">
        <ele>832</ele>
        <time>2013-03-06T13:47:56.970Z</time>
      </trkpt>
      <trkpt lat="44.34929" lon="2.85766">
        <ele>832</ele>
        <time>2013-03-06T13:47:58.060Z</time>
      </trkpt>
      <trkpt lat="44.34927" lon="2.85768">
        <ele>832</ele>
        <time>2013-03-06T13:47:59.010Z</time>
      </trkpt>
      <trkpt lat="44.34925" lon="2.85771">
        <ele>832</ele>
        <time>2013-03-06T13:47:59.970Z</time>
      </trkpt>
      <trkpt lat="44.34924" lon="2.85773">
        <ele>832</ele>
        <time>2013-03-06T13:48:01.050Z</time>
      </trkpt>
      <trkpt lat="44.34922" lon="2.85775">
        <ele>831</ele>
        <time>2013-03-06T13:48:01.970Z</time>
      </trkpt>
      <trkpt lat="44.34921" lon="2.85777">
        <ele>831</ele>
        <time>2013-03-06T13:48:03.050Z</time>
      </trkpt>
      <trkpt lat="44.3492" lon="2.8578">
        <ele>831</ele>
        <time>2013-03-06T13:48:04.000Z</time>
      </trkpt>
      <trkpt lat="44.34918" lon="2.85783">
        <ele>831</ele>
        <time>2013-03-06T13:48:04.970Z</time>
      </trkpt>
      <trkpt lat="44.34918" lon="2.85787">
        <ele>830</ele>
        <time>2013-03-06T13:48:06.110Z</time>
      </trkpt>
      <trkpt lat="44.34916" lon="2.85796">
        <ele>846</ele>
        <time>2013-03-06T13:48:07.970Z</time>
      </trkpt>
      <trkpt lat="44.34916" lon="2.85799">
        <ele>846</ele>
        <time>2013-03-06T13:48:09.050Z</time>
      </trkpt>
      <trkpt lat="44.34916" lon="2.85803">
        <ele>846</ele>
        <time>2013-03-06T13:48:09.970Z</time>
      </trkpt>
      <trkpt lat="44.34916" lon="2.85806">
        <ele>845</ele>
        <time>2013-03-06T13:48:10.990Z</time>
      </trkpt>
      <trkpt lat="44.34917" lon="2.85809">
        <ele>845</ele>
        <time>2013-03-06T13:48:12.030Z</time>
      </trkpt>
      <trkpt lat="44.34917" lon="2.85812">
        <ele>831</ele>
        <time>2013-03-06T13:48:13.000Z</time>
      </trkpt>
      <trkpt lat="44.34918" lon="2.85815">
        <ele>831</ele>
        <time>2013-03-06T13:48:14.050Z</time>
      </trkpt>
      <trkpt lat="44.34919" lon="2.85819">
        <ele>832</ele>
        <time>2013-03-06T13:48:14.990Z</time>
      </trkpt>
      <trkpt lat="44.34921" lon="2.85823">
        <ele>832</ele>
        <time>2013-03-06T13:48:16.010Z</time>
      </trkpt>
      <trkpt lat="44.34921" lon="2.85826">
        <ele>833</ele>
        <time>2013-03-06T13:48:16.970Z</time>
      </trkpt>
      <trkpt lat="44.34922" lon="2.85829">
        <ele>833</ele>
        <time>2013-03-06T13:48:18.050Z</time>
      </trkpt>
      <trkpt lat="44.34922" lon="2.85832">
        <ele>834</ele>
        <time>2013-03-06T13:48:19.000Z</time>
      </trkpt>
      <trkpt lat="44.34923" lon="2.85835">
        <ele>833</ele>
        <time>2013-03-06T13:48:20.050Z</time>
      </trkpt>
      <trkpt lat="44.34923" lon="2.85838">
        <ele>832</ele>
        <time>2013-03-06T13:48:21.000Z</time>
      </trkpt>
      <trkpt lat="44.34925" lon="2.85841">
        <ele>831</ele>
        <time>2013-03-06T13:48:22.050Z</time>
      </trkpt>
      <trkpt lat="44.34926" lon="2.85845">
        <ele>830</ele>
        <time>2013-03-06T13:48:23.000Z</time>
      </trkpt>
      <trkpt lat="44.34928" lon="2.85852">
        <ele>829</ele>
        <time>2013-03-06T13:48:25.110Z</time>
      </trkpt>
      <trkpt lat="44.34931" lon="2.85858">
        <ele>828</ele>
        <time>2013-03-06T13:48:26.970Z</time>
      </trkpt>
      <trkpt lat="44.34933" lon="2.85862">
        <ele>827</ele>
        <time>2013-03-06T13:48:28.050Z</time>
      </trkpt>
      <trkpt lat="44.34934" lon="2.85865">
        <ele>827</ele>
        <time>2013-03-06T13:48:28.970Z</time>
      </trkpt>
      <trkpt lat="44.34935" lon="2.85868">
        <ele>827</ele>
        <time>2013-03-06T13:48:29.970Z</time>
      </trkpt>
      <trkpt lat="44.34935" lon="2.85872">
        <ele>827</ele>
        <time>2013-03-06T13:48:31.110Z</time>
      </trkpt>
      <trkpt lat="44.34935" lon="2.85875">
        <ele>827</ele>
        <time>2013-03-06T13:48:32.150Z</time>
      </trkpt>
      <trkpt lat="44.34935" lon="2.85878">
        <ele>827</ele>
        <time>2013-03-06T13:48:33.110Z</time>
      </trkpt>
      <trkpt lat="44.34935" lon="2.85884">
        <ele>827</ele>
        <time>2013-03-06T13:48:35.120Z</time>
      </trkpt>
      <trkpt lat="44.34936" lon="2.85888">
        <ele>828</ele>
        <time>2013-03-06T13:48:37.110Z</time>
      </trkpt>
      <trkpt lat="44.34937" lon="2.85892">
        <ele>828</ele>
        <time>2013-03-06T13:48:38.150Z</time>
      </trkpt>
      <trkpt lat="44.34937" lon="2.85895">
        <ele>828</ele>
        <time>2013-03-06T13:48:39.110Z</time>
      </trkpt>
      <trkpt lat="44.34938" lon="2.85897">
        <ele>829</ele>
        <time>2013-03-06T13:48:40.140Z</time>
      </trkpt>
      <trkpt lat="44.34938" lon="2.859">
        <ele>829</ele>
        <time>2013-03-06T13:48:41.100Z</time>
      </trkpt>
      <trkpt lat="44.34939" lon="2.85903">
        <ele>829</ele>
        <time>2013-03-06T13:48:42.140Z</time>
      </trkpt>
      <trkpt lat="44.34939" lon="2.85905">
        <ele>829</ele>
        <time>2013-03-06T13:48:43.110Z</time>
      </trkpt>
      <trkpt lat="44.34938" lon="2.85907">
        <ele>830</ele>
        <time>2013-03-06T13:48:44.140Z</time>
      </trkpt>
      <trkpt lat="44.34939" lon="2.85909">
        <ele>830</ele>
        <time>2013-03-06T13:48:45.090Z</time>
      </trkpt>
      <trkpt lat="44.34938" lon="2.8591">
        <ele>830</ele>
        <time>2013-03-06T13:48:46.140Z</time>
      </trkpt>
      <trkpt lat="44.34937" lon="2.85912">
        <ele>831</ele>
        <time>2013-03-06T13:48:47.090Z</time>
      </trkpt>
      <trkpt lat="44.34936" lon="2.85914">
        <ele>832</ele>
        <time>2013-03-06T13:48:48.140Z</time>
      </trkpt>
      <trkpt lat="44.34935" lon="2.85916">
        <ele>832</ele>
        <time>2013-03-06T13:48:49.080Z</time>
      </trkpt>
      <trkpt lat="44.34933" lon="2.8592">
        <ele>834</ele>
        <time>2013-03-06T13:48:51.110Z</time>
      </trkpt>
      <trkpt lat="44.34933" lon="2.85922">
        <ele>834</ele>
        <time>2013-03-06T13:48:53.090Z</time>
      </trkpt>
      <trkpt lat="44.34932" lon="2.85926">
        <ele>833</ele>
        <time>2013-03-06T13:48:55.090Z</time>
      </trkpt>
      <trkpt lat="44.34931" lon="2.85928">
        <ele>833</ele>
        <time>2013-03-06T13:48:56.140Z</time>
      </trkpt>
      <trkpt lat="44.3493" lon="2.8593">
        <ele>833</ele>
        <time>2013-03-06T13:48:57.090Z</time>
      </trkpt>
      <trkpt lat="44.34928" lon="2.85932">
        <ele>833</ele>
        <time>2013-03-06T13:48:58.140Z</time>
      </trkpt>
      <trkpt lat="44.34928" lon="2.85934">
        <ele>833</ele>
        <time>2013-03-06T13:48:59.170Z</time>
      </trkpt>
      <trkpt lat="44.34926" lon="2.85938">
        <ele>832</ele>
        <time>2013-03-06T13:49:01.140Z</time>
      </trkpt>
      <trkpt lat="44.34925" lon="2.8594">
        <ele>832</ele>
        <time>2013-03-06T13:49:02.090Z</time>
      </trkpt>
      <trkpt lat="44.34924" lon="2.85943">
        <ele>832</ele>
        <time>2013-03-06T13:49:03.140Z</time>
      </trkpt>
      <trkpt lat="44.34923" lon="2.85945">
        <ele>831</ele>
        <time>2013-03-06T13:49:04.090Z</time>
      </trkpt>
      <trkpt lat="44.34922" lon="2.85946">
        <ele>831</ele>
        <time>2013-03-06T13:49:05.140Z</time>
      </trkpt>
      <trkpt lat="44.34921" lon="2.85947">
        <ele>831</ele>
        <time>2013-03-06T13:49:06.080Z</time>
      </trkpt>
      <trkpt lat="44.3492" lon="2.8595">
        <ele>831</ele>
        <time>2013-03-06T13:49:08.090Z</time>
      </trkpt>
      <trkpt lat="44.34919" lon="2.85952">
        <ele>831</ele>
        <time>2013-03-06T13:49:09.140Z</time>
      </trkpt>
      <trkpt lat="44.34919" lon="2.85954">
        <ele>831</ele>
        <time>2013-03-06T13:49:10.090Z</time>
      </trkpt>
      <trkpt lat="44.34919" lon="2.85957">
        <ele>830</ele>
        <time>2013-03-06T13:49:11.150Z</time>
      </trkpt>
      <trkpt lat="44.34916" lon="2.85961">
        <ele>851</ele>
        <time>2013-03-06T13:49:13.140Z</time>
      </trkpt>
      <trkpt lat="44.34915" lon="2.85963">
        <ele>850</ele>
        <time>2013-03-06T13:49:14.050Z</time>
      </trkpt>
      <trkpt lat="44.34915" lon="2.85966">
        <ele>850</ele>
        <time>2013-03-06T13:49:15.140Z</time>
      </trkpt>
      <trkpt lat="44.34915" lon="2.85968">
        <ele>850</ele>
        <time>2013-03-06T13:49:16.100Z</time>
      </trkpt>
      <trkpt lat="44.34915" lon="2.8597">
        <ele>850</ele>
        <time>2013-03-06T13:49:18.110Z</time>
      </trkpt>
      <trkpt lat="44.34914" lon="2.85974">
        <ele>849</ele>
        <time>2013-03-06T13:49:20.090Z</time>
      </trkpt>
      <trkpt lat="44.34913" lon="2.85976">
        <ele>849</ele>
        <time>2013-03-06T13:49:21.130Z</time>
      </trkpt>
      <trkpt lat="44.34912" lon="2.85978">
        <ele>848</ele>
        <time>2013-03-06T13:49:22.090Z</time>
      </trkpt>
      <trkpt lat="44.34912" lon="2.8598">
        <ele>848</ele>
        <time>2013-03-06T13:49:23.140Z</time>
      </trkpt>
      <trkpt lat="44.34909" lon="2.85983">
        <ele>848</ele>
        <time>2013-03-06T13:49:25.130Z</time>
      </trkpt>
      <trkpt lat="44.34908" lon="2.85985">
        <ele>847</ele>
        <time>2013-03-06T13:49:26.100Z</time>
      </trkpt>
      <trkpt lat="44.34907" lon="2.85988">
        <ele>847</ele>
        <time>2013-03-06T13:49:27.130Z</time>
      </trkpt>
      <trkpt lat="44.34906" lon="2.8599">
        <ele>846</ele>
        <time>2013-03-06T13:49:28.090Z</time>
      </trkpt>
      <trkpt lat="44.34905" lon="2.85993">
        <ele>846</ele>
        <time>2013-03-06T13:49:29.130Z</time>
      </trkpt>
      <trkpt lat="44.34904" lon="2.85996">
        <ele>846</ele>
        <time>2013-03-06T13:49:30.080Z</time>
      </trkpt>
      <trkpt lat="44.34904" lon="2.85998">
        <ele>846</ele>
        <time>2013-03-06T13:49:31.130Z</time>
      </trkpt>
      <trkpt lat="44.34903" lon="2.86003">
        <ele>843</ele>
        <time>2013-03-06T13:49:33.090Z</time>
      </trkpt>
      <trkpt lat="44.34901" lon="2.86005">
        <ele>843</ele>
        <time>2013-03-06T13:49:34.080Z</time>
      </trkpt>
      <trkpt lat="44.34901" lon="2.86006">
        <ele>843</ele>
        <time>2013-03-06T13:49:35.130Z</time>
      </trkpt>
      <trkpt lat="44.34901" lon="2.86007">
        <ele>843</ele>
        <time>2013-03-06T13:49:36.080Z</time>
      </trkpt>
      <trkpt lat="44.34902" lon="2.86008">
        <ele>843</ele>
        <time>2013-03-06T13:49:40.040Z</time>
      </trkpt>
      <trkpt lat="44.34902" lon="2.8601">
        <ele>843</ele>
        <time>2013-03-06T13:49:41.130Z</time>
      </trkpt>
      <trkpt lat="44.34901" lon="2.86011">
        <ele>843</ele>
        <time>2013-03-06T13:49:42.080Z</time>
      </trkpt>
      <trkpt lat="44.349" lon="2.86016">
        <ele>844</ele>
        <time>2013-03-06T13:49:44.110Z</time>
      </trkpt>
      <trkpt lat="44.34897" lon="2.86019">
        <ele>845</ele>
        <time>2013-03-06T13:49:46.030Z</time>
      </trkpt>
      <trkpt lat="44.34896" lon="2.86021">
        <ele>845</ele>
        <time>2013-03-06T13:49:47.000Z</time>
      </trkpt>
      <trkpt lat="44.34895" lon="2.86023">
        <ele>845</ele>
        <time>2013-03-06T13:49:48.030Z</time>
      </trkpt>
      <trkpt lat="44.34894" lon="2.86025">
        <ele>845</ele>
        <time>2013-03-06T13:49:49.090Z</time>
      </trkpt>
      <trkpt lat="44.34893" lon="2.86028">
        <ele>845</ele>
        <time>2013-03-06T13:49:50.140Z</time>
      </trkpt>
      <trkpt lat="44.34891" lon="2.8603">
        <ele>845</ele>
        <time>2013-03-06T13:49:51.130Z</time>
      </trkpt>
      <trkpt lat="44.34889" lon="2.86034">
        <ele>846</ele>
        <time>2013-03-06T13:49:53.030Z</time>
      </trkpt>
      <trkpt lat="44.34887" lon="2.86036">
        <ele>846</ele>
        <time>2013-03-06T13:49:54.080Z</time>
      </trkpt>
      <trkpt lat="44.34886" lon="2.86038">
        <ele>846</ele>
        <time>2013-03-06T13:49:55.130Z</time>
      </trkpt>
      <trkpt lat="44.34886" lon="2.86039">
        <ele>846</ele>
        <time>2013-03-06T13:49:56.070Z</time>
      </trkpt>
      <trkpt lat="44.34886" lon="2.8604">
        <ele>846</ele>
        <time>2013-03-06T13:49:59.180Z</time>
      </trkpt>
      <trkpt lat="44.34887" lon="2.8604">
        <ele>846</ele>
        <time>2013-03-06T13:50:00.190Z</time>
      </trkpt>
      <trkpt lat="44.34888" lon="2.8604">
        <ele>845</ele>
        <time>2013-03-06T13:50:04.020Z</time>
      </trkpt>
      <trkpt lat="44.34887" lon="2.86041">
        <ele>846</ele>
        <time>2013-03-06T13:50:05.970Z</time>
      </trkpt>
      <trkpt lat="44.34886" lon="2.86041">
        <ele>846</ele>
        <time>2013-03-06T13:50:06.970Z</time>
      </trkpt>
      <trkpt lat="44.34885" lon="2.8604">
        <ele>846</ele>
        <time>2013-03-06T13:50:08.970Z</time>
      </trkpt>
      <trkpt lat="44.34884" lon="2.86039">
        <ele>846</ele>
        <time>2013-03-06T13:50:09.970Z</time>
      </trkpt>
      <trkpt lat="44.34882" lon="2.86041">
        <ele>846</ele>
        <time>2013-03-06T13:50:18.070Z</time>
      </trkpt>
      <trkpt lat="44.3488" lon="2.86043">
        <ele>846</ele>
        <time>2013-03-06T13:50:19.120Z</time>
      </trkpt>
      <trkpt lat="44.34878" lon="2.86044">
        <ele>847</ele>
        <time>2013-03-06T13:50:20.080Z</time>
      </trkpt>
      <trkpt lat="44.34876" lon="2.86046">
        <ele>847</ele>
        <time>2013-03-06T13:50:21.020Z</time>
      </trkpt>
      <trkpt lat="44.34875" lon="2.86048">
        <ele>847</ele>
        <time>2013-03-06T13:50:21.970Z</time>
      </trkpt>
      <trkpt lat="44.34874" lon="2.86051">
        <ele>847</ele>
        <time>2013-03-06T13:50:22.970Z</time>
      </trkpt>
      <trkpt lat="44.34873" lon="2.86053">
        <ele>847</ele>
        <time>2013-03-06T13:50:23.970Z</time>
      </trkpt>
      <trkpt lat="44.34872" lon="2.86054">
        <ele>847</ele>
        <time>2013-03-06T13:50:25.080Z</time>
      </trkpt>
      <trkpt lat="44.34869" lon="2.86058">
        <ele>847</ele>
        <time>2013-03-06T13:50:26.990Z</time>
      </trkpt>
      <trkpt lat="44.34868" lon="2.86059">
        <ele>847</ele>
        <time>2013-03-06T13:50:28.020Z</time>
      </trkpt>
      <trkpt lat="44.34867" lon="2.8606">
        <ele>847</ele>
        <time>2013-03-06T13:50:29.000Z</time>
      </trkpt>
      <trkpt lat="44.34866" lon="2.86062">
        <ele>847</ele>
        <time>2013-03-06T13:50:30.180Z</time>
      </trkpt>
      <trkpt lat="44.34864" lon="2.86064">
        <ele>847</ele>
        <time>2013-03-06T13:50:32.120Z</time>
      </trkpt>
      <trkpt lat="44.34861" lon="2.86067">
        <ele>847</ele>
        <time>2013-03-06T13:50:33.970Z</time>
      </trkpt>
      <trkpt lat="44.3486" lon="2.86068">
        <ele>847</ele>
        <time>2013-03-06T13:50:34.970Z</time>
      </trkpt>
      <trkpt lat="44.34859" lon="2.8607">
        <ele>848</ele>
        <time>2013-03-06T13:50:36.110Z</time>
      </trkpt>
      <trkpt lat="44.34858" lon="2.86072">
        <ele>848</ele>
        <time>2013-03-06T13:50:38.110Z</time>
      </trkpt>
      <trkpt lat="44.34857" lon="2.86074">
        <ele>848</ele>
        <time>2013-03-06T13:50:39.970Z</time>
      </trkpt>
      <trkpt lat="44.34856" lon="2.86075">
        <ele>848</ele>
        <time>2013-03-06T13:50:46.060Z</time>
      </trkpt>
      <trkpt lat="44.34854" lon="2.86075">
        <ele>848</ele>
        <time>2013-03-06T13:50:46.970Z</time>
      </trkpt>
      <trkpt lat="44.34852" lon="2.86076">
        <ele>848</ele>
        <time>2013-03-06T13:50:48.110Z</time>
      </trkpt>
      <trkpt lat="44.34849" lon="2.86077">
        <ele>848</ele>
        <time>2013-03-06T13:50:50.140Z</time>
      </trkpt>
      <trkpt lat="44.34847" lon="2.86078">
        <ele>849</ele>
        <time>2013-03-06T13:50:51.970Z</time>
      </trkpt>
      <trkpt lat="44.34846" lon="2.86079">
        <ele>849</ele>
        <time>2013-03-06T13:50:54.110Z</time>
      </trkpt>
      <trkpt lat="44.34845" lon="2.86081">
        <ele>849</ele>
        <time>2013-03-06T13:50:56.110Z</time>
      </trkpt>
      <trkpt lat="44.34843" lon="2.86083">
        <ele>849</ele>
        <time>2013-03-06T13:50:58.110Z</time>
      </trkpt>
      <trkpt lat="44.34842" lon="2.86083">
        <ele>849</ele>
        <time>2013-03-06T13:50:59.970Z</time>
      </trkpt>
      <trkpt lat="44.34841" lon="2.86084">
        <ele>845</ele>
        <time>2013-03-06T13:51:02.110Z</time>
      </trkpt>
      <trkpt lat="44.3484" lon="2.86086">
        <ele>845</ele>
        <time>2013-03-06T13:51:04.120Z</time>
      </trkpt>
      <trkpt lat="44.34839" lon="2.86087">
        <ele>845</ele>
        <time>2013-03-06T13:51:05.970Z</time>
      </trkpt>
      <trkpt lat="44.34839" lon="2.86086">
        <ele>846</ele>
        <time>2013-03-06T13:51:08.110Z</time>
      </trkpt>
      <trkpt lat="44.3484" lon="2.86085">
        <ele>845</ele>
        <time>2013-03-06T13:51:10.110Z</time>
      </trkpt>
      <trkpt lat="44.3484" lon="2.86086">
        <ele>845</ele>
        <time>2013-03-06T13:51:12.110Z</time>
      </trkpt>
      <trkpt lat="44.3484" lon="2.86088">
        <ele>844</ele>
        <time>2013-03-06T13:51:13.970Z</time>
      </trkpt>
      <trkpt lat="44.3484" lon="2.8609">
        <ele>844</ele>
        <time>2013-03-06T13:51:15.120Z</time>
      </trkpt>
      <trkpt lat="44.34839" lon="2.86092">
        <ele>843</ele>
        <time>2013-03-06T13:51:16.970Z</time>
      </trkpt>
      <trkpt lat="44.34838" lon="2.86093">
        <ele>843</ele>
        <time>2013-03-06T13:51:17.970Z</time>
      </trkpt>
      <trkpt lat="44.34839" lon="2.86096">
        <ele>842</ele>
        <time>2013-03-06T13:51:21.110Z</time>
      </trkpt>
      <trkpt lat="44.34839" lon="2.86098">
        <ele>841</ele>
        <time>2013-03-06T13:51:23.080Z</time>
      </trkpt>
      <trkpt lat="44.34838" lon="2.86101">
        <ele>840</ele>
        <time>2013-03-06T13:51:25.080Z</time>
      </trkpt>
      <trkpt lat="44.34837" lon="2.86105">
        <ele>838</ele>
        <time>2013-03-06T13:51:27.070Z</time>
      </trkpt>
      <trkpt lat="44.34837" lon="2.86106">
        <ele>838</ele>
        <time>2013-03-06T13:51:28.100Z</time>
      </trkpt>
      <trkpt lat="44.34838" lon="2.86109">
        <ele>837</ele>
        <time>2013-03-06T13:51:29.060Z</time>
      </trkpt>
      <trkpt lat="44.34838" lon="2.86111">
        <ele>836</ele>
        <time>2013-03-06T13:51:29.970Z</time>
      </trkpt>
      <trkpt lat="44.34838" lon="2.86113">
        <ele>836</ele>
        <time>2013-03-06T13:51:31.110Z</time>
      </trkpt>
      <trkpt lat="44.34837" lon="2.86114">
        <ele>836</ele>
        <time>2013-03-06T13:51:33.150Z</time>
      </trkpt>
      <trkpt lat="44.34836" lon="2.86116">
        <ele>835</ele>
        <time>2013-03-06T13:51:39.100Z</time>
      </trkpt>
      <trkpt lat="44.34836" lon="2.86117">
        <ele>835</ele>
        <time>2013-03-06T13:51:40.050Z</time>
      </trkpt>
      <trkpt lat="44.34838" lon="2.86119">
        <ele>834</ele>
        <time>2013-03-06T13:51:42.050Z</time>
      </trkpt>
      <trkpt lat="44.34838" lon="2.86121">
        <ele>834</ele>
        <time>2013-03-06T13:51:44.040Z</time>
      </trkpt>
      <trkpt lat="44.34838" lon="2.86122">
        <ele>834</ele>
        <time>2013-03-06T13:51:45.100Z</time>
      </trkpt>
      <trkpt lat="44.34838" lon="2.86125">
        <ele>833</ele>
        <time>2013-03-06T13:51:46.010Z</time>
      </trkpt>
      <trkpt lat="44.34838" lon="2.86129">
        <ele>832</ele>
        <time>2013-03-06T13:51:47.100Z</time>
      </trkpt>
      <trkpt lat="44.34839" lon="2.86132">
        <ele>832</ele>
        <time>2013-03-06T13:51:48.050Z</time>
      </trkpt>
      <trkpt lat="44.34838" lon="2.86135">
        <ele>831</ele>
        <time>2013-03-06T13:51:49.100Z</time>
      </trkpt>
      <trkpt lat="44.34837" lon="2.86138">
        <ele>831</ele>
        <time>2013-03-06T13:51:50.060Z</time>
      </trkpt>
      <trkpt lat="44.34839" lon="2.86142">
        <ele>830</ele>
        <time>2013-03-06T13:51:52.100Z</time>
      </trkpt>
      <trkpt lat="44.34839" lon="2.86147">
        <ele>830</ele>
        <time>2013-03-06T13:51:53.970Z</time>
      </trkpt>
      <trkpt lat="44.3484" lon="2.86148">
        <ele>829</ele>
        <time>2013-03-06T13:51:56.110Z</time>
      </trkpt>
      <trkpt lat="44.34841" lon="2.86151">
        <ele>829</ele>
        <time>2013-03-06T13:51:58.130Z</time>
      </trkpt>
      <trkpt lat="44.34841" lon="2.86153">
        <ele>829</ele>
        <time>2013-03-06T13:51:59.090Z</time>
      </trkpt>
      <trkpt lat="44.34841" lon="2.86156">
        <ele>828</ele>
        <time>2013-03-06T13:52:01.080Z</time>
      </trkpt>
      <trkpt lat="44.34842" lon="2.86158">
        <ele>828</ele>
        <time>2013-03-06T13:52:03.150Z</time>
      </trkpt>
      <trkpt lat="44.34843" lon="2.86162">
        <ele>828</ele>
        <time>2013-03-06T13:52:05.100Z</time>
      </trkpt>
      <trkpt lat="44.34843" lon="2.86166">
        <ele>828</ele>
        <time>2013-03-06T13:52:07.110Z</time>
      </trkpt>
      <trkpt lat="44.34841" lon="2.8617">
        <ele>822</ele>
        <time>2013-03-06T13:52:09.090Z</time>
      </trkpt>
      <trkpt lat="44.3484" lon="2.86171">
        <ele>822</ele>
        <time>2013-03-06T13:52:10.050Z</time>
      </trkpt>
      <trkpt lat="44.34838" lon="2.86173">
        <ele>822</ele>
        <time>2013-03-06T13:52:11.090Z</time>
      </trkpt>
      <trkpt lat="44.34838" lon="2.86174">
        <ele>822</ele>
        <time>2013-03-06T13:52:12.060Z</time>
      </trkpt>
      <trkpt lat="44.34839" lon="2.86175">
        <ele>821</ele>
        <time>2013-03-06T13:52:14.040Z</time>
      </trkpt>
      <trkpt lat="44.3484" lon="2.86179">
        <ele>819</ele>
        <time>2013-03-06T13:52:16.170Z</time>
      </trkpt>
      <trkpt lat="44.34841" lon="2.86183">
        <ele>818</ele>
        <time>2013-03-06T13:52:18.090Z</time>
      </trkpt>
      <trkpt lat="44.34841" lon="2.86185">
        <ele>817</ele>
        <time>2013-03-06T13:52:19.970Z</time>
      </trkpt>
      <trkpt lat="44.34841" lon="2.86186">
        <ele>817</ele>
        <time>2013-03-06T13:52:21.030Z</time>
      </trkpt>
      <trkpt lat="44.3484" lon="2.86188">
        <ele>816</ele>
        <time>2013-03-06T13:52:22.090Z</time>
      </trkpt>
      <trkpt lat="44.3484" lon="2.86189">
        <ele>816</ele>
        <time>2013-03-06T13:52:23.000Z</time>
      </trkpt>
      <trkpt lat="44.3484" lon="2.86192">
        <ele>815</ele>
        <time>2013-03-06T13:52:25.050Z</time>
      </trkpt>
      <trkpt lat="44.3484" lon="2.86194">
        <ele>815</ele>
        <time>2013-03-06T13:52:27.110Z</time>
      </trkpt>
      <trkpt lat="44.34842" lon="2.86193">
        <ele>815</ele>
        <time>2013-03-06T13:52:35.080Z</time>
      </trkpt>
      <trkpt lat="44.34842" lon="2.86194">
        <ele>814</ele>
        <time>2013-03-06T13:52:37.110Z</time>
      </trkpt>
      <trkpt lat="44.34843" lon="2.86194">
        <ele>814</ele>
        <time>2013-03-06T13:52:41.090Z</time>
      </trkpt>
      <trkpt lat="44.34845" lon="2.86194">
        <ele>814</ele>
        <time>2013-03-06T13:52:42.050Z</time>
      </trkpt>
      <trkpt lat="44.34846" lon="2.86197">
        <ele>814</ele>
        <time>2013-03-06T13:52:43.970Z</time>
      </trkpt>
      <trkpt lat="44.34847" lon="2.86198">
        <ele>813</ele>
        <time>2013-03-06T13:52:44.980Z</time>
      </trkpt>
      <trkpt lat="44.34848" lon="2.862">
        <ele>813</ele>
        <time>2013-03-06T13:52:46.110Z</time>
      </trkpt>
      <trkpt lat="44.34849" lon="2.86201">
        <ele>812</ele>
        <time>2013-03-06T13:52:48.080Z</time>
      </trkpt>
      <trkpt lat="44.3485" lon="2.86203">
        <ele>812</ele>
        <time>2013-03-06T13:52:50.150Z</time>
      </trkpt>
      <trkpt lat="44.34851" lon="2.86205">
        <ele>812</ele>
        <time>2013-03-06T13:52:52.080Z</time>
      </trkpt>
      <trkpt lat="44.34851" lon="2.86206">
        <ele>811</ele>
        <time>2013-03-06T13:52:54.080Z</time>
      </trkpt>
      <trkpt lat="44.34855" lon="2.86209">
        <ele>811</ele>
        <time>2013-03-06T13:52:55.020Z</time>
      </trkpt>
      <trkpt lat="44.34855" lon="2.86212">
        <ele>810</ele>
        <time>2013-03-06T13:53:00.970Z</time>
      </trkpt>
      <trkpt lat="44.34854" lon="2.86214">
        <ele>810</ele>
        <time>2013-03-06T13:53:01.980Z</time>
      </trkpt>
      <trkpt lat="44.34854" lon="2.86215">
        <ele>810</ele>
        <time>2013-03-06T13:53:03.080Z</time>
      </trkpt>
      <trkpt lat="44.34854" lon="2.86217">
        <ele>810</ele>
        <time>2013-03-06T13:53:05.110Z</time>
      </trkpt>
      <trkpt lat="44.34854" lon="2.8622">
        <ele>809</ele>
        <time>2013-03-06T13:53:07.080Z</time>
      </trkpt>
      <trkpt lat="44.34854" lon="2.86222">
        <ele>809</ele>
        <time>2013-03-06T13:53:08.020Z</time>
      </trkpt>
      <trkpt lat="44.34855" lon="2.86223">
        <ele>809</ele>
        <time>2013-03-06T13:53:09.080Z</time>
      </trkpt>
      <trkpt lat="44.34856" lon="2.86223">
        <ele>809</ele>
        <time>2013-03-06T13:53:11.080Z</time>
      </trkpt>
      <trkpt lat="44.34857" lon="2.86224">
        <ele>809</ele>
        <time>2013-03-06T13:53:14.030Z</time>
      </trkpt>
      <trkpt lat="44.34858" lon="2.86224">
        <ele>808</ele>
        <time>2013-03-06T13:53:16.040Z</time>
      </trkpt>
      <trkpt lat="44.34859" lon="2.86227">
        <ele>808</ele>
        <time>2013-03-06T13:53:18.140Z</time>
      </trkpt>
      <trkpt lat="44.3486" lon="2.86232">
        <ele>808</ele>
        <time>2013-03-06T13:53:20.120Z</time>
      </trkpt>
      <trkpt lat="44.34858" lon="2.86233">
        <ele>808</ele>
        <time>2013-03-06T13:53:22.100Z</time>
      </trkpt>
      <trkpt lat="44.34859" lon="2.86233">
        <ele>808</ele>
        <time>2013-03-06T13:53:25.040Z</time>
      </trkpt>
      <trkpt lat="44.3486" lon="2.86235">
        <ele>807</ele>
        <time>2013-03-06T13:53:26.070Z</time>
      </trkpt>
      <trkpt lat="44.34861" lon="2.86238">
        <ele>807</ele>
        <time>2013-03-06T13:53:26.990Z</time>
      </trkpt>
      <trkpt lat="44.34862" lon="2.86239">
        <ele>807</ele>
        <time>2013-03-06T13:53:28.070Z</time>
      </trkpt>
      <trkpt lat="44.34864" lon="2.86242">
        <ele>807</ele>
        <time>2013-03-06T13:53:29.020Z</time>
      </trkpt>
      <trkpt lat="44.34866" lon="2.86244">
        <ele>806</ele>
        <time>2013-03-06T13:53:29.970Z</time>
      </trkpt>
      <trkpt lat="44.34867" lon="2.86247">
        <ele>806</ele>
        <time>2013-03-06T13:53:31.110Z</time>
      </trkpt>
      <trkpt lat="44.34869" lon="2.86251">
        <ele>801</ele>
        <time>2013-03-06T13:53:33.150Z</time>
      </trkpt>
      <trkpt lat="44.3487" lon="2.86258">
        <ele>801</ele>
        <time>2013-03-06T13:53:34.970Z</time>
      </trkpt>
      <trkpt lat="44.34871" lon="2.86262">
        <ele>801</ele>
        <time>2013-03-06T13:53:36.130Z</time>
      </trkpt>
      <trkpt lat="44.34872" lon="2.86267">
        <ele>801</ele>
        <time>2013-03-06T13:53:38.070Z</time>
      </trkpt>
      <trkpt lat="44.34871" lon="2.86271">
        <ele>801</ele>
        <time>2013-03-06T13:53:42.070Z</time>
      </trkpt>
      <trkpt lat="44.34873" lon="2.86272">
        <ele>801</ele>
        <time>2013-03-06T13:53:44.070Z</time>
      </trkpt>
      <trkpt lat="44.34874" lon="2.86273">
        <ele>801</ele>
        <time>2013-03-06T13:53:45.020Z</time>
      </trkpt>
      <trkpt lat="44.34875" lon="2.86273">
        <ele>801</ele>
        <time>2013-03-06T13:53:46.070Z</time>
      </trkpt>
      <trkpt lat="44.34876" lon="2.86274">
        <ele>801</ele>
        <time>2013-03-06T13:53:54.070Z</time>
      </trkpt>
      <trkpt lat="44.34877" lon="2.86277">
        <ele>801</ele>
        <time>2013-03-06T13:53:56.070Z</time>
      </trkpt>
      <trkpt lat="44.34877" lon="2.86279">
        <ele>801</ele>
        <time>2013-03-06T13:53:58.070Z</time>
      </trkpt>
      <trkpt lat="44.34877" lon="2.86281">
        <ele>801</ele>
        <time>2013-03-06T13:53:59.000Z</time>
      </trkpt>
      <trkpt lat="44.34875" lon="2.86281">
        <ele>801</ele>
        <time>2013-03-06T13:54:00.110Z</time>
      </trkpt>
      <trkpt lat="44.34873" lon="2.86282">
        <ele>801</ele>
        <time>2013-03-06T13:54:01.970Z</time>
      </trkpt>
      <trkpt lat="44.34874" lon="2.86283">
        <ele>801</ele>
        <time>2013-03-06T13:54:03.970Z</time>
      </trkpt>
      <trkpt lat="44.34875" lon="2.86284">
        <ele>801</ele>
        <time>2013-03-06T13:54:05.070Z</time>
      </trkpt>
      <trkpt lat="44.34874" lon="2.86285">
        <ele>801</ele>
        <time>2013-03-06T13:54:07.060Z</time>
      </trkpt>
      <trkpt lat="44.34873" lon="2.86285">
        <ele>801</ele>
        <time>2013-03-06T13:54:07.970Z</time>
      </trkpt>
      <trkpt lat="44.34873" lon="2.86287">
        <ele>802</ele>
        <time>2013-03-06T13:54:13.010Z</time>
      </trkpt>
      <trkpt lat="44.34874" lon="2.86286">
        <ele>801</ele>
        <time>2013-03-06T13:54:17.110Z</time>
      </trkpt>
      <trkpt lat="44.34876" lon="2.86285">
        <ele>801</ele>
        <time>2013-03-06T13:54:19.060Z</time>
      </trkpt>
      <trkpt lat="44.34877" lon="2.86284">
        <ele>801</ele>
        <time>2013-03-06T13:54:20.010Z</time>
      </trkpt>
      <trkpt lat="44.34878" lon="2.86283">
        <ele>801</ele>
        <time>2013-03-06T13:54:21.060Z</time>
      </trkpt>
      <trkpt lat="44.34879" lon="2.86283">
        <ele>801</ele>
        <time>2013-03-06T13:54:22.010Z</time>
      </trkpt>
      <trkpt lat="44.3488" lon="2.86282">
        <ele>801</ele>
        <time>2013-03-06T13:54:23.060Z</time>
      </trkpt>
      <trkpt lat="44.34882" lon="2.86282">
        <ele>800</ele>
        <time>2013-03-06T13:54:24.010Z</time>
      </trkpt>
      <trkpt lat="44.34884" lon="2.86283">
        <ele>800</ele>
        <time>2013-03-06T13:54:24.970Z</time>
      </trkpt>
      <trkpt lat="44.34887" lon="2.86284">
        <ele>800</ele>
        <time>2013-03-06T13:54:26.110Z</time>
      </trkpt>
      <trkpt lat="44.34891" lon="2.86287">
        <ele>800</ele>
        <time>2013-03-06T13:54:27.970Z</time>
      </trkpt>
      <trkpt lat="44.34893" lon="2.86288">
        <ele>800</ele>
        <time>2013-03-06T13:54:29.060Z</time>
      </trkpt>
      <trkpt lat="44.34895" lon="2.86291">
        <ele>800</ele>
        <time>2013-03-06T13:54:30.060Z</time>
      </trkpt>
      <trkpt lat="44.34896" lon="2.86291">
        <ele>799</ele>
        <time>2013-03-06T13:54:31.010Z</time>
      </trkpt>
      <trkpt lat="44.34898" lon="2.86293">
        <ele>799</ele>
        <time>2013-03-06T13:54:33.020Z</time>
      </trkpt>
      <trkpt lat="44.34898" lon="2.86291">
        <ele>799</ele>
        <time>2013-03-06T13:54:36.970Z</time>
      </trkpt>
      <trkpt lat="44.34898" lon="2.8629">
        <ele>799</ele>
        <time>2013-03-06T13:54:38.970Z</time>
      </trkpt>
      <trkpt lat="44.34899" lon="2.86289">
        <ele>799</ele>
        <time>2013-03-06T13:54:40.060Z</time>
      </trkpt>
      <trkpt lat="44.349" lon="2.86287">
        <ele>799</ele>
        <time>2013-03-06T13:54:40.970Z</time>
      </trkpt>
      <trkpt lat="44.34901" lon="2.86286">
        <ele>799</ele>
        <time>2013-03-06T13:54:42.060Z</time>
      </trkpt>
      <trkpt lat="44.349" lon="2.86286">
        <ele>799</ele>
        <time>2013-03-06T13:54:47.060Z</time>
      </trkpt>
      <trkpt lat="44.34899" lon="2.86287">
        <ele>799</ele>
        <time>2013-03-06T13:54:49.050Z</time>
      </trkpt>
      <trkpt lat="44.34898" lon="2.86288">
        <ele>799</ele>
        <time>2013-03-06T13:54:50.970Z</time>
      </trkpt>
      <trkpt lat="44.34898" lon="2.8629">
        <ele>799</ele>
        <time>2013-03-06T13:54:54.130Z</time>
      </trkpt>
      <trkpt lat="44.34898" lon="2.86292">
        <ele>799</ele>
        <time>2013-03-06T13:54:56.040Z</time>
      </trkpt>
      <trkpt lat="44.34897" lon="2.86291">
        <ele>799</ele>
        <time>2013-03-06T13:54:58.050Z</time>
      </trkpt>
      <trkpt lat="44.34897" lon="2.8629">
        <ele>799</ele>
        <time>2013-03-06T13:54:59.970Z</time>
      </trkpt>
      <trkpt lat="44.34893" lon="2.86292">
        <ele>800</ele>
        <time>2013-03-06T13:55:02.970Z</time>
      </trkpt>
      <trkpt lat="44.34892" lon="2.86293">
        <ele>800</ele>
        <time>2013-03-06T13:55:04.050Z</time>
      </trkpt>
      <trkpt lat="44.34891" lon="2.86293">
        <ele>800</ele>
        <time>2013-03-06T13:55:04.970Z</time>
      </trkpt>
      <trkpt lat="44.3489" lon="2.86293">
        <ele>800</ele>
        <time>2013-03-06T13:55:06.050Z</time>
      </trkpt>
      <trkpt lat="44.34889" lon="2.86292">
        <ele>800</ele>
        <time>2013-03-06T13:55:11.050Z</time>
      </trkpt>
      <trkpt lat="44.3489" lon="2.86291">
        <ele>800</ele>
        <time>2013-03-06T13:55:13.050Z</time>
      </trkpt>
      <trkpt lat="44.3489" lon="2.86293">
        <ele>800</ele>
        <time>2013-03-06T13:55:15.050Z</time>
      </trkpt>
      <trkpt lat="44.34889" lon="2.86294">
        <ele>800</ele>
        <time>2013-03-06T13:55:16.010Z</time>
      </trkpt>
      <trkpt lat="44.34889" lon="2.86296">
        <ele>800</ele>
        <time>2013-03-06T13:55:16.970Z</time>
      </trkpt>
      <trkpt lat="44.34889" lon="2.86298">
        <ele>800</ele>
        <time>2013-03-06T13:55:18.090Z</time>
      </trkpt>
      <trkpt lat="44.34889" lon="2.86299">
        <ele>800</ele>
        <time>2013-03-06T13:55:19.150Z</time>
      </trkpt>
      <trkpt lat="44.34889" lon="2.86301">
        <ele>800</ele>
        <time>2013-03-06T13:55:20.090Z</time>
      </trkpt>
      <trkpt lat="44.34888" lon="2.86303">
        <ele>800</ele>
        <time>2013-03-06T13:55:21.150Z</time>
      </trkpt>
      <trkpt lat="44.34887" lon="2.86305">
        <ele>801</ele>
        <time>2013-03-06T13:55:22.110Z</time>
      </trkpt>
      <trkpt lat="44.34885" lon="2.86309">
        <ele>801</ele>
        <time>2013-03-06T13:55:24.080Z</time>
      </trkpt>
      <trkpt lat="44.34885" lon="2.8631">
        <ele>801</ele>
        <time>2013-03-06T13:55:25.140Z</time>
      </trkpt>
      <trkpt lat="44.34884" lon="2.86311">
        <ele>801</ele>
        <time>2013-03-06T13:55:26.080Z</time>
      </trkpt>
      <trkpt lat="44.34883" lon="2.86313">
        <ele>801</ele>
        <time>2013-03-06T13:55:27.150Z</time>
      </trkpt>
      <trkpt lat="44.34882" lon="2.86315">
        <ele>801</ele>
        <time>2013-03-06T13:55:28.100Z</time>
      </trkpt>
      <trkpt lat="44.3488" lon="2.86317">
        <ele>802</ele>
        <time>2013-03-06T13:55:29.140Z</time>
      </trkpt>
      <trkpt lat="44.34881" lon="2.86319">
        <ele>802</ele>
        <time>2013-03-06T13:55:30.050Z</time>
      </trkpt>
      <trkpt lat="44.34882" lon="2.86317">
        <ele>801</ele>
        <time>2013-03-06T13:55:31.140Z</time>
      </trkpt>
      <trkpt lat="44.34883" lon="2.86315">
        <ele>801</ele>
        <time>2013-03-06T13:55:32.090Z</time>
      </trkpt>
      <trkpt lat="44.34882" lon="2.86314">
        <ele>801</ele>
        <time>2013-03-06T13:55:33.100Z</time>
      </trkpt>
      <trkpt lat="44.34884" lon="2.86313">
        <ele>801</ele>
        <time>2013-03-06T13:55:36.110Z</time>
      </trkpt>
      <trkpt lat="44.34885" lon="2.86312">
        <ele>801</ele>
        <time>2013-03-06T13:55:37.140Z</time>
      </trkpt>
      <trkpt lat="44.34884" lon="2.86314">
        <ele>801</ele>
        <time>2013-03-06T13:55:39.140Z</time>
      </trkpt>
      <trkpt lat="44.34885" lon="2.86316">
        <ele>801</ele>
        <time>2013-03-06T13:55:40.090Z</time>
      </trkpt>
      <trkpt lat="44.34885" lon="2.86318">
        <ele>801</ele>
        <time>2013-03-06T13:55:42.010Z</time>
      </trkpt>
      <trkpt lat="44.34886" lon="2.86319">
        <ele>801</ele>
        <time>2013-03-06T13:55:55.110Z</time>
      </trkpt>
      <trkpt lat="44.34886" lon="2.86319">
        <ele>801</ele>
        <time>2013-03-06T13:56:01.110Z</time>
      </trkpt>
      <trkpt lat="44.34887" lon="2.86319">
        <ele>801</ele>
        <time>2013-03-06T13:56:03.040Z</time>
      </trkpt>
      <trkpt lat="44.34886" lon="2.86321">
        <ele>801</ele>
        <time>2013-03-06T13:56:05.040Z</time>
      </trkpt>
      <trkpt lat="44.34886" lon="2.86322">
        <ele>801</ele>
        <time>2013-03-06T13:56:09.990Z</time>
      </trkpt>
      <trkpt lat="44.34887" lon="2.86321">
        <ele>801</ele>
        <time>2013-03-06T13:56:11.030Z</time>
      </trkpt>
      <trkpt lat="44.34888" lon="2.86321">
        <ele>800</ele>
        <time>2013-03-06T13:56:12.000Z</time>
      </trkpt>
      <trkpt lat="44.34889" lon="2.86321">
        <ele>800</ele>
        <time>2013-03-06T13:56:14.100Z</time>
      </trkpt>
      <trkpt lat="44.34888" lon="2.86318">
        <ele>801</ele>
        <time>2013-03-06T13:56:18.190Z</time>
      </trkpt>
      <trkpt lat="44.34887" lon="2.86317">
        <ele>801</ele>
        <time>2013-03-06T13:56:20.030Z</time>
      </trkpt>
      <trkpt lat="44.34888" lon="2.86315">
        <ele>801</ele>
        <time>2013-03-06T13:56:21.970Z</time>
      </trkpt>
      <trkpt lat="44.34889" lon="2.86316">
        <ele>800</ele>
        <time>2013-03-06T13:56:25.130Z</time>
      </trkpt>
      <trkpt lat="44.34889" lon="2.86317">
        <ele>800</ele>
        <time>2013-03-06T13:56:28.090Z</time>
      </trkpt>
      <trkpt lat="44.3489" lon="2.86315">
        <ele>800</ele>
        <time>2013-03-06T13:56:30.010Z</time>
      </trkpt>
      <trkpt lat="44.34891" lon="2.86314">
        <ele>800</ele>
        <time>2013-03-06T13:56:35.130Z</time>
      </trkpt>
      <trkpt lat="44.34892" lon="2.86314">
        <ele>800</ele>
        <time>2013-03-06T13:56:44.080Z</time>
      </trkpt>
      <trkpt lat="44.34893" lon="2.86314">
        <ele>800</ele>
        <time>2013-03-06T13:56:45.130Z</time>
      </trkpt>
      <trkpt lat="44.34893" lon="2.86317">
        <ele>800</ele>
        <time>2013-03-06T13:56:49.130Z</time>
      </trkpt>
      <trkpt lat="44.34892" lon="2.86318">
        <ele>800</ele>
        <time>2013-03-06T13:56:50.140Z</time>
      </trkpt>
      <trkpt lat="44.34891" lon="2.8632">
        <ele>800</ele>
        <time>2013-03-06T13:56:52.020Z</time>
      </trkpt>
      <trkpt lat="44.3489" lon="2.86322">
        <ele>800</ele>
        <time>2013-03-06T13:56:52.980Z</time>
      </trkpt>
      <trkpt lat="44.34889" lon="2.86325">
        <ele>800</ele>
        <time>2013-03-06T13:56:53.970Z</time>
      </trkpt>
      <trkpt lat="44.34888" lon="2.86328">
        <ele>800</ele>
        <time>2013-03-06T13:56:54.970Z</time>
      </trkpt>
      <trkpt lat="44.34887" lon="2.86331">
        <ele>801</ele>
        <time>2013-03-06T13:56:56.130Z</time>
      </trkpt>
      <trkpt lat="44.34886" lon="2.86334">
        <ele>809</ele>
        <time>2013-03-06T13:56:57.970Z</time>
      </trkpt>
      <trkpt lat="44.34887" lon="2.86336">
        <ele>809</ele>
        <time>2013-03-06T13:57:00.020Z</time>
      </trkpt>
      <trkpt lat="44.34888" lon="2.86338">
        <ele>809</ele>
        <time>2013-03-06T13:57:01.090Z</time>
      </trkpt>
      <trkpt lat="44.34887" lon="2.8634">
        <ele>809</ele>
        <time>2013-03-06T13:57:03.070Z</time>
      </trkpt>
      <trkpt lat="44.34886" lon="2.86341">
        <ele>809</ele>
        <time>2013-03-06T13:57:04.120Z</time>
      </trkpt>
      <trkpt lat="44.34886" lon="2.86343">
        <ele>810</ele>
        <time>2013-03-06T13:57:05.070Z</time>
      </trkpt>
      <trkpt lat="44.34887" lon="2.86344">
        <ele>810</ele>
        <time>2013-03-06T13:57:07.070Z</time>
      </trkpt>
      <trkpt lat="44.34887" lon="2.86346">
        <ele>810</ele>
        <time>2013-03-06T13:57:09.070Z</time>
      </trkpt>
      <trkpt lat="44.34888" lon="2.86347">
        <ele>810</ele>
        <time>2013-03-06T13:57:11.080Z</time>
      </trkpt>
      <trkpt lat="44.34889" lon="2.86348">
        <ele>809</ele>
        <time>2013-03-06T13:57:13.070Z</time>
      </trkpt>
      <trkpt lat="44.34889" lon="2.86349">
        <ele>810</ele>
        <time>2013-03-06T13:57:15.980Z</time>
      </trkpt>
      <trkpt lat="44.34887" lon="2.86351">
        <ele>810</ele>
        <time>2013-03-06T13:57:17.970Z</time>
      </trkpt>
      <trkpt lat="44.34889" lon="2.86352">
        <ele>810</ele>
        <time>2013-03-06T13:57:21.070Z</time>
      </trkpt>
      <trkpt lat="44.3489" lon="2.86353">
        <ele>810</ele>
        <time>2013-03-06T13:57:22.120Z</time>
      </trkpt>
      <trkpt lat="44.34891" lon="2.86352">
        <ele>810</ele>
        <time>2013-03-06T13:57:25.070Z</time>
      </trkpt>
      <trkpt lat="44.3489" lon="2.86354">
        <ele>810</ele>
        <time>2013-03-06T13:57:27.080Z</time>
      </trkpt>
      <trkpt lat="44.3489" lon="2.86355">
        <ele>810</ele>
        <time>2013-03-06T13:57:28.110Z</time>
      </trkpt>
      <trkpt lat="44.3489" lon="2.86357">
        <ele>811</ele>
        <time>2013-03-06T13:57:29.060Z</time>
      </trkpt>
      <trkpt lat="44.34889" lon="2.86359">
        <ele>811</ele>
        <time>2013-03-06T13:57:30.120Z</time>
      </trkpt>
      <trkpt lat="44.34891" lon="2.86358">
        <ele>811</ele>
        <time>2013-03-06T13:57:33.070Z</time>
      </trkpt>
      <trkpt lat="44.34892" lon="2.86361">
        <ele>811</ele>
        <time>2013-03-06T13:57:35.110Z</time>
      </trkpt>
      <trkpt lat="44.34893" lon="2.86363">
        <ele>811</ele>
        <time>2013-03-06T13:57:37.110Z</time>
      </trkpt>
      <trkpt lat="44.34894" lon="2.86364">
        <ele>811</ele>
        <time>2013-03-06T13:57:38.970Z</time>
      </trkpt>
      <trkpt lat="44.34896" lon="2.86364">
        <ele>811</ele>
        <time>2013-03-06T13:57:39.970Z</time>
      </trkpt>
      <trkpt lat="44.34892" lon="2.8636">
        <ele>811</ele>
        <time>2013-03-06T13:57:43.110Z</time>
      </trkpt>
      <trkpt lat="44.3489" lon="2.86359">
        <ele>811</ele>
        <time>2013-03-06T13:57:44.970Z</time>
      </trkpt>
      <trkpt lat="44.34891" lon="2.86358">
        <ele>811</ele>
        <time>2013-03-06T13:57:49.110Z</time>
      </trkpt>
      <trkpt lat="44.34892" lon="2.86357">
        <ele>810</ele>
        <time>2013-03-06T13:57:51.110Z</time>
      </trkpt>
      <trkpt lat="44.34893" lon="2.86358">
        <ele>810</ele>
        <time>2013-03-06T13:57:54.010Z</time>
      </trkpt>
      <trkpt lat="44.34893" lon="2.86359">
        <ele>810</ele>
        <time>2013-03-06T13:57:55.110Z</time>
      </trkpt>
      <trkpt lat="44.34893" lon="2.86363">
        <ele>811</ele>
        <time>2013-03-06T13:57:57.110Z</time>
      </trkpt>
      <trkpt lat="44.34892" lon="2.86365">
        <ele>812</ele>
        <time>2013-03-06T13:57:58.060Z</time>
      </trkpt>
      <trkpt lat="44.34892" lon="2.86368">
        <ele>812</ele>
        <time>2013-03-06T13:57:59.160Z</time>
      </trkpt>
      <trkpt lat="44.34891" lon="2.8637">
        <ele>813</ele>
        <time>2013-03-06T13:58:00.110Z</time>
      </trkpt>
      <trkpt lat="44.34891" lon="2.86373">
        <ele>813</ele>
        <time>2013-03-06T13:58:01.970Z</time>
      </trkpt>
      <trkpt lat="44.34891" lon="2.86374">
        <ele>813</ele>
        <time>2013-03-06T13:58:03.010Z</time>
      </trkpt>
      <trkpt lat="44.3489" lon="2.86377">
        <ele>814</ele>
        <time>2013-03-06T13:58:04.110Z</time>
      </trkpt>
      <trkpt lat="44.34889" lon="2.86379">
        <ele>814</ele>
        <time>2013-03-06T13:58:06.010Z</time>
      </trkpt>
      <trkpt lat="44.34889" lon="2.86381">
        <ele>814</ele>
        <time>2013-03-06T13:58:08.110Z</time>
      </trkpt>
      <trkpt lat="44.34891" lon="2.86383">
        <ele>814</ele>
        <time>2013-03-06T13:58:10.100Z</time>
      </trkpt>
      <trkpt lat="44.3489" lon="2.86384">
        <ele>815</ele>
        <time>2013-03-06T13:58:11.060Z</time>
      </trkpt>
      <trkpt lat="44.34889" lon="2.86386">
        <ele>815</ele>
        <time>2013-03-06T13:58:13.060Z</time>
      </trkpt>
      <trkpt lat="44.34888" lon="2.86387">
        <ele>815</ele>
        <time>2013-03-06T13:58:14.100Z</time>
      </trkpt>
      <trkpt lat="44.34889" lon="2.8639">
        <ele>815</ele>
        <time>2013-03-06T13:58:15.050Z</time>
      </trkpt>
      <trkpt lat="44.3489" lon="2.86392">
        <ele>815</ele>
        <time>2013-03-06T13:58:17.110Z</time>
      </trkpt>
      <trkpt lat="44.34891" lon="2.86393">
        <ele>815</ele>
        <time>2013-03-06T13:58:19.190Z</time>
      </trkpt>
      <trkpt lat="44.34891" lon="2.86395">
        <ele>815</ele>
        <time>2013-03-06T13:58:21.100Z</time>
      </trkpt>
      <trkpt lat="44.34891" lon="2.86397">
        <ele>816</ele>
        <time>2013-03-06T13:58:23.100Z</time>
      </trkpt>
      <trkpt lat="44.34891" lon="2.86395">
        <ele>815</ele>
        <time>2013-03-06T13:58:25.000Z</time>
      </trkpt>
      <trkpt lat="44.3489" lon="2.86397">
        <ele>816</ele>
        <time>2013-03-06T13:58:27.100Z</time>
      </trkpt>
      <trkpt lat="44.3489" lon="2.86398">
        <ele>816</ele>
        <time>2013-03-06T13:58:29.100Z</time>
      </trkpt>
      <trkpt lat="44.34891" lon="2.864">
        <ele>816</ele>
        <time>2013-03-06T13:58:31.100Z</time>
      </trkpt>
      <trkpt lat="44.34891" lon="2.86402">
        <ele>816</ele>
        <time>2013-03-06T13:58:32.980Z</time>
      </trkpt>
      <trkpt lat="44.34891" lon="2.86403">
        <ele>816</ele>
        <time>2013-03-06T13:58:36.110Z</time>
      </trkpt>
      <trkpt lat="44.3489" lon="2.86406">
        <ele>816</ele>
        <time>2013-03-06T13:58:37.970Z</time>
      </trkpt>
      <trkpt lat="44.3489" lon="2.86407">
        <ele>816</ele>
        <time>2013-03-06T13:58:39.000Z</time>
      </trkpt>
      <trkpt lat="44.34889" lon="2.86409">
        <ele>817</ele>
        <time>2013-03-06T13:58:40.110Z</time>
      </trkpt>
      <trkpt lat="44.34887" lon="2.86411">
        <ele>817</ele>
        <time>2013-03-06T13:58:42.110Z</time>
      </trkpt>
      <trkpt lat="44.34887" lon="2.86414">
        <ele>817</ele>
        <time>2013-03-06T13:58:43.970Z</time>
      </trkpt>
      <trkpt lat="44.34886" lon="2.86415">
        <ele>817</ele>
        <time>2013-03-06T13:58:45.000Z</time>
      </trkpt>
      <trkpt lat="44.34885" lon="2.86416">
        <ele>817</ele>
        <time>2013-03-06T13:58:46.110Z</time>
      </trkpt>
      <trkpt lat="44.34884" lon="2.86416">
        <ele>818</ele>
        <time>2013-03-06T13:58:47.970Z</time>
      </trkpt>
      <trkpt lat="44.34883" lon="2.86418">
        <ele>831</ele>
        <time>2013-03-06T13:58:52.110Z</time>
      </trkpt>
      <trkpt lat="44.34883" lon="2.86419">
        <ele>830</ele>
        <time>2013-03-06T13:58:53.970Z</time>
      </trkpt>
      <trkpt lat="44.34884" lon="2.86421">
        <ele>830</ele>
        <time>2013-03-06T13:58:56.110Z</time>
      </trkpt>
      <trkpt lat="44.34884" lon="2.86419">
        <ele>830</ele>
        <time>2013-03-06T13:58:59.000Z</time>
      </trkpt>
      <trkpt lat="44.34884" lon="2.86419">
        <ele>830</ele>
        <time>2013-03-06T13:59:00.090Z</time>
      </trkpt>
      <trkpt lat="44.34884" lon="2.86421">
        <ele>830</ele>
        <time>2013-03-06T13:59:01.050Z</time>
      </trkpt>
      <trkpt lat="44.34885" lon="2.8642">
        <ele>830</ele>
        <time>2013-03-06T13:59:05.040Z</time>
      </trkpt>
      <trkpt lat="44.34884" lon="2.8642">
        <ele>830</ele>
        <time>2013-03-06T13:59:08.090Z</time>
      </trkpt>
      <trkpt lat="44.34885" lon="2.86419">
        <ele>830</ele>
        <time>2013-03-06T13:59:10.070Z</time>
      </trkpt>
      <trkpt lat="44.34886" lon="2.86418">
        <ele>830</ele>
        <time>2013-03-06T13:59:19.970Z</time>
      </trkpt>
      <trkpt lat="44.34887" lon="2.86417">
        <ele>829</ele>
        <time>2013-03-06T13:59:22.110Z</time>
      </trkpt>
      <trkpt lat="44.34885" lon="2.86417">
        <ele>817</ele>
        <time>2013-03-06T13:59:30.110Z</time>
      </trkpt>
      <trkpt lat="44.34884" lon="2.86416">
        <ele>818</ele>
        <time>2013-03-06T13:59:43.970Z</time>
      </trkpt>
      <trkpt lat="44.34883" lon="2.86417">
        <ele>818</ele>
        <time>2013-03-06T13:59:47.110Z</time>
      </trkpt>
      <trkpt lat="44.34881" lon="2.86416">
        <ele>818</ele>
        <time>2013-03-06T13:59:51.980Z</time>
      </trkpt>
      <trkpt lat="44.34879" lon="2.86416">
        <ele>819</ele>
        <time>2013-03-06T13:59:55.120Z</time>
      </trkpt>
      <trkpt lat="44.3488" lon="2.86417">
        <ele>818</ele>
        <time>2013-03-06T13:59:56.970Z</time>
      </trkpt>
      <trkpt lat="44.34879" lon="2.86416">
        <ele>818</ele>
        <time>2013-03-06T14:00:00.970Z</time>
      </trkpt>
      <trkpt lat="44.3488" lon="2.86417">
        <ele>831</ele>
        <time>2013-03-06T14:00:04.130Z</time>
      </trkpt>
      <trkpt lat="44.34879" lon="2.86419">
        <ele>831</ele>
        <time>2013-03-06T14:00:06.110Z</time>
      </trkpt>
      <trkpt lat="44.34879" lon="2.8642">
        <ele>832</ele>
        <time>2013-03-06T14:00:11.080Z</time>
      </trkpt>
      <trkpt lat="44.3488" lon="2.86421">
        <ele>831</ele>
        <time>2013-03-06T14:00:18.120Z</time>
      </trkpt>
      <trkpt lat="44.3488" lon="2.86422">
        <ele>831</ele>
        <time>2013-03-06T14:00:28.110Z</time>
      </trkpt>
      <trkpt lat="44.34881" lon="2.86421">
        <ele>831</ele>
        <time>2013-03-06T14:00:30.130Z</time>
      </trkpt>
      <trkpt lat="44.34883" lon="2.8642">
        <ele>831</ele>
        <time>2013-03-06T14:00:32.070Z</time>
      </trkpt>
      <trkpt lat="44.34885" lon="2.86419">
        <ele>830</ele>
        <time>2013-03-06T14:00:33.030Z</time>
      </trkpt>
      <trkpt lat="44.34884" lon="2.86418">
        <ele>830</ele>
        <time>2013-03-06T14:00:37.140Z</time>
      </trkpt>
      <trkpt lat="44.34882" lon="2.86418">
        <ele>831</ele>
        <time>2013-03-06T14:00:48.070Z</time>
      </trkpt>
      <trkpt lat="44.34881" lon="2.86417">
        <ele>818</ele>
        <time>2013-03-06T14:00:51.110Z</time>
      </trkpt>
      <trkpt lat="44.3488" lon="2.86418">
        <ele>831</ele>
        <time>2013-03-06T14:00:54.970Z</time>
      </trkpt>
      <trkpt lat="44.34881" lon="2.86419">
        <ele>831</ele>
        <time>2013-03-06T14:00:56.060Z</time>
      </trkpt>
      <trkpt lat="44.34882" lon="2.8642">
        <ele>831</ele>
        <time>2013-03-06T14:00:57.060Z</time>
      </trkpt>
      <trkpt lat="44.34883" lon="2.86421">
        <ele>831</ele>
        <time>2013-03-06T14:00:58.010Z</time>
      </trkpt>
      <trkpt lat="44.34884" lon="2.86423">
        <ele>831</ele>
        <time>2013-03-06T14:01:00.110Z</time>
      </trkpt>
      <trkpt lat="44.34886" lon="2.86425">
        <ele>830</ele>
        <time>2013-03-06T14:01:02.060Z</time>
      </trkpt>
      <trkpt lat="44.34888" lon="2.86426">
        <ele>830</ele>
        <time>2013-03-06T14:01:03.010Z</time>
      </trkpt>
      <trkpt lat="44.3489" lon="2.86428">
        <ele>829</ele>
        <time>2013-03-06T14:01:04.060Z</time>
      </trkpt>
      <trkpt lat="44.34891" lon="2.86429">
        <ele>829</ele>
        <time>2013-03-06T14:01:05.010Z</time>
      </trkpt>
      <trkpt lat="44.34892" lon="2.86431">
        <ele>829</ele>
        <time>2013-03-06T14:01:06.060Z</time>
      </trkpt>
      <trkpt lat="44.34894" lon="2.86432">
        <ele>829</ele>
        <time>2013-03-06T14:01:07.010Z</time>
      </trkpt>
      <trkpt lat="44.34895" lon="2.86434">
        <ele>829</ele>
        <time>2013-03-06T14:01:08.060Z</time>
      </trkpt>
      <trkpt lat="44.34898" lon="2.86435">
        <ele>829</ele>
        <time>2013-03-06T14:01:09.120Z</time>
      </trkpt>
      <trkpt lat="44.34902" lon="2.86438">
        <ele>828</ele>
        <time>2013-03-06T14:01:10.970Z</time>
      </trkpt>
      <trkpt lat="44.34904" lon="2.86438">
        <ele>828</ele>
        <time>2013-03-06T14:01:12.040Z</time>
      </trkpt>
      <trkpt lat="44.34906" lon="2.86439">
        <ele>828</ele>
        <time>2013-03-06T14:01:13.060Z</time>
      </trkpt>
      <trkpt lat="44.3491" lon="2.86441">
        <ele>828</ele>
        <time>2013-03-06T14:01:14.010Z</time>
      </trkpt>
      <trkpt lat="44.34913" lon="2.86442">
        <ele>828</ele>
        <time>2013-03-06T14:01:15.060Z</time>
      </trkpt>
      <trkpt lat="44.34914" lon="2.86443">
        <ele>828</ele>
        <time>2013-03-06T14:01:15.980Z</time>
      </trkpt>
      <trkpt lat="44.34917" lon="2.86444">
        <ele>819</ele>
        <time>2013-03-06T14:01:17.060Z</time>
      </trkpt>
      <trkpt lat="44.34918" lon="2.86445">
        <ele>819</ele>
        <time>2013-03-06T14:01:17.970Z</time>
      </trkpt>
      <trkpt lat="44.34921" lon="2.86446">
        <ele>819</ele>
        <time>2013-03-06T14:01:19.060Z</time>
      </trkpt>
      <trkpt lat="44.34923" lon="2.86448">
        <ele>820</ele>
        <time>2013-03-06T14:01:20.110Z</time>
      </trkpt>
      <trkpt lat="44.34929" lon="2.86452">
        <ele>820</ele>
        <time>2013-03-06T14:01:21.970Z</time>
      </trkpt>
      <trkpt lat="44.34931" lon="2.86453">
        <ele>820</ele>
        <time>2013-03-06T14:01:23.060Z</time>
      </trkpt>
      <trkpt lat="44.34935" lon="2.86458">
        <ele>821</ele>
        <time>2013-03-06T14:01:25.060Z</time>
      </trkpt>
      <trkpt lat="44.34939" lon="2.86461">
        <ele>821</ele>
        <time>2013-03-06T14:01:25.970Z</time>
      </trkpt>
      <trkpt lat="44.3494" lon="2.86462">
        <ele>821</ele>
        <time>2013-03-06T14:01:27.060Z</time>
      </trkpt>
      <trkpt lat="44.34941" lon="2.86462">
        <ele>821</ele>
        <time>2013-03-06T14:01:27.970Z</time>
      </trkpt>
      <trkpt lat="44.34943" lon="2.86463">
        <ele>822</ele>
        <time>2013-03-06T14:01:29.060Z</time>
      </trkpt>
      <trkpt lat="44.34945" lon="2.86464">
        <ele>821</ele>
        <time>2013-03-06T14:01:29.970Z</time>
      </trkpt>
      <trkpt lat="44.34946" lon="2.86464">
        <ele>821</ele>
        <time>2013-03-06T14:01:31.060Z</time>
      </trkpt>
      <trkpt lat="44.34947" lon="2.86464">
        <ele>821</ele>
        <time>2013-03-06T14:01:31.970Z</time>
      </trkpt>
      <trkpt lat="44.34949" lon="2.86465">
        <ele>821</ele>
        <time>2013-03-06T14:01:33.010Z</time>
      </trkpt>
      <trkpt lat="44.3495" lon="2.86465">
        <ele>821</ele>
        <time>2013-03-06T14:01:33.970Z</time>
      </trkpt>
      <trkpt lat="44.34951" lon="2.86465">
        <ele>821</ele>
        <time>2013-03-06T14:01:35.050Z</time>
      </trkpt>
      <trkpt lat="44.34953" lon="2.86465">
        <ele>821</ele>
        <time>2013-03-06T14:01:37.050Z</time>
      </trkpt>
      <trkpt lat="44.34954" lon="2.86465">
        <ele>821</ele>
        <time>2013-03-06T14:01:37.970Z</time>
      </trkpt>
      <trkpt lat="44.34955" lon="2.86463">
        <ele>821</ele>
        <time>2013-03-06T14:01:41.010Z</time>
      </trkpt>
      <trkpt lat="44.34957" lon="2.86464">
        <ele>821</ele>
        <time>2013-03-06T14:01:42.050Z</time>
      </trkpt>
      <trkpt lat="44.34957" lon="2.86464">
        <ele>821</ele>
        <time>2013-03-06T14:01:42.970Z</time>
      </trkpt>
      <trkpt lat="44.3496" lon="2.86465">
        <ele>821</ele>
        <time>2013-03-06T14:01:44.050Z</time>
      </trkpt>
      <trkpt lat="44.34961" lon="2.86466">
        <ele>821</ele>
        <time>2013-03-06T14:01:45.020Z</time>
      </trkpt>
      <trkpt lat="44.34962" lon="2.86467">
        <ele>821</ele>
        <time>2013-03-06T14:01:49.130Z</time>
      </trkpt>
      <trkpt lat="44.34964" lon="2.86469">
        <ele>821</ele>
        <time>2013-03-06T14:01:51.050Z</time>
      </trkpt>
      <trkpt lat="44.34965" lon="2.86469">
        <ele>821</ele>
        <time>2013-03-06T14:01:53.050Z</time>
      </trkpt>
      <trkpt lat="44.34967" lon="2.8647">
        <ele>821</ele>
        <time>2013-03-06T14:01:55.050Z</time>
      </trkpt>
      <trkpt lat="44.34966" lon="2.86469">
        <ele>821</ele>
        <time>2013-03-06T14:01:57.050Z</time>
      </trkpt>
      <trkpt lat="44.34966" lon="2.86468">
        <ele>821</ele>
        <time>2013-03-06T14:02:01.110Z</time>
      </trkpt>
      <trkpt lat="44.34967" lon="2.86467">
        <ele>821</ele>
        <time>2013-03-06T14:02:04.000Z</time>
      </trkpt>
      <trkpt lat="44.34966" lon="2.86466">
        <ele>821</ele>
        <time>2013-03-06T14:02:07.990Z</time>
      </trkpt>
      <trkpt lat="44.34967" lon="2.86466">
        <ele>821</ele>
        <time>2013-03-06T14:02:09.150Z</time>
      </trkpt>
      <trkpt lat="44.34965" lon="2.86466">
        <ele>821</ele>
        <time>2013-03-06T14:02:14.090Z</time>
      </trkpt>
      <trkpt lat="44.34965" lon="2.86467">
        <ele>821</ele>
        <time>2013-03-06T14:02:18.020Z</time>
      </trkpt>
      <trkpt lat="44.34964" lon="2.86468">
        <ele>821</ele>
        <time>2013-03-06T14:02:25.060Z</time>
      </trkpt>
      <trkpt lat="44.34963" lon="2.86469">
        <ele>821</ele>
        <time>2013-03-06T14:02:27.100Z</time>
      </trkpt>
      <trkpt lat="44.34961" lon="2.86471">
        <ele>822</ele>
        <time>2013-03-06T14:02:30.140Z</time>
      </trkpt>
      <trkpt lat="44.34963" lon="2.8647">
        <ele>821</ele>
        <time>2013-03-06T14:02:32.140Z</time>
      </trkpt>
      <trkpt lat="44.34965" lon="2.86471">
        <ele>821</ele>
        <time>2013-03-06T14:02:40.040Z</time>
      </trkpt>
      <trkpt lat="44.34966" lon="2.86471">
        <ele>821</ele>
        <time>2013-03-06T14:02:42.190Z</time>
      </trkpt>
      <trkpt lat="44.34967" lon="2.86471">
        <ele>821</ele>
        <time>2013-03-06T14:02:44.040Z</time>
      </trkpt>
      <trkpt lat="44.34967" lon="2.8647">
        <ele>821</ele>
        <time>2013-03-06T14:02:46.130Z</time>
      </trkpt>
      <trkpt lat="44.34968" lon="2.86471">
        <ele>821</ele>
        <time>2013-03-06T14:02:48.140Z</time>
      </trkpt>
      <trkpt lat="44.34967" lon="2.86472">
        <ele>821</ele>
        <time>2013-03-06T14:02:50.190Z</time>
      </trkpt>
      <trkpt lat="44.34966" lon="2.86473">
        <ele>822</ele>
        <time>2013-03-06T14:02:52.130Z</time>
      </trkpt>
      <trkpt lat="44.34965" lon="2.86471">
        <ele>821</ele>
        <time>2013-03-06T14:02:53.100Z</time>
      </trkpt>
      <trkpt lat="44.34962" lon="2.86468">
        <ele>821</ele>
        <time>2013-03-06T14:02:55.010Z</time>
      </trkpt>
      <trkpt lat="44.34961" lon="2.86467">
        <ele>821</ele>
        <time>2013-03-06T14:03:00.130Z</time>
      </trkpt>
      <trkpt lat="44.3496" lon="2.86467">
        <ele>821</ele>
        <time>2013-03-06T14:03:03.080Z</time>
      </trkpt>
      <trkpt lat="44.34961" lon="2.86468">
        <ele>821</ele>
        <time>2013-03-06T14:03:04.130Z</time>
      </trkpt>
      <trkpt lat="44.34962" lon="2.86468">
        <ele>821</ele>
        <time>2013-03-06T14:03:06.130Z</time>
      </trkpt>
      <trkpt lat="44.34964" lon="2.86467">
        <ele>821</ele>
        <time>2013-03-06T14:03:07.050Z</time>
      </trkpt>
      <trkpt lat="44.34964" lon="2.86466">
        <ele>821</ele>
        <time>2013-03-06T14:03:10.130Z</time>
      </trkpt>
      <trkpt lat="44.34965" lon="2.86465">
        <ele>821</ele>
        <time>2013-03-06T14:03:12.130Z</time>
      </trkpt>
      <trkpt lat="44.34966" lon="2.86465">
        <ele>821</ele>
        <time>2013-03-06T14:03:13.080Z</time>
      </trkpt>
      <trkpt lat="44.34968" lon="2.86466">
        <ele>821</ele>
        <time>2013-03-06T14:03:14.130Z</time>
      </trkpt>
      <trkpt lat="44.34969" lon="2.86466">
        <ele>821</ele>
        <time>2013-03-06T14:03:15.110Z</time>
      </trkpt>
      <trkpt lat="44.3497" lon="2.86468">
        <ele>821</ele>
        <time>2013-03-06T14:03:17.130Z</time>
      </trkpt>
      <trkpt lat="44.34972" lon="2.86468">
        <ele>821</ele>
        <time>2013-03-06T14:03:18.100Z</time>
      </trkpt>
      <trkpt lat="44.34973" lon="2.8647">
        <ele>821</ele>
        <time>2013-03-06T14:03:19.130Z</time>
      </trkpt>
      <trkpt lat="44.34974" lon="2.8647">
        <ele>821</ele>
        <time>2013-03-06T14:03:20.080Z</time>
      </trkpt>
      <trkpt lat="44.34973" lon="2.86469">
        <ele>821</ele>
        <time>2013-03-06T14:03:24.080Z</time>
      </trkpt>
      <trkpt lat="44.34973" lon="2.86467">
        <ele>821</ele>
        <time>2013-03-06T14:03:25.130Z</time>
      </trkpt>
      <trkpt lat="44.34974" lon="2.86466">
        <ele>820</ele>
        <time>2013-03-06T14:03:26.080Z</time>
      </trkpt>
      <trkpt lat="44.34976" lon="2.86464">
        <ele>820</ele>
        <time>2013-03-06T14:03:28.040Z</time>
      </trkpt>
      <trkpt lat="44.34979" lon="2.86464">
        <ele>820</ele>
        <time>2013-03-06T14:03:29.130Z</time>
      </trkpt>
      <trkpt lat="44.34981" lon="2.86462">
        <ele>820</ele>
        <time>2013-03-06T14:03:30.070Z</time>
      </trkpt>
      <trkpt lat="44.34983" lon="2.86462">
        <ele>820</ele>
        <time>2013-03-06T14:03:31.130Z</time>
      </trkpt>
      <trkpt lat="44.34985" lon="2.86462">
        <ele>819</ele>
        <time>2013-03-06T14:03:32.070Z</time>
      </trkpt>
      <trkpt lat="44.34988" lon="2.86461">
        <ele>819</ele>
        <time>2013-03-06T14:03:33.110Z</time>
      </trkpt>
      <trkpt lat="44.34991" lon="2.8646">
        <ele>819</ele>
        <time>2013-03-06T14:03:35.130Z</time>
      </trkpt>
      <trkpt lat="44.34993" lon="2.8646">
        <ele>819</ele>
        <time>2013-03-06T14:03:36.060Z</time>
      </trkpt>
      <trkpt lat="44.34994" lon="2.8646">
        <ele>819</ele>
        <time>2013-03-06T14:03:37.130Z</time>
      </trkpt>
      <trkpt lat="44.34995" lon="2.86459">
        <ele>819</ele>
        <time>2013-03-06T14:03:38.080Z</time>
      </trkpt>
      <trkpt lat="44.34995" lon="2.86456">
        <ele>818</ele>
        <time>2013-03-06T14:03:40.080Z</time>
      </trkpt>
      <trkpt lat="44.34996" lon="2.86454">
        <ele>817</ele>
        <time>2013-03-06T14:03:42.070Z</time>
      </trkpt>
      <trkpt lat="44.34997" lon="2.86455">
        <ele>817</ele>
        <time>2013-03-06T14:03:43.120Z</time>
      </trkpt>
      <trkpt lat="44.34999" lon="2.86455">
        <ele>818</ele>
        <time>2013-03-06T14:03:44.070Z</time>
      </trkpt>
      <trkpt lat="44.35001" lon="2.86455">
        <ele>816</ele>
        <time>2013-03-06T14:03:46.070Z</time>
      </trkpt>
      <trkpt lat="44.35002" lon="2.86457">
        <ele>816</ele>
        <time>2013-03-06T14:03:47.120Z</time>
      </trkpt>
      <trkpt lat="44.35003" lon="2.86459">
        <ele>817</ele>
        <time>2013-03-06T14:03:48.070Z</time>
      </trkpt>
      <trkpt lat="44.35004" lon="2.8646">
        <ele>817</ele>
        <time>2013-03-06T14:03:49.020Z</time>
      </trkpt>
      <trkpt lat="44.35005" lon="2.86461">
        <ele>817</ele>
        <time>2013-03-06T14:03:51.210Z</time>
      </trkpt>
      <trkpt lat="44.35007" lon="2.86461">
        <ele>817</ele>
        <time>2013-03-06T14:03:53.100Z</time>
      </trkpt>
      <trkpt lat="44.35007" lon="2.8646">
        <ele>817</ele>
        <time>2013-03-06T14:03:55.120Z</time>
      </trkpt>
      <trkpt lat="44.35008" lon="2.8646">
        <ele>817</ele>
        <time>2013-03-06T14:03:56.060Z</time>
      </trkpt>
      <trkpt lat="44.3501" lon="2.86459">
        <ele>817</ele>
        <time>2013-03-06T14:03:58.080Z</time>
      </trkpt>
      <trkpt lat="44.35011" lon="2.86459">
        <ele>817</ele>
        <time>2013-03-06T14:03:59.180Z</time>
      </trkpt>
      <trkpt lat="44.35012" lon="2.86458">
        <ele>816</ele>
        <time>2013-03-06T14:04:00.130Z</time>
      </trkpt>
      <trkpt lat="44.35012" lon="2.86457">
        <ele>816</ele>
        <time>2013-03-06T14:04:04.110Z</time>
      </trkpt>
      <trkpt lat="44.35011" lon="2.86454">
        <ele>816</ele>
        <time>2013-03-06T14:04:06.080Z</time>
      </trkpt>
      <trkpt lat="44.35015" lon="2.86453">
        <ele>815</ele>
        <time>2013-03-06T14:04:10.020Z</time>
      </trkpt>
      <trkpt lat="44.35016" lon="2.86454">
        <ele>816</ele>
        <time>2013-03-06T14:04:11.120Z</time>
      </trkpt>
      <trkpt lat="44.35017" lon="2.86455">
        <ele>816</ele>
        <time>2013-03-06T14:04:12.070Z</time>
      </trkpt>
      <trkpt lat="44.3502" lon="2.86458">
        <ele>817</ele>
        <time>2013-03-06T14:04:16.160Z</time>
      </trkpt>
      <trkpt lat="44.35021" lon="2.86459">
        <ele>817</ele>
        <time>2013-03-06T14:04:18.110Z</time>
      </trkpt>
      <trkpt lat="44.35022" lon="2.86459">
        <ele>817</ele>
        <time>2013-03-06T14:04:20.120Z</time>
      </trkpt>
      <trkpt lat="44.35023" lon="2.86458">
        <ele>817</ele>
        <time>2013-03-06T14:04:21.120Z</time>
      </trkpt>
      <trkpt lat="44.35026" lon="2.86457">
        <ele>816</ele>
        <time>2013-03-06T14:04:23.110Z</time>
      </trkpt>
      <trkpt lat="44.35029" lon="2.86457">
        <ele>817</ele>
        <time>2013-03-06T14:04:24.970Z</time>
      </trkpt>
      <trkpt lat="44.3503" lon="2.86458">
        <ele>817</ele>
        <time>2013-03-06T14:04:25.970Z</time>
      </trkpt>
      <trkpt lat="44.35031" lon="2.86459">
        <ele>817</ele>
        <time>2013-03-06T14:04:27.110Z</time>
      </trkpt>
      <trkpt lat="44.35033" lon="2.86462">
        <ele>817</ele>
        <time>2013-03-06T14:04:29.120Z</time>
      </trkpt>
      <trkpt lat="44.35036" lon="2.86464">
        <ele>818</ele>
        <time>2013-03-06T14:04:31.110Z</time>
      </trkpt>
      <trkpt lat="44.35037" lon="2.86465">
        <ele>818</ele>
        <time>2013-03-06T14:04:32.060Z</time>
      </trkpt>
      <trkpt lat="44.35037" lon="2.86467">
        <ele>818</ele>
        <time>2013-03-06T14:04:33.120Z</time>
      </trkpt>
      <trkpt lat="44.35039" lon="2.86469">
        <ele>818</ele>
        <time>2013-03-06T14:04:35.110Z</time>
      </trkpt>
      <trkpt lat="44.3504" lon="2.8647">
        <ele>819</ele>
        <time>2013-03-06T14:04:38.110Z</time>
      </trkpt>
      <trkpt lat="44.35042" lon="2.86472">
        <ele>819</ele>
        <time>2013-03-06T14:04:40.110Z</time>
      </trkpt>
      <trkpt lat="44.35043" lon="2.86474">
        <ele>819</ele>
        <time>2013-03-06T14:04:42.110Z</time>
      </trkpt>
      <trkpt lat="44.35044" lon="2.86475">
        <ele>819</ele>
        <time>2013-03-06T14:04:43.970Z</time>
      </trkpt>
      <trkpt lat="44.35045" lon="2.86475">
        <ele>819</ele>
        <time>2013-03-06T14:04:46.130Z</time>
      </trkpt>
      <trkpt lat="44.35047" lon="2.86476">
        <ele>820</ele>
        <time>2013-03-06T14:04:48.110Z</time>
      </trkpt>
      <trkpt lat="44.35048" lon="2.86475">
        <ele>820</ele>
        <time>2013-03-06T14:04:50.160Z</time>
      </trkpt>
      <trkpt lat="44.3505" lon="2.86476">
        <ele>820</ele>
        <time>2013-03-06T14:04:52.110Z</time>
      </trkpt>
      <trkpt lat="44.35053" lon="2.86476">
        <ele>820</ele>
        <time>2013-03-06T14:04:55.110Z</time>
      </trkpt>
      <trkpt lat="44.35054" lon="2.86475">
        <ele>820</ele>
        <time>2013-03-06T14:04:57.110Z</time>
      </trkpt>
      <trkpt lat="44.35055" lon="2.86475">
        <ele>820</ele>
        <time>2013-03-06T14:04:59.160Z</time>
      </trkpt>
      <trkpt lat="44.35055" lon="2.86475">
        <ele>820</ele>
        <time>2013-03-06T14:05:00.110Z</time>
      </trkpt>
      <trkpt lat="44.35057" lon="2.86476">
        <ele>820</ele>
        <time>2013-03-06T14:05:02.190Z</time>
      </trkpt>
      <trkpt lat="44.35058" lon="2.86479">
        <ele>821</ele>
        <time>2013-03-06T14:05:04.100Z</time>
      </trkpt>
      <trkpt lat="44.35059" lon="2.8648">
        <ele>821</ele>
        <time>2013-03-06T14:05:05.020Z</time>
      </trkpt>
      <trkpt lat="44.3506" lon="2.86481">
        <ele>821</ele>
        <time>2013-03-06T14:05:06.100Z</time>
      </trkpt>
      <trkpt lat="44.35061" lon="2.86482">
        <ele>821</ele>
        <time>2013-03-06T14:05:07.050Z</time>
      </trkpt>
      <trkpt lat="44.35062" lon="2.86483">
        <ele>821</ele>
        <time>2013-03-06T14:05:08.100Z</time>
      </trkpt>
      <trkpt lat="44.35062" lon="2.86484">
        <ele>822</ele>
        <time>2013-03-06T14:05:09.060Z</time>
      </trkpt>
      <trkpt lat="44.35063" lon="2.86485">
        <ele>822</ele>
        <time>2013-03-06T14:05:10.100Z</time>
      </trkpt>
      <trkpt lat="44.35064" lon="2.86486">
        <ele>822</ele>
        <time>2013-03-06T14:05:11.040Z</time>
      </trkpt>
      <trkpt lat="44.35063" lon="2.86487">
        <ele>822</ele>
        <time>2013-03-06T14:05:14.100Z</time>
      </trkpt>
      <trkpt lat="44.35064" lon="2.86487">
        <ele>822</ele>
        <time>2013-03-06T14:05:21.060Z</time>
      </trkpt>
      <trkpt lat="44.35064" lon="2.86486">
        <ele>822</ele>
        <time>2013-03-06T14:05:28.060Z</time>
      </trkpt>
      <trkpt lat="44.35064" lon="2.86484">
        <ele>822</ele>
        <time>2013-03-06T14:05:30.100Z</time>
      </trkpt>
      <trkpt lat="44.35066" lon="2.86485">
        <ele>822</ele>
        <time>2013-03-06T14:05:32.100Z</time>
      </trkpt>
      <trkpt lat="44.35067" lon="2.86485">
        <ele>823</ele>
        <time>2013-03-06T14:05:33.050Z</time>
      </trkpt>
      <trkpt lat="44.3507" lon="2.86485">
        <ele>823</ele>
        <time>2013-03-06T14:05:35.180Z</time>
      </trkpt>
      <trkpt lat="44.35073" lon="2.86487">
        <ele>824</ele>
        <time>2013-03-06T14:05:37.100Z</time>
      </trkpt>
      <trkpt lat="44.35075" lon="2.8649">
        <ele>825</ele>
        <time>2013-03-06T14:05:38.000Z</time>
      </trkpt>
      <trkpt lat="44.35076" lon="2.86493">
        <ele>826</ele>
        <time>2013-03-06T14:05:39.100Z</time>
      </trkpt>
      <trkpt lat="44.35077" lon="2.86496">
        <ele>827</ele>
        <time>2013-03-06T14:05:40.010Z</time>
      </trkpt>
      <trkpt lat="44.35078" lon="2.86499">
        <ele>828</ele>
        <time>2013-03-06T14:05:41.100Z</time>
      </trkpt>
      <trkpt lat="44.3508" lon="2.86501">
        <ele>831</ele>
        <time>2013-03-06T14:05:42.130Z</time>
      </trkpt>
      <trkpt lat="44.35081" lon="2.86505">
        <ele>831</ele>
        <time>2013-03-06T14:05:44.110Z</time>
      </trkpt>
      <trkpt lat="44.35084" lon="2.86506">
        <ele>827</ele>
        <time>2013-03-06T14:05:46.110Z</time>
      </trkpt>
      <trkpt lat="44.35085" lon="2.86505">
        <ele>828</ele>
        <time>2013-03-06T14:05:48.110Z</time>
      </trkpt>
      <trkpt lat="44.35086" lon="2.86508">
        <ele>827</ele>
        <time>2013-03-06T14:05:50.190Z</time>
      </trkpt>
      <trkpt lat="44.35086" lon="2.86512">
        <ele>826</ele>
        <time>2013-03-06T14:05:52.090Z</time>
      </trkpt>
      <trkpt lat="44.35086" lon="2.86513">
        <ele>826</ele>
        <time>2013-03-06T14:05:53.030Z</time>
      </trkpt>
      <trkpt lat="44.35086" lon="2.86515">
        <ele>825</ele>
        <time>2013-03-06T14:05:55.040Z</time>
      </trkpt>
      <trkpt lat="44.35086" lon="2.86517">
        <ele>825</ele>
        <time>2013-03-06T14:05:57.130Z</time>
      </trkpt>
      <trkpt lat="44.35086" lon="2.8652">
        <ele>825</ele>
        <time>2013-03-06T14:05:59.170Z</time>
      </trkpt>
      <trkpt lat="44.35086" lon="2.8652">
        <ele>825</ele>
        <time>2013-03-06T14:06:00.970Z</time>
      </trkpt>
      <trkpt lat="44.35086" lon="2.86517">
        <ele>825</ele>
        <time>2013-03-06T14:06:07.970Z</time>
      </trkpt>
      <trkpt lat="44.35085" lon="2.86515">
        <ele>825</ele>
        <time>2013-03-06T14:06:08.970Z</time>
      </trkpt>
      <trkpt lat="44.35085" lon="2.86513">
        <ele>826</ele>
        <time>2013-03-06T14:06:12.040Z</time>
      </trkpt>
      <trkpt lat="44.35085" lon="2.86512">
        <ele>826</ele>
        <time>2013-03-06T14:06:19.090Z</time>
      </trkpt>
      <trkpt lat="44.35087" lon="2.86511">
        <ele>826</ele>
        <time>2013-03-06T14:06:21.080Z</time>
      </trkpt>
      <trkpt lat="44.35088" lon="2.8651">
        <ele>826</ele>
        <time>2013-03-06T14:06:22.050Z</time>
      </trkpt>
      <trkpt lat="44.35088" lon="2.86509">
        <ele>826</ele>
        <time>2013-03-06T14:06:23.070Z</time>
      </trkpt>
      <trkpt lat="44.35089" lon="2.86507">
        <ele>826</ele>
        <time>2013-03-06T14:06:24.030Z</time>
      </trkpt>
      <trkpt lat="44.3509" lon="2.86506">
        <ele>826</ele>
        <time>2013-03-06T14:06:25.080Z</time>
      </trkpt>
      <trkpt lat="44.35091" lon="2.86504">
        <ele>826</ele>
        <time>2013-03-06T14:06:26.030Z</time>
      </trkpt>
      <trkpt lat="44.35093" lon="2.86502">
        <ele>826</ele>
        <time>2013-03-06T14:06:27.080Z</time>
      </trkpt>
      <trkpt lat="44.35094" lon="2.86501">
        <ele>826</ele>
        <time>2013-03-06T14:06:28.050Z</time>
      </trkpt>
      <trkpt lat="44.35095" lon="2.865">
        <ele>821</ele>
        <time>2013-03-06T14:06:29.080Z</time>
      </trkpt>
      <trkpt lat="44.35096" lon="2.86498">
        <ele>820</ele>
        <time>2013-03-06T14:06:30.040Z</time>
      </trkpt>
      <trkpt lat="44.35097" lon="2.86496">
        <ele>819</ele>
        <time>2013-03-06T14:06:31.080Z</time>
      </trkpt>
      <trkpt lat="44.35099" lon="2.86493">
        <ele>818</ele>
        <time>2013-03-06T14:06:32.000Z</time>
      </trkpt>
      <trkpt lat="44.351" lon="2.8649">
        <ele>817</ele>
        <time>2013-03-06T14:06:33.040Z</time>
      </trkpt>
      <trkpt lat="44.35101" lon="2.86487">
        <ele>816</ele>
        <time>2013-03-06T14:06:34.000Z</time>
      </trkpt>
      <trkpt lat="44.35102" lon="2.86486">
        <ele>815</ele>
        <time>2013-03-06T14:06:35.080Z</time>
      </trkpt>
      <trkpt lat="44.35101" lon="2.86485">
        <ele>815</ele>
        <time>2013-03-06T14:06:36.980Z</time>
      </trkpt>
      <trkpt lat="44.35102" lon="2.86486">
        <ele>815</ele>
        <time>2013-03-06T14:06:42.080Z</time>
      </trkpt>
      <trkpt lat="44.35102" lon="2.86487">
        <ele>815</ele>
        <time>2013-03-06T14:06:44.980Z</time>
      </trkpt>
      <trkpt lat="44.35103" lon="2.86488">
        <ele>815</ele>
        <time>2013-03-06T14:06:49.080Z</time>
      </trkpt>
      <trkpt lat="44.35102" lon="2.86484">
        <ele>815</ele>
        <time>2013-03-06T14:06:59.280Z</time>
      </trkpt>
      <trkpt lat="44.35097" lon="2.86477">
        <ele>814</ele>
        <time>2013-03-06T14:07:00.970Z</time>
      </trkpt>
      <trkpt lat="44.35094" lon="2.86473">
        <ele>813</ele>
        <time>2013-03-06T14:07:02.100Z</time>
      </trkpt>
      <trkpt lat="44.35088" lon="2.86466">
        <ele>812</ele>
        <time>2013-03-06T14:07:03.970Z</time>
      </trkpt>
      <trkpt lat="44.35086" lon="2.86463">
        <ele>812</ele>
        <time>2013-03-06T14:07:04.970Z</time>
      </trkpt>
      <trkpt lat="44.35084" lon="2.86459">
        <ele>811</ele>
        <time>2013-03-06T14:07:06.110Z</time>
      </trkpt>
      <trkpt lat="44.35083" lon="2.8645">
        <ele>816</ele>
        <time>2013-03-06T14:07:08.080Z</time>
      </trkpt>
      <trkpt lat="44.35085" lon="2.86442">
        <ele>808</ele>
        <time>2013-03-06T14:07:10.150Z</time>
      </trkpt>
      <trkpt lat="44.35089" lon="2.86434">
        <ele>807</ele>
        <time>2013-03-06T14:07:12.110Z</time>
      </trkpt>
      <trkpt lat="44.35094" lon="2.86429">
        <ele>807</ele>
        <time>2013-03-06T14:07:14.100Z</time>
      </trkpt>
      <trkpt lat="44.35098" lon="2.86425">
        <ele>806</ele>
        <time>2013-03-06T14:07:16.030Z</time>
      </trkpt>
      <trkpt lat="44.35102" lon="2.86423">
        <ele>806</ele>
        <time>2013-03-06T14:07:18.070Z</time>
      </trkpt>
      <trkpt lat="44.35104" lon="2.86422">
        <ele>806</ele>
        <time>2013-03-06T14:07:19.030Z</time>
      </trkpt>
      <trkpt lat="44.35106" lon="2.86422">
        <ele>806</ele>
        <time>2013-03-06T14:07:20.070Z</time>
      </trkpt>
      <trkpt lat="44.35108" lon="2.86423">
        <ele>806</ele>
        <time>2013-03-06T14:07:21.080Z</time>
      </trkpt>
      <trkpt lat="44.35111" lon="2.86424">
        <ele>805</ele>
        <time>2013-03-06T14:07:25.120Z</time>
      </trkpt>
      <trkpt lat="44.35113" lon="2.86424">
        <ele>805</ele>
        <time>2013-03-06T14:07:27.970Z</time>
      </trkpt>
      <trkpt lat="44.35114" lon="2.86425">
        <ele>805</ele>
        <time>2013-03-06T14:07:29.080Z</time>
      </trkpt>
      <trkpt lat="44.35117" lon="2.86426">
        <ele>805</ele>
        <time>2013-03-06T14:07:30.970Z</time>
      </trkpt>
      <trkpt lat="44.35118" lon="2.86426">
        <ele>804</ele>
        <time>2013-03-06T14:07:32.980Z</time>
      </trkpt>
      <trkpt lat="44.35119" lon="2.86425">
        <ele>804</ele>
        <time>2013-03-06T14:07:34.030Z</time>
      </trkpt>
      <trkpt lat="44.3512" lon="2.86426">
        <ele>804</ele>
        <time>2013-03-06T14:07:35.070Z</time>
      </trkpt>
      <trkpt lat="44.35122" lon="2.86426">
        <ele>804</ele>
        <time>2013-03-06T14:07:35.980Z</time>
      </trkpt>
      <trkpt lat="44.35124" lon="2.86427">
        <ele>804</ele>
        <time>2013-03-06T14:07:37.070Z</time>
      </trkpt>
      <trkpt lat="44.35126" lon="2.86428">
        <ele>803</ele>
        <time>2013-03-06T14:07:38.020Z</time>
      </trkpt>
      <trkpt lat="44.35128" lon="2.86428">
        <ele>803</ele>
        <time>2013-03-06T14:07:39.070Z</time>
      </trkpt>
      <trkpt lat="44.3513" lon="2.86428">
        <ele>803</ele>
        <time>2013-03-06T14:07:40.020Z</time>
      </trkpt>
      <trkpt lat="44.35132" lon="2.86429">
        <ele>802</ele>
        <time>2013-03-06T14:07:41.060Z</time>
      </trkpt>
      <trkpt lat="44.35135" lon="2.8643">
        <ele>802</ele>
        <time>2013-03-06T14:07:41.970Z</time>
      </trkpt>
      <trkpt lat="44.35138" lon="2.86433">
        <ele>801</ele>
        <time>2013-03-06T14:07:43.060Z</time>
      </trkpt>
      <trkpt lat="44.35142" lon="2.86435">
        <ele>801</ele>
        <time>2013-03-06T14:07:44.080Z</time>
      </trkpt>
      <trkpt lat="44.35148" lon="2.86441">
        <ele>801</ele>
        <time>2013-03-06T14:07:46.100Z</time>
      </trkpt>
      <trkpt lat="44.35153" lon="2.86445">
        <ele>801</ele>
        <time>2013-03-06T14:07:47.970Z</time>
      </trkpt>
      <trkpt lat="44.35155" lon="2.86446">
        <ele>801</ele>
        <time>2013-03-06T14:07:49.060Z</time>
      </trkpt>
      <trkpt lat="44.35157" lon="2.86446">
        <ele>800</ele>
        <time>2013-03-06T14:07:49.980Z</time>
      </trkpt>
      <trkpt lat="44.35158" lon="2.86446">
        <ele>800</ele>
        <time>2013-03-06T14:07:51.010Z</time>
      </trkpt>
      <trkpt lat="44.3516" lon="2.86445">
        <ele>800</ele>
        <time>2013-03-06T14:07:52.060Z</time>
      </trkpt>
      <trkpt lat="44.35162" lon="2.86443">
        <ele>799</ele>
        <time>2013-03-06T14:07:53.010Z</time>
      </trkpt>
      <trkpt lat="44.35163" lon="2.86442">
        <ele>799</ele>
        <time>2013-03-06T14:07:54.060Z</time>
      </trkpt>
      <trkpt lat="44.35164" lon="2.8644">
        <ele>798</ele>
        <time>2013-03-06T14:07:55.010Z</time>
      </trkpt>
      <trkpt lat="44.35165" lon="2.86438">
        <ele>798</ele>
        <time>2013-03-06T14:07:55.970Z</time>
      </trkpt>
      <trkpt lat="44.35167" lon="2.86436">
        <ele>783</ele>
        <time>2013-03-06T14:07:57.100Z</time>
      </trkpt>
      <trkpt lat="44.35168" lon="2.86432">
        <ele>784</ele>
        <time>2013-03-06T14:07:59.000Z</time>
      </trkpt>
      <trkpt lat="44.35169" lon="2.86431">
        <ele>784</ele>
        <time>2013-03-06T14:07:59.970Z</time>
      </trkpt>
      <trkpt lat="44.3517" lon="2.86431">
        <ele>784</ele>
        <time>2013-03-06T14:08:01.060Z</time>
      </trkpt>
      <trkpt lat="44.35171" lon="2.86432">
        <ele>783</ele>
        <time>2013-03-06T14:08:02.100Z</time>
      </trkpt>
      <trkpt lat="44.35173" lon="2.86431">
        <ele>783</ele>
        <time>2013-03-06T14:08:06.970Z</time>
      </trkpt>
      <trkpt lat="44.35174" lon="2.8643">
        <ele>783</ele>
        <time>2013-03-06T14:08:08.060Z</time>
      </trkpt>
      <trkpt lat="44.35176" lon="2.86429">
        <ele>783</ele>
        <time>2013-03-06T14:08:10.060Z</time>
      </trkpt>
      <trkpt lat="44.35177" lon="2.86428">
        <ele>783</ele>
        <time>2013-03-06T14:08:13.020Z</time>
      </trkpt>
      <trkpt lat="44.35177" lon="2.86427">
        <ele>783</ele>
        <time>2013-03-06T14:08:15.980Z</time>
      </trkpt>
      <trkpt lat="44.35178" lon="2.86426">
        <ele>783</ele>
        <time>2013-03-06T14:08:30.000Z</time>
      </trkpt>
      <trkpt lat="44.35178" lon="2.86425">
        <ele>783</ele>
        <time>2013-03-06T14:08:33.010Z</time>
      </trkpt>
      <trkpt lat="44.35177" lon="2.86424">
        <ele>784</ele>
        <time>2013-03-06T14:08:36.110Z</time>
      </trkpt>
      <trkpt lat="44.35178" lon="2.86426">
        <ele>783</ele>
        <time>2013-03-06T14:08:37.970Z</time>
      </trkpt>
      <trkpt lat="44.35179" lon="2.86426">
        <ele>783</ele>
        <time>2013-03-06T14:08:40.050Z</time>
      </trkpt>
      <trkpt lat="44.35179" lon="2.86425">
        <ele>783</ele>
        <time>2013-03-06T14:08:44.970Z</time>
      </trkpt>
      <trkpt lat="44.35178" lon="2.86423">
        <ele>784</ele>
        <time>2013-03-06T14:08:46.050Z</time>
      </trkpt>
      <trkpt lat="44.35178" lon="2.86421">
        <ele>784</ele>
        <time>2013-03-06T14:08:46.990Z</time>
      </trkpt>
      <trkpt lat="44.35178" lon="2.86417">
        <ele>784</ele>
        <time>2013-03-06T14:08:48.050Z</time>
      </trkpt>
      <trkpt lat="44.35179" lon="2.86413">
        <ele>781</ele>
        <time>2013-03-06T14:08:49.000Z</time>
      </trkpt>
      <trkpt lat="44.35179" lon="2.8641">
        <ele>780</ele>
        <time>2013-03-06T14:08:50.030Z</time>
      </trkpt>
      <trkpt lat="44.35179" lon="2.86407">
        <ele>779</ele>
        <time>2013-03-06T14:08:51.110Z</time>
      </trkpt>
      <trkpt lat="44.35179" lon="2.86404">
        <ele>778</ele>
        <time>2013-03-06T14:08:53.050Z</time>
      </trkpt>
      <trkpt lat="44.35181" lon="2.86402">
        <ele>777</ele>
        <time>2013-03-06T14:08:54.000Z</time>
      </trkpt>
      <trkpt lat="44.35182" lon="2.86404">
        <ele>777</ele>
        <time>2013-03-06T14:08:55.050Z</time>
      </trkpt>
      <trkpt lat="44.35184" lon="2.86406">
        <ele>777</ele>
        <time>2013-03-06T14:08:57.050Z</time>
      </trkpt>
      <trkpt lat="44.35185" lon="2.86407">
        <ele>777</ele>
        <time>2013-03-06T14:08:58.010Z</time>
      </trkpt>
      <trkpt lat="44.35186" lon="2.86409">
        <ele>777</ele>
        <time>2013-03-06T14:08:59.100Z</time>
      </trkpt>
      <trkpt lat="44.35187" lon="2.8641">
        <ele>777</ele>
        <time>2013-03-06T14:09:00.090Z</time>
      </trkpt>
      <trkpt lat="44.35188" lon="2.86411">
        <ele>776</ele>
        <time>2013-03-06T14:09:02.060Z</time>
      </trkpt>
      <trkpt lat="44.35189" lon="2.86412">
        <ele>776</ele>
        <time>2013-03-06T14:09:03.150Z</time>
      </trkpt>
      <trkpt lat="44.3519" lon="2.86414">
        <ele>776</ele>
        <time>2013-03-06T14:09:04.090Z</time>
      </trkpt>
      <trkpt lat="44.3519" lon="2.86415">
        <ele>776</ele>
        <time>2013-03-06T14:09:05.140Z</time>
      </trkpt>
      <trkpt lat="44.35191" lon="2.86417">
        <ele>780</ele>
        <time>2013-03-06T14:09:06.100Z</time>
      </trkpt>
      <trkpt lat="44.35192" lon="2.86418">
        <ele>780</ele>
        <time>2013-03-06T14:09:07.140Z</time>
      </trkpt>
      <trkpt lat="44.35192" lon="2.8642">
        <ele>779</ele>
        <time>2013-03-06T14:09:08.110Z</time>
      </trkpt>
      <trkpt lat="44.35193" lon="2.86421">
        <ele>779</ele>
        <time>2013-03-06T14:09:09.140Z</time>
      </trkpt>
      <trkpt lat="44.35194" lon="2.86421">
        <ele>779</ele>
        <time>2013-03-06T14:09:10.110Z</time>
      </trkpt>
      <trkpt lat="44.35196" lon="2.86421">
        <ele>778</ele>
        <time>2013-03-06T14:09:12.090Z</time>
      </trkpt>
      <trkpt lat="44.35197" lon="2.8642">
        <ele>778</ele>
        <time>2013-03-06T14:09:14.090Z</time>
      </trkpt>
      <trkpt lat="44.35197" lon="2.86418">
        <ele>778</ele>
        <time>2013-03-06T14:09:16.100Z</time>
      </trkpt>
      <trkpt lat="44.35199" lon="2.86417">
        <ele>773</ele>
        <time>2013-03-06T14:09:18.080Z</time>
      </trkpt>
      <trkpt lat="44.352" lon="2.86416">
        <ele>773</ele>
        <time>2013-03-06T14:09:21.140Z</time>
      </trkpt>
      <trkpt lat="44.352" lon="2.86415">
        <ele>773</ele>
        <time>2013-03-06T14:09:22.110Z</time>
      </trkpt>
      <trkpt lat="44.35203" lon="2.86414">
        <ele>772</ele>
        <time>2013-03-06T14:09:24.050Z</time>
      </trkpt>
      <trkpt lat="44.35205" lon="2.86413">
        <ele>771</ele>
        <time>2013-03-06T14:09:25.140Z</time>
      </trkpt>
      <trkpt lat="44.35208" lon="2.86413">
        <ele>771</ele>
        <time>2013-03-06T14:09:26.090Z</time>
      </trkpt>
      <trkpt lat="44.3521" lon="2.86411">
        <ele>770</ele>
        <time>2013-03-06T14:09:27.140Z</time>
      </trkpt>
      <trkpt lat="44.35216" lon="2.86409">
        <ele>769</ele>
        <time>2013-03-06T14:09:29.140Z</time>
      </trkpt>
      <trkpt lat="44.35218" lon="2.86408">
        <ele>768</ele>
        <time>2013-03-06T14:09:30.090Z</time>
      </trkpt>
      <trkpt lat="44.3522" lon="2.86407">
        <ele>768</ele>
        <time>2013-03-06T14:09:31.140Z</time>
      </trkpt>
      <trkpt lat="44.35221" lon="2.86406">
        <ele>767</ele>
        <time>2013-03-06T14:09:32.080Z</time>
      </trkpt>
      <trkpt lat="44.35222" lon="2.86404">
        <ele>767</ele>
        <time>2013-03-06T14:09:33.190Z</time>
      </trkpt>
      <trkpt lat="44.35228" lon="2.864">
        <ele>766</ele>
        <time>2013-03-06T14:09:34.980Z</time>
      </trkpt>
      <trkpt lat="44.35232" lon="2.86397">
        <ele>766</ele>
        <time>2013-03-06T14:09:36.040Z</time>
      </trkpt>
      <trkpt lat="44.35235" lon="2.86393">
        <ele>765</ele>
        <time>2013-03-06T14:09:37.040Z</time>
      </trkpt>
      <trkpt lat="44.35239" lon="2.86391">
        <ele>765</ele>
        <time>2013-03-06T14:09:38.110Z</time>
      </trkpt>
      <trkpt lat="44.35243" lon="2.86392">
        <ele>765</ele>
        <time>2013-03-06T14:09:40.120Z</time>
      </trkpt>
      <trkpt lat="44.35245" lon="2.86392">
        <ele>764</ele>
        <time>2013-03-06T14:09:42.040Z</time>
      </trkpt>
      <trkpt lat="44.35246" lon="2.86392">
        <ele>764</ele>
        <time>2013-03-06T14:09:42.980Z</time>
      </trkpt>
      <trkpt lat="44.35247" lon="2.86392">
        <ele>764</ele>
        <time>2013-03-06T14:09:43.970Z</time>
      </trkpt>
      <trkpt lat="44.35249" lon="2.86391">
        <ele>764</ele>
        <time>2013-03-06T14:09:44.970Z</time>
      </trkpt>
      <trkpt lat="44.35251" lon="2.86391">
        <ele>749</ele>
        <time>2013-03-06T14:09:46.100Z</time>
      </trkpt>
      <trkpt lat="44.35252" lon="2.8639">
        <ele>749</ele>
        <time>2013-03-06T14:09:47.130Z</time>
      </trkpt>
      <trkpt lat="44.35254" lon="2.8639">
        <ele>749</ele>
        <time>2013-03-06T14:09:48.090Z</time>
      </trkpt>
      <trkpt lat="44.35255" lon="2.8639">
        <ele>749</ele>
        <time>2013-03-06T14:09:49.130Z</time>
      </trkpt>
      <trkpt lat="44.35257" lon="2.8639">
        <ele>749</ele>
        <time>2013-03-06T14:09:50.090Z</time>
      </trkpt>
      <trkpt lat="44.35258" lon="2.86389">
        <ele>748</ele>
        <time>2013-03-06T14:09:52.130Z</time>
      </trkpt>
      <trkpt lat="44.35261" lon="2.86392">
        <ele>749</ele>
        <time>2013-03-06T14:09:54.030Z</time>
      </trkpt>
      <trkpt lat="44.35261" lon="2.86394">
        <ele>749</ele>
        <time>2013-03-06T14:09:55.970Z</time>
      </trkpt>
      <trkpt lat="44.35262" lon="2.86395">
        <ele>749</ele>
        <time>2013-03-06T14:09:59.090Z</time>
      </trkpt>
      <trkpt lat="44.35264" lon="2.86395">
        <ele>749</ele>
        <time>2013-03-06T14:10:00.980Z</time>
      </trkpt>
      <trkpt lat="44.35265" lon="2.86398">
        <ele>749</ele>
        <time>2013-03-06T14:10:01.970Z</time>
      </trkpt>
      <trkpt lat="44.35266" lon="2.86399">
        <ele>749</ele>
        <time>2013-03-06T14:10:05.110Z</time>
      </trkpt>
      <trkpt lat="44.35266" lon="2.86401">
        <ele>749</ele>
        <time>2013-03-06T14:10:06.100Z</time>
      </trkpt>
      <trkpt lat="44.35265" lon="2.86402">
        <ele>749</ele>
        <time>2013-03-06T14:10:07.130Z</time>
      </trkpt>
      <trkpt lat="44.35267" lon="2.86401">
        <ele>749</ele>
        <time>2013-03-06T14:10:09.130Z</time>
      </trkpt>
      <trkpt lat="44.35269" lon="2.86402">
        <ele>748</ele>
        <time>2013-03-06T14:10:12.070Z</time>
      </trkpt>
      <trkpt lat="44.35268" lon="2.86402">
        <ele>749</ele>
        <time>2013-03-06T14:10:14.080Z</time>
      </trkpt>
      <trkpt lat="44.35267" lon="2.86403">
        <ele>749</ele>
        <time>2013-03-06T14:10:18.080Z</time>
      </trkpt>
      <trkpt lat="44.35267" lon="2.86404">
        <ele>749</ele>
        <time>2013-03-06T14:10:30.020Z</time>
      </trkpt>
      <trkpt lat="44.35267" lon="2.86407">
        <ele>750</ele>
        <time>2013-03-06T14:10:39.130Z</time>
      </trkpt>
      <trkpt lat="44.35267" lon="2.86405">
        <ele>750</ele>
        <time>2013-03-06T14:10:45.120Z</time>
      </trkpt>
      <trkpt lat="44.35266" lon="2.86406">
        <ele>750</ele>
        <time>2013-03-06T14:10:52.080Z</time>
      </trkpt>
      <trkpt lat="44.35265" lon="2.86408">
        <ele>750</ele>
        <time>2013-03-06T14:10:53.100Z</time>
      </trkpt>
      <trkpt lat="44.35266" lon="2.86408">
        <ele>750</ele>
        <time>2013-03-06T14:10:58.080Z</time>
      </trkpt>
      <trkpt lat="44.35267" lon="2.86407">
        <ele>750</ele>
        <time>2013-03-06T14:11:01.120Z</time>
      </trkpt>
      <trkpt lat="44.35267" lon="2.86408">
        <ele>750</ele>
        <time>2013-03-06T14:11:13.080Z</time>
      </trkpt>
      <trkpt lat="44.35267" lon="2.8641">
        <ele>750</ele>
        <time>2013-03-06T14:11:31.110Z</time>
      </trkpt>
      <trkpt lat="44.35267" lon="2.86412">
        <ele>750</ele>
        <time>2013-03-06T14:11:32.980Z</time>
      </trkpt>
      <trkpt lat="44.35267" lon="2.86413">
        <ele>751</ele>
        <time>2013-03-06T14:11:35.110Z</time>
      </trkpt>
      <trkpt lat="44.35268" lon="2.86413">
        <ele>750</ele>
        <time>2013-03-06T14:11:41.020Z</time>
      </trkpt>
      <trkpt lat="44.35269" lon="2.86412">
        <ele>749</ele>
        <time>2013-03-06T14:11:51.120Z</time>
      </trkpt>
      <trkpt lat="44.3527" lon="2.86411">
        <ele>749</ele>
        <time>2013-03-06T14:11:53.170Z</time>
      </trkpt>
      <trkpt lat="44.35272" lon="2.86412">
        <ele>749</ele>
        <time>2013-03-06T14:11:55.110Z</time>
      </trkpt>
      <trkpt lat="44.35273" lon="2.86412">
        <ele>748</ele>
        <time>2013-03-06T14:11:57.190Z</time>
      </trkpt>
      <trkpt lat="44.35274" lon="2.86413">
        <ele>748</ele>
        <time>2013-03-06T14:11:59.060Z</time>
      </trkpt>
      <trkpt lat="44.35275" lon="2.86413">
        <ele>748</ele>
        <time>2013-03-06T14:12:00.020Z</time>
      </trkpt>
      <trkpt lat="44.35276" lon="2.86413">
        <ele>748</ele>
        <time>2013-03-06T14:12:01.100Z</time>
      </trkpt>
      <trkpt lat="44.35278" lon="2.86414">
        <ele>747</ele>
        <time>2013-03-06T14:12:03.100Z</time>
      </trkpt>
      <trkpt lat="44.35278" lon="2.86415">
        <ele>747</ele>
        <time>2013-03-06T14:12:04.040Z</time>
      </trkpt>
      <trkpt lat="44.35279" lon="2.86416">
        <ele>747</ele>
        <time>2013-03-06T14:12:05.100Z</time>
      </trkpt>
      <trkpt lat="44.35278" lon="2.86417">
        <ele>748</ele>
        <time>2013-03-06T14:12:07.100Z</time>
      </trkpt>
      <trkpt lat="44.35277" lon="2.86418">
        <ele>748</ele>
        <time>2013-03-06T14:12:08.070Z</time>
      </trkpt>
      <trkpt lat="44.35276" lon="2.86419">
        <ele>748</ele>
        <time>2013-03-06T14:12:09.080Z</time>
      </trkpt>
      <trkpt lat="44.35275" lon="2.86419">
        <ele>749</ele>
        <time>2013-03-06T14:12:12.120Z</time>
      </trkpt>
      <trkpt lat="44.35274" lon="2.86422">
        <ele>749</ele>
        <time>2013-03-06T14:12:26.110Z</time>
      </trkpt>
      <trkpt lat="44.35272" lon="2.86425">
        <ele>749</ele>
        <time>2013-03-06T14:12:27.970Z</time>
      </trkpt>
      <trkpt lat="44.35272" lon="2.86426">
        <ele>749</ele>
        <time>2013-03-06T14:12:43.110Z</time>
      </trkpt>
      <trkpt lat="44.35273" lon="2.86428">
        <ele>749</ele>
        <time>2013-03-06T14:12:47.990Z</time>
      </trkpt>
      <trkpt lat="44.35273" lon="2.8643">
        <ele>748</ele>
        <time>2013-03-06T14:12:57.110Z</time>
      </trkpt>
      <trkpt lat="44.35273" lon="2.8643">
        <ele>748</ele>
        <time>2013-03-06T14:13:01.090Z</time>
      </trkpt>
      <trkpt lat="44.35274" lon="2.86428">
        <ele>748</ele>
        <time>2013-03-06T14:13:47.080Z</time>
      </trkpt>
      <trkpt lat="44.35274" lon="2.86429">
        <ele>748</ele>
        <time>2013-03-06T14:14:00.070Z</time>
      </trkpt>
      <trkpt lat="44.35275" lon="2.86428">
        <ele>748</ele>
        <time>2013-03-06T14:14:05.110Z</time>
      </trkpt>
      <trkpt lat="44.35273" lon="2.86428">
        <ele>749</ele>
        <time>2013-03-06T14:14:07.020Z</time>
      </trkpt>
      <trkpt lat="44.35272" lon="2.86427">
        <ele>749</ele>
        <time>2013-03-06T14:14:08.070Z</time>
      </trkpt>
      <trkpt lat="44.35272" lon="2.86426">
        <ele>749</ele>
        <time>2013-03-06T14:14:09.970Z</time>
      </trkpt>
      <trkpt lat="44.35272" lon="2.86424">
        <ele>749</ele>
        <time>2013-03-06T14:14:13.120Z</time>
      </trkpt>
      <trkpt lat="44.35272" lon="2.86425">
        <ele>749</ele>
        <time>2013-03-06T14:14:33.120Z</time>
      </trkpt>
      <trkpt lat="44.35272" lon="2.86425">
        <ele>749</ele>
        <time>2013-03-06T14:15:00.970Z</time>
      </trkpt>
      <trkpt lat="44.35274" lon="2.86425">
        <ele>749</ele>
        <time>2013-03-06T14:15:25.110Z</time>
      </trkpt>
      <trkpt lat="44.35275" lon="2.86426">
        <ele>748</ele>
        <time>2013-03-06T14:15:28.000Z</time>
      </trkpt>
      <trkpt lat="44.35276" lon="2.86427">
        <ele>748</ele>
        <time>2013-03-06T14:15:34.970Z</time>
      </trkpt>
      <trkpt lat="44.35277" lon="2.86425">
        <ele>748</ele>
        <time>2013-03-06T14:15:39.970Z</time>
      </trkpt>
      <trkpt lat="44.35279" lon="2.86425">
        <ele>747</ele>
        <time>2013-03-06T14:15:42.970Z</time>
      </trkpt>
      <trkpt lat="44.35278" lon="2.86426">
        <ele>747</ele>
        <time>2013-03-06T14:15:50.100Z</time>
      </trkpt>
      <trkpt lat="44.35279" lon="2.86427">
        <ele>747</ele>
        <time>2013-03-06T14:15:53.110Z</time>
      </trkpt>
      <trkpt lat="44.3528" lon="2.86428">
        <ele>747</ele>
        <time>2013-03-06T14:15:57.090Z</time>
      </trkpt>
      <trkpt lat="44.3528" lon="2.86429">
        <ele>747</ele>
        <time>2013-03-06T14:15:59.170Z</time>
      </trkpt>
      <trkpt lat="44.3528" lon="2.86431">
        <ele>747</ele>
        <time>2013-03-06T14:16:01.120Z</time>
      </trkpt>
      <trkpt lat="44.3528" lon="2.86433">
        <ele>747</ele>
        <time>2013-03-06T14:16:03.140Z</time>
      </trkpt>
      <trkpt lat="44.35282" lon="2.86432">
        <ele>746</ele>
        <time>2013-03-06T14:16:05.140Z</time>
      </trkpt>
      <trkpt lat="44.35283" lon="2.8643">
        <ele>746</ele>
        <time>2013-03-06T14:16:07.140Z</time>
      </trkpt>
      <trkpt lat="44.35283" lon="2.86428">
        <ele>746</ele>
        <time>2013-03-06T14:16:09.140Z</time>
      </trkpt>
      <trkpt lat="44.35284" lon="2.86426">
        <ele>746</ele>
        <time>2013-03-06T14:16:10.130Z</time>
      </trkpt>
      <trkpt lat="44.35288" lon="2.86421">
        <ele>745</ele>
        <time>2013-03-06T14:16:12.040Z</time>
      </trkpt>
      <trkpt lat="44.3529" lon="2.86418">
        <ele>745</ele>
        <time>2013-03-06T14:16:13.040Z</time>
      </trkpt>
      <trkpt lat="44.35291" lon="2.86414">
        <ele>743</ele>
        <time>2013-03-06T14:16:14.200Z</time>
      </trkpt>
      <trkpt lat="44.35293" lon="2.86407">
        <ele>743</ele>
        <time>2013-03-06T14:16:15.980Z</time>
      </trkpt>
      <trkpt lat="44.35293" lon="2.86405">
        <ele>743</ele>
        <time>2013-03-06T14:16:16.990Z</time>
      </trkpt>
      <trkpt lat="44.35295" lon="2.86403">
        <ele>742</ele>
        <time>2013-03-06T14:16:18.040Z</time>
      </trkpt>
      <trkpt lat="44.35296" lon="2.864">
        <ele>742</ele>
        <time>2013-03-06T14:16:18.990Z</time>
      </trkpt>
      <trkpt lat="44.35298" lon="2.86397">
        <ele>742</ele>
        <time>2013-03-06T14:16:20.040Z</time>
      </trkpt>
      <trkpt lat="44.35299" lon="2.86394">
        <ele>741</ele>
        <time>2013-03-06T14:16:21.090Z</time>
      </trkpt>
      <trkpt lat="44.353" lon="2.86391">
        <ele>741</ele>
        <time>2013-03-06T14:16:22.140Z</time>
      </trkpt>
      <trkpt lat="44.353" lon="2.86388">
        <ele>741</ele>
        <time>2013-03-06T14:16:23.100Z</time>
      </trkpt>
      <trkpt lat="44.35301" lon="2.86385">
        <ele>741</ele>
        <time>2013-03-06T14:16:24.140Z</time>
      </trkpt>
      <trkpt lat="44.353" lon="2.86382">
        <ele>741</ele>
        <time>2013-03-06T14:16:25.050Z</time>
      </trkpt>
      <trkpt lat="44.353" lon="2.86379">
        <ele>741</ele>
        <time>2013-03-06T14:16:26.140Z</time>
      </trkpt>
      <trkpt lat="44.353" lon="2.86376">
        <ele>741</ele>
        <time>2013-03-06T14:16:27.080Z</time>
      </trkpt>
      <trkpt lat="44.353" lon="2.86373">
        <ele>741</ele>
        <time>2013-03-06T14:16:28.130Z</time>
      </trkpt>
      <trkpt lat="44.353" lon="2.86369">
        <ele>741</ele>
        <time>2013-03-06T14:16:29.100Z</time>
      </trkpt>
      <trkpt lat="44.353" lon="2.86366">
        <ele>740</ele>
        <time>2013-03-06T14:16:30.140Z</time>
      </trkpt>
      <trkpt lat="44.35299" lon="2.86363">
        <ele>740</ele>
        <time>2013-03-06T14:16:31.080Z</time>
      </trkpt>
      <trkpt lat="44.35299" lon="2.86361">
        <ele>740</ele>
        <time>2013-03-06T14:16:32.140Z</time>
      </trkpt>
      <trkpt lat="44.353" lon="2.86359">
        <ele>740</ele>
        <time>2013-03-06T14:16:33.060Z</time>
      </trkpt>
      <trkpt lat="44.353" lon="2.86355">
        <ele>740</ele>
        <time>2013-03-06T14:16:35.090Z</time>
      </trkpt>
      <trkpt lat="44.353" lon="2.86353">
        <ele>740</ele>
        <time>2013-03-06T14:16:36.130Z</time>
      </trkpt>
      <trkpt lat="44.353" lon="2.86351">
        <ele>740</ele>
        <time>2013-03-06T14:16:37.090Z</time>
      </trkpt>
      <trkpt lat="44.353" lon="2.86349">
        <ele>740</ele>
        <time>2013-03-06T14:16:38.130Z</time>
      </trkpt>
      <trkpt lat="44.353" lon="2.86346">
        <ele>739</ele>
        <time>2013-03-06T14:16:40.130Z</time>
      </trkpt>
      <trkpt lat="44.353" lon="2.86345">
        <ele>739</ele>
        <time>2013-03-06T14:16:41.080Z</time>
      </trkpt>
      <trkpt lat="44.353" lon="2.86343">
        <ele>739</ele>
        <time>2013-03-06T14:16:42.130Z</time>
      </trkpt>
      <trkpt lat="44.353" lon="2.86341">
        <ele>739</ele>
        <time>2013-03-06T14:16:43.080Z</time>
      </trkpt>
      <trkpt lat="44.35299" lon="2.8634">
        <ele>739</ele>
        <time>2013-03-06T14:16:44.130Z</time>
      </trkpt>
      <trkpt lat="44.35299" lon="2.86338">
        <ele>739</ele>
        <time>2013-03-06T14:16:45.080Z</time>
      </trkpt>
      <trkpt lat="44.35299" lon="2.86336">
        <ele>739</ele>
        <time>2013-03-06T14:16:46.140Z</time>
      </trkpt>
      <trkpt lat="44.35299" lon="2.86332">
        <ele>734</ele>
        <time>2013-03-06T14:16:48.130Z</time>
      </trkpt>
      <trkpt lat="44.35298" lon="2.8633">
        <ele>734</ele>
        <time>2013-03-06T14:16:52.130Z</time>
      </trkpt>
      <trkpt lat="44.35297" lon="2.86328">
        <ele>734</ele>
        <time>2013-03-06T14:16:54.130Z</time>
      </trkpt>
      <trkpt lat="44.35298" lon="2.86328">
        <ele>734</ele>
        <time>2013-03-06T14:16:58.130Z</time>
      </trkpt>
      <trkpt lat="44.35298" lon="2.86328">
        <ele>734</ele>
        <time>2013-03-06T14:17:01.080Z</time>
      </trkpt>
      <trkpt lat="44.353" lon="2.86329">
        <ele>734</ele>
        <time>2013-03-06T14:17:07.080Z</time>
      </trkpt>
      <trkpt lat="44.353" lon="2.86327">
        <ele>734</ele>
        <time>2013-03-06T14:17:10.130Z</time>
      </trkpt>
      <trkpt lat="44.35301" lon="2.86326">
        <ele>733</ele>
        <time>2013-03-06T14:17:11.080Z</time>
      </trkpt>
      <trkpt lat="44.35301" lon="2.86325">
        <ele>733</ele>
        <time>2013-03-06T14:17:13.080Z</time>
      </trkpt>
      <trkpt lat="44.35299" lon="2.86324">
        <ele>734</ele>
        <time>2013-03-06T14:17:15.070Z</time>
      </trkpt>
      <trkpt lat="44.35299" lon="2.86323">
        <ele>734</ele>
        <time>2013-03-06T14:17:16.110Z</time>
      </trkpt>
      <trkpt lat="44.35297" lon="2.86324">
        <ele>734</ele>
        <time>2013-03-06T14:17:18.120Z</time>
      </trkpt>
      <trkpt lat="44.35296" lon="2.86325">
        <ele>734</ele>
        <time>2013-03-06T14:17:22.120Z</time>
      </trkpt>
      <trkpt lat="44.35295" lon="2.86326">
        <ele>735</ele>
        <time>2013-03-06T14:17:24.020Z</time>
      </trkpt>
      <trkpt lat="44.35294" lon="2.86327">
        <ele>735</ele>
        <time>2013-03-06T14:17:26.120Z</time>
      </trkpt>
      <trkpt lat="44.35293" lon="2.86327">
        <ele>735</ele>
        <time>2013-03-06T14:17:29.040Z</time>
      </trkpt>
      <trkpt lat="44.35292" lon="2.86327">
        <ele>736</ele>
        <time>2013-03-06T14:17:33.140Z</time>
      </trkpt>
      <trkpt lat="44.3529" lon="2.86327">
        <ele>736</ele>
        <time>2013-03-06T14:17:35.020Z</time>
      </trkpt>
      <trkpt lat="44.35289" lon="2.86327">
        <ele>736</ele>
        <time>2013-03-06T14:17:35.970Z</time>
      </trkpt>
      <trkpt lat="44.35288" lon="2.86326">
        <ele>737</ele>
        <time>2013-03-06T14:17:37.980Z</time>
      </trkpt>
      <trkpt lat="44.35287" lon="2.86324">
        <ele>737</ele>
        <time>2013-03-06T14:17:39.970Z</time>
      </trkpt>
      <trkpt lat="44.35286" lon="2.86323">
        <ele>737</ele>
        <time>2013-03-06T14:17:41.110Z</time>
      </trkpt>
      <trkpt lat="44.35286" lon="2.8632">
        <ele>737</ele>
        <time>2013-03-06T14:17:43.200Z</time>
      </trkpt>
      <trkpt lat="44.35288" lon="2.86317">
        <ele>736</ele>
        <time>2013-03-06T14:17:45.120Z</time>
      </trkpt>
      <trkpt lat="44.3529" lon="2.86314">
        <ele>735</ele>
        <time>2013-03-06T14:17:46.090Z</time>
      </trkpt>
      <trkpt lat="44.35291" lon="2.86312">
        <ele>735</ele>
        <time>2013-03-06T14:17:47.120Z</time>
      </trkpt>
      <trkpt lat="44.35292" lon="2.8631">
        <ele>735</ele>
        <time>2013-03-06T14:17:48.060Z</time>
      </trkpt>
      <trkpt lat="44.35292" lon="2.86308">
        <ele>735</ele>
        <time>2013-03-06T14:17:48.970Z</time>
      </trkpt>
      <trkpt lat="44.35291" lon="2.86306">
        <ele>734</ele>
        <time>2013-03-06T14:17:50.140Z</time>
      </trkpt>
      <trkpt lat="44.35291" lon="2.86302">
        <ele>734</ele>
        <time>2013-03-06T14:17:52.020Z</time>
      </trkpt>
      <trkpt lat="44.35291" lon="2.86299">
        <ele>734</ele>
        <time>2013-03-06T14:17:54.010Z</time>
      </trkpt>
      <trkpt lat="44.35291" lon="2.86297">
        <ele>734</ele>
        <time>2013-03-06T14:17:55.020Z</time>
      </trkpt>
      <trkpt lat="44.3529" lon="2.86295">
        <ele>734</ele>
        <time>2013-03-06T14:17:56.110Z</time>
      </trkpt>
      <trkpt lat="44.35291" lon="2.86289">
        <ele>733</ele>
        <time>2013-03-06T14:17:58.120Z</time>
      </trkpt>
      <trkpt lat="44.3529" lon="2.86285">
        <ele>733</ele>
        <time>2013-03-06T14:17:59.970Z</time>
      </trkpt>
      <trkpt lat="44.3529" lon="2.86283">
        <ele>733</ele>
        <time>2013-03-06T14:18:01.070Z</time>
      </trkpt>
      <trkpt lat="44.35289" lon="2.86281">
        <ele>733</ele>
        <time>2013-03-06T14:18:02.110Z</time>
      </trkpt>
      <trkpt lat="44.35289" lon="2.86279">
        <ele>733</ele>
        <time>2013-03-06T14:18:03.070Z</time>
      </trkpt>
      <trkpt lat="44.35288" lon="2.86276">
        <ele>733</ele>
        <time>2013-03-06T14:18:04.110Z</time>
      </trkpt>
      <trkpt lat="44.35289" lon="2.86271">
        <ele>732</ele>
        <time>2013-03-06T14:18:06.110Z</time>
      </trkpt>
      <trkpt lat="44.35288" lon="2.86268">
        <ele>732</ele>
        <time>2013-03-06T14:18:07.060Z</time>
      </trkpt>
      <trkpt lat="44.35287" lon="2.86265">
        <ele>732</ele>
        <time>2013-03-06T14:18:09.970Z</time>
      </trkpt>
      <trkpt lat="44.35286" lon="2.86262">
        <ele>732</ele>
        <time>2013-03-06T14:18:12.100Z</time>
      </trkpt>
      <trkpt lat="44.35285" lon="2.86258">
        <ele>733</ele>
        <time>2013-03-06T14:18:14.060Z</time>
      </trkpt>
      <trkpt lat="44.35284" lon="2.86257">
        <ele>733</ele>
        <time>2013-03-06T14:18:16.070Z</time>
      </trkpt>
      <trkpt lat="44.35283" lon="2.86254">
        <ele>733</ele>
        <time>2013-03-06T14:18:18.080Z</time>
      </trkpt>
      <trkpt lat="44.35283" lon="2.86251">
        <ele>733</ele>
        <time>2013-03-06T14:18:20.020Z</time>
      </trkpt>
      <trkpt lat="44.35284" lon="2.86248">
        <ele>724</ele>
        <time>2013-03-06T14:18:21.110Z</time>
      </trkpt>
      <trkpt lat="44.35285" lon="2.86245">
        <ele>724</ele>
        <time>2013-03-06T14:18:22.050Z</time>
      </trkpt>
      <trkpt lat="44.35285" lon="2.8624">
        <ele>723</ele>
        <time>2013-03-06T14:18:24.070Z</time>
      </trkpt>
      <trkpt lat="44.35285" lon="2.86233">
        <ele>723</ele>
        <time>2013-03-06T14:18:26.110Z</time>
      </trkpt>
      <trkpt lat="44.35283" lon="2.86227">
        <ele>723</ele>
        <time>2013-03-06T14:18:27.970Z</time>
      </trkpt>
      <trkpt lat="44.35283" lon="2.86225">
        <ele>723</ele>
        <time>2013-03-06T14:18:28.970Z</time>
      </trkpt>
      <trkpt lat="44.35281" lon="2.86222">
        <ele>723</ele>
        <time>2013-03-06T14:18:30.110Z</time>
      </trkpt>
      <trkpt lat="44.35279" lon="2.86217">
        <ele>722</ele>
        <time>2013-03-06T14:18:32.070Z</time>
      </trkpt>
      <trkpt lat="44.35277" lon="2.86213">
        <ele>722</ele>
        <time>2013-03-06T14:18:33.060Z</time>
      </trkpt>
      <trkpt lat="44.35274" lon="2.86207">
        <ele>722</ele>
        <time>2013-03-06T14:18:34.970Z</time>
      </trkpt>
      <trkpt lat="44.35274" lon="2.86204">
        <ele>722</ele>
        <time>2013-03-06T14:18:36.080Z</time>
      </trkpt>
      <trkpt lat="44.35272" lon="2.86197">
        <ele>722</ele>
        <time>2013-03-06T14:18:38.070Z</time>
      </trkpt>
      <trkpt lat="44.3527" lon="2.86189">
        <ele>721</ele>
        <time>2013-03-06T14:18:40.080Z</time>
      </trkpt>
      <trkpt lat="44.35269" lon="2.86183">
        <ele>721</ele>
        <time>2013-03-06T14:18:42.180Z</time>
      </trkpt>
      <trkpt lat="44.35266" lon="2.86175">
        <ele>722</ele>
        <time>2013-03-06T14:18:44.080Z</time>
      </trkpt>
      <trkpt lat="44.35263" lon="2.8617">
        <ele>722</ele>
        <time>2013-03-06T14:18:46.110Z</time>
      </trkpt>
      <trkpt lat="44.35259" lon="2.86164">
        <ele>720</ele>
        <time>2013-03-06T14:18:48.110Z</time>
      </trkpt>
      <trkpt lat="44.35257" lon="2.86159">
        <ele>720</ele>
        <time>2013-03-06T14:18:50.110Z</time>
      </trkpt>
      <trkpt lat="44.35254" lon="2.86153">
        <ele>719</ele>
        <time>2013-03-06T14:18:52.100Z</time>
      </trkpt>
      <trkpt lat="44.35252" lon="2.8615">
        <ele>718</ele>
        <time>2013-03-06T14:18:53.050Z</time>
      </trkpt>
      <trkpt lat="44.35251" lon="2.86148">
        <ele>718</ele>
        <time>2013-03-06T14:18:54.100Z</time>
      </trkpt>
      <trkpt lat="44.35249" lon="2.86145">
        <ele>726</ele>
        <time>2013-03-06T14:18:55.050Z</time>
      </trkpt>
      <trkpt lat="44.35249" lon="2.86144">
        <ele>726</ele>
        <time>2013-03-06T14:18:56.100Z</time>
      </trkpt>
      <trkpt lat="44.35248" lon="2.86142">
        <ele>726</ele>
        <time>2013-03-06T14:18:57.040Z</time>
      </trkpt>
      <trkpt lat="44.35248" lon="2.8614">
        <ele>726</ele>
        <time>2013-03-06T14:18:58.100Z</time>
      </trkpt>
      <trkpt lat="44.35248" lon="2.86138">
        <ele>726</ele>
        <time>2013-03-06T14:18:59.080Z</time>
      </trkpt>
      <trkpt lat="44.35247" lon="2.86135">
        <ele>726</ele>
        <time>2013-03-06T14:19:01.100Z</time>
      </trkpt>
      <trkpt lat="44.35247" lon="2.8613">
        <ele>726</ele>
        <time>2013-03-06T14:19:02.970Z</time>
      </trkpt>
      <trkpt lat="44.35248" lon="2.86127">
        <ele>726</ele>
        <time>2013-03-06T14:19:03.970Z</time>
      </trkpt>
      <trkpt lat="44.35248" lon="2.86125">
        <ele>726</ele>
        <time>2013-03-06T14:19:05.110Z</time>
      </trkpt>
      <trkpt lat="44.35248" lon="2.8612">
        <ele>725</ele>
        <time>2013-03-06T14:19:07.080Z</time>
      </trkpt>
      <trkpt lat="44.35251" lon="2.86116">
        <ele>715</ele>
        <time>2013-03-06T14:19:09.120Z</time>
      </trkpt>
      <trkpt lat="44.35253" lon="2.86115">
        <ele>714</ele>
        <time>2013-03-06T14:19:11.120Z</time>
      </trkpt>
      <trkpt lat="44.35256" lon="2.86112">
        <ele>714</ele>
        <time>2013-03-06T14:19:12.970Z</time>
      </trkpt>
      <trkpt lat="44.35258" lon="2.8611">
        <ele>714</ele>
        <time>2013-03-06T14:19:14.000Z</time>
      </trkpt>
      <trkpt lat="44.35259" lon="2.86108">
        <ele>714</ele>
        <time>2013-03-06T14:19:15.120Z</time>
      </trkpt>
      <trkpt lat="44.35261" lon="2.86107">
        <ele>714</ele>
        <time>2013-03-06T14:19:16.970Z</time>
      </trkpt>
      <trkpt lat="44.3526" lon="2.86104">
        <ele>714</ele>
        <time>2013-03-06T14:19:21.110Z</time>
      </trkpt>
      <trkpt lat="44.35259" lon="2.86102">
        <ele>714</ele>
        <time>2013-03-06T14:19:25.110Z</time>
      </trkpt>
      <trkpt lat="44.3526" lon="2.86101">
        <ele>714</ele>
        <time>2013-03-06T14:19:31.120Z</time>
      </trkpt>
      <trkpt lat="44.35261" lon="2.86099">
        <ele>714</ele>
        <time>2013-03-06T14:19:33.140Z</time>
      </trkpt>
      <trkpt lat="44.35264" lon="2.86098">
        <ele>714</ele>
        <time>2013-03-06T14:19:35.090Z</time>
      </trkpt>
      <trkpt lat="44.35265" lon="2.86098">
        <ele>714</ele>
        <time>2013-03-06T14:19:36.050Z</time>
      </trkpt>
      <trkpt lat="44.35267" lon="2.86096">
        <ele>714</ele>
        <time>2013-03-06T14:19:37.990Z</time>
      </trkpt>
      <trkpt lat="44.35267" lon="2.86094">
        <ele>714</ele>
        <time>2013-03-06T14:19:51.990Z</time>
      </trkpt>
      <trkpt lat="44.35272" lon="2.86096">
        <ele>713</ele>
        <time>2013-03-06T14:19:55.120Z</time>
      </trkpt>
      <trkpt lat="44.35278" lon="2.86097">
        <ele>713</ele>
        <time>2013-03-06T14:19:57.100Z</time>
      </trkpt>
      <trkpt lat="44.35281" lon="2.86095">
        <ele>712</ele>
        <time>2013-03-06T14:19:59.000Z</time>
      </trkpt>
      <trkpt lat="44.3528" lon="2.86094">
        <ele>713</ele>
        <time>2013-03-06T14:20:00.030Z</time>
      </trkpt>
      <trkpt lat="44.35277" lon="2.86094">
        <ele>713</ele>
        <time>2013-03-06T14:20:01.080Z</time>
      </trkpt>
      <trkpt lat="44.35275" lon="2.86094">
        <ele>713</ele>
        <time>2013-03-06T14:20:02.030Z</time>
      </trkpt>
      <trkpt lat="44.35274" lon="2.86093">
        <ele>713</ele>
        <time>2013-03-06T14:20:03.080Z</time>
      </trkpt>
      <trkpt lat="44.35273" lon="2.8609">
        <ele>713</ele>
        <time>2013-03-06T14:20:05.080Z</time>
      </trkpt>
      <trkpt lat="44.35272" lon="2.86089">
        <ele>713</ele>
        <time>2013-03-06T14:20:06.040Z</time>
      </trkpt>
      <trkpt lat="44.35272" lon="2.86084">
        <ele>714</ele>
        <time>2013-03-06T14:20:08.970Z</time>
      </trkpt>
      <trkpt lat="44.3527" lon="2.86083">
        <ele>716</ele>
        <time>2013-03-06T14:20:11.970Z</time>
      </trkpt>
      <trkpt lat="44.3527" lon="2.8608">
        <ele>716</ele>
        <time>2013-03-06T14:20:15.110Z</time>
      </trkpt>
      <trkpt lat="44.35271" lon="2.86077">
        <ele>716</ele>
        <time>2013-03-06T14:20:17.080Z</time>
      </trkpt>
      <trkpt lat="44.35271" lon="2.86076">
        <ele>716</ele>
        <time>2013-03-06T14:20:20.030Z</time>
      </trkpt>
      <trkpt lat="44.3527" lon="2.86075">
        <ele>716</ele>
        <time>2013-03-06T14:20:23.080Z</time>
      </trkpt>
      <trkpt lat="44.35269" lon="2.86076">
        <ele>716</ele>
        <time>2013-03-06T14:20:28.110Z</time>
      </trkpt>
      <trkpt lat="44.35267" lon="2.86077">
        <ele>716</ele>
        <time>2013-03-06T14:20:30.080Z</time>
      </trkpt>
      <trkpt lat="44.35266" lon="2.86078">
        <ele>716</ele>
        <time>2013-03-06T14:20:31.040Z</time>
      </trkpt>
      <trkpt lat="44.35264" lon="2.86076">
        <ele>716</ele>
        <time>2013-03-06T14:20:35.200Z</time>
      </trkpt>
      <trkpt lat="44.35262" lon="2.86075">
        <ele>716</ele>
        <time>2013-03-06T14:20:38.040Z</time>
      </trkpt>
      <trkpt lat="44.35261" lon="2.86074">
        <ele>716</ele>
        <time>2013-03-06T14:20:39.070Z</time>
      </trkpt>
      <trkpt lat="44.3526" lon="2.86073">
        <ele>716</ele>
        <time>2013-03-06T14:20:40.020Z</time>
      </trkpt>
      <trkpt lat="44.35259" lon="2.86072">
        <ele>716</ele>
        <time>2013-03-06T14:20:40.970Z</time>
      </trkpt>
      <trkpt lat="44.35258" lon="2.86071">
        <ele>716</ele>
        <time>2013-03-06T14:20:42.080Z</time>
      </trkpt>
      <trkpt lat="44.35256" lon="2.86065">
        <ele>716</ele>
        <time>2013-03-06T14:20:44.110Z</time>
      </trkpt>
      <trkpt lat="44.35254" lon="2.86062">
        <ele>717</ele>
        <time>2013-03-06T14:20:45.970Z</time>
      </trkpt>
      <trkpt lat="44.35253" lon="2.86061">
        <ele>717</ele>
        <time>2013-03-06T14:20:48.110Z</time>
      </trkpt>
      <trkpt lat="44.35252" lon="2.86058">
        <ele>717</ele>
        <time>2013-03-06T14:20:50.110Z</time>
      </trkpt>
      <trkpt lat="44.35252" lon="2.86056">
        <ele>717</ele>
        <time>2013-03-06T14:20:52.070Z</time>
      </trkpt>
      <trkpt lat="44.35252" lon="2.86058">
        <ele>717</ele>
        <time>2013-03-06T14:20:54.070Z</time>
      </trkpt>
      <trkpt lat="44.35251" lon="2.86058">
        <ele>717</ele>
        <time>2013-03-06T14:21:01.130Z</time>
      </trkpt>
      <trkpt lat="44.35252" lon="2.8606">
        <ele>717</ele>
        <time>2013-03-06T14:21:02.970Z</time>
      </trkpt>
      <trkpt lat="44.35253" lon="2.86061">
        <ele>717</ele>
        <time>2013-03-06T14:21:03.970Z</time>
      </trkpt>
      <trkpt lat="44.35253" lon="2.86063">
        <ele>717</ele>
        <time>2013-03-06T14:21:05.020Z</time>
      </trkpt>
      <trkpt lat="44.35255" lon="2.86065">
        <ele>717</ele>
        <time>2013-03-06T14:21:07.040Z</time>
      </trkpt>
      <trkpt lat="44.35256" lon="2.86067">
        <ele>716</ele>
        <time>2013-03-06T14:21:08.070Z</time>
      </trkpt>
      <trkpt lat="44.35257" lon="2.86069">
        <ele>716</ele>
        <time>2013-03-06T14:21:09.080Z</time>
      </trkpt>
      <trkpt lat="44.3526" lon="2.86071">
        <ele>716</ele>
        <time>2013-03-06T14:21:11.070Z</time>
      </trkpt>
      <trkpt lat="44.35263" lon="2.86075">
        <ele>716</ele>
        <time>2013-03-06T14:21:13.180Z</time>
      </trkpt>
      <trkpt lat="44.35268" lon="2.86082">
        <ele>716</ele>
        <time>2013-03-06T14:21:15.070Z</time>
      </trkpt>
      <trkpt lat="44.35271" lon="2.86085">
        <ele>714</ele>
        <time>2013-03-06T14:21:16.030Z</time>
      </trkpt>
      <trkpt lat="44.35274" lon="2.8609">
        <ele>713</ele>
        <time>2013-03-06T14:21:18.070Z</time>
      </trkpt>
      <trkpt lat="44.35279" lon="2.86096">
        <ele>713</ele>
        <time>2013-03-06T14:21:19.970Z</time>
      </trkpt>
      <trkpt lat="44.3528" lon="2.86098">
        <ele>712</ele>
        <time>2013-03-06T14:21:21.060Z</time>
      </trkpt>
      <trkpt lat="44.35282" lon="2.861">
        <ele>712</ele>
        <time>2013-03-06T14:21:21.970Z</time>
      </trkpt>
      <trkpt lat="44.35284" lon="2.861">
        <ele>712</ele>
        <time>2013-03-06T14:21:23.060Z</time>
      </trkpt>
      <trkpt lat="44.35286" lon="2.861">
        <ele>712</ele>
        <time>2013-03-06T14:21:23.970Z</time>
      </trkpt>
      <trkpt lat="44.35288" lon="2.86101">
        <ele>712</ele>
        <time>2013-03-06T14:21:24.980Z</time>
      </trkpt>
      <trkpt lat="44.3529" lon="2.86102">
        <ele>711</ele>
        <time>2013-03-06T14:21:26.060Z</time>
      </trkpt>
      <trkpt lat="44.35292" lon="2.86102">
        <ele>711</ele>
        <time>2013-03-06T14:21:27.010Z</time>
      </trkpt>
      <trkpt lat="44.35295" lon="2.86103">
        <ele>711</ele>
        <time>2013-03-06T14:21:28.060Z</time>
      </trkpt>
      <trkpt lat="44.35297" lon="2.86104">
        <ele>710</ele>
        <time>2013-03-06T14:21:29.010Z</time>
      </trkpt>
      <trkpt lat="44.353" lon="2.86105">
        <ele>710</ele>
        <time>2013-03-06T14:21:30.060Z</time>
      </trkpt>
      <trkpt lat="44.35304" lon="2.86106">
        <ele>710</ele>
        <time>2013-03-06T14:21:31.020Z</time>
      </trkpt>
      <trkpt lat="44.35312" lon="2.86111">
        <ele>709</ele>
        <time>2013-03-06T14:21:33.110Z</time>
      </trkpt>
      <trkpt lat="44.35318" lon="2.86116">
        <ele>709</ele>
        <time>2013-03-06T14:21:34.970Z</time>
      </trkpt>
      <trkpt lat="44.35321" lon="2.86118">
        <ele>709</ele>
        <time>2013-03-06T14:21:36.060Z</time>
      </trkpt>
      <trkpt lat="44.35324" lon="2.86119">
        <ele>708</ele>
        <time>2013-03-06T14:21:36.970Z</time>
      </trkpt>
      <trkpt lat="44.35327" lon="2.8612">
        <ele>708</ele>
        <time>2013-03-06T14:21:38.060Z</time>
      </trkpt>
      <trkpt lat="44.3533" lon="2.86122">
        <ele>708</ele>
        <time>2013-03-06T14:21:38.970Z</time>
      </trkpt>
      <trkpt lat="44.35333" lon="2.86123">
        <ele>708</ele>
        <time>2013-03-06T14:21:40.060Z</time>
      </trkpt>
      <trkpt lat="44.35336" lon="2.86124">
        <ele>698</ele>
        <time>2013-03-06T14:21:40.970Z</time>
      </trkpt>
      <trkpt lat="44.35339" lon="2.86126">
        <ele>698</ele>
        <time>2013-03-06T14:21:42.060Z</time>
      </trkpt>
      <trkpt lat="44.35341" lon="2.86126">
        <ele>698</ele>
        <time>2013-03-06T14:21:42.970Z</time>
      </trkpt>
      <trkpt lat="44.35343" lon="2.86127">
        <ele>698</ele>
        <time>2013-03-06T14:21:44.030Z</time>
      </trkpt>
      <trkpt lat="44.35345" lon="2.86127">
        <ele>698</ele>
        <time>2013-03-06T14:21:45.060Z</time>
      </trkpt>
      <trkpt lat="44.35346" lon="2.86127">
        <ele>698</ele>
        <time>2013-03-06T14:21:46.010Z</time>
      </trkpt>
      <trkpt lat="44.35348" lon="2.86127">
        <ele>698</ele>
        <time>2013-03-06T14:21:47.060Z</time>
      </trkpt>
      <trkpt lat="44.35349" lon="2.86127">
        <ele>698</ele>
        <time>2013-03-06T14:21:48.010Z</time>
      </trkpt>
      <trkpt lat="44.35351" lon="2.86127">
        <ele>698</ele>
        <time>2013-03-06T14:21:50.150Z</time>
      </trkpt>
      <trkpt lat="44.35354" lon="2.86127">
        <ele>697</ele>
        <time>2013-03-06T14:21:52.060Z</time>
      </trkpt>
      <trkpt lat="44.35357" lon="2.86129">
        <ele>697</ele>
        <time>2013-03-06T14:21:53.000Z</time>
      </trkpt>
      <trkpt lat="44.35358" lon="2.86129">
        <ele>697</ele>
        <time>2013-03-06T14:21:54.060Z</time>
      </trkpt>
      <trkpt lat="44.3536" lon="2.86129">
        <ele>697</ele>
        <time>2013-03-06T14:21:55.030Z</time>
      </trkpt>
      <trkpt lat="44.35361" lon="2.86129">
        <ele>697</ele>
        <time>2013-03-06T14:21:55.970Z</time>
      </trkpt>
      <trkpt lat="44.35365" lon="2.86126">
        <ele>697</ele>
        <time>2013-03-06T14:21:59.170Z</time>
      </trkpt>
      <trkpt lat="44.35369" lon="2.86124">
        <ele>696</ele>
        <time>2013-03-06T14:22:00.970Z</time>
      </trkpt>
      <trkpt lat="44.35371" lon="2.86123">
        <ele>696</ele>
        <time>2013-03-06T14:22:02.110Z</time>
      </trkpt>
      <trkpt lat="44.35375" lon="2.86122">
        <ele>696</ele>
        <time>2013-03-06T14:22:03.970Z</time>
      </trkpt>
      <trkpt lat="44.35377" lon="2.86121">
        <ele>696</ele>
        <time>2013-03-06T14:22:05.050Z</time>
      </trkpt>
      <trkpt lat="44.35379" lon="2.8612">
        <ele>696</ele>
        <time>2013-03-06T14:22:05.970Z</time>
      </trkpt>
      <trkpt lat="44.35382" lon="2.8612">
        <ele>696</ele>
        <time>2013-03-06T14:22:07.000Z</time>
      </trkpt>
      <trkpt lat="44.35384" lon="2.86119">
        <ele>695</ele>
        <time>2013-03-06T14:22:08.040Z</time>
      </trkpt>
      <trkpt lat="44.35386" lon="2.86119">
        <ele>695</ele>
        <time>2013-03-06T14:22:09.020Z</time>
      </trkpt>
      <trkpt lat="44.35388" lon="2.86119">
        <ele>695</ele>
        <time>2013-03-06T14:22:10.050Z</time>
      </trkpt>
      <trkpt lat="44.3539" lon="2.86119">
        <ele>695</ele>
        <time>2013-03-06T14:22:11.000Z</time>
      </trkpt>
      <trkpt lat="44.35392" lon="2.86118">
        <ele>695</ele>
        <time>2013-03-06T14:22:12.050Z</time>
      </trkpt>
      <trkpt lat="44.35394" lon="2.86117">
        <ele>695</ele>
        <time>2013-03-06T14:22:13.110Z</time>
      </trkpt>
      <trkpt lat="44.35397" lon="2.86117">
        <ele>695</ele>
        <time>2013-03-06T14:22:14.970Z</time>
      </trkpt>
      <trkpt lat="44.35399" lon="2.86117">
        <ele>695</ele>
        <time>2013-03-06T14:22:16.010Z</time>
      </trkpt>
      <trkpt lat="44.35401" lon="2.86116">
        <ele>695</ele>
        <time>2013-03-06T14:22:16.970Z</time>
      </trkpt>
      <trkpt lat="44.35403" lon="2.86116">
        <ele>694</ele>
        <time>2013-03-06T14:22:18.050Z</time>
      </trkpt>
      <trkpt lat="44.35405" lon="2.86115">
        <ele>694</ele>
        <time>2013-03-06T14:22:19.050Z</time>
      </trkpt>
      <trkpt lat="44.35407" lon="2.86115">
        <ele>694</ele>
        <time>2013-03-06T14:22:20.000Z</time>
      </trkpt>
      <trkpt lat="44.35408" lon="2.86115">
        <ele>694</ele>
        <time>2013-03-06T14:22:21.030Z</time>
      </trkpt>
      <trkpt lat="44.35409" lon="2.86114">
        <ele>694</ele>
        <time>2013-03-06T14:22:22.010Z</time>
      </trkpt>
      <trkpt lat="44.3541" lon="2.86113">
        <ele>694</ele>
        <time>2013-03-06T14:22:23.050Z</time>
      </trkpt>
      <trkpt lat="44.35412" lon="2.86111">
        <ele>694</ele>
        <time>2013-03-06T14:22:24.000Z</time>
      </trkpt>
      <trkpt lat="44.35413" lon="2.86109">
        <ele>694</ele>
        <time>2013-03-06T14:22:24.970Z</time>
      </trkpt>
      <trkpt lat="44.35414" lon="2.86109">
        <ele>694</ele>
        <time>2013-03-06T14:22:26.110Z</time>
      </trkpt>
      <trkpt lat="44.35416" lon="2.86107">
        <ele>694</ele>
        <time>2013-03-06T14:22:27.970Z</time>
      </trkpt>
      <trkpt lat="44.35417" lon="2.86106">
        <ele>689</ele>
        <time>2013-03-06T14:22:29.050Z</time>
      </trkpt>
      <trkpt lat="44.35418" lon="2.86106">
        <ele>689</ele>
        <time>2013-03-06T14:22:29.970Z</time>
      </trkpt>
      <trkpt lat="44.35419" lon="2.86105">
        <ele>689</ele>
        <time>2013-03-06T14:22:31.000Z</time>
      </trkpt>
      <trkpt lat="44.3542" lon="2.86103">
        <ele>689</ele>
        <time>2013-03-06T14:22:32.050Z</time>
      </trkpt>
      <trkpt lat="44.35422" lon="2.86101">
        <ele>689</ele>
        <time>2013-03-06T14:22:33.010Z</time>
      </trkpt>
      <trkpt lat="44.35423" lon="2.861">
        <ele>689</ele>
        <time>2013-03-06T14:22:34.030Z</time>
      </trkpt>
      <trkpt lat="44.35424" lon="2.86098">
        <ele>689</ele>
        <time>2013-03-06T14:22:34.970Z</time>
      </trkpt>
      <trkpt lat="44.35425" lon="2.86097">
        <ele>689</ele>
        <time>2013-03-06T14:22:35.970Z</time>
      </trkpt>
      <trkpt lat="44.35426" lon="2.86096">
        <ele>689</ele>
        <time>2013-03-06T14:22:37.130Z</time>
      </trkpt>
      <trkpt lat="44.35427" lon="2.86093">
        <ele>690</ele>
        <time>2013-03-06T14:22:39.040Z</time>
      </trkpt>
      <trkpt lat="44.35428" lon="2.86092">
        <ele>690</ele>
        <time>2013-03-06T14:22:40.000Z</time>
      </trkpt>
      <trkpt lat="44.35429" lon="2.8609">
        <ele>690</ele>
        <time>2013-03-06T14:22:41.050Z</time>
      </trkpt>
      <trkpt lat="44.3543" lon="2.86088">
        <ele>690</ele>
        <time>2013-03-06T14:22:41.990Z</time>
      </trkpt>
      <trkpt lat="44.35431" lon="2.86087">
        <ele>690</ele>
        <time>2013-03-06T14:22:43.140Z</time>
      </trkpt>
      <trkpt lat="44.35432" lon="2.86086">
        <ele>689</ele>
        <time>2013-03-06T14:22:45.140Z</time>
      </trkpt>
      <trkpt lat="44.35433" lon="2.86084">
        <ele>689</ele>
        <time>2013-03-06T14:22:47.120Z</time>
      </trkpt>
      <trkpt lat="44.35436" lon="2.86079">
        <ele>691</ele>
        <time>2013-03-06T14:22:50.100Z</time>
      </trkpt>
      <trkpt lat="44.3544" lon="2.86075">
        <ele>691</ele>
        <time>2013-03-06T14:22:52.080Z</time>
      </trkpt>
      <trkpt lat="44.35442" lon="2.86072">
        <ele>691</ele>
        <time>2013-03-06T14:22:53.140Z</time>
      </trkpt>
      <trkpt lat="44.35445" lon="2.86069">
        <ele>691</ele>
        <time>2013-03-06T14:22:54.090Z</time>
      </trkpt>
      <trkpt lat="44.35446" lon="2.86066">
        <ele>691</ele>
        <time>2013-03-06T14:22:55.140Z</time>
      </trkpt>
      <trkpt lat="44.35448" lon="2.86062">
        <ele>691</ele>
        <time>2013-03-06T14:22:56.060Z</time>
      </trkpt>
      <trkpt lat="44.35451" lon="2.8606">
        <ele>690</ele>
        <time>2013-03-06T14:22:57.140Z</time>
      </trkpt>
      <trkpt lat="44.35453" lon="2.86058">
        <ele>690</ele>
        <time>2013-03-06T14:22:58.090Z</time>
      </trkpt>
      <trkpt lat="44.35456" lon="2.86057">
        <ele>690</ele>
        <time>2013-03-06T14:22:59.100Z</time>
      </trkpt>
      <trkpt lat="44.35458" lon="2.86056">
        <ele>690</ele>
        <time>2013-03-06T14:23:00.080Z</time>
      </trkpt>
      <trkpt lat="44.35462" lon="2.86056">
        <ele>690</ele>
        <time>2013-03-06T14:23:02.100Z</time>
      </trkpt>
      <trkpt lat="44.35463" lon="2.86058">
        <ele>690</ele>
        <time>2013-03-06T14:23:03.140Z</time>
      </trkpt>
      <trkpt lat="44.35465" lon="2.86058">
        <ele>689</ele>
        <time>2013-03-06T14:23:04.090Z</time>
      </trkpt>
      <trkpt lat="44.35467" lon="2.86059">
        <ele>689</ele>
        <time>2013-03-06T14:23:05.140Z</time>
      </trkpt>
      <trkpt lat="44.35468" lon="2.86061">
        <ele>689</ele>
        <time>2013-03-06T14:23:06.090Z</time>
      </trkpt>
      <trkpt lat="44.35469" lon="2.86063">
        <ele>689</ele>
        <time>2013-03-06T14:23:07.140Z</time>
      </trkpt>
      <trkpt lat="44.35471" lon="2.86066">
        <ele>689</ele>
        <time>2013-03-06T14:23:08.100Z</time>
      </trkpt>
      <trkpt lat="44.35472" lon="2.8607">
        <ele>689</ele>
        <time>2013-03-06T14:23:09.140Z</time>
      </trkpt>
      <trkpt lat="44.35473" lon="2.86073">
        <ele>688</ele>
        <time>2013-03-06T14:23:10.090Z</time>
      </trkpt>
      <trkpt lat="44.35475" lon="2.86077">
        <ele>688</ele>
        <time>2013-03-06T14:23:11.140Z</time>
      </trkpt>
      <trkpt lat="44.35476" lon="2.86081">
        <ele>688</ele>
        <time>2013-03-06T14:23:12.050Z</time>
      </trkpt>
      <trkpt lat="44.35477" lon="2.86084">
        <ele>685</ele>
        <time>2013-03-06T14:23:13.140Z</time>
      </trkpt>
      <trkpt lat="44.35478" lon="2.86087">
        <ele>685</ele>
        <time>2013-03-06T14:23:14.050Z</time>
      </trkpt>
      <trkpt lat="44.35479" lon="2.86089">
        <ele>685</ele>
        <time>2013-03-06T14:23:15.140Z</time>
      </trkpt>
      <trkpt lat="44.3548" lon="2.86091">
        <ele>685</ele>
        <time>2013-03-06T14:23:16.060Z</time>
      </trkpt>
      <trkpt lat="44.35482" lon="2.86092">
        <ele>685</ele>
        <time>2013-03-06T14:23:17.140Z</time>
      </trkpt>
      <trkpt lat="44.35485" lon="2.86093">
        <ele>685</ele>
        <time>2013-03-06T14:23:18.090Z</time>
      </trkpt>
      <trkpt lat="44.35487" lon="2.86094">
        <ele>685</ele>
        <time>2013-03-06T14:23:19.130Z</time>
      </trkpt>
      <trkpt lat="44.3549" lon="2.86095">
        <ele>685</ele>
        <time>2013-03-06T14:23:20.080Z</time>
      </trkpt>
      <trkpt lat="44.35492" lon="2.86095">
        <ele>684</ele>
        <time>2013-03-06T14:23:20.970Z</time>
      </trkpt>
      <trkpt lat="44.35495" lon="2.86096">
        <ele>684</ele>
        <time>2013-03-06T14:23:22.070Z</time>
      </trkpt>
      <trkpt lat="44.355" lon="2.86095">
        <ele>682</ele>
        <time>2013-03-06T14:23:24.080Z</time>
      </trkpt>
      <trkpt lat="44.35503" lon="2.86095">
        <ele>681</ele>
        <time>2013-03-06T14:23:25.130Z</time>
      </trkpt>
      <trkpt lat="44.35506" lon="2.86094">
        <ele>681</ele>
        <time>2013-03-06T14:23:26.040Z</time>
      </trkpt>
      <trkpt lat="44.35509" lon="2.86094">
        <ele>681</ele>
        <time>2013-03-06T14:23:27.130Z</time>
      </trkpt>
      <trkpt lat="44.35512" lon="2.86093">
        <ele>681</ele>
        <time>2013-03-06T14:23:28.050Z</time>
      </trkpt>
      <trkpt lat="44.35515" lon="2.86092">
        <ele>681</ele>
        <time>2013-03-06T14:23:29.130Z</time>
      </trkpt>
      <trkpt lat="44.35518" lon="2.86091">
        <ele>680</ele>
        <time>2013-03-06T14:23:30.090Z</time>
      </trkpt>
      <trkpt lat="44.3552" lon="2.8609">
        <ele>680</ele>
        <time>2013-03-06T14:23:31.130Z</time>
      </trkpt>
      <trkpt lat="44.35523" lon="2.8609">
        <ele>680</ele>
        <time>2013-03-06T14:23:32.090Z</time>
      </trkpt>
      <trkpt lat="44.35526" lon="2.86089">
        <ele>680</ele>
        <time>2013-03-06T14:23:32.980Z</time>
      </trkpt>
      <trkpt lat="44.35529" lon="2.86089">
        <ele>679</ele>
        <time>2013-03-06T14:23:34.110Z</time>
      </trkpt>
      <trkpt lat="44.35535" lon="2.86089">
        <ele>679</ele>
        <time>2013-03-06T14:23:36.080Z</time>
      </trkpt>
      <trkpt lat="44.35538" lon="2.86089">
        <ele>678</ele>
        <time>2013-03-06T14:23:37.130Z</time>
      </trkpt>
      <trkpt lat="44.35541" lon="2.86088">
        <ele>678</ele>
        <time>2013-03-06T14:23:38.130Z</time>
      </trkpt>
      <trkpt lat="44.35547" lon="2.86087">
        <ele>678</ele>
        <time>2013-03-06T14:23:40.030Z</time>
      </trkpt>
      <trkpt lat="44.3555" lon="2.86087">
        <ele>678</ele>
        <time>2013-03-06T14:23:40.980Z</time>
      </trkpt>
      <trkpt lat="44.35553" lon="2.86086">
        <ele>678</ele>
        <time>2013-03-06T14:23:42.030Z</time>
      </trkpt>
      <trkpt lat="44.35555" lon="2.86085">
        <ele>677</ele>
        <time>2013-03-06T14:23:42.970Z</time>
      </trkpt>
      <trkpt lat="44.35558" lon="2.86085">
        <ele>677</ele>
        <time>2013-03-06T14:23:44.130Z</time>
      </trkpt>
      <trkpt lat="44.35561" lon="2.86085">
        <ele>677</ele>
        <time>2013-03-06T14:23:45.080Z</time>
      </trkpt>
      <trkpt lat="44.35564" lon="2.86084">
        <ele>677</ele>
        <time>2013-03-06T14:23:46.130Z</time>
      </trkpt>
      <trkpt lat="44.35567" lon="2.86083">
        <ele>679</ele>
        <time>2013-03-06T14:23:47.080Z</time>
      </trkpt>
      <trkpt lat="44.35571" lon="2.86081">
        <ele>678</ele>
        <time>2013-03-06T14:23:48.130Z</time>
      </trkpt>
      <trkpt lat="44.35574" lon="2.86078">
        <ele>678</ele>
        <time>2013-03-06T14:23:49.070Z</time>
      </trkpt>
      <trkpt lat="44.35576" lon="2.86074">
        <ele>678</ele>
        <time>2013-03-06T14:23:49.980Z</time>
      </trkpt>
      <trkpt lat="44.35578" lon="2.8607">
        <ele>679</ele>
        <time>2013-03-06T14:23:51.110Z</time>
      </trkpt>
      <trkpt lat="44.35581" lon="2.86061">
        <ele>679</ele>
        <time>2013-03-06T14:23:53.110Z</time>
      </trkpt>
      <trkpt lat="44.35584" lon="2.86055">
        <ele>676</ele>
        <time>2013-03-06T14:23:55.080Z</time>
      </trkpt>
      <trkpt lat="44.35584" lon="2.86052">
        <ele>676</ele>
        <time>2013-03-06T14:23:57.110Z</time>
      </trkpt>
      <trkpt lat="44.35584" lon="2.86049">
        <ele>677</ele>
        <time>2013-03-06T14:23:59.180Z</time>
      </trkpt>
      <trkpt lat="44.35586" lon="2.86045">
        <ele>677</ele>
        <time>2013-03-06T14:24:01.120Z</time>
      </trkpt>
      <trkpt lat="44.35587" lon="2.86043">
        <ele>677</ele>
        <time>2013-03-06T14:24:02.080Z</time>
      </trkpt>
      <trkpt lat="44.35588" lon="2.8604">
        <ele>677</ele>
        <time>2013-03-06T14:24:03.130Z</time>
      </trkpt>
      <trkpt lat="44.35589" lon="2.86038">
        <ele>677</ele>
        <time>2013-03-06T14:24:04.080Z</time>
      </trkpt>
      <trkpt lat="44.35591" lon="2.86036">
        <ele>677</ele>
        <time>2013-03-06T14:24:05.120Z</time>
      </trkpt>
      <trkpt lat="44.35592" lon="2.86034">
        <ele>677</ele>
        <time>2013-03-06T14:24:06.120Z</time>
      </trkpt>
      <trkpt lat="44.35595" lon="2.86029">
        <ele>677</ele>
        <time>2013-03-06T14:24:08.020Z</time>
      </trkpt>
      <trkpt lat="44.35596" lon="2.86026">
        <ele>677</ele>
        <time>2013-03-06T14:24:08.970Z</time>
      </trkpt>
      <trkpt lat="44.35597" lon="2.86024">
        <ele>677</ele>
        <time>2013-03-06T14:24:10.020Z</time>
      </trkpt>
      <trkpt lat="44.35598" lon="2.86021">
        <ele>678</ele>
        <time>2013-03-06T14:24:11.070Z</time>
      </trkpt>
      <trkpt lat="44.35599" lon="2.86019">
        <ele>678</ele>
        <time>2013-03-06T14:24:12.120Z</time>
      </trkpt>
      <trkpt lat="44.356" lon="2.86017">
        <ele>678</ele>
        <time>2013-03-06T14:24:13.090Z</time>
      </trkpt>
      <trkpt lat="44.356" lon="2.86016">
        <ele>678</ele>
        <time>2013-03-06T14:24:14.120Z</time>
      </trkpt>
      <trkpt lat="44.35601" lon="2.86014">
        <ele>678</ele>
        <time>2013-03-06T14:24:15.070Z</time>
      </trkpt>
      <trkpt lat="44.35602" lon="2.86012">
        <ele>678</ele>
        <time>2013-03-06T14:24:16.110Z</time>
      </trkpt>
      <trkpt lat="44.35602" lon="2.8601">
        <ele>678</ele>
        <time>2013-03-06T14:24:17.190Z</time>
      </trkpt>
      <trkpt lat="44.35602" lon="2.86007">
        <ele>678</ele>
        <time>2013-03-06T14:24:19.020Z</time>
      </trkpt>
      <trkpt lat="44.35603" lon="2.86005">
        <ele>678</ele>
        <time>2013-03-06T14:24:19.970Z</time>
      </trkpt>
      <trkpt lat="44.35603" lon="2.86004">
        <ele>678</ele>
        <time>2013-03-06T14:24:21.020Z</time>
      </trkpt>
      <trkpt lat="44.35603" lon="2.86002">
        <ele>678</ele>
        <time>2013-03-06T14:24:21.980Z</time>
      </trkpt>
      <trkpt lat="44.35604" lon="2.86">
        <ele>678</ele>
        <time>2013-03-06T14:24:24.070Z</time>
      </trkpt>
      <trkpt lat="44.35605" lon="2.85999">
        <ele>680</ele>
        <time>2013-03-06T14:24:26.070Z</time>
      </trkpt>
      <trkpt lat="44.35606" lon="2.85997">
        <ele>680</ele>
        <time>2013-03-06T14:24:28.070Z</time>
      </trkpt>
      <trkpt lat="44.35607" lon="2.85996">
        <ele>680</ele>
        <time>2013-03-06T14:24:30.110Z</time>
      </trkpt>
      <trkpt lat="44.35609" lon="2.85994">
        <ele>680</ele>
        <time>2013-03-06T14:24:32.110Z</time>
      </trkpt>
      <trkpt lat="44.35612" lon="2.85992">
        <ele>679</ele>
        <time>2013-03-06T14:24:34.020Z</time>
      </trkpt>
      <trkpt lat="44.35613" lon="2.85992">
        <ele>679</ele>
        <time>2013-03-06T14:24:35.070Z</time>
      </trkpt>
      <trkpt lat="44.35614" lon="2.8599">
        <ele>679</ele>
        <time>2013-03-06T14:24:36.120Z</time>
      </trkpt>
      <trkpt lat="44.35616" lon="2.85989">
        <ele>679</ele>
        <time>2013-03-06T14:24:37.060Z</time>
      </trkpt>
      <trkpt lat="44.35618" lon="2.85987">
        <ele>679</ele>
        <time>2013-03-06T14:24:38.120Z</time>
      </trkpt>
      <trkpt lat="44.3562" lon="2.85986">
        <ele>679</ele>
        <time>2013-03-06T14:24:39.060Z</time>
      </trkpt>
      <trkpt lat="44.35621" lon="2.85984">
        <ele>679</ele>
        <time>2013-03-06T14:24:39.970Z</time>
      </trkpt>
      <trkpt lat="44.35622" lon="2.85982">
        <ele>679</ele>
        <time>2013-03-06T14:24:41.130Z</time>
      </trkpt>
      <trkpt lat="44.35624" lon="2.85979">
        <ele>679</ele>
        <time>2013-03-06T14:24:43.120Z</time>
      </trkpt>
      <trkpt lat="44.35627" lon="2.85975">
        <ele>679</ele>
        <time>2013-03-06T14:24:44.970Z</time>
      </trkpt>
      <trkpt lat="44.35628" lon="2.85973">
        <ele>679</ele>
        <time>2013-03-06T14:24:45.970Z</time>
      </trkpt>
      <trkpt lat="44.3563" lon="2.85971">
        <ele>679</ele>
        <time>2013-03-06T14:24:47.110Z</time>
      </trkpt>
      <trkpt lat="44.35632" lon="2.85968">
        <ele>679</ele>
        <time>2013-03-06T14:24:49.100Z</time>
      </trkpt>
      <trkpt lat="44.35634" lon="2.85965">
        <ele>679</ele>
        <time>2013-03-06T14:24:50.970Z</time>
      </trkpt>
      <trkpt lat="44.35636" lon="2.85963">
        <ele>679</ele>
        <time>2013-03-06T14:24:51.970Z</time>
      </trkpt>
      <trkpt lat="44.35638" lon="2.8596">
        <ele>679</ele>
        <time>2013-03-06T14:24:53.120Z</time>
      </trkpt>
      <trkpt lat="44.35644" lon="2.85952">
        <ele>679</ele>
        <time>2013-03-06T14:24:55.110Z</time>
      </trkpt>
      <trkpt lat="44.35647" lon="2.85949">
        <ele>679</ele>
        <time>2013-03-06T14:24:56.060Z</time>
      </trkpt>
      <trkpt lat="44.3565" lon="2.85945">
        <ele>678</ele>
        <time>2013-03-06T14:24:57.110Z</time>
      </trkpt>
      <trkpt lat="44.35654" lon="2.85941">
        <ele>678</ele>
        <time>2013-03-06T14:24:58.050Z</time>
      </trkpt>
      <trkpt lat="44.35657" lon="2.85939">
        <ele>678</ele>
        <time>2013-03-06T14:24:59.170Z</time>
      </trkpt>
      <trkpt lat="44.35663" lon="2.85933">
        <ele>678</ele>
        <time>2013-03-06T14:25:01.110Z</time>
      </trkpt>
      <trkpt lat="44.35666" lon="2.8593">
        <ele>678</ele>
        <time>2013-03-06T14:25:02.060Z</time>
      </trkpt>
      <trkpt lat="44.35669" lon="2.85926">
        <ele>675</ele>
        <time>2013-03-06T14:25:03.110Z</time>
      </trkpt>
      <trkpt lat="44.35671" lon="2.85922">
        <ele>676</ele>
        <time>2013-03-06T14:25:04.020Z</time>
      </trkpt>
      <trkpt lat="44.35673" lon="2.85919">
        <ele>676</ele>
        <time>2013-03-06T14:25:05.110Z</time>
      </trkpt>
      <trkpt lat="44.35676" lon="2.85915">
        <ele>675</ele>
        <time>2013-03-06T14:25:06.050Z</time>
      </trkpt>
      <trkpt lat="44.35679" lon="2.85912">
        <ele>675</ele>
        <time>2013-03-06T14:25:07.110Z</time>
      </trkpt>
      <trkpt lat="44.35682" lon="2.85909">
        <ele>674</ele>
        <time>2013-03-06T14:25:08.110Z</time>
      </trkpt>
      <trkpt lat="44.35688" lon="2.85901">
        <ele>673</ele>
        <time>2013-03-06T14:25:10.110Z</time>
      </trkpt>
      <trkpt lat="44.35692" lon="2.85893">
        <ele>673</ele>
        <time>2013-03-06T14:25:12.190Z</time>
      </trkpt>
      <trkpt lat="44.35698" lon="2.85884">
        <ele>672</ele>
        <time>2013-03-06T14:25:14.110Z</time>
      </trkpt>
      <trkpt lat="44.357" lon="2.8588">
        <ele>672</ele>
        <time>2013-03-06T14:25:15.060Z</time>
      </trkpt>
      <trkpt lat="44.35703" lon="2.85876">
        <ele>672</ele>
        <time>2013-03-06T14:25:16.160Z</time>
      </trkpt>
      <trkpt lat="44.35706" lon="2.85871">
        <ele>672</ele>
        <time>2013-03-06T14:25:17.180Z</time>
      </trkpt>
      <trkpt lat="44.35711" lon="2.8586">
        <ele>671</ele>
        <time>2013-03-06T14:25:19.110Z</time>
      </trkpt>
      <trkpt lat="44.35715" lon="2.85848">
        <ele>671</ele>
        <time>2013-03-06T14:25:21.110Z</time>
      </trkpt>
      <trkpt lat="44.35719" lon="2.85838">
        <ele>670</ele>
        <time>2013-03-06T14:25:23.110Z</time>
      </trkpt>
      <trkpt lat="44.35721" lon="2.85829">
        <ele>670</ele>
        <time>2013-03-06T14:25:25.110Z</time>
      </trkpt>
      <trkpt lat="44.35722" lon="2.85819">
        <ele>670</ele>
        <time>2013-03-06T14:25:26.970Z</time>
      </trkpt>
      <trkpt lat="44.35721" lon="2.85814">
        <ele>670</ele>
        <time>2013-03-06T14:25:27.970Z</time>
      </trkpt>
      <trkpt lat="44.35722" lon="2.85809">
        <ele>670</ele>
        <time>2013-03-06T14:25:29.110Z</time>
      </trkpt>
      <trkpt lat="44.35723" lon="2.85799">
        <ele>670</ele>
        <time>2013-03-06T14:25:31.180Z</time>
      </trkpt>
      <trkpt lat="44.35725" lon="2.85789">
        <ele>670</ele>
        <time>2013-03-06T14:25:33.110Z</time>
      </trkpt>
      <trkpt lat="44.35729" lon="2.85779">
        <ele>669</ele>
        <time>2013-03-06T14:25:35.020Z</time>
      </trkpt>
      <trkpt lat="44.35733" lon="2.85775">
        <ele>669</ele>
        <time>2013-03-06T14:25:36.100Z</time>
      </trkpt>
      <trkpt lat="44.35736" lon="2.85771">
        <ele>669</ele>
        <time>2013-03-06T14:25:37.110Z</time>
      </trkpt>
      <trkpt lat="44.35743" lon="2.85766">
        <ele>668</ele>
        <time>2013-03-06T14:25:39.110Z</time>
      </trkpt>
      <trkpt lat="44.35748" lon="2.85761">
        <ele>667</ele>
        <time>2013-03-06T14:25:41.190Z</time>
      </trkpt>
      <trkpt lat="44.35756" lon="2.85754">
        <ele>664</ele>
        <time>2013-03-06T14:25:43.100Z</time>
      </trkpt>
      <trkpt lat="44.35761" lon="2.85752">
        <ele>664</ele>
        <time>2013-03-06T14:25:44.010Z</time>
      </trkpt>
      <trkpt lat="44.35765" lon="2.8575">
        <ele>664</ele>
        <time>2013-03-06T14:25:45.100Z</time>
      </trkpt>
      <trkpt lat="44.35768" lon="2.85749">
        <ele>664</ele>
        <time>2013-03-06T14:25:46.040Z</time>
      </trkpt>
      <trkpt lat="44.35772" lon="2.85748">
        <ele>664</ele>
        <time>2013-03-06T14:25:46.970Z</time>
      </trkpt>
      <trkpt lat="44.35776" lon="2.85745">
        <ele>663</ele>
        <time>2013-03-06T14:25:48.130Z</time>
      </trkpt>
      <trkpt lat="44.35783" lon="2.8574">
        <ele>663</ele>
        <time>2013-03-06T14:25:50.150Z</time>
      </trkpt>
      <trkpt lat="44.3579" lon="2.85738">
        <ele>663</ele>
        <time>2013-03-06T14:25:51.970Z</time>
      </trkpt>
      <trkpt lat="44.35793" lon="2.85735">
        <ele>663</ele>
        <time>2013-03-06T14:25:53.110Z</time>
      </trkpt>
      <trkpt lat="44.35798" lon="2.8573">
        <ele>662</ele>
        <time>2013-03-06T14:25:55.070Z</time>
      </trkpt>
      <trkpt lat="44.35801" lon="2.85726">
        <ele>662</ele>
        <time>2013-03-06T14:25:57.100Z</time>
      </trkpt>
      <trkpt lat="44.35806" lon="2.85722">
        <ele>662</ele>
        <time>2013-03-06T14:25:59.170Z</time>
      </trkpt>
      <trkpt lat="44.3581" lon="2.85719">
        <ele>662</ele>
        <time>2013-03-06T14:26:00.970Z</time>
      </trkpt>
      <trkpt lat="44.35812" lon="2.85717">
        <ele>662</ele>
        <time>2013-03-06T14:26:02.110Z</time>
      </trkpt>
      <trkpt lat="44.35815" lon="2.85715">
        <ele>662</ele>
        <time>2013-03-06T14:26:04.110Z</time>
      </trkpt>
      <trkpt lat="44.35817" lon="2.85711">
        <ele>662</ele>
        <time>2013-03-06T14:26:06.110Z</time>
      </trkpt>
      <trkpt lat="44.35819" lon="2.85709">
        <ele>662</ele>
        <time>2013-03-06T14:26:08.110Z</time>
      </trkpt>
      <trkpt lat="44.3582" lon="2.85705">
        <ele>662</ele>
        <time>2013-03-06T14:26:09.970Z</time>
      </trkpt>
      <trkpt lat="44.35821" lon="2.85703">
        <ele>662</ele>
        <time>2013-03-06T14:26:10.990Z</time>
      </trkpt>
      <trkpt lat="44.35823" lon="2.85702">
        <ele>662</ele>
        <time>2013-03-06T14:26:12.110Z</time>
      </trkpt>
      <trkpt lat="44.35824" lon="2.85701">
        <ele>662</ele>
        <time>2013-03-06T14:26:14.300Z</time>
      </trkpt>
      <trkpt lat="44.35826" lon="2.857">
        <ele>662</ele>
        <time>2013-03-06T14:26:15.980Z</time>
      </trkpt>
      <trkpt lat="44.35827" lon="2.85699">
        <ele>662</ele>
        <time>2013-03-06T14:26:16.990Z</time>
      </trkpt>
      <trkpt lat="44.35828" lon="2.85698">
        <ele>662</ele>
        <time>2013-03-06T14:26:17.990Z</time>
      </trkpt>
      <trkpt lat="44.35829" lon="2.85696">
        <ele>662</ele>
        <time>2013-03-06T14:26:19.050Z</time>
      </trkpt>
      <trkpt lat="44.35831" lon="2.85693">
        <ele>662</ele>
        <time>2013-03-06T14:26:20.990Z</time>
      </trkpt>
      <trkpt lat="44.35832" lon="2.85692">
        <ele>662</ele>
        <time>2013-03-06T14:26:21.990Z</time>
      </trkpt>
      <trkpt lat="44.35833" lon="2.8569">
        <ele>662</ele>
        <time>2013-03-06T14:26:22.990Z</time>
      </trkpt>
      <trkpt lat="44.35834" lon="2.85688">
        <ele>659</ele>
        <time>2013-03-06T14:26:24.040Z</time>
      </trkpt>
      <trkpt lat="44.35837" lon="2.85685">
        <ele>659</ele>
        <time>2013-03-06T14:26:26.020Z</time>
      </trkpt>
      <trkpt lat="44.35838" lon="2.85682">
        <ele>659</ele>
        <time>2013-03-06T14:26:27.970Z</time>
      </trkpt>
      <trkpt lat="44.35839" lon="2.85681">
        <ele>659</ele>
        <time>2013-03-06T14:26:28.970Z</time>
      </trkpt>
      <trkpt lat="44.3584" lon="2.85678">
        <ele>659</ele>
        <time>2013-03-06T14:26:29.970Z</time>
      </trkpt>
      <trkpt lat="44.35841" lon="2.85676">
        <ele>660</ele>
        <time>2013-03-06T14:26:30.970Z</time>
      </trkpt>
      <trkpt lat="44.35842" lon="2.85674">
        <ele>660</ele>
        <time>2013-03-06T14:26:31.970Z</time>
      </trkpt>
      <trkpt lat="44.35843" lon="2.85672">
        <ele>660</ele>
        <time>2013-03-06T14:26:32.980Z</time>
      </trkpt>
      <trkpt lat="44.35844" lon="2.85671">
        <ele>660</ele>
        <time>2013-03-06T14:26:34.040Z</time>
      </trkpt>
      <trkpt lat="44.35845" lon="2.85667">
        <ele>660</ele>
        <time>2013-03-06T14:26:35.970Z</time>
      </trkpt>
      <trkpt lat="44.35846" lon="2.85666">
        <ele>660</ele>
        <time>2013-03-06T14:26:36.990Z</time>
      </trkpt>
      <trkpt lat="44.35847" lon="2.85663">
        <ele>660</ele>
        <time>2013-03-06T14:26:37.990Z</time>
      </trkpt>
      <trkpt lat="44.35848" lon="2.85661">
        <ele>660</ele>
        <time>2013-03-06T14:26:39.040Z</time>
      </trkpt>
      <trkpt lat="44.35849" lon="2.85657">
        <ele>660</ele>
        <time>2013-03-06T14:26:40.970Z</time>
      </trkpt>
      <trkpt lat="44.3585" lon="2.85656">
        <ele>660</ele>
        <time>2013-03-06T14:26:41.970Z</time>
      </trkpt>
      <trkpt lat="44.35851" lon="2.85654">
        <ele>660</ele>
        <time>2013-03-06T14:26:42.980Z</time>
      </trkpt>
      <trkpt lat="44.35851" lon="2.85652">
        <ele>660</ele>
        <time>2013-03-06T14:26:44.050Z</time>
      </trkpt>
      <trkpt lat="44.35853" lon="2.85648">
        <ele>659</ele>
        <time>2013-03-06T14:26:46.030Z</time>
      </trkpt>
      <trkpt lat="44.35855" lon="2.85644">
        <ele>659</ele>
        <time>2013-03-06T14:26:47.970Z</time>
      </trkpt>
      <trkpt lat="44.35855" lon="2.85642">
        <ele>659</ele>
        <time>2013-03-06T14:26:48.970Z</time>
      </trkpt>
      <trkpt lat="44.35855" lon="2.85639">
        <ele>659</ele>
        <time>2013-03-06T14:26:49.980Z</time>
      </trkpt>
      <trkpt lat="44.35856" lon="2.85637">
        <ele>659</ele>
        <time>2013-03-06T14:26:50.980Z</time>
      </trkpt>
      <trkpt lat="44.35857" lon="2.85635">
        <ele>659</ele>
        <time>2013-03-06T14:26:52.030Z</time>
      </trkpt>
      <trkpt lat="44.35859" lon="2.85632">
        <ele>659</ele>
        <time>2013-03-06T14:26:53.970Z</time>
      </trkpt>
      <trkpt lat="44.35861" lon="2.8563">
        <ele>659</ele>
        <time>2013-03-06T14:26:54.970Z</time>
      </trkpt>
      <trkpt lat="44.35862" lon="2.85628">
        <ele>659</ele>
        <time>2013-03-06T14:26:55.970Z</time>
      </trkpt>
      <trkpt lat="44.35863" lon="2.85626">
        <ele>659</ele>
        <time>2013-03-06T14:26:56.970Z</time>
      </trkpt>
      <trkpt lat="44.35864" lon="2.85624">
        <ele>659</ele>
        <time>2013-03-06T14:26:57.970Z</time>
      </trkpt>
      <trkpt lat="44.35865" lon="2.85622">
        <ele>659</ele>
        <time>2013-03-06T14:26:59.000Z</time>
      </trkpt>
      <trkpt lat="44.35868" lon="2.85619">
        <ele>659</ele>
        <time>2013-03-06T14:27:00.970Z</time>
      </trkpt>
      <trkpt lat="44.35869" lon="2.85617">
        <ele>659</ele>
        <time>2013-03-06T14:27:01.970Z</time>
      </trkpt>
      <trkpt lat="44.3587" lon="2.85615">
        <ele>659</ele>
        <time>2013-03-06T14:27:02.970Z</time>
      </trkpt>
      <trkpt lat="44.35871" lon="2.85613">
        <ele>659</ele>
        <time>2013-03-06T14:27:03.970Z</time>
      </trkpt>
      <trkpt lat="44.35872" lon="2.85611">
        <ele>659</ele>
        <time>2013-03-06T14:27:04.970Z</time>
      </trkpt>
      <trkpt lat="44.35874" lon="2.85609">
        <ele>659</ele>
        <time>2013-03-06T14:27:06.020Z</time>
      </trkpt>
      <trkpt lat="44.35877" lon="2.85606">
        <ele>658</ele>
        <time>2013-03-06T14:27:07.970Z</time>
      </trkpt>
      <trkpt lat="44.35879" lon="2.85604">
        <ele>658</ele>
        <time>2013-03-06T14:27:08.970Z</time>
      </trkpt>
      <trkpt lat="44.3588" lon="2.85603">
        <ele>658</ele>
        <time>2013-03-06T14:27:10.060Z</time>
      </trkpt>
      <trkpt lat="44.35882" lon="2.85599">
        <ele>658</ele>
        <time>2013-03-06T14:27:11.970Z</time>
      </trkpt>
      <trkpt lat="44.35883" lon="2.85598">
        <ele>658</ele>
        <time>2013-03-06T14:27:12.970Z</time>
      </trkpt>
      <trkpt lat="44.35885" lon="2.85596">
        <ele>658</ele>
        <time>2013-03-06T14:27:13.970Z</time>
      </trkpt>
      <trkpt lat="44.35886" lon="2.85595">
        <ele>658</ele>
        <time>2013-03-06T14:27:14.970Z</time>
      </trkpt>
      <trkpt lat="44.35888" lon="2.85594">
        <ele>658</ele>
        <time>2013-03-06T14:27:15.980Z</time>
      </trkpt>
      <trkpt lat="44.3589" lon="2.85593">
        <ele>657</ele>
        <time>2013-03-06T14:27:17.110Z</time>
      </trkpt>
      <trkpt lat="44.35892" lon="2.85591">
        <ele>657</ele>
        <time>2013-03-06T14:27:18.970Z</time>
      </trkpt>
      <trkpt lat="44.35893" lon="2.8559">
        <ele>657</ele>
        <time>2013-03-06T14:27:19.970Z</time>
      </trkpt>
      <trkpt lat="44.35894" lon="2.85587">
        <ele>657</ele>
        <time>2013-03-06T14:27:21.970Z</time>
      </trkpt>
      <trkpt lat="44.35896" lon="2.85586">
        <ele>657</ele>
        <time>2013-03-06T14:27:22.970Z</time>
      </trkpt>
      <trkpt lat="44.35898" lon="2.85585">
        <ele>657</ele>
        <time>2013-03-06T14:27:24.040Z</time>
      </trkpt>
      <trkpt lat="44.35901" lon="2.85584">
        <ele>656</ele>
        <time>2013-03-06T14:27:25.970Z</time>
      </trkpt>
      <trkpt lat="44.35902" lon="2.85583">
        <ele>659</ele>
        <time>2013-03-06T14:27:26.970Z</time>
      </trkpt>
      <trkpt lat="44.35902" lon="2.85582">
        <ele>659</ele>
        <time>2013-03-06T14:27:27.970Z</time>
      </trkpt>
      <trkpt lat="44.35903" lon="2.85581">
        <ele>659</ele>
        <time>2013-03-06T14:27:29.050Z</time>
      </trkpt>
      <trkpt lat="44.35905" lon="2.85579">
        <ele>659</ele>
        <time>2013-03-06T14:27:30.970Z</time>
      </trkpt>
      <trkpt lat="44.35906" lon="2.85578">
        <ele>659</ele>
        <time>2013-03-06T14:27:31.970Z</time>
      </trkpt>
      <trkpt lat="44.35907" lon="2.85577">
        <ele>658</ele>
        <time>2013-03-06T14:27:32.980Z</time>
      </trkpt>
      <trkpt lat="44.35908" lon="2.85576">
        <ele>658</ele>
        <time>2013-03-06T14:27:34.140Z</time>
      </trkpt>
      <trkpt lat="44.3591" lon="2.85573">
        <ele>659</ele>
        <time>2013-03-06T14:27:35.980Z</time>
      </trkpt>
      <trkpt lat="44.35911" lon="2.85572">
        <ele>659</ele>
        <time>2013-03-06T14:27:38.970Z</time>
      </trkpt>
      <trkpt lat="44.35912" lon="2.85571">
        <ele>659</ele>
        <time>2013-03-06T14:27:39.980Z</time>
      </trkpt>
      <trkpt lat="44.35913" lon="2.85569">
        <ele>659</ele>
        <time>2013-03-06T14:27:41.980Z</time>
      </trkpt>
      <trkpt lat="44.35914" lon="2.85567">
        <ele>660</ele>
        <time>2013-03-06T14:27:43.020Z</time>
      </trkpt>
      <trkpt lat="44.35916" lon="2.85564">
        <ele>660</ele>
        <time>2013-03-06T14:27:44.970Z</time>
      </trkpt>
      <trkpt lat="44.35918" lon="2.85562">
        <ele>655</ele>
        <time>2013-03-06T14:27:45.970Z</time>
      </trkpt>
      <trkpt lat="44.3592" lon="2.85561">
        <ele>655</ele>
        <time>2013-03-06T14:27:46.970Z</time>
      </trkpt>
      <trkpt lat="44.35921" lon="2.8556">
        <ele>655</ele>
        <time>2013-03-06T14:27:48.020Z</time>
      </trkpt>
      <trkpt lat="44.35925" lon="2.85557">
        <ele>655</ele>
        <time>2013-03-06T14:27:50.050Z</time>
      </trkpt>
      <trkpt lat="44.35926" lon="2.85556">
        <ele>655</ele>
        <time>2013-03-06T14:27:50.980Z</time>
      </trkpt>
      <trkpt lat="44.3593" lon="2.85553">
        <ele>655</ele>
        <time>2013-03-06T14:27:52.970Z</time>
      </trkpt>
      <trkpt lat="44.35932" lon="2.85552">
        <ele>655</ele>
        <time>2013-03-06T14:27:53.970Z</time>
      </trkpt>
      <trkpt lat="44.35934" lon="2.85551">
        <ele>655</ele>
        <time>2013-03-06T14:27:55.070Z</time>
      </trkpt>
      <trkpt lat="44.35937" lon="2.85548">
        <ele>655</ele>
        <time>2013-03-06T14:27:57.070Z</time>
      </trkpt>
      <trkpt lat="44.3594" lon="2.85545">
        <ele>655</ele>
        <time>2013-03-06T14:27:59.170Z</time>
      </trkpt>
      <trkpt lat="44.35942" lon="2.85542">
        <ele>655</ele>
        <time>2013-03-06T14:28:01.060Z</time>
      </trkpt>
      <trkpt lat="44.35944" lon="2.85541">
        <ele>655</ele>
        <time>2013-03-06T14:28:01.970Z</time>
      </trkpt>
      <trkpt lat="44.35945" lon="2.85539">
        <ele>655</ele>
        <time>2013-03-06T14:28:02.980Z</time>
      </trkpt>
      <trkpt lat="44.35946" lon="2.85537">
        <ele>655</ele>
        <time>2013-03-06T14:28:05.070Z</time>
      </trkpt>
      <trkpt lat="44.35948" lon="2.85535">
        <ele>655</ele>
        <time>2013-03-06T14:28:07.060Z</time>
      </trkpt>
      <trkpt lat="44.35948" lon="2.85534">
        <ele>655</ele>
        <time>2013-03-06T14:28:09.060Z</time>
      </trkpt>
      <trkpt lat="44.35948" lon="2.85533">
        <ele>655</ele>
        <time>2013-03-06T14:28:11.060Z</time>
      </trkpt>
      <trkpt lat="44.35948" lon="2.85531">
        <ele>655</ele>
        <time>2013-03-06T14:28:13.060Z</time>
      </trkpt>
      <trkpt lat="44.35949" lon="2.85531">
        <ele>655</ele>
        <time>2013-03-06T14:28:13.970Z</time>
      </trkpt>
      <trkpt lat="44.35951" lon="2.85531">
        <ele>655</ele>
        <time>2013-03-06T14:28:15.060Z</time>
      </trkpt>
      <trkpt lat="44.35952" lon="2.85529">
        <ele>655</ele>
        <time>2013-03-06T14:28:15.980Z</time>
      </trkpt>
      <trkpt lat="44.35954" lon="2.85528">
        <ele>655</ele>
        <time>2013-03-06T14:28:17.050Z</time>
      </trkpt>
      <trkpt lat="44.35955" lon="2.85526">
        <ele>655</ele>
        <time>2013-03-06T14:28:17.970Z</time>
      </trkpt>
      <trkpt lat="44.35957" lon="2.85525">
        <ele>655</ele>
        <time>2013-03-06T14:28:19.060Z</time>
      </trkpt>
      <trkpt lat="44.35961" lon="2.85522">
        <ele>655</ele>
        <time>2013-03-06T14:28:20.970Z</time>
      </trkpt>
      <trkpt lat="44.35963" lon="2.8552">
        <ele>654</ele>
        <time>2013-03-06T14:28:22.060Z</time>
      </trkpt>
      <trkpt lat="44.35967" lon="2.85517">
        <ele>654</ele>
        <time>2013-03-06T14:28:24.060Z</time>
      </trkpt>
      <trkpt lat="44.35972" lon="2.85516">
        <ele>654</ele>
        <time>2013-03-06T14:28:25.970Z</time>
      </trkpt>
      <trkpt lat="44.35974" lon="2.85516">
        <ele>654</ele>
        <time>2013-03-06T14:28:27.060Z</time>
      </trkpt>
      <trkpt lat="44.35977" lon="2.85516">
        <ele>653</ele>
        <time>2013-03-06T14:28:27.970Z</time>
      </trkpt>
      <trkpt lat="44.35979" lon="2.85515">
        <ele>653</ele>
        <time>2013-03-06T14:28:29.060Z</time>
      </trkpt>
      <trkpt lat="44.35985" lon="2.85512">
        <ele>653</ele>
        <time>2013-03-06T14:28:31.040Z</time>
      </trkpt>
      <trkpt lat="44.35988" lon="2.8551">
        <ele>653</ele>
        <time>2013-03-06T14:28:31.970Z</time>
      </trkpt>
      <trkpt lat="44.35992" lon="2.85508">
        <ele>652</ele>
        <time>2013-03-06T14:28:33.050Z</time>
      </trkpt>
      <trkpt lat="44.35999" lon="2.85504">
        <ele>651</ele>
        <time>2013-03-06T14:28:34.970Z</time>
      </trkpt>
      <trkpt lat="44.36004" lon="2.85502">
        <ele>650</ele>
        <time>2013-03-06T14:28:36.060Z</time>
      </trkpt>
      <trkpt lat="44.36013" lon="2.85497">
        <ele>651</ele>
        <time>2013-03-06T14:28:38.060Z</time>
      </trkpt>
      <trkpt lat="44.36017" lon="2.85495">
        <ele>650</ele>
        <time>2013-03-06T14:28:38.970Z</time>
      </trkpt>
      <trkpt lat="44.36022" lon="2.85492">
        <ele>650</ele>
        <time>2013-03-06T14:28:40.060Z</time>
      </trkpt>
      <trkpt lat="44.36026" lon="2.85487">
        <ele>650</ele>
        <time>2013-03-06T14:28:40.970Z</time>
      </trkpt>
      <trkpt lat="44.36029" lon="2.85483">
        <ele>650</ele>
        <time>2013-03-06T14:28:42.060Z</time>
      </trkpt>
      <trkpt lat="44.36037" lon="2.85475">
        <ele>650</ele>
        <time>2013-03-06T14:28:44.060Z</time>
      </trkpt>
      <trkpt lat="44.36044" lon="2.85468">
        <ele>649</ele>
        <time>2013-03-06T14:28:46.050Z</time>
      </trkpt>
      <trkpt lat="44.36048" lon="2.85465">
        <ele>649</ele>
        <time>2013-03-06T14:28:46.970Z</time>
      </trkpt>
      <trkpt lat="44.36051" lon="2.85461">
        <ele>649</ele>
        <time>2013-03-06T14:28:48.050Z</time>
      </trkpt>
      <trkpt lat="44.36056" lon="2.85452">
        <ele>649</ele>
        <time>2013-03-06T14:28:50.010Z</time>
      </trkpt>
      <trkpt lat="44.36059" lon="2.85446">
        <ele>649</ele>
        <time>2013-03-06T14:28:50.970Z</time>
      </trkpt>
      <trkpt lat="44.36061" lon="2.85441">
        <ele>649</ele>
        <time>2013-03-06T14:28:52.050Z</time>
      </trkpt>
      <trkpt lat="44.36064" lon="2.85436">
        <ele>649</ele>
        <time>2013-03-06T14:28:52.970Z</time>
      </trkpt>
      <trkpt lat="44.36066" lon="2.85431">
        <ele>649</ele>
        <time>2013-03-06T14:28:54.080Z</time>
      </trkpt>
      <trkpt lat="44.3607" lon="2.85421">
        <ele>649</ele>
        <time>2013-03-06T14:28:55.970Z</time>
      </trkpt>
      <trkpt lat="44.36071" lon="2.85416">
        <ele>651</ele>
        <time>2013-03-06T14:28:57.050Z</time>
      </trkpt>
      <trkpt lat="44.36075" lon="2.85408">
        <ele>651</ele>
        <time>2013-03-06T14:28:59.120Z</time>
      </trkpt>
      <trkpt lat="44.36079" lon="2.85401">
        <ele>652</ele>
        <time>2013-03-06T14:29:00.970Z</time>
      </trkpt>
      <trkpt lat="44.3608" lon="2.85398">
        <ele>652</ele>
        <time>2013-03-06T14:29:02.050Z</time>
      </trkpt>
      <trkpt lat="44.3608" lon="2.85395">
        <ele>652</ele>
        <time>2013-03-06T14:29:02.970Z</time>
      </trkpt>
      <trkpt lat="44.3608" lon="2.85391">
        <ele>653</ele>
        <time>2013-03-06T14:29:04.080Z</time>
      </trkpt>
      <trkpt lat="44.36083" lon="2.85383">
        <ele>653</ele>
        <time>2013-03-06T14:29:05.970Z</time>
      </trkpt>
      <trkpt lat="44.36083" lon="2.8538">
        <ele>648</ele>
        <time>2013-03-06T14:29:07.060Z</time>
      </trkpt>
      <trkpt lat="44.36085" lon="2.85372">
        <ele>648</ele>
        <time>2013-03-06T14:29:08.970Z</time>
      </trkpt>
      <trkpt lat="44.36087" lon="2.85367">
        <ele>648</ele>
        <time>2013-03-06T14:29:10.050Z</time>
      </trkpt>
      <trkpt lat="44.36089" lon="2.85363">
        <ele>648</ele>
        <time>2013-03-06T14:29:10.970Z</time>
      </trkpt>
      <trkpt lat="44.3609" lon="2.85359">
        <ele>649</ele>
        <time>2013-03-06T14:29:12.050Z</time>
      </trkpt>
      <trkpt lat="44.36093" lon="2.85349">
        <ele>649</ele>
        <time>2013-03-06T14:29:13.970Z</time>
      </trkpt>
      <trkpt lat="44.36095" lon="2.85345">
        <ele>649</ele>
        <time>2013-03-06T14:29:15.050Z</time>
      </trkpt>
      <trkpt lat="44.36097" lon="2.8534">
        <ele>650</ele>
        <time>2013-03-06T14:29:15.980Z</time>
      </trkpt>
      <trkpt lat="44.36099" lon="2.85331">
        <ele>651</ele>
        <time>2013-03-06T14:29:18.110Z</time>
      </trkpt>
      <trkpt lat="44.36102" lon="2.85321">
        <ele>651</ele>
        <time>2013-03-06T14:29:19.970Z</time>
      </trkpt>
      <trkpt lat="44.36103" lon="2.85316">
        <ele>650</ele>
        <time>2013-03-06T14:29:21.050Z</time>
      </trkpt>
      <trkpt lat="44.36106" lon="2.85307">
        <ele>650</ele>
        <time>2013-03-06T14:29:23.050Z</time>
      </trkpt>
      <trkpt lat="44.36108" lon="2.85303">
        <ele>650</ele>
        <time>2013-03-06T14:29:23.970Z</time>
      </trkpt>
      <trkpt lat="44.3611" lon="2.85298">
        <ele>650</ele>
        <time>2013-03-06T14:29:25.050Z</time>
      </trkpt>
      <trkpt lat="44.36114" lon="2.85288">
        <ele>650</ele>
        <time>2013-03-06T14:29:27.040Z</time>
      </trkpt>
      <trkpt lat="44.36115" lon="2.85284">
        <ele>650</ele>
        <time>2013-03-06T14:29:28.110Z</time>
      </trkpt>
      <trkpt lat="44.36119" lon="2.85277">
        <ele>650</ele>
        <time>2013-03-06T14:29:29.970Z</time>
      </trkpt>
      <trkpt lat="44.36121" lon="2.85273">
        <ele>650</ele>
        <time>2013-03-06T14:29:30.970Z</time>
      </trkpt>
      <trkpt lat="44.36122" lon="2.85271">
        <ele>650</ele>
        <time>2013-03-06T14:29:32.040Z</time>
      </trkpt>
      <trkpt lat="44.36125" lon="2.85267">
        <ele>650</ele>
        <time>2013-03-06T14:29:33.970Z</time>
      </trkpt>
      <trkpt lat="44.36126" lon="2.85265">
        <ele>650</ele>
        <time>2013-03-06T14:29:34.970Z</time>
      </trkpt>
      <trkpt lat="44.36128" lon="2.85263">
        <ele>650</ele>
        <time>2013-03-06T14:29:35.970Z</time>
      </trkpt>
      <trkpt lat="44.36129" lon="2.85259">
        <ele>650</ele>
        <time>2013-03-06T14:29:36.970Z</time>
      </trkpt>
      <trkpt lat="44.36131" lon="2.85257">
        <ele>650</ele>
        <time>2013-03-06T14:29:37.970Z</time>
      </trkpt>
      <trkpt lat="44.36132" lon="2.85255">
        <ele>650</ele>
        <time>2013-03-06T14:29:38.970Z</time>
      </trkpt>
      <trkpt lat="44.36132" lon="2.85253">
        <ele>650</ele>
        <time>2013-03-06T14:29:40.040Z</time>
      </trkpt>
      <trkpt lat="44.36133" lon="2.8525">
        <ele>651</ele>
        <time>2013-03-06T14:29:41.040Z</time>
      </trkpt>
      <trkpt lat="44.36134" lon="2.85244">
        <ele>651</ele>
        <time>2013-03-06T14:29:43.040Z</time>
      </trkpt>
      <trkpt lat="44.36134" lon="2.85242">
        <ele>651</ele>
        <time>2013-03-06T14:29:44.050Z</time>
      </trkpt>
      <trkpt lat="44.36136" lon="2.85237">
        <ele>651</ele>
        <time>2013-03-06T14:29:45.970Z</time>
      </trkpt>
      <trkpt lat="44.36137" lon="2.85234">
        <ele>651</ele>
        <time>2013-03-06T14:29:46.970Z</time>
      </trkpt>
      <trkpt lat="44.36138" lon="2.85232">
        <ele>651</ele>
        <time>2013-03-06T14:29:47.970Z</time>
      </trkpt>
      <trkpt lat="44.36139" lon="2.85229">
        <ele>651</ele>
        <time>2013-03-06T14:29:48.970Z</time>
      </trkpt>
      <trkpt lat="44.36139" lon="2.85226">
        <ele>651</ele>
        <time>2013-03-06T14:29:49.980Z</time>
      </trkpt>
      <trkpt lat="44.3614" lon="2.85224">
        <ele>651</ele>
        <time>2013-03-06T14:29:51.040Z</time>
      </trkpt>
      <trkpt lat="44.3614" lon="2.85221">
        <ele>651</ele>
        <time>2013-03-06T14:29:52.040Z</time>
      </trkpt>
      <trkpt lat="44.3614" lon="2.8522">
        <ele>651</ele>
        <time>2013-03-06T14:29:53.040Z</time>
      </trkpt>
      <trkpt lat="44.36141" lon="2.85218">
        <ele>651</ele>
        <time>2013-03-06T14:29:54.050Z</time>
      </trkpt>
      <trkpt lat="44.36142" lon="2.85213">
        <ele>651</ele>
        <time>2013-03-06T14:29:56.090Z</time>
      </trkpt>
      <trkpt lat="44.36144" lon="2.85209">
        <ele>651</ele>
        <time>2013-03-06T14:29:57.970Z</time>
      </trkpt>
      <trkpt lat="44.36145" lon="2.85207">
        <ele>651</ele>
        <time>2013-03-06T14:29:59.000Z</time>
      </trkpt>
      <trkpt lat="44.36147" lon="2.85205">
        <ele>651</ele>
        <time>2013-03-06T14:30:00.040Z</time>
      </trkpt>
      <trkpt lat="44.36147" lon="2.85202">
        <ele>651</ele>
        <time>2013-03-06T14:30:01.090Z</time>
      </trkpt>
      <trkpt lat="44.36149" lon="2.85197">
        <ele>651</ele>
        <time>2013-03-06T14:30:02.970Z</time>
      </trkpt>
      <trkpt lat="44.3615" lon="2.85195">
        <ele>651</ele>
        <time>2013-03-06T14:30:03.970Z</time>
      </trkpt>
      <trkpt lat="44.36151" lon="2.85193">
        <ele>651</ele>
        <time>2013-03-06T14:30:04.970Z</time>
      </trkpt>
      <trkpt lat="44.3615" lon="2.85191">
        <ele>651</ele>
        <time>2013-03-06T14:30:05.970Z</time>
      </trkpt>
      <trkpt lat="44.3615" lon="2.85189">
        <ele>651</ele>
        <time>2013-03-06T14:30:06.970Z</time>
      </trkpt>
      <trkpt lat="44.3615" lon="2.85188">
        <ele>651</ele>
        <time>2013-03-06T14:30:07.970Z</time>
      </trkpt>
      <trkpt lat="44.36151" lon="2.85185">
        <ele>651</ele>
        <time>2013-03-06T14:30:08.970Z</time>
      </trkpt>
      <trkpt lat="44.36151" lon="2.85184">
        <ele>651</ele>
        <time>2013-03-06T14:30:09.970Z</time>
      </trkpt>
      <trkpt lat="44.36152" lon="2.85182">
        <ele>651</ele>
        <time>2013-03-06T14:30:10.970Z</time>
      </trkpt>
      <trkpt lat="44.36152" lon="2.8518">
        <ele>651</ele>
        <time>2013-03-06T14:30:11.970Z</time>
      </trkpt>
      <trkpt lat="44.36153" lon="2.85179">
        <ele>651</ele>
        <time>2013-03-06T14:30:13.970Z</time>
      </trkpt>
      <trkpt lat="44.36154" lon="2.85177">
        <ele>651</ele>
        <time>2013-03-06T14:30:15.980Z</time>
      </trkpt>
      <trkpt lat="44.36154" lon="2.85175">
        <ele>651</ele>
        <time>2013-03-06T14:30:16.970Z</time>
      </trkpt>
      <trkpt lat="44.36155" lon="2.85173">
        <ele>651</ele>
        <time>2013-03-06T14:30:17.970Z</time>
      </trkpt>
      <trkpt lat="44.36156" lon="2.85172">
        <ele>651</ele>
        <time>2013-03-06T14:30:18.970Z</time>
      </trkpt>
      <trkpt lat="44.36158" lon="2.8517">
        <ele>651</ele>
        <time>2013-03-06T14:30:20.970Z</time>
      </trkpt>
      <trkpt lat="44.36158" lon="2.85169">
        <ele>651</ele>
        <time>2013-03-06T14:30:21.970Z</time>
      </trkpt>
      <trkpt lat="44.36159" lon="2.85167">
        <ele>652</ele>
        <time>2013-03-06T14:30:23.980Z</time>
      </trkpt>
      <trkpt lat="44.3616" lon="2.85165">
        <ele>652</ele>
        <time>2013-03-06T14:30:24.970Z</time>
      </trkpt>
      <trkpt lat="44.36161" lon="2.85164">
        <ele>652</ele>
        <time>2013-03-06T14:30:25.970Z</time>
      </trkpt>
      <trkpt lat="44.36161" lon="2.85162">
        <ele>652</ele>
        <time>2013-03-06T14:30:26.970Z</time>
      </trkpt>
      <trkpt lat="44.36162" lon="2.85161">
        <ele>652</ele>
        <time>2013-03-06T14:30:27.970Z</time>
      </trkpt>
      <trkpt lat="44.36163" lon="2.85159">
        <ele>652</ele>
        <time>2013-03-06T14:30:28.970Z</time>
      </trkpt>
      <trkpt lat="44.36164" lon="2.85157">
        <ele>652</ele>
        <time>2013-03-06T14:30:30.970Z</time>
      </trkpt>
      <trkpt lat="44.36165" lon="2.85156">
        <ele>652</ele>
        <time>2013-03-06T14:30:31.970Z</time>
      </trkpt>
      <trkpt lat="44.36166" lon="2.85154">
        <ele>652</ele>
        <time>2013-03-06T14:30:32.980Z</time>
      </trkpt>
      <trkpt lat="44.36167" lon="2.85152">
        <ele>652</ele>
        <time>2013-03-06T14:30:33.970Z</time>
      </trkpt>
      <trkpt lat="44.36168" lon="2.85151">
        <ele>652</ele>
        <time>2013-03-06T14:30:34.970Z</time>
      </trkpt>
      <trkpt lat="44.36168" lon="2.85149">
        <ele>652</ele>
        <time>2013-03-06T14:30:35.970Z</time>
      </trkpt>
      <trkpt lat="44.36169" lon="2.85148">
        <ele>652</ele>
        <time>2013-03-06T14:30:36.970Z</time>
      </trkpt>
      <trkpt lat="44.36169" lon="2.85147">
        <ele>652</ele>
        <time>2013-03-06T14:30:37.970Z</time>
      </trkpt>
      <trkpt lat="44.3617" lon="2.85145">
        <ele>652</ele>
        <time>2013-03-06T14:30:38.970Z</time>
      </trkpt>
      <trkpt lat="44.36171" lon="2.85144">
        <ele>652</ele>
        <time>2013-03-06T14:30:39.970Z</time>
      </trkpt>
      <trkpt lat="44.36172" lon="2.85142">
        <ele>652</ele>
        <time>2013-03-06T14:30:40.970Z</time>
      </trkpt>
      <trkpt lat="44.36173" lon="2.8514">
        <ele>652</ele>
        <time>2013-03-06T14:30:41.970Z</time>
      </trkpt>
      <trkpt lat="44.36174" lon="2.85139">
        <ele>652</ele>
        <time>2013-03-06T14:30:42.970Z</time>
      </trkpt>
      <trkpt lat="44.36175" lon="2.85138">
        <ele>652</ele>
        <time>2013-03-06T14:30:43.970Z</time>
      </trkpt>
      <trkpt lat="44.36176" lon="2.85138">
        <ele>652</ele>
        <time>2013-03-06T14:30:44.970Z</time>
      </trkpt>
      <trkpt lat="44.36178" lon="2.85135">
        <ele>652</ele>
        <time>2013-03-06T14:30:46.970Z</time>
      </trkpt>
      <trkpt lat="44.36179" lon="2.85133">
        <ele>652</ele>
        <time>2013-03-06T14:30:47.970Z</time>
      </trkpt>
      <trkpt lat="44.3618" lon="2.85133">
        <ele>652</ele>
        <time>2013-03-06T14:30:48.970Z</time>
      </trkpt>
      <trkpt lat="44.36181" lon="2.8513">
        <ele>653</ele>
        <time>2013-03-06T14:30:49.980Z</time>
      </trkpt>
      <trkpt lat="44.36182" lon="2.85129">
        <ele>653</ele>
        <time>2013-03-06T14:30:51.020Z</time>
      </trkpt>
      <trkpt lat="44.36183" lon="2.85127">
        <ele>653</ele>
        <time>2013-03-06T14:30:52.020Z</time>
      </trkpt>
      <trkpt lat="44.36183" lon="2.85126">
        <ele>653</ele>
        <time>2013-03-06T14:30:54.050Z</time>
      </trkpt>
      <trkpt lat="44.36185" lon="2.85123">
        <ele>653</ele>
        <time>2013-03-06T14:30:55.970Z</time>
      </trkpt>
      <trkpt lat="44.36186" lon="2.85121">
        <ele>653</ele>
        <time>2013-03-06T14:30:57.970Z</time>
      </trkpt>
      <trkpt lat="44.36186" lon="2.85117">
        <ele>653</ele>
        <time>2013-03-06T14:31:00.970Z</time>
      </trkpt>
      <trkpt lat="44.36186" lon="2.85115">
        <ele>653</ele>
        <time>2013-03-06T14:31:01.970Z</time>
      </trkpt>
      <trkpt lat="44.36186" lon="2.85114">
        <ele>653</ele>
        <time>2013-03-06T14:31:02.970Z</time>
      </trkpt>
      <trkpt lat="44.36187" lon="2.85112">
        <ele>653</ele>
        <time>2013-03-06T14:31:04.970Z</time>
      </trkpt>
      <trkpt lat="44.36188" lon="2.8511">
        <ele>653</ele>
        <time>2013-03-06T14:31:05.970Z</time>
      </trkpt>
      <trkpt lat="44.36188" lon="2.85107">
        <ele>653</ele>
        <time>2013-03-06T14:31:06.970Z</time>
      </trkpt>
      <trkpt lat="44.36189" lon="2.85104">
        <ele>653</ele>
        <time>2013-03-06T14:31:07.970Z</time>
      </trkpt>
      <trkpt lat="44.3619" lon="2.851">
        <ele>653</ele>
        <time>2013-03-06T14:31:08.970Z</time>
      </trkpt>
      <trkpt lat="44.36191" lon="2.85097">
        <ele>653</ele>
        <time>2013-03-06T14:31:10.020Z</time>
      </trkpt>
      <trkpt lat="44.36191" lon="2.85095">
        <ele>653</ele>
        <time>2013-03-06T14:31:11.020Z</time>
      </trkpt>
      <trkpt lat="44.3619" lon="2.85092">
        <ele>653</ele>
        <time>2013-03-06T14:31:12.020Z</time>
      </trkpt>
      <trkpt lat="44.3619" lon="2.8509">
        <ele>653</ele>
        <time>2013-03-06T14:31:13.020Z</time>
      </trkpt>
      <trkpt lat="44.36191" lon="2.85087">
        <ele>653</ele>
        <time>2013-03-06T14:31:14.060Z</time>
      </trkpt>
      <trkpt lat="44.36193" lon="2.85082">
        <ele>654</ele>
        <time>2013-03-06T14:31:15.980Z</time>
      </trkpt>
      <trkpt lat="44.36194" lon="2.8508">
        <ele>654</ele>
        <time>2013-03-06T14:31:17.020Z</time>
      </trkpt>
      <trkpt lat="44.36194" lon="2.85078">
        <ele>654</ele>
        <time>2013-03-06T14:31:18.020Z</time>
      </trkpt>
      <trkpt lat="44.36194" lon="2.85075">
        <ele>654</ele>
        <time>2013-03-06T14:31:19.050Z</time>
      </trkpt>
      <trkpt lat="44.36196" lon="2.85069">
        <ele>655</ele>
        <time>2013-03-06T14:31:20.970Z</time>
      </trkpt>
      <trkpt lat="44.36196" lon="2.85067">
        <ele>655</ele>
        <time>2013-03-06T14:31:21.970Z</time>
      </trkpt>
      <trkpt lat="44.36196" lon="2.85064">
        <ele>655</ele>
        <time>2013-03-06T14:31:22.970Z</time>
      </trkpt>
      <trkpt lat="44.36196" lon="2.85062">
        <ele>655</ele>
        <time>2013-03-06T14:31:23.970Z</time>
      </trkpt>
      <trkpt lat="44.36196" lon="2.8506">
        <ele>655</ele>
        <time>2013-03-06T14:31:24.970Z</time>
      </trkpt>
      <trkpt lat="44.36197" lon="2.85057">
        <ele>655</ele>
        <time>2013-03-06T14:31:25.970Z</time>
      </trkpt>
      <trkpt lat="44.36197" lon="2.85055">
        <ele>655</ele>
        <time>2013-03-06T14:31:26.970Z</time>
      </trkpt>
      <trkpt lat="44.36198" lon="2.85053">
        <ele>655</ele>
        <time>2013-03-06T14:31:27.970Z</time>
      </trkpt>
      <trkpt lat="44.36199" lon="2.8505">
        <ele>655</ele>
        <time>2013-03-06T14:31:28.970Z</time>
      </trkpt>
      <trkpt lat="44.362" lon="2.85049">
        <ele>655</ele>
        <time>2013-03-06T14:31:29.970Z</time>
      </trkpt>
      <trkpt lat="44.362" lon="2.85047">
        <ele>655</ele>
        <time>2013-03-06T14:31:30.970Z</time>
      </trkpt>
      <trkpt lat="44.362" lon="2.85045">
        <ele>655</ele>
        <time>2013-03-06T14:31:31.970Z</time>
      </trkpt>
      <trkpt lat="44.36201" lon="2.85043">
        <ele>655</ele>
        <time>2013-03-06T14:31:32.980Z</time>
      </trkpt>
      <trkpt lat="44.36201" lon="2.85042">
        <ele>655</ele>
        <time>2013-03-06T14:31:34.050Z</time>
      </trkpt>
      <trkpt lat="44.36201" lon="2.85039">
        <ele>655</ele>
        <time>2013-03-06T14:31:35.970Z</time>
      </trkpt>
      <trkpt lat="44.36201" lon="2.85038">
        <ele>655</ele>
        <time>2013-03-06T14:31:36.970Z</time>
      </trkpt>
      <trkpt lat="44.36201" lon="2.85036">
        <ele>655</ele>
        <time>2013-03-06T14:31:37.970Z</time>
      </trkpt>
      <trkpt lat="44.36201" lon="2.85035">
        <ele>655</ele>
        <time>2013-03-06T14:31:38.970Z</time>
      </trkpt>
      <trkpt lat="44.36202" lon="2.85032">
        <ele>655</ele>
        <time>2013-03-06T14:31:40.970Z</time>
      </trkpt>
      <trkpt lat="44.36202" lon="2.8503">
        <ele>655</ele>
        <time>2013-03-06T14:31:42.970Z</time>
      </trkpt>
      <trkpt lat="44.36203" lon="2.85028">
        <ele>655</ele>
        <time>2013-03-06T14:31:44.970Z</time>
      </trkpt>
      <trkpt lat="44.36203" lon="2.85026">
        <ele>655</ele>
        <time>2013-03-06T14:31:45.970Z</time>
      </trkpt>
      <trkpt lat="44.36204" lon="2.85024">
        <ele>655</ele>
        <time>2013-03-06T14:31:46.970Z</time>
      </trkpt>
      <trkpt lat="44.36205" lon="2.85021">
        <ele>655</ele>
        <time>2013-03-06T14:31:47.970Z</time>
      </trkpt>
      <trkpt lat="44.36205" lon="2.8502">
        <ele>655</ele>
        <time>2013-03-06T14:31:48.970Z</time>
      </trkpt>
      <trkpt lat="44.36205" lon="2.85018">
        <ele>655</ele>
        <time>2013-03-06T14:31:49.980Z</time>
      </trkpt>
      <trkpt lat="44.36205" lon="2.85016">
        <ele>655</ele>
        <time>2013-03-06T14:31:51.010Z</time>
      </trkpt>
      <trkpt lat="44.36205" lon="2.85014">
        <ele>655</ele>
        <time>2013-03-06T14:31:52.010Z</time>
      </trkpt>
      <trkpt lat="44.36205" lon="2.85012">
        <ele>655</ele>
        <time>2013-03-06T14:31:53.010Z</time>
      </trkpt>
      <trkpt lat="44.36206" lon="2.8501">
        <ele>655</ele>
        <time>2013-03-06T14:31:54.090Z</time>
      </trkpt>
      <trkpt lat="44.36207" lon="2.85005">
        <ele>655</ele>
        <time>2013-03-06T14:31:55.970Z</time>
      </trkpt>
      <trkpt lat="44.36207" lon="2.85003">
        <ele>655</ele>
        <time>2013-03-06T14:31:57.010Z</time>
      </trkpt>
      <trkpt lat="44.36208" lon="2.85">
        <ele>655</ele>
        <time>2013-03-06T14:31:58.010Z</time>
      </trkpt>
      <trkpt lat="44.36209" lon="2.84998">
        <ele>655</ele>
        <time>2013-03-06T14:31:59.130Z</time>
      </trkpt>
      <trkpt lat="44.36211" lon="2.84993">
        <ele>655</ele>
        <time>2013-03-06T14:32:01.010Z</time>
      </trkpt>
      <trkpt lat="44.36212" lon="2.84991">
        <ele>655</ele>
        <time>2013-03-06T14:32:02.010Z</time>
      </trkpt>
      <trkpt lat="44.36213" lon="2.84989">
        <ele>655</ele>
        <time>2013-03-06T14:32:03.020Z</time>
      </trkpt>
      <trkpt lat="44.36213" lon="2.84988">
        <ele>655</ele>
        <time>2013-03-06T14:32:04.060Z</time>
      </trkpt>
      <trkpt lat="44.36215" lon="2.84983">
        <ele>655</ele>
        <time>2013-03-06T14:32:05.970Z</time>
      </trkpt>
      <trkpt lat="44.36215" lon="2.84981">
        <ele>655</ele>
        <time>2013-03-06T14:32:06.970Z</time>
      </trkpt>
      <trkpt lat="44.36215" lon="2.8498">
        <ele>655</ele>
        <time>2013-03-06T14:32:07.970Z</time>
      </trkpt>
      <trkpt lat="44.36216" lon="2.84978">
        <ele>655</ele>
        <time>2013-03-06T14:32:08.970Z</time>
      </trkpt>
      <trkpt lat="44.36217" lon="2.84976">
        <ele>655</ele>
        <time>2013-03-06T14:32:09.970Z</time>
      </trkpt>
      <trkpt lat="44.36218" lon="2.84974">
        <ele>655</ele>
        <time>2013-03-06T14:32:10.970Z</time>
      </trkpt>
      <trkpt lat="44.36219" lon="2.84972">
        <ele>655</ele>
        <time>2013-03-06T14:32:11.970Z</time>
      </trkpt>
      <trkpt lat="44.3622" lon="2.84971">
        <ele>655</ele>
        <time>2013-03-06T14:32:12.970Z</time>
      </trkpt>
      <trkpt lat="44.36222" lon="2.8497">
        <ele>655</ele>
        <time>2013-03-06T14:32:13.970Z</time>
      </trkpt>
      <trkpt lat="44.36223" lon="2.84968">
        <ele>655</ele>
        <time>2013-03-06T14:32:14.970Z</time>
      </trkpt>
      <trkpt lat="44.36224" lon="2.84966">
        <ele>655</ele>
        <time>2013-03-06T14:32:15.980Z</time>
      </trkpt>
      <trkpt lat="44.36225" lon="2.84964">
        <ele>655</ele>
        <time>2013-03-06T14:32:17.030Z</time>
      </trkpt>
      <trkpt lat="44.36228" lon="2.84962">
        <ele>655</ele>
        <time>2013-03-06T14:32:19.060Z</time>
      </trkpt>
      <trkpt lat="44.36231" lon="2.84962">
        <ele>655</ele>
        <time>2013-03-06T14:32:20.970Z</time>
      </trkpt>
      <trkpt lat="44.36233" lon="2.84963">
        <ele>655</ele>
        <time>2013-03-06T14:32:21.970Z</time>
      </trkpt>
      <trkpt lat="44.36234" lon="2.84964">
        <ele>655</ele>
        <time>2013-03-06T14:32:22.970Z</time>
      </trkpt>
      <trkpt lat="44.36235" lon="2.84964">
        <ele>655</ele>
        <time>2013-03-06T14:32:23.970Z</time>
      </trkpt>
      <trkpt lat="44.36236" lon="2.84964">
        <ele>655</ele>
        <time>2013-03-06T14:32:24.970Z</time>
      </trkpt>
      <trkpt lat="44.36238" lon="2.84964">
        <ele>655</ele>
        <time>2013-03-06T14:32:25.970Z</time>
      </trkpt>
      <trkpt lat="44.3624" lon="2.84965">
        <ele>655</ele>
        <time>2013-03-06T14:32:26.970Z</time>
      </trkpt>
      <trkpt lat="44.36242" lon="2.84966">
        <ele>655</ele>
        <time>2013-03-06T14:32:27.970Z</time>
      </trkpt>
      <trkpt lat="44.36245" lon="2.84967">
        <ele>655</ele>
        <time>2013-03-06T14:32:28.970Z</time>
      </trkpt>
      <trkpt lat="44.36247" lon="2.84968">
        <ele>655</ele>
        <time>2013-03-06T14:32:30.000Z</time>
      </trkpt>
      <trkpt lat="44.3625" lon="2.84969">
        <ele>655</ele>
        <time>2013-03-06T14:32:31.000Z</time>
      </trkpt>
      <trkpt lat="44.36252" lon="2.8497">
        <ele>653</ele>
        <time>2013-03-06T14:32:32.020Z</time>
      </trkpt>
      <trkpt lat="44.36254" lon="2.8497">
        <ele>653</ele>
        <time>2013-03-06T14:32:33.010Z</time>
      </trkpt>
      <trkpt lat="44.36257" lon="2.84969">
        <ele>653</ele>
        <time>2013-03-06T14:32:35.000Z</time>
      </trkpt>
      <trkpt lat="44.36258" lon="2.8497">
        <ele>653</ele>
        <time>2013-03-06T14:32:36.000Z</time>
      </trkpt>
      <trkpt lat="44.3626" lon="2.84971">
        <ele>653</ele>
        <time>2013-03-06T14:32:37.020Z</time>
      </trkpt>
      <trkpt lat="44.36264" lon="2.84973">
        <ele>653</ele>
        <time>2013-03-06T14:32:39.050Z</time>
      </trkpt>
      <trkpt lat="44.36269" lon="2.84978">
        <ele>652</ele>
        <time>2013-03-06T14:32:40.970Z</time>
      </trkpt>
      <trkpt lat="44.36272" lon="2.84981">
        <ele>652</ele>
        <time>2013-03-06T14:32:41.970Z</time>
      </trkpt>
      <trkpt lat="44.36274" lon="2.84983">
        <ele>652</ele>
        <time>2013-03-06T14:32:42.970Z</time>
      </trkpt>
      <trkpt lat="44.36276" lon="2.84985">
        <ele>652</ele>
        <time>2013-03-06T14:32:43.970Z</time>
      </trkpt>
      <trkpt lat="44.36279" lon="2.84987">
        <ele>652</ele>
        <time>2013-03-06T14:32:45.000Z</time>
      </trkpt>
      <trkpt lat="44.36281" lon="2.84989">
        <ele>652</ele>
        <time>2013-03-06T14:32:46.000Z</time>
      </trkpt>
      <trkpt lat="44.36283" lon="2.84991">
        <ele>652</ele>
        <time>2013-03-06T14:32:47.040Z</time>
      </trkpt>
      <trkpt lat="44.36288" lon="2.84994">
        <ele>652</ele>
        <time>2013-03-06T14:32:48.970Z</time>
      </trkpt>
      <trkpt lat="44.36291" lon="2.84996">
        <ele>652</ele>
        <time>2013-03-06T14:32:49.980Z</time>
      </trkpt>
      <trkpt lat="44.36294" lon="2.84998">
        <ele>652</ele>
        <time>2013-03-06T14:32:51.020Z</time>
      </trkpt>
      <trkpt lat="44.363" lon="2.85001">
        <ele>652</ele>
        <time>2013-03-06T14:32:52.970Z</time>
      </trkpt>
      <trkpt lat="44.36303" lon="2.85002">
        <ele>652</ele>
        <time>2013-03-06T14:32:53.970Z</time>
      </trkpt>
      <trkpt lat="44.36306" lon="2.85005">
        <ele>652</ele>
        <time>2013-03-06T14:32:55.020Z</time>
      </trkpt>
      <trkpt lat="44.36312" lon="2.85011">
        <ele>652</ele>
        <time>2013-03-06T14:32:56.970Z</time>
      </trkpt>
      <trkpt lat="44.36315" lon="2.85013">
        <ele>652</ele>
        <time>2013-03-06T14:32:57.970Z</time>
      </trkpt>
      <trkpt lat="44.36319" lon="2.85014">
        <ele>651</ele>
        <time>2013-03-06T14:32:59.000Z</time>
      </trkpt>
      <trkpt lat="44.36323" lon="2.85015">
        <ele>651</ele>
        <time>2013-03-06T14:33:00.050Z</time>
      </trkpt>
      <trkpt lat="44.36332" lon="2.85018">
        <ele>651</ele>
        <time>2013-03-06T14:33:01.970Z</time>
      </trkpt>
      <trkpt lat="44.36336" lon="2.85021">
        <ele>649</ele>
        <time>2013-03-06T14:33:02.970Z</time>
      </trkpt>
      <trkpt lat="44.3634" lon="2.85023">
        <ele>649</ele>
        <time>2013-03-06T14:33:03.970Z</time>
      </trkpt>
      <trkpt lat="44.36344" lon="2.85025">
        <ele>649</ele>
        <time>2013-03-06T14:33:04.990Z</time>
      </trkpt>
      <trkpt lat="44.36348" lon="2.85028">
        <ele>649</ele>
        <time>2013-03-06T14:33:05.990Z</time>
      </trkpt>
      <trkpt lat="44.36351" lon="2.8503">
        <ele>649</ele>
        <time>2013-03-06T14:33:07.040Z</time>
      </trkpt>
      <trkpt lat="44.36359" lon="2.85034">
        <ele>649</ele>
        <time>2013-03-06T14:33:08.970Z</time>
      </trkpt>
      <trkpt lat="44.36362" lon="2.85037">
        <ele>649</ele>
        <time>2013-03-06T14:33:10.020Z</time>
      </trkpt>
      <trkpt lat="44.36367" lon="2.85042">
        <ele>649</ele>
        <time>2013-03-06T14:33:11.970Z</time>
      </trkpt>
      <trkpt lat="44.36369" lon="2.85045">
        <ele>649</ele>
        <time>2013-03-06T14:33:12.970Z</time>
      </trkpt>
      <trkpt lat="44.36372" lon="2.85048">
        <ele>649</ele>
        <time>2013-03-06T14:33:13.970Z</time>
      </trkpt>
      <trkpt lat="44.36375" lon="2.85051">
        <ele>649</ele>
        <time>2013-03-06T14:33:14.990Z</time>
      </trkpt>
      <trkpt lat="44.36378" lon="2.85053">
        <ele>649</ele>
        <time>2013-03-06T14:33:16.050Z</time>
      </trkpt>
      <trkpt lat="44.36385" lon="2.85057">
        <ele>649</ele>
        <time>2013-03-06T14:33:17.970Z</time>
      </trkpt>
      <trkpt lat="44.36389" lon="2.85059">
        <ele>649</ele>
        <time>2013-03-06T14:33:18.970Z</time>
      </trkpt>
      <trkpt lat="44.36394" lon="2.8506">
        <ele>649</ele>
        <time>2013-03-06T14:33:20.040Z</time>
      </trkpt>
      <trkpt lat="44.36402" lon="2.85063">
        <ele>648</ele>
        <time>2013-03-06T14:33:21.970Z</time>
      </trkpt>
      <trkpt lat="44.36406" lon="2.85064">
        <ele>648</ele>
        <time>2013-03-06T14:33:22.970Z</time>
      </trkpt>
      <trkpt lat="44.36411" lon="2.85065">
        <ele>648</ele>
        <time>2013-03-06T14:33:23.970Z</time>
      </trkpt>
      <trkpt lat="44.36415" lon="2.85066">
        <ele>648</ele>
        <time>2013-03-06T14:33:24.970Z</time>
      </trkpt>
      <trkpt lat="44.36419" lon="2.85067">
        <ele>647</ele>
        <time>2013-03-06T14:33:25.970Z</time>
      </trkpt>
      <trkpt lat="44.36422" lon="2.85068">
        <ele>647</ele>
        <time>2013-03-06T14:33:26.970Z</time>
      </trkpt>
      <trkpt lat="44.36426" lon="2.85068">
        <ele>647</ele>
        <time>2013-03-06T14:33:27.970Z</time>
      </trkpt>
      <trkpt lat="44.36429" lon="2.85069">
        <ele>647</ele>
        <time>2013-03-06T14:33:28.970Z</time>
      </trkpt>
      <trkpt lat="44.36433" lon="2.85069">
        <ele>647</ele>
        <time>2013-03-06T14:33:29.990Z</time>
      </trkpt>
      <trkpt lat="44.36437" lon="2.85069">
        <ele>647</ele>
        <time>2013-03-06T14:33:30.990Z</time>
      </trkpt>
      <trkpt lat="44.36441" lon="2.85069">
        <ele>646</ele>
        <time>2013-03-06T14:33:32.020Z</time>
      </trkpt>
      <trkpt lat="44.3645" lon="2.85069">
        <ele>646</ele>
        <time>2013-03-06T14:33:34.070Z</time>
      </trkpt>
      <trkpt lat="44.36458" lon="2.85068">
        <ele>646</ele>
        <time>2013-03-06T14:33:35.980Z</time>
      </trkpt>
      <trkpt lat="44.36462" lon="2.85068">
        <ele>646</ele>
        <time>2013-03-06T14:33:36.980Z</time>
      </trkpt>
      <trkpt lat="44.36466" lon="2.85068">
        <ele>646</ele>
        <time>2013-03-06T14:33:38.030Z</time>
      </trkpt>
      <trkpt lat="44.36468" lon="2.85069">
        <ele>646</ele>
        <time>2013-03-06T14:33:39.980Z</time>
      </trkpt>
      <trkpt lat="44.3647" lon="2.85069">
        <ele>646</ele>
        <time>2013-03-06T14:33:45.980Z</time>
      </trkpt>
      <trkpt lat="44.36471" lon="2.85069">
        <ele>646</ele>
        <time>2013-03-06T14:33:46.980Z</time>
      </trkpt>
      <trkpt lat="44.36473" lon="2.85069">
        <ele>646</ele>
        <time>2013-03-06T14:33:49.070Z</time>
      </trkpt>
      <trkpt lat="44.36476" lon="2.85069">
        <ele>646</ele>
        <time>2013-03-06T14:33:50.980Z</time>
      </trkpt>
      <trkpt lat="44.36478" lon="2.85068">
        <ele>646</ele>
        <time>2013-03-06T14:33:51.980Z</time>
      </trkpt>
      <trkpt lat="44.36479" lon="2.85068">
        <ele>646</ele>
        <time>2013-03-06T14:33:52.980Z</time>
      </trkpt>
      <trkpt lat="44.36482" lon="2.85068">
        <ele>646</ele>
        <time>2013-03-06T14:33:55.970Z</time>
      </trkpt>
      <trkpt lat="44.36483" lon="2.85069">
        <ele>646</ele>
        <time>2013-03-06T14:33:56.970Z</time>
      </trkpt>
      <trkpt lat="44.36484" lon="2.85068">
        <ele>646</ele>
        <time>2013-03-06T14:33:57.970Z</time>
      </trkpt>
      <trkpt lat="44.36486" lon="2.85068">
        <ele>646</ele>
        <time>2013-03-06T14:33:59.130Z</time>
      </trkpt>
      <trkpt lat="44.36489" lon="2.85068">
        <ele>646</ele>
        <time>2013-03-06T14:34:01.020Z</time>
      </trkpt>
      <trkpt lat="44.36492" lon="2.85069">
        <ele>646</ele>
        <time>2013-03-06T14:34:02.980Z</time>
      </trkpt>
      <trkpt lat="44.36493" lon="2.8507">
        <ele>646</ele>
        <time>2013-03-06T14:34:04.060Z</time>
      </trkpt>
      <trkpt lat="44.36497" lon="2.8507">
        <ele>646</ele>
        <time>2013-03-06T14:34:05.970Z</time>
      </trkpt>
      <trkpt lat="44.36499" lon="2.8507">
        <ele>646</ele>
        <time>2013-03-06T14:34:06.970Z</time>
      </trkpt>
      <trkpt lat="44.36501" lon="2.8507">
        <ele>645</ele>
        <time>2013-03-06T14:34:07.970Z</time>
      </trkpt>
      <trkpt lat="44.36503" lon="2.8507">
        <ele>645</ele>
        <time>2013-03-06T14:34:09.080Z</time>
      </trkpt>
      <trkpt lat="44.36507" lon="2.85071">
        <ele>645</ele>
        <time>2013-03-06T14:34:10.970Z</time>
      </trkpt>
      <trkpt lat="44.36509" lon="2.85071">
        <ele>645</ele>
        <time>2013-03-06T14:34:11.970Z</time>
      </trkpt>
      <trkpt lat="44.3651" lon="2.85071">
        <ele>645</ele>
        <time>2013-03-06T14:34:12.970Z</time>
      </trkpt>
      <trkpt lat="44.36512" lon="2.85072">
        <ele>645</ele>
        <time>2013-03-06T14:34:13.970Z</time>
      </trkpt>
      <trkpt lat="44.36514" lon="2.85073">
        <ele>645</ele>
        <time>2013-03-06T14:34:14.970Z</time>
      </trkpt>
      <trkpt lat="44.36516" lon="2.85074">
        <ele>645</ele>
        <time>2013-03-06T14:34:16.040Z</time>
      </trkpt>
      <trkpt lat="44.36519" lon="2.85074">
        <ele>645</ele>
        <time>2013-03-06T14:34:17.970Z</time>
      </trkpt>
      <trkpt lat="44.36521" lon="2.85074">
        <ele>645</ele>
        <time>2013-03-06T14:34:18.970Z</time>
      </trkpt>
      <trkpt lat="44.36523" lon="2.85074">
        <ele>645</ele>
        <time>2013-03-06T14:34:19.970Z</time>
      </trkpt>
      <trkpt lat="44.36524" lon="2.85074">
        <ele>644</ele>
        <time>2013-03-06T14:34:20.970Z</time>
      </trkpt>
      <trkpt lat="44.36526" lon="2.85074">
        <ele>644</ele>
        <time>2013-03-06T14:34:22.020Z</time>
      </trkpt>
      <trkpt lat="44.36531" lon="2.85075">
        <ele>644</ele>
        <time>2013-03-06T14:34:23.970Z</time>
      </trkpt>
      <trkpt lat="44.36533" lon="2.85075">
        <ele>644</ele>
        <time>2013-03-06T14:34:25.020Z</time>
      </trkpt>
      <trkpt lat="44.36537" lon="2.85076">
        <ele>644</ele>
        <time>2013-03-06T14:34:26.970Z</time>
      </trkpt>
      <trkpt lat="44.36539" lon="2.85077">
        <ele>644</ele>
        <time>2013-03-06T14:34:27.970Z</time>
      </trkpt>
      <trkpt lat="44.36541" lon="2.85078">
        <ele>644</ele>
        <time>2013-03-06T14:34:28.970Z</time>
      </trkpt>
      <trkpt lat="44.36544" lon="2.85078">
        <ele>644</ele>
        <time>2013-03-06T14:34:29.980Z</time>
      </trkpt>
      <trkpt lat="44.36546" lon="2.85079">
        <ele>644</ele>
        <time>2013-03-06T14:34:30.970Z</time>
      </trkpt>
      <trkpt lat="44.36549" lon="2.85079">
        <ele>644</ele>
        <time>2013-03-06T14:34:32.030Z</time>
      </trkpt>
      <trkpt lat="44.36552" lon="2.85079">
        <ele>644</ele>
        <time>2013-03-06T14:34:34.080Z</time>
      </trkpt>
      <trkpt lat="44.36555" lon="2.85081">
        <ele>644</ele>
        <time>2013-03-06T14:34:35.970Z</time>
      </trkpt>
      <trkpt lat="44.36557" lon="2.8508">
        <ele>644</ele>
        <time>2013-03-06T14:34:37.020Z</time>
      </trkpt>
      <trkpt lat="44.3656" lon="2.85081">
        <ele>644</ele>
        <time>2013-03-06T14:34:38.970Z</time>
      </trkpt>
      <trkpt lat="44.36562" lon="2.8508">
        <ele>644</ele>
        <time>2013-03-06T14:34:40.070Z</time>
      </trkpt>
      <trkpt lat="44.36564" lon="2.85078">
        <ele>643</ele>
        <time>2013-03-06T14:34:41.970Z</time>
      </trkpt>
      <trkpt lat="44.36565" lon="2.85076">
        <ele>643</ele>
        <time>2013-03-06T14:34:43.060Z</time>
      </trkpt>
      <trkpt lat="44.36567" lon="2.85071">
        <ele>643</ele>
        <time>2013-03-06T14:34:45.070Z</time>
      </trkpt>
      <trkpt lat="44.36568" lon="2.85068">
        <ele>643</ele>
        <time>2013-03-06T14:34:45.980Z</time>
      </trkpt>
      <trkpt lat="44.36569" lon="2.85066">
        <ele>643</ele>
        <time>2013-03-06T14:34:47.070Z</time>
      </trkpt>
      <trkpt lat="44.3657" lon="2.8506">
        <ele>643</ele>
        <time>2013-03-06T14:34:49.080Z</time>
      </trkpt>
      <trkpt lat="44.36572" lon="2.85055">
        <ele>643</ele>
        <time>2013-03-06T14:34:50.970Z</time>
      </trkpt>
      <trkpt lat="44.36572" lon="2.85053">
        <ele>643</ele>
        <time>2013-03-06T14:34:52.070Z</time>
      </trkpt>
      <trkpt lat="44.36572" lon="2.8505">
        <ele>643</ele>
        <time>2013-03-06T14:34:52.970Z</time>
      </trkpt>
      <trkpt lat="44.36572" lon="2.85048">
        <ele>643</ele>
        <time>2013-03-06T14:34:54.170Z</time>
      </trkpt>
      <trkpt lat="44.36571" lon="2.85046">
        <ele>643</ele>
        <time>2013-03-06T14:34:55.970Z</time>
      </trkpt>
      <trkpt lat="44.36571" lon="2.85044">
        <ele>643</ele>
        <time>2013-03-06T14:34:57.050Z</time>
      </trkpt>
      <trkpt lat="44.36571" lon="2.85042">
        <ele>643</ele>
        <time>2013-03-06T14:34:57.970Z</time>
      </trkpt>
      <trkpt lat="44.36571" lon="2.85041">
        <ele>643</ele>
        <time>2013-03-06T14:34:59.180Z</time>
      </trkpt>
      <trkpt lat="44.36571" lon="2.85038">
        <ele>643</ele>
        <time>2013-03-06T14:35:01.060Z</time>
      </trkpt>
      <trkpt lat="44.36572" lon="2.85037">
        <ele>643</ele>
        <time>2013-03-06T14:35:03.060Z</time>
      </trkpt>
      <trkpt lat="44.36572" lon="2.85035">
        <ele>643</ele>
        <time>2013-03-06T14:35:04.970Z</time>
      </trkpt>
      <trkpt lat="44.36572" lon="2.85033">
        <ele>643</ele>
        <time>2013-03-06T14:35:06.060Z</time>
      </trkpt>
      <trkpt lat="44.36572" lon="2.85032">
        <ele>643</ele>
        <time>2013-03-06T14:35:06.970Z</time>
      </trkpt>
      <trkpt lat="44.36572" lon="2.8503">
        <ele>643</ele>
        <time>2013-03-06T14:35:08.970Z</time>
      </trkpt>
      <trkpt lat="44.36573" lon="2.85028">
        <ele>643</ele>
        <time>2013-03-06T14:35:10.060Z</time>
      </trkpt>
      <trkpt lat="44.36573" lon="2.85027">
        <ele>643</ele>
        <time>2013-03-06T14:35:10.970Z</time>
      </trkpt>
      <trkpt lat="44.36574" lon="2.85026">
        <ele>643</ele>
        <time>2013-03-06T14:35:12.060Z</time>
      </trkpt>
      <trkpt lat="44.36577" lon="2.85025">
        <ele>643</ele>
        <time>2013-03-06T14:35:12.970Z</time>
      </trkpt>
      <trkpt lat="44.3658" lon="2.85024">
        <ele>643</ele>
        <time>2013-03-06T14:35:14.090Z</time>
      </trkpt>
      <trkpt lat="44.36585" lon="2.85024">
        <ele>642</ele>
        <time>2013-03-06T14:35:15.980Z</time>
      </trkpt>
      <trkpt lat="44.36588" lon="2.85025">
        <ele>642</ele>
        <time>2013-03-06T14:35:16.970Z</time>
      </trkpt>
      <trkpt lat="44.36591" lon="2.85026">
        <ele>642</ele>
        <time>2013-03-06T14:35:18.060Z</time>
      </trkpt>
      <trkpt lat="44.36595" lon="2.85028">
        <ele>642</ele>
        <time>2013-03-06T14:35:20.060Z</time>
      </trkpt>
      <trkpt lat="44.36597" lon="2.85031">
        <ele>642</ele>
        <time>2013-03-06T14:35:22.040Z</time>
      </trkpt>
      <trkpt lat="44.36599" lon="2.85032">
        <ele>642</ele>
        <time>2013-03-06T14:35:22.970Z</time>
      </trkpt>
      <trkpt lat="44.366" lon="2.85032">
        <ele>642</ele>
        <time>2013-03-06T14:35:24.100Z</time>
      </trkpt>
      <trkpt lat="44.36601" lon="2.85033">
        <ele>642</ele>
        <time>2013-03-06T14:35:25.970Z</time>
      </trkpt>
      <trkpt lat="44.36602" lon="2.85035">
        <ele>642</ele>
        <time>2013-03-06T14:35:35.050Z</time>
      </trkpt>
      <trkpt lat="44.36602" lon="2.85036">
        <ele>642</ele>
        <time>2013-03-06T14:35:43.050Z</time>
      </trkpt>
      <trkpt lat="44.36601" lon="2.85037">
        <ele>642</ele>
        <time>2013-03-06T14:35:48.050Z</time>
      </trkpt>
      <trkpt lat="44.36601" lon="2.85038">
        <ele>642</ele>
        <time>2013-03-06T14:35:50.110Z</time>
      </trkpt>
    </trkseg>
  </trk>
</gpx>